<?xml version="1.0" encoding="UTF-8"?>
<gpx creator="StravaGPX" xmlns:xsi="http://www.w3.org/2001/XMLSchema-instance" xsi:schemaLocation="http://www.topografix.com/GPX/1/1 http://www.topografix.com/GPX/1/1/gpx.xsd" version="1.1" xmlns="http://www.topografix.com/GPX/1/1">
 <metadata>
  <time>2018-12-27T09:37:51Z</time>
 </metadata>
 <trk>
  <name>Ciclismo por la mañana</name>
  <type>1</type>
  <trkseg>
   <trkpt lat="42.0573380" lon="2.7493440">
    <ele>316.0</ele>
    <time>2018-12-27T09:37:51Z</time>
   </trkpt>
   <trkpt lat="42.0573280" lon="2.7491520">
    <ele>317.0</ele>
    <time>2018-12-27T09:37:53Z</time>
   </trkpt>
   <trkpt lat="42.0574110" lon="2.7490600">
    <ele>318.0</ele>
    <time>2018-12-27T09:37:55Z</time>
   </trkpt>
   <trkpt lat="42.0575580" lon="2.7490670">
    <ele>319.3</ele>
    <time>2018-12-27T09:37:57Z</time>
   </trkpt>
   <trkpt lat="42.0576660" lon="2.7490070">
    <ele>320.5</ele>
    <time>2018-12-27T09:37:59Z</time>
   </trkpt>
   <trkpt lat="42.0577640" lon="2.7489350">
    <ele>321.6</ele>
    <time>2018-12-27T09:38:01Z</time>
   </trkpt>
   <trkpt lat="42.0578570" lon="2.7488490">
    <ele>323.2</ele>
    <time>2018-12-27T09:38:02Z</time>
   </trkpt>
   <trkpt lat="42.0579890" lon="2.7488230">
    <ele>324.6</ele>
    <time>2018-12-27T09:38:04Z</time>
   </trkpt>
   <trkpt lat="42.0580040" lon="2.7490070">
    <ele>325.1</ele>
    <time>2018-12-27T09:38:07Z</time>
   </trkpt>
   <trkpt lat="42.0579690" lon="2.7491790">
    <ele>324.9</ele>
    <time>2018-12-27T09:38:09Z</time>
   </trkpt>
   <trkpt lat="42.0579690" lon="2.7493830">
    <ele>324.5</ele>
    <time>2018-12-27T09:38:11Z</time>
   </trkpt>
   <trkpt lat="42.0579790" lon="2.7495750">
    <ele>323.7</ele>
    <time>2018-12-27T09:38:13Z</time>
   </trkpt>
   <trkpt lat="42.0579690" lon="2.7497660">
    <ele>323.2</ele>
    <time>2018-12-27T09:38:16Z</time>
   </trkpt>
   <trkpt lat="42.0579690" lon="2.7499700">
    <ele>322.8</ele>
    <time>2018-12-27T09:38:18Z</time>
   </trkpt>
   <trkpt lat="42.0579840" lon="2.7501550">
    <ele>322.0</ele>
    <time>2018-12-27T09:38:20Z</time>
   </trkpt>
   <trkpt lat="42.0579940" lon="2.7503460">
    <ele>320.9</ele>
    <time>2018-12-27T09:38:23Z</time>
   </trkpt>
   <trkpt lat="42.0579500" lon="2.7504920">
    <ele>320.1</ele>
    <time>2018-12-27T09:38:25Z</time>
   </trkpt>
   <trkpt lat="42.0578370" lon="2.7505440">
    <ele>319.3</ele>
    <time>2018-12-27T09:38:26Z</time>
   </trkpt>
   <trkpt lat="42.0577250" lon="2.7505970">
    <ele>318.9</ele>
    <time>2018-12-27T09:38:28Z</time>
   </trkpt>
   <trkpt lat="42.0576460" lon="2.7507030">
    <ele>318.6</ele>
    <time>2018-12-27T09:38:30Z</time>
   </trkpt>
   <trkpt lat="42.0575780" lon="2.7508150">
    <ele>318.0</ele>
    <time>2018-12-27T09:38:32Z</time>
   </trkpt>
   <trkpt lat="42.0574990" lon="2.7509200">
    <ele>317.3</ele>
    <time>2018-12-27T09:38:34Z</time>
   </trkpt>
   <trkpt lat="42.0574260" lon="2.7510320">
    <ele>316.6</ele>
    <time>2018-12-27T09:38:35Z</time>
   </trkpt>
   <trkpt lat="42.0573670" lon="2.7511580">
    <ele>315.9</ele>
    <time>2018-12-27T09:38:37Z</time>
   </trkpt>
   <trkpt lat="42.0573470" lon="2.7513360">
    <ele>315.2</ele>
    <time>2018-12-27T09:38:39Z</time>
   </trkpt>
   <trkpt lat="42.0573130" lon="2.7514940">
    <ele>314.7</ele>
    <time>2018-12-27T09:38:41Z</time>
   </trkpt>
   <trkpt lat="42.0572690" lon="2.7516390">
    <ele>314.5</ele>
    <time>2018-12-27T09:38:43Z</time>
   </trkpt>
   <trkpt lat="42.0572450" lon="2.7517980">
    <ele>314.4</ele>
    <time>2018-12-27T09:38:45Z</time>
   </trkpt>
   <trkpt lat="42.0572490" lon="2.7519960">
    <ele>314.0</ele>
    <time>2018-12-27T09:38:47Z</time>
   </trkpt>
   <trkpt lat="42.0572400" lon="2.7521870">
    <ele>313.4</ele>
    <time>2018-12-27T09:38:50Z</time>
   </trkpt>
   <trkpt lat="42.0572300" lon="2.7523850">
    <ele>312.5</ele>
    <time>2018-12-27T09:38:52Z</time>
   </trkpt>
   <trkpt lat="42.0571910" lon="2.7525370">
    <ele>312.2</ele>
    <time>2018-12-27T09:38:54Z</time>
   </trkpt>
   <trkpt lat="42.0571270" lon="2.7526550">
    <ele>311.7</ele>
    <time>2018-12-27T09:38:56Z</time>
   </trkpt>
   <trkpt lat="42.0570880" lon="2.7528070">
    <ele>311.0</ele>
    <time>2018-12-27T09:38:58Z</time>
   </trkpt>
   <trkpt lat="42.0570290" lon="2.7529390">
    <ele>310.3</ele>
    <time>2018-12-27T09:38:59Z</time>
   </trkpt>
   <trkpt lat="42.0570000" lon="2.7531100">
    <ele>309.5</ele>
    <time>2018-12-27T09:39:02Z</time>
   </trkpt>
   <trkpt lat="42.0570040" lon="2.7533080">
    <ele>308.4</ele>
    <time>2018-12-27T09:39:04Z</time>
   </trkpt>
   <trkpt lat="42.0570190" lon="2.7534930">
    <ele>307.3</ele>
    <time>2018-12-27T09:39:06Z</time>
   </trkpt>
   <trkpt lat="42.0570440" lon="2.7536650">
    <ele>306.3</ele>
    <time>2018-12-27T09:39:08Z</time>
   </trkpt>
   <trkpt lat="42.0570390" lon="2.7538620">
    <ele>305.3</ele>
    <time>2018-12-27T09:39:11Z</time>
   </trkpt>
   <trkpt lat="42.0570390" lon="2.7540730">
    <ele>304.3</ele>
    <time>2018-12-27T09:39:13Z</time>
   </trkpt>
   <trkpt lat="42.0570100" lon="2.7542380">
    <ele>303.5</ele>
    <time>2018-12-27T09:39:15Z</time>
   </trkpt>
   <trkpt lat="42.0568150" lon="2.7543090">
    <ele>302.3</ele>
    <time>2018-12-27T09:45:11Z</time>
   </trkpt>
   <trkpt lat="42.0567920" lon="2.7542770">
    <ele>302.2</ele>
    <time>2018-12-27T09:45:12Z</time>
   </trkpt>
   <trkpt lat="42.0566550" lon="2.7540860">
    <ele>301.8</ele>
    <time>2018-12-27T09:45:15Z</time>
   </trkpt>
   <trkpt lat="42.0565580" lon="2.7539650">
    <ele>301.4</ele>
    <time>2018-12-27T09:45:17Z</time>
   </trkpt>
   <trkpt lat="42.0564250" lon="2.7538930">
    <ele>301.0</ele>
    <time>2018-12-27T09:45:19Z</time>
   </trkpt>
   <trkpt lat="42.0563080" lon="2.7538150">
    <ele>300.5</ele>
    <time>2018-12-27T09:45:21Z</time>
   </trkpt>
   <trkpt lat="42.0562010" lon="2.7537950">
    <ele>300.2</ele>
    <time>2018-12-27T09:45:23Z</time>
   </trkpt>
   <trkpt lat="42.0560910" lon="2.7537610">
    <ele>299.8</ele>
    <time>2018-12-27T09:45:25Z</time>
   </trkpt>
   <trkpt lat="42.0559460" lon="2.7538030">
    <ele>299.4</ele>
    <time>2018-12-27T09:45:27Z</time>
   </trkpt>
   <trkpt lat="42.0558200" lon="2.7537730">
    <ele>299.2</ele>
    <time>2018-12-27T09:45:29Z</time>
   </trkpt>
   <trkpt lat="42.0557080" lon="2.7537800">
    <ele>299.0</ele>
    <time>2018-12-27T09:45:31Z</time>
   </trkpt>
   <trkpt lat="42.0556100" lon="2.7537730">
    <ele>298.9</ele>
    <time>2018-12-27T09:45:33Z</time>
   </trkpt>
   <trkpt lat="42.0555410" lon="2.7538180">
    <ele>298.8</ele>
    <time>2018-12-27T09:45:34Z</time>
   </trkpt>
   <trkpt lat="42.0555350" lon="2.7538950">
    <ele>298.8</ele>
    <time>2018-12-27T09:45:35Z</time>
   </trkpt>
   <trkpt lat="42.0555510" lon="2.7540580">
    <ele>298.8</ele>
    <time>2018-12-27T09:45:37Z</time>
   </trkpt>
   <trkpt lat="42.0555510" lon="2.7542250">
    <ele>298.7</ele>
    <time>2018-12-27T09:45:39Z</time>
   </trkpt>
   <trkpt lat="42.0555800" lon="2.7544060">
    <ele>298.2</ele>
    <time>2018-12-27T09:45:41Z</time>
   </trkpt>
   <trkpt lat="42.0555830" lon="2.7545880">
    <ele>297.6</ele>
    <time>2018-12-27T09:45:43Z</time>
   </trkpt>
   <trkpt lat="42.0556610" lon="2.7547010">
    <ele>297.0</ele>
    <time>2018-12-27T09:45:45Z</time>
   </trkpt>
   <trkpt lat="42.0556960" lon="2.7548180">
    <ele>296.6</ele>
    <time>2018-12-27T09:45:46Z</time>
   </trkpt>
   <trkpt lat="42.0557060" lon="2.7550080">
    <ele>295.5</ele>
    <time>2018-12-27T09:45:49Z</time>
   </trkpt>
   <trkpt lat="42.0557350" lon="2.7551760">
    <ele>294.2</ele>
    <time>2018-12-27T09:45:51Z</time>
   </trkpt>
   <trkpt lat="42.0557900" lon="2.7553450">
    <ele>293.2</ele>
    <time>2018-12-27T09:45:53Z</time>
   </trkpt>
   <trkpt lat="42.0557930" lon="2.7555560">
    <ele>292.9</ele>
    <time>2018-12-27T09:45:55Z</time>
   </trkpt>
   <trkpt lat="42.0557860" lon="2.7558010">
    <ele>293.8</ele>
    <time>2018-12-27T09:45:58Z</time>
   </trkpt>
   <trkpt lat="42.0557000" lon="2.7560300">
    <ele>295.4</ele>
    <time>2018-12-27T09:46:01Z</time>
   </trkpt>
   <trkpt lat="42.0556760" lon="2.7561600">
    <ele>296.1</ele>
    <time>2018-12-27T09:46:03Z</time>
   </trkpt>
   <trkpt lat="42.0556330" lon="2.7562860">
    <ele>296.6</ele>
    <time>2018-12-27T09:46:05Z</time>
   </trkpt>
   <trkpt lat="42.0555830" lon="2.7563910">
    <ele>296.9</ele>
    <time>2018-12-27T09:46:06Z</time>
   </trkpt>
   <trkpt lat="42.0555230" lon="2.7565100">
    <ele>297.1</ele>
    <time>2018-12-27T09:46:08Z</time>
   </trkpt>
   <trkpt lat="42.0554450" lon="2.7566200">
    <ele>297.2</ele>
    <time>2018-12-27T09:46:10Z</time>
   </trkpt>
   <trkpt lat="42.0553700" lon="2.7567380">
    <ele>297.2</ele>
    <time>2018-12-27T09:46:12Z</time>
   </trkpt>
   <trkpt lat="42.0553010" lon="2.7568550">
    <ele>297.2</ele>
    <time>2018-12-27T09:46:13Z</time>
   </trkpt>
   <trkpt lat="42.0552410" lon="2.7569360">
    <ele>297.2</ele>
    <time>2018-12-27T09:46:15Z</time>
   </trkpt>
   <trkpt lat="42.0552000" lon="2.7570310">
    <ele>297.2</ele>
    <time>2018-12-27T09:46:16Z</time>
   </trkpt>
   <trkpt lat="42.0551150" lon="2.7571910">
    <ele>297.2</ele>
    <time>2018-12-27T09:46:18Z</time>
   </trkpt>
   <trkpt lat="42.0550110" lon="2.7573980">
    <ele>297.2</ele>
    <time>2018-12-27T09:46:21Z</time>
   </trkpt>
   <trkpt lat="42.0549060" lon="2.7575210">
    <ele>297.2</ele>
    <time>2018-12-27T09:46:24Z</time>
   </trkpt>
   <trkpt lat="42.0548260" lon="2.7576030">
    <ele>297.1</ele>
    <time>2018-12-27T09:46:25Z</time>
   </trkpt>
   <trkpt lat="42.0547500" lon="2.7577130">
    <ele>296.8</ele>
    <time>2018-12-27T09:46:27Z</time>
   </trkpt>
   <trkpt lat="42.0546280" lon="2.7578330">
    <ele>296.0</ele>
    <time>2018-12-27T09:46:29Z</time>
   </trkpt>
   <trkpt lat="42.0545080" lon="2.7579500">
    <ele>295.3</ele>
    <time>2018-12-27T09:46:32Z</time>
   </trkpt>
   <trkpt lat="42.0544000" lon="2.7581010">
    <ele>294.5</ele>
    <time>2018-12-27T09:46:34Z</time>
   </trkpt>
   <trkpt lat="42.0543300" lon="2.7582680">
    <ele>293.6</ele>
    <time>2018-12-27T09:46:36Z</time>
   </trkpt>
   <trkpt lat="42.0542280" lon="2.7584510">
    <ele>292.7</ele>
    <time>2018-12-27T09:46:39Z</time>
   </trkpt>
   <trkpt lat="42.0541780" lon="2.7586350">
    <ele>291.8</ele>
    <time>2018-12-27T09:46:42Z</time>
   </trkpt>
   <trkpt lat="42.0541530" lon="2.7588160">
    <ele>291.1</ele>
    <time>2018-12-27T09:46:44Z</time>
   </trkpt>
   <trkpt lat="42.0541400" lon="2.7589510">
    <ele>290.6</ele>
    <time>2018-12-27T09:46:45Z</time>
   </trkpt>
   <trkpt lat="42.0541280" lon="2.7591110">
    <ele>289.8</ele>
    <time>2018-12-27T09:46:47Z</time>
   </trkpt>
   <trkpt lat="42.0541150" lon="2.7592430">
    <ele>289.1</ele>
    <time>2018-12-27T09:46:49Z</time>
   </trkpt>
   <trkpt lat="42.0540930" lon="2.7593960">
    <ele>288.1</ele>
    <time>2018-12-27T09:46:51Z</time>
   </trkpt>
   <trkpt lat="42.0540130" lon="2.7595930">
    <ele>286.4</ele>
    <time>2018-12-27T09:46:53Z</time>
   </trkpt>
   <trkpt lat="42.0539330" lon="2.7598110">
    <ele>283.9</ele>
    <time>2018-12-27T09:46:56Z</time>
   </trkpt>
   <trkpt lat="42.0538300" lon="2.7599850">
    <ele>281.7</ele>
    <time>2018-12-27T09:46:59Z</time>
   </trkpt>
   <trkpt lat="42.0537350" lon="2.7601550">
    <ele>280.6</ele>
    <time>2018-12-27T09:47:01Z</time>
   </trkpt>
   <trkpt lat="42.0536510" lon="2.7603080">
    <ele>280.0</ele>
    <time>2018-12-27T09:47:04Z</time>
   </trkpt>
   <trkpt lat="42.0535680" lon="2.7604910">
    <ele>279.1</ele>
    <time>2018-12-27T09:47:06Z</time>
   </trkpt>
   <trkpt lat="42.0534850" lon="2.7606260">
    <ele>278.6</ele>
    <time>2018-12-27T09:47:08Z</time>
   </trkpt>
   <trkpt lat="42.0534130" lon="2.7607760">
    <ele>278.4</ele>
    <time>2018-12-27T09:47:10Z</time>
   </trkpt>
   <trkpt lat="42.0532500" lon="2.7608900">
    <ele>278.4</ele>
    <time>2018-12-27T09:47:13Z</time>
   </trkpt>
   <trkpt lat="42.0530750" lon="2.7609160">
    <ele>278.4</ele>
    <time>2018-12-27T09:47:16Z</time>
   </trkpt>
   <trkpt lat="42.0529600" lon="2.7608330">
    <ele>278.5</ele>
    <time>2018-12-27T09:47:18Z</time>
   </trkpt>
   <trkpt lat="42.0529150" lon="2.7607380">
    <ele>278.7</ele>
    <time>2018-12-27T09:47:20Z</time>
   </trkpt>
   <trkpt lat="42.0528130" lon="2.7606450">
    <ele>279.3</ele>
    <time>2018-12-27T09:47:22Z</time>
   </trkpt>
   <trkpt lat="42.0527200" lon="2.7605580">
    <ele>280.2</ele>
    <time>2018-12-27T09:47:23Z</time>
   </trkpt>
   <trkpt lat="42.0525960" lon="2.7604450">
    <ele>281.4</ele>
    <time>2018-12-27T09:47:26Z</time>
   </trkpt>
   <trkpt lat="42.0524960" lon="2.7603400">
    <ele>282.5</ele>
    <time>2018-12-27T09:47:28Z</time>
   </trkpt>
   <trkpt lat="42.0524130" lon="2.7602250">
    <ele>283.5</ele>
    <time>2018-12-27T09:47:30Z</time>
   </trkpt>
   <trkpt lat="42.0523450" lon="2.7601380">
    <ele>284.1</ele>
    <time>2018-12-27T09:47:31Z</time>
   </trkpt>
   <trkpt lat="42.0522650" lon="2.7600560">
    <ele>284.7</ele>
    <time>2018-12-27T09:47:33Z</time>
   </trkpt>
   <trkpt lat="42.0521710" lon="2.7599760">
    <ele>285.2</ele>
    <time>2018-12-27T09:47:35Z</time>
   </trkpt>
   <trkpt lat="42.0520910" lon="2.7599000">
    <ele>285.6</ele>
    <time>2018-12-27T09:47:36Z</time>
   </trkpt>
   <trkpt lat="42.0520060" lon="2.7598130">
    <ele>285.8</ele>
    <time>2018-12-27T09:47:38Z</time>
   </trkpt>
   <trkpt lat="42.0519050" lon="2.7597380">
    <ele>286.0</ele>
    <time>2018-12-27T09:47:40Z</time>
   </trkpt>
   <trkpt lat="42.0517850" lon="2.7597880">
    <ele>286.2</ele>
    <time>2018-12-27T09:47:42Z</time>
   </trkpt>
   <trkpt lat="42.0516750" lon="2.7597980">
    <ele>286.5</ele>
    <time>2018-12-27T09:47:44Z</time>
   </trkpt>
   <trkpt lat="42.0515550" lon="2.7597900">
    <ele>287.0</ele>
    <time>2018-12-27T09:47:45Z</time>
   </trkpt>
   <trkpt lat="42.0514230" lon="2.7597860">
    <ele>287.7</ele>
    <time>2018-12-27T09:47:48Z</time>
   </trkpt>
   <trkpt lat="42.0512910" lon="2.7597800">
    <ele>288.6</ele>
    <time>2018-12-27T09:47:50Z</time>
   </trkpt>
   <trkpt lat="42.0511810" lon="2.7597560">
    <ele>289.4</ele>
    <time>2018-12-27T09:47:51Z</time>
   </trkpt>
   <trkpt lat="42.0511060" lon="2.7597100">
    <ele>290.0</ele>
    <time>2018-12-27T09:47:53Z</time>
   </trkpt>
   <trkpt lat="42.0510360" lon="2.7596410">
    <ele>290.7</ele>
    <time>2018-12-27T09:47:54Z</time>
   </trkpt>
   <trkpt lat="42.0509110" lon="2.7596010">
    <ele>291.7</ele>
    <time>2018-12-27T09:47:56Z</time>
   </trkpt>
   <trkpt lat="42.0508050" lon="2.7595650">
    <ele>292.4</ele>
    <time>2018-12-27T09:47:58Z</time>
   </trkpt>
   <trkpt lat="42.0506780" lon="2.7595550">
    <ele>293.2</ele>
    <time>2018-12-27T09:48:00Z</time>
   </trkpt>
   <trkpt lat="42.0505750" lon="2.7594950">
    <ele>293.9</ele>
    <time>2018-12-27T09:48:02Z</time>
   </trkpt>
   <trkpt lat="42.0504510" lon="2.7594930">
    <ele>294.6</ele>
    <time>2018-12-27T09:48:04Z</time>
   </trkpt>
   <trkpt lat="42.0503710" lon="2.7595550">
    <ele>295.3</ele>
    <time>2018-12-27T09:48:05Z</time>
   </trkpt>
   <trkpt lat="42.0502830" lon="2.7596010">
    <ele>295.9</ele>
    <time>2018-12-27T09:48:07Z</time>
   </trkpt>
   <trkpt lat="42.0502150" lon="2.7596400">
    <ele>296.4</ele>
    <time>2018-12-27T09:48:08Z</time>
   </trkpt>
   <trkpt lat="42.0501100" lon="2.7596460">
    <ele>297.0</ele>
    <time>2018-12-27T09:48:10Z</time>
   </trkpt>
   <trkpt lat="42.0499810" lon="2.7596750">
    <ele>297.6</ele>
    <time>2018-12-27T09:48:12Z</time>
   </trkpt>
   <trkpt lat="42.0498410" lon="2.7596680">
    <ele>298.3</ele>
    <time>2018-12-27T09:48:14Z</time>
   </trkpt>
   <trkpt lat="42.0497060" lon="2.7596510">
    <ele>298.4</ele>
    <time>2018-12-27T09:48:16Z</time>
   </trkpt>
   <trkpt lat="42.0495930" lon="2.7596430">
    <ele>298.3</ele>
    <time>2018-12-27T09:48:18Z</time>
   </trkpt>
   <trkpt lat="42.0494880" lon="2.7596730">
    <ele>298.5</ele>
    <time>2018-12-27T09:48:20Z</time>
   </trkpt>
   <trkpt lat="42.0493810" lon="2.7597230">
    <ele>298.8</ele>
    <time>2018-12-27T09:48:21Z</time>
   </trkpt>
   <trkpt lat="42.0493030" lon="2.7597730">
    <ele>298.9</ele>
    <time>2018-12-27T09:48:23Z</time>
   </trkpt>
   <trkpt lat="42.0492060" lon="2.7598210">
    <ele>299.0</ele>
    <time>2018-12-27T09:48:25Z</time>
   </trkpt>
   <trkpt lat="42.0490800" lon="2.7598710">
    <ele>298.9</ele>
    <time>2018-12-27T09:48:27Z</time>
   </trkpt>
   <trkpt lat="42.0489550" lon="2.7599360">
    <ele>298.8</ele>
    <time>2018-12-27T09:48:29Z</time>
   </trkpt>
   <trkpt lat="42.0488500" lon="2.7599780">
    <ele>298.6</ele>
    <time>2018-12-27T09:48:31Z</time>
   </trkpt>
   <trkpt lat="42.0487750" lon="2.7599960">
    <ele>298.3</ele>
    <time>2018-12-27T09:48:32Z</time>
   </trkpt>
   <trkpt lat="42.0487250" lon="2.7600080">
    <ele>298.1</ele>
    <time>2018-12-27T09:48:33Z</time>
   </trkpt>
   <trkpt lat="42.0486680" lon="2.7600010">
    <ele>297.8</ele>
    <time>2018-12-27T09:48:33Z</time>
   </trkpt>
   <trkpt lat="42.0485800" lon="2.7600180">
    <ele>297.4</ele>
    <time>2018-12-27T09:48:35Z</time>
   </trkpt>
   <trkpt lat="42.0483160" lon="2.7600110">
    <ele>296.0</ele>
    <time>2018-12-27T09:48:39Z</time>
   </trkpt>
   <trkpt lat="42.0480100" lon="2.7599300">
    <ele>293.3</ele>
    <time>2018-12-27T09:48:44Z</time>
   </trkpt>
   <trkpt lat="42.0476510" lon="2.7597960">
    <ele>289.2</ele>
    <time>2018-12-27T09:48:50Z</time>
   </trkpt>
   <trkpt lat="42.0473350" lon="2.7597100">
    <ele>286.0</ele>
    <time>2018-12-27T09:48:55Z</time>
   </trkpt>
   <trkpt lat="42.0470130" lon="2.7596900">
    <ele>282.9</ele>
    <time>2018-12-27T09:49:00Z</time>
   </trkpt>
   <trkpt lat="42.0466350" lon="2.7596810">
    <ele>278.2</ele>
    <time>2018-12-27T09:49:06Z</time>
   </trkpt>
   <trkpt lat="42.0463110" lon="2.7597550">
    <ele>274.3</ele>
    <time>2018-12-27T09:49:12Z</time>
   </trkpt>
   <trkpt lat="42.0460350" lon="2.7599210">
    <ele>271.2</ele>
    <time>2018-12-27T09:49:17Z</time>
   </trkpt>
   <trkpt lat="42.0457300" lon="2.7600950">
    <ele>268.0</ele>
    <time>2018-12-27T09:49:22Z</time>
   </trkpt>
   <trkpt lat="42.0454530" lon="2.7602950">
    <ele>264.6</ele>
    <time>2018-12-27T09:49:27Z</time>
   </trkpt>
   <trkpt lat="42.0451680" lon="2.7604880">
    <ele>260.3</ele>
    <time>2018-12-27T09:49:32Z</time>
   </trkpt>
   <trkpt lat="42.0448680" lon="2.7607060">
    <ele>254.9</ele>
    <time>2018-12-27T09:49:37Z</time>
   </trkpt>
   <trkpt lat="42.0444710" lon="2.7606660">
    <ele>249.9</ele>
    <time>2018-12-27T09:49:44Z</time>
   </trkpt>
   <trkpt lat="42.0441300" lon="2.7606330">
    <ele>247.9</ele>
    <time>2018-12-27T09:49:49Z</time>
   </trkpt>
   <trkpt lat="42.0438110" lon="2.7606160">
    <ele>246.1</ele>
    <time>2018-12-27T09:49:54Z</time>
   </trkpt>
   <trkpt lat="42.0435050" lon="2.7607610">
    <ele>243.5</ele>
    <time>2018-12-27T09:50:00Z</time>
   </trkpt>
   <trkpt lat="42.0431230" lon="2.7608110">
    <ele>240.1</ele>
    <time>2018-12-27T09:50:06Z</time>
   </trkpt>
   <trkpt lat="42.0427300" lon="2.7607400">
    <ele>237.2</ele>
    <time>2018-12-27T09:50:12Z</time>
   </trkpt>
   <trkpt lat="42.0423780" lon="2.7606900">
    <ele>235.3</ele>
    <time>2018-12-27T09:50:18Z</time>
   </trkpt>
   <trkpt lat="42.0420330" lon="2.7606810">
    <ele>233.9</ele>
    <time>2018-12-27T09:50:23Z</time>
   </trkpt>
   <trkpt lat="42.0416730" lon="2.7607360">
    <ele>232.5</ele>
    <time>2018-12-27T09:50:29Z</time>
   </trkpt>
   <trkpt lat="42.0412930" lon="2.7607930">
    <ele>230.5</ele>
    <time>2018-12-27T09:50:35Z</time>
   </trkpt>
   <trkpt lat="42.0409460" lon="2.7608180">
    <ele>228.5</ele>
    <time>2018-12-27T09:50:41Z</time>
   </trkpt>
   <trkpt lat="42.0406980" lon="2.7608350">
    <ele>227.0</ele>
    <time>2018-12-27T09:50:45Z</time>
   </trkpt>
   <trkpt lat="42.0405500" lon="2.7608750">
    <ele>226.3</ele>
    <time>2018-12-27T09:50:47Z</time>
   </trkpt>
   <trkpt lat="42.0404380" lon="2.7609200">
    <ele>225.9</ele>
    <time>2018-12-27T09:50:49Z</time>
   </trkpt>
   <trkpt lat="42.0403530" lon="2.7609730">
    <ele>225.8</ele>
    <time>2018-12-27T09:50:51Z</time>
   </trkpt>
   <trkpt lat="42.0402850" lon="2.7610380">
    <ele>225.7</ele>
    <time>2018-12-27T09:50:52Z</time>
   </trkpt>
   <trkpt lat="42.0401860" lon="2.7610950">
    <ele>225.7</ele>
    <time>2018-12-27T09:50:54Z</time>
   </trkpt>
   <trkpt lat="42.0400730" lon="2.7611430">
    <ele>225.8</ele>
    <time>2018-12-27T09:50:56Z</time>
   </trkpt>
   <trkpt lat="42.0400210" lon="2.7612250">
    <ele>225.9</ele>
    <time>2018-12-27T09:50:57Z</time>
   </trkpt>
   <trkpt lat="42.0398930" lon="2.7612580">
    <ele>226.1</ele>
    <time>2018-12-27T09:50:59Z</time>
   </trkpt>
   <trkpt lat="42.0397810" lon="2.7613380">
    <ele>226.4</ele>
    <time>2018-12-27T09:51:01Z</time>
   </trkpt>
   <trkpt lat="42.0396410" lon="2.7614160">
    <ele>226.7</ele>
    <time>2018-12-27T09:51:03Z</time>
   </trkpt>
   <trkpt lat="42.0395130" lon="2.7615080">
    <ele>226.7</ele>
    <time>2018-12-27T09:51:06Z</time>
   </trkpt>
   <trkpt lat="42.0393600" lon="2.7615830">
    <ele>226.7</ele>
    <time>2018-12-27T09:51:08Z</time>
   </trkpt>
   <trkpt lat="42.0392130" lon="2.7615660">
    <ele>226.6</ele>
    <time>2018-12-27T09:51:11Z</time>
   </trkpt>
   <trkpt lat="42.0389900" lon="2.7615500">
    <ele>226.4</ele>
    <time>2018-12-27T09:51:14Z</time>
   </trkpt>
   <trkpt lat="42.0386760" lon="2.7615710">
    <ele>225.9</ele>
    <time>2018-12-27T09:51:19Z</time>
   </trkpt>
   <trkpt lat="42.0383360" lon="2.7615980">
    <ele>224.9</ele>
    <time>2018-12-27T09:51:25Z</time>
   </trkpt>
   <trkpt lat="42.0379810" lon="2.7616450">
    <ele>223.2</ele>
    <time>2018-12-27T09:51:30Z</time>
   </trkpt>
   <trkpt lat="42.0376060" lon="2.7616450">
    <ele>221.4</ele>
    <time>2018-12-27T09:51:36Z</time>
   </trkpt>
   <trkpt lat="42.0373300" lon="2.7616960">
    <ele>219.1</ele>
    <time>2018-12-27T09:51:41Z</time>
   </trkpt>
   <trkpt lat="42.0371500" lon="2.7615860">
    <ele>217.0</ele>
    <time>2018-12-27T09:51:44Z</time>
   </trkpt>
   <trkpt lat="42.0370250" lon="2.7613180">
    <ele>213.8</ele>
    <time>2018-12-27T09:51:48Z</time>
   </trkpt>
   <trkpt lat="42.0370480" lon="2.7609810">
    <ele>211.0</ele>
    <time>2018-12-27T09:51:52Z</time>
   </trkpt>
   <trkpt lat="42.0370430" lon="2.7606900">
    <ele>209.0</ele>
    <time>2018-12-27T09:51:55Z</time>
   </trkpt>
   <trkpt lat="42.0369910" lon="2.7604300">
    <ele>206.9</ele>
    <time>2018-12-27T09:51:58Z</time>
   </trkpt>
   <trkpt lat="42.0369350" lon="2.7601610">
    <ele>204.7</ele>
    <time>2018-12-27T09:52:02Z</time>
   </trkpt>
   <trkpt lat="42.0368450" lon="2.7599480">
    <ele>202.8</ele>
    <time>2018-12-27T09:52:05Z</time>
   </trkpt>
   <trkpt lat="42.0366400" lon="2.7598860">
    <ele>200.0</ele>
    <time>2018-12-27T09:52:08Z</time>
   </trkpt>
   <trkpt lat="42.0363950" lon="2.7598710">
    <ele>197.0</ele>
    <time>2018-12-27T09:52:12Z</time>
   </trkpt>
   <trkpt lat="42.0361810" lon="2.7598760">
    <ele>194.8</ele>
    <time>2018-12-27T09:52:15Z</time>
   </trkpt>
   <trkpt lat="42.0360360" lon="2.7599310">
    <ele>193.2</ele>
    <time>2018-12-27T09:52:18Z</time>
   </trkpt>
   <trkpt lat="42.0359610" lon="2.7597510">
    <ele>191.3</ele>
    <time>2018-12-27T09:52:20Z</time>
   </trkpt>
   <trkpt lat="42.0358400" lon="2.7596150">
    <ele>188.5</ele>
    <time>2018-12-27T09:52:23Z</time>
   </trkpt>
   <trkpt lat="42.0359350" lon="2.7593680">
    <ele>187.3</ele>
    <time>2018-12-27T09:52:26Z</time>
   </trkpt>
   <trkpt lat="42.0360800" lon="2.7590550">
    <ele>185.8</ele>
    <time>2018-12-27T09:52:31Z</time>
   </trkpt>
   <trkpt lat="42.0363280" lon="2.7587080">
    <ele>183.1</ele>
    <time>2018-12-27T09:52:36Z</time>
   </trkpt>
   <trkpt lat="42.0367230" lon="2.7585060">
    <ele>181.2</ele>
    <time>2018-12-27T09:52:43Z</time>
   </trkpt>
   <trkpt lat="42.0370460" lon="2.7582980">
    <ele>180.4</ele>
    <time>2018-12-27T09:52:49Z</time>
   </trkpt>
   <trkpt lat="42.0372600" lon="2.7581300">
    <ele>179.5</ele>
    <time>2018-12-27T09:52:53Z</time>
   </trkpt>
   <trkpt lat="42.0371650" lon="2.7578680">
    <ele>179.7</ele>
    <time>2018-12-27T09:52:56Z</time>
   </trkpt>
   <trkpt lat="42.0368910" lon="2.7577100">
    <ele>179.0</ele>
    <time>2018-12-27T09:53:01Z</time>
   </trkpt>
   <trkpt lat="42.0366580" lon="2.7576080">
    <ele>178.5</ele>
    <time>2018-12-27T09:53:05Z</time>
   </trkpt>
   <trkpt lat="42.0365060" lon="2.7573150">
    <ele>178.1</ele>
    <time>2018-12-27T09:53:09Z</time>
   </trkpt>
   <trkpt lat="42.0365310" lon="2.7569310">
    <ele>177.7</ele>
    <time>2018-12-27T09:53:14Z</time>
   </trkpt>
   <trkpt lat="42.0365910" lon="2.7566350">
    <ele>177.8</ele>
    <time>2018-12-27T09:53:17Z</time>
   </trkpt>
   <trkpt lat="42.0366610" lon="2.7564950">
    <ele>178.4</ele>
    <time>2018-12-27T09:53:19Z</time>
   </trkpt>
   <trkpt lat="42.0366800" lon="2.7563760">
    <ele>178.9</ele>
    <time>2018-12-27T09:53:21Z</time>
   </trkpt>
   <trkpt lat="42.0366910" lon="2.7561930">
    <ele>179.9</ele>
    <time>2018-12-27T09:53:23Z</time>
   </trkpt>
   <trkpt lat="42.0367030" lon="2.7560700">
    <ele>180.7</ele>
    <time>2018-12-27T09:53:24Z</time>
   </trkpt>
   <trkpt lat="42.0367680" lon="2.7559650">
    <ele>181.5</ele>
    <time>2018-12-27T09:53:26Z</time>
   </trkpt>
   <trkpt lat="42.0368130" lon="2.7557980">
    <ele>182.4</ele>
    <time>2018-12-27T09:53:28Z</time>
   </trkpt>
   <trkpt lat="42.0368680" lon="2.7556310">
    <ele>183.3</ele>
    <time>2018-12-27T09:53:30Z</time>
   </trkpt>
   <trkpt lat="42.0369500" lon="2.7555250">
    <ele>183.9</ele>
    <time>2018-12-27T09:53:32Z</time>
   </trkpt>
   <trkpt lat="42.0370100" lon="2.7554060">
    <ele>184.4</ele>
    <time>2018-12-27T09:53:34Z</time>
   </trkpt>
   <trkpt lat="42.0370630" lon="2.7553200">
    <ele>184.7</ele>
    <time>2018-12-27T09:53:35Z</time>
   </trkpt>
   <trkpt lat="42.0371050" lon="2.7551760">
    <ele>185.1</ele>
    <time>2018-12-27T09:53:37Z</time>
   </trkpt>
   <trkpt lat="42.0371300" lon="2.7550410">
    <ele>185.5</ele>
    <time>2018-12-27T09:53:39Z</time>
   </trkpt>
   <trkpt lat="42.0371910" lon="2.7549480">
    <ele>185.8</ele>
    <time>2018-12-27T09:53:40Z</time>
   </trkpt>
   <trkpt lat="42.0372500" lon="2.7548410">
    <ele>186.1</ele>
    <time>2018-12-27T09:53:42Z</time>
   </trkpt>
   <trkpt lat="42.0373110" lon="2.7547410">
    <ele>186.4</ele>
    <time>2018-12-27T09:53:43Z</time>
   </trkpt>
   <trkpt lat="42.0373430" lon="2.7546010">
    <ele>186.8</ele>
    <time>2018-12-27T09:53:45Z</time>
   </trkpt>
   <trkpt lat="42.0373800" lon="2.7545230">
    <ele>187.0</ele>
    <time>2018-12-27T09:53:46Z</time>
   </trkpt>
   <trkpt lat="42.0374330" lon="2.7544330">
    <ele>187.4</ele>
    <time>2018-12-27T09:53:48Z</time>
   </trkpt>
   <trkpt lat="42.0374600" lon="2.7542700">
    <ele>188.0</ele>
    <time>2018-12-27T09:53:50Z</time>
   </trkpt>
   <trkpt lat="42.0375180" lon="2.7541850">
    <ele>188.4</ele>
    <time>2018-12-27T09:53:51Z</time>
   </trkpt>
   <trkpt lat="42.0375660" lon="2.7540580">
    <ele>188.9</ele>
    <time>2018-12-27T09:53:53Z</time>
   </trkpt>
   <trkpt lat="42.0376200" lon="2.7539060">
    <ele>189.7</ele>
    <time>2018-12-27T09:53:55Z</time>
   </trkpt>
   <trkpt lat="42.0376760" lon="2.7537860">
    <ele>190.6</ele>
    <time>2018-12-27T09:53:56Z</time>
   </trkpt>
   <trkpt lat="42.0377060" lon="2.7536550">
    <ele>191.4</ele>
    <time>2018-12-27T09:53:58Z</time>
   </trkpt>
   <trkpt lat="42.0377900" lon="2.7535650">
    <ele>192.1</ele>
    <time>2018-12-27T09:54:00Z</time>
   </trkpt>
   <trkpt lat="42.0378200" lon="2.7534510">
    <ele>192.7</ele>
    <time>2018-12-27T09:54:01Z</time>
   </trkpt>
   <trkpt lat="42.0379130" lon="2.7534100">
    <ele>193.3</ele>
    <time>2018-12-27T09:54:03Z</time>
   </trkpt>
   <trkpt lat="42.0380230" lon="2.7533380">
    <ele>194.2</ele>
    <time>2018-12-27T09:54:05Z</time>
   </trkpt>
   <trkpt lat="42.0381130" lon="2.7532980">
    <ele>194.9</ele>
    <time>2018-12-27T09:54:06Z</time>
   </trkpt>
   <trkpt lat="42.0381950" lon="2.7531850">
    <ele>195.9</ele>
    <time>2018-12-27T09:54:08Z</time>
   </trkpt>
   <trkpt lat="42.0382660" lon="2.7530950">
    <ele>196.8</ele>
    <time>2018-12-27T09:54:10Z</time>
   </trkpt>
   <trkpt lat="42.0383800" lon="2.7530330">
    <ele>198.0</ele>
    <time>2018-12-27T09:54:12Z</time>
   </trkpt>
   <trkpt lat="42.0384230" lon="2.7529400">
    <ele>198.8</ele>
    <time>2018-12-27T09:54:13Z</time>
   </trkpt>
   <trkpt lat="42.0384810" lon="2.7528680">
    <ele>199.5</ele>
    <time>2018-12-27T09:54:14Z</time>
   </trkpt>
   <trkpt lat="42.0385610" lon="2.7528480">
    <ele>200.3</ele>
    <time>2018-12-27T09:54:15Z</time>
   </trkpt>
   <trkpt lat="42.0386700" lon="2.7527580">
    <ele>201.4</ele>
    <time>2018-12-27T09:54:17Z</time>
   </trkpt>
   <trkpt lat="42.0387450" lon="2.7527010">
    <ele>202.1</ele>
    <time>2018-12-27T09:54:19Z</time>
   </trkpt>
   <trkpt lat="42.0388050" lon="2.7526800">
    <ele>202.6</ele>
    <time>2018-12-27T09:54:20Z</time>
   </trkpt>
   <trkpt lat="42.0388910" lon="2.7526900">
    <ele>203.1</ele>
    <time>2018-12-27T09:54:21Z</time>
   </trkpt>
   <trkpt lat="42.0389660" lon="2.7526560">
    <ele>203.6</ele>
    <time>2018-12-27T09:54:22Z</time>
   </trkpt>
   <trkpt lat="42.0390410" lon="2.7526060">
    <ele>204.0</ele>
    <time>2018-12-27T09:54:24Z</time>
   </trkpt>
   <trkpt lat="42.0390410" lon="2.7526880">
    <ele>204.4</ele>
    <time>2018-12-27T09:54:25Z</time>
   </trkpt>
   <trkpt lat="42.0391380" lon="2.7525850">
    <ele>205.1</ele>
    <time>2018-12-27T09:54:27Z</time>
   </trkpt>
   <trkpt lat="42.0392700" lon="2.7524880">
    <ele>206.0</ele>
    <time>2018-12-27T09:54:29Z</time>
   </trkpt>
   <trkpt lat="42.0393830" lon="2.7523850">
    <ele>206.7</ele>
    <time>2018-12-27T09:54:31Z</time>
   </trkpt>
   <trkpt lat="42.0395160" lon="2.7523260">
    <ele>207.4</ele>
    <time>2018-12-27T09:54:34Z</time>
   </trkpt>
   <trkpt lat="42.0396310" lon="2.7522180">
    <ele>208.2</ele>
    <time>2018-12-27T09:54:36Z</time>
   </trkpt>
   <trkpt lat="42.0397150" lon="2.7520980">
    <ele>208.9</ele>
    <time>2018-12-27T09:54:38Z</time>
   </trkpt>
   <trkpt lat="42.0398180" lon="2.7520460">
    <ele>209.6</ele>
    <time>2018-12-27T09:54:40Z</time>
   </trkpt>
   <trkpt lat="42.0399580" lon="2.7519510">
    <ele>210.6</ele>
    <time>2018-12-27T09:54:42Z</time>
   </trkpt>
   <trkpt lat="42.0400930" lon="2.7518810">
    <ele>211.6</ele>
    <time>2018-12-27T09:54:44Z</time>
   </trkpt>
   <trkpt lat="42.0402280" lon="2.7518250">
    <ele>212.4</ele>
    <time>2018-12-27T09:54:47Z</time>
   </trkpt>
   <trkpt lat="42.0403700" lon="2.7518160">
    <ele>213.4</ele>
    <time>2018-12-27T09:54:49Z</time>
   </trkpt>
   <trkpt lat="42.0405280" lon="2.7517410">
    <ele>214.3</ele>
    <time>2018-12-27T09:54:52Z</time>
   </trkpt>
   <trkpt lat="42.0406730" lon="2.7516700">
    <ele>215.0</ele>
    <time>2018-12-27T09:54:54Z</time>
   </trkpt>
   <trkpt lat="42.0407980" lon="2.7515980">
    <ele>215.6</ele>
    <time>2018-12-27T09:54:56Z</time>
   </trkpt>
   <trkpt lat="42.0409510" lon="2.7515480">
    <ele>216.4</ele>
    <time>2018-12-27T09:54:59Z</time>
   </trkpt>
   <trkpt lat="42.0410950" lon="2.7514730">
    <ele>217.2</ele>
    <time>2018-12-27T09:55:01Z</time>
   </trkpt>
   <trkpt lat="42.0412460" lon="2.7513910">
    <ele>218.0</ele>
    <time>2018-12-27T09:55:04Z</time>
   </trkpt>
   <trkpt lat="42.0413660" lon="2.7513160">
    <ele>218.6</ele>
    <time>2018-12-27T09:55:06Z</time>
   </trkpt>
   <trkpt lat="42.0414980" lon="2.7512410">
    <ele>219.4</ele>
    <time>2018-12-27T09:55:08Z</time>
   </trkpt>
   <trkpt lat="42.0416230" lon="2.7511680">
    <ele>220.2</ele>
    <time>2018-12-27T09:55:10Z</time>
   </trkpt>
   <trkpt lat="42.0417400" lon="2.7511400">
    <ele>220.6</ele>
    <time>2018-12-27T09:55:12Z</time>
   </trkpt>
   <trkpt lat="42.0418850" lon="2.7510810">
    <ele>221.1</ele>
    <time>2018-12-27T09:55:15Z</time>
   </trkpt>
   <trkpt lat="42.0419750" lon="2.7510150">
    <ele>221.5</ele>
    <time>2018-12-27T09:55:16Z</time>
   </trkpt>
   <trkpt lat="42.0421200" lon="2.7508430">
    <ele>222.5</ele>
    <time>2018-12-27T09:55:19Z</time>
   </trkpt>
   <trkpt lat="42.0421860" lon="2.7508450">
    <ele>222.9</ele>
    <time>2018-12-27T09:55:21Z</time>
   </trkpt>
   <trkpt lat="42.0422530" lon="2.7508860">
    <ele>223.4</ele>
    <time>2018-12-27T09:55:22Z</time>
   </trkpt>
   <trkpt lat="42.0423360" lon="2.7508910">
    <ele>224.0</ele>
    <time>2018-12-27T09:55:23Z</time>
   </trkpt>
   <trkpt lat="42.0426980" lon="2.7510800">
    <ele>226.7</ele>
    <time>2018-12-27T09:55:29Z</time>
   </trkpt>
   <trkpt lat="42.0428310" lon="2.7511700">
    <ele>227.7</ele>
    <time>2018-12-27T09:55:32Z</time>
   </trkpt>
   <trkpt lat="42.0429560" lon="2.7512230">
    <ele>228.5</ele>
    <time>2018-12-27T09:55:34Z</time>
   </trkpt>
   <trkpt lat="42.0430650" lon="2.7512310">
    <ele>229.3</ele>
    <time>2018-12-27T09:55:35Z</time>
   </trkpt>
   <trkpt lat="42.0431880" lon="2.7512050">
    <ele>230.3</ele>
    <time>2018-12-27T09:55:37Z</time>
   </trkpt>
   <trkpt lat="42.0432850" lon="2.7511310">
    <ele>232.6</ele>
    <time>2018-12-27T09:55:39Z</time>
   </trkpt>
   <trkpt lat="42.0433780" lon="2.7509900">
    <ele>233.5</ele>
    <time>2018-12-27T09:55:41Z</time>
   </trkpt>
   <trkpt lat="42.0435080" lon="2.7509530">
    <ele>234.3</ele>
    <time>2018-12-27T09:55:44Z</time>
   </trkpt>
   <trkpt lat="42.0436150" lon="2.7508410">
    <ele>235.2</ele>
    <time>2018-12-27T09:55:46Z</time>
   </trkpt>
   <trkpt lat="42.0437010" lon="2.7506160">
    <ele>236.4</ele>
    <time>2018-12-27T09:55:49Z</time>
   </trkpt>
   <trkpt lat="42.0437730" lon="2.7505600">
    <ele>237.0</ele>
    <time>2018-12-27T09:55:50Z</time>
   </trkpt>
   <trkpt lat="42.0438400" lon="2.7504480">
    <ele>237.8</ele>
    <time>2018-12-27T09:55:52Z</time>
   </trkpt>
   <trkpt lat="42.0439200" lon="2.7503660">
    <ele>238.6</ele>
    <time>2018-12-27T09:55:53Z</time>
   </trkpt>
   <trkpt lat="42.0439710" lon="2.7502450">
    <ele>239.5</ele>
    <time>2018-12-27T09:55:55Z</time>
   </trkpt>
   <trkpt lat="42.0440530" lon="2.7501860">
    <ele>240.2</ele>
    <time>2018-12-27T09:55:57Z</time>
   </trkpt>
   <trkpt lat="42.0441700" lon="2.7500530">
    <ele>241.6</ele>
    <time>2018-12-27T09:55:59Z</time>
   </trkpt>
   <trkpt lat="42.0442510" lon="2.7498960">
    <ele>242.8</ele>
    <time>2018-12-27T09:56:01Z</time>
   </trkpt>
   <trkpt lat="42.0442960" lon="2.7497860">
    <ele>243.7</ele>
    <time>2018-12-27T09:56:03Z</time>
   </trkpt>
   <trkpt lat="42.0443560" lon="2.7496510">
    <ele>244.7</ele>
    <time>2018-12-27T09:56:05Z</time>
   </trkpt>
   <trkpt lat="42.0444350" lon="2.7495800">
    <ele>245.6</ele>
    <time>2018-12-27T09:56:06Z</time>
   </trkpt>
   <trkpt lat="42.0445160" lon="2.7495130">
    <ele>246.4</ele>
    <time>2018-12-27T09:56:08Z</time>
   </trkpt>
   <trkpt lat="42.0445910" lon="2.7494330">
    <ele>247.3</ele>
    <time>2018-12-27T09:56:09Z</time>
   </trkpt>
   <trkpt lat="42.0446710" lon="2.7493530">
    <ele>248.1</ele>
    <time>2018-12-27T09:56:11Z</time>
   </trkpt>
   <trkpt lat="42.0447580" lon="2.7492750">
    <ele>249.0</ele>
    <time>2018-12-27T09:56:13Z</time>
   </trkpt>
   <trkpt lat="42.0448480" lon="2.7492130">
    <ele>249.8</ele>
    <time>2018-12-27T09:56:14Z</time>
   </trkpt>
   <trkpt lat="42.0449430" lon="2.7491380">
    <ele>250.7</ele>
    <time>2018-12-27T09:56:16Z</time>
   </trkpt>
   <trkpt lat="42.0450260" lon="2.7490610">
    <ele>251.5</ele>
    <time>2018-12-27T09:56:18Z</time>
   </trkpt>
   <trkpt lat="42.0451150" lon="2.7490110">
    <ele>252.3</ele>
    <time>2018-12-27T09:56:19Z</time>
   </trkpt>
   <trkpt lat="42.0452200" lon="2.7489260">
    <ele>253.2</ele>
    <time>2018-12-27T09:56:21Z</time>
   </trkpt>
   <trkpt lat="42.0453160" lon="2.7488850">
    <ele>253.8</ele>
    <time>2018-12-27T09:56:23Z</time>
   </trkpt>
   <trkpt lat="42.0453900" lon="2.7487950">
    <ele>254.4</ele>
    <time>2018-12-27T09:56:24Z</time>
   </trkpt>
   <trkpt lat="42.0455000" lon="2.7487630">
    <ele>255.1</ele>
    <time>2018-12-27T09:56:26Z</time>
   </trkpt>
   <trkpt lat="42.0455860" lon="2.7486830">
    <ele>255.8</ele>
    <time>2018-12-27T09:56:28Z</time>
   </trkpt>
   <trkpt lat="42.0456850" lon="2.7486360">
    <ele>256.3</ele>
    <time>2018-12-27T09:56:29Z</time>
   </trkpt>
   <trkpt lat="42.0457900" lon="2.7486310">
    <ele>256.7</ele>
    <time>2018-12-27T09:56:31Z</time>
   </trkpt>
   <trkpt lat="42.0458500" lon="2.7484630">
    <ele>257.3</ele>
    <time>2018-12-27T09:56:33Z</time>
   </trkpt>
   <trkpt lat="42.0459460" lon="2.7483630">
    <ele>257.9</ele>
    <time>2018-12-27T09:56:35Z</time>
   </trkpt>
   <trkpt lat="42.0460980" lon="2.7482330">
    <ele>258.5</ele>
    <time>2018-12-27T09:56:38Z</time>
   </trkpt>
   <trkpt lat="42.0462230" lon="2.7480930">
    <ele>259.0</ele>
    <time>2018-12-27T09:56:41Z</time>
   </trkpt>
   <trkpt lat="42.0463130" lon="2.7479680">
    <ele>259.4</ele>
    <time>2018-12-27T09:56:43Z</time>
   </trkpt>
   <trkpt lat="42.0464010" lon="2.7477860">
    <ele>259.7</ele>
    <time>2018-12-27T09:56:45Z</time>
   </trkpt>
   <trkpt lat="42.0465280" lon="2.7476280">
    <ele>260.1</ele>
    <time>2018-12-27T09:56:48Z</time>
   </trkpt>
   <trkpt lat="42.0466230" lon="2.7474510">
    <ele>260.6</ele>
    <time>2018-12-27T09:56:51Z</time>
   </trkpt>
   <trkpt lat="42.0467000" lon="2.7472680">
    <ele>260.9</ele>
    <time>2018-12-27T09:56:53Z</time>
   </trkpt>
   <trkpt lat="42.0466710" lon="2.7470880">
    <ele>260.2</ele>
    <time>2018-12-27T09:56:55Z</time>
   </trkpt>
   <trkpt lat="42.0464480" lon="2.7469860">
    <ele>256.9</ele>
    <time>2018-12-27T09:56:59Z</time>
   </trkpt>
   <trkpt lat="42.0462300" lon="2.7465930">
    <ele>252.3</ele>
    <time>2018-12-27T09:57:05Z</time>
   </trkpt>
   <trkpt lat="42.0460330" lon="2.7460610">
    <ele>249.2</ele>
    <time>2018-12-27T09:57:12Z</time>
   </trkpt>
   <trkpt lat="42.0457980" lon="2.7457610">
    <ele>247.9</ele>
    <time>2018-12-27T09:57:17Z</time>
   </trkpt>
   <trkpt lat="42.0454410" lon="2.7457800">
    <ele>246.3</ele>
    <time>2018-12-27T09:57:23Z</time>
   </trkpt>
   <trkpt lat="42.0450930" lon="2.7458410">
    <ele>244.9</ele>
    <time>2018-12-27T09:57:29Z</time>
   </trkpt>
   <trkpt lat="42.0447330" lon="2.7459660">
    <ele>244.6</ele>
    <time>2018-12-27T09:57:35Z</time>
   </trkpt>
   <trkpt lat="42.0443600" lon="2.7460350">
    <ele>244.6</ele>
    <time>2018-12-27T09:57:41Z</time>
   </trkpt>
   <trkpt lat="42.0440610" lon="2.7461280">
    <ele>244.6</ele>
    <time>2018-12-27T09:57:46Z</time>
   </trkpt>
   <trkpt lat="42.0437610" lon="2.7460360">
    <ele>244.6</ele>
    <time>2018-12-27T09:57:50Z</time>
   </trkpt>
   <trkpt lat="42.0435110" lon="2.7460030">
    <ele>244.5</ele>
    <time>2018-12-27T09:57:54Z</time>
   </trkpt>
   <trkpt lat="42.0433460" lon="2.7459560">
    <ele>244.2</ele>
    <time>2018-12-27T09:57:57Z</time>
   </trkpt>
   <trkpt lat="42.0432110" lon="2.7457780">
    <ele>244.1</ele>
    <time>2018-12-27T09:58:00Z</time>
   </trkpt>
   <trkpt lat="42.0430600" lon="2.7455760">
    <ele>244.3</ele>
    <time>2018-12-27T09:58:04Z</time>
   </trkpt>
   <trkpt lat="42.0429580" lon="2.7453700">
    <ele>244.5</ele>
    <time>2018-12-27T09:58:07Z</time>
   </trkpt>
   <trkpt lat="42.0427760" lon="2.7451130">
    <ele>244.8</ele>
    <time>2018-12-27T09:58:11Z</time>
   </trkpt>
   <trkpt lat="42.0426660" lon="2.7448300">
    <ele>245.3</ele>
    <time>2018-12-27T09:58:15Z</time>
   </trkpt>
   <trkpt lat="42.0424860" lon="2.7447280">
    <ele>246.1</ele>
    <time>2018-12-27T09:58:18Z</time>
   </trkpt>
   <trkpt lat="42.0423850" lon="2.7445610">
    <ele>246.6</ele>
    <time>2018-12-27T09:58:20Z</time>
   </trkpt>
   <trkpt lat="42.0422410" lon="2.7443050">
    <ele>246.3</ele>
    <time>2018-12-27T09:58:24Z</time>
   </trkpt>
   <trkpt lat="42.0421150" lon="2.7440180">
    <ele>245.7</ele>
    <time>2018-12-27T09:58:28Z</time>
   </trkpt>
   <trkpt lat="42.0419250" lon="2.7438180">
    <ele>245.2</ele>
    <time>2018-12-27T09:58:32Z</time>
   </trkpt>
   <trkpt lat="42.0417310" lon="2.7435480">
    <ele>244.6</ele>
    <time>2018-12-27T09:58:36Z</time>
   </trkpt>
   <trkpt lat="42.0414950" lon="2.7432850">
    <ele>243.6</ele>
    <time>2018-12-27T09:58:41Z</time>
   </trkpt>
   <trkpt lat="42.0412700" lon="2.7430930">
    <ele>242.9</ele>
    <time>2018-12-27T09:58:46Z</time>
   </trkpt>
   <trkpt lat="42.0410700" lon="2.7430360">
    <ele>242.7</ele>
    <time>2018-12-27T09:58:49Z</time>
   </trkpt>
   <trkpt lat="42.0408930" lon="2.7429080">
    <ele>242.9</ele>
    <time>2018-12-27T09:58:52Z</time>
   </trkpt>
   <trkpt lat="42.0407660" lon="2.7428810">
    <ele>242.9</ele>
    <time>2018-12-27T09:58:54Z</time>
   </trkpt>
   <trkpt lat="42.0406160" lon="2.7428680">
    <ele>242.7</ele>
    <time>2018-12-27T09:58:56Z</time>
   </trkpt>
   <trkpt lat="42.0404400" lon="2.7428660">
    <ele>242.3</ele>
    <time>2018-12-27T09:58:59Z</time>
   </trkpt>
   <trkpt lat="42.0402150" lon="2.7427750">
    <ele>241.7</ele>
    <time>2018-12-27T09:59:03Z</time>
   </trkpt>
   <trkpt lat="42.0399510" lon="2.7427600">
    <ele>241.1</ele>
    <time>2018-12-27T09:59:07Z</time>
   </trkpt>
   <trkpt lat="42.0396930" lon="2.7428980">
    <ele>240.4</ele>
    <time>2018-12-27T09:59:12Z</time>
   </trkpt>
   <trkpt lat="42.0394300" lon="2.7428460">
    <ele>239.5</ele>
    <time>2018-12-27T09:59:16Z</time>
   </trkpt>
   <trkpt lat="42.0392030" lon="2.7419810">
    <ele>235.5</ele>
    <time>2018-12-27T09:59:27Z</time>
   </trkpt>
   <trkpt lat="42.0390830" lon="2.7415700">
    <ele>234.4</ele>
    <time>2018-12-27T09:59:32Z</time>
   </trkpt>
   <trkpt lat="42.0388630" lon="2.7412910">
    <ele>234.6</ele>
    <time>2018-12-27T09:59:37Z</time>
   </trkpt>
   <trkpt lat="42.0386680" lon="2.7412980">
    <ele>235.4</ele>
    <time>2018-12-27T09:59:40Z</time>
   </trkpt>
   <trkpt lat="42.0384560" lon="2.7413350">
    <ele>236.0</ele>
    <time>2018-12-27T09:59:44Z</time>
   </trkpt>
   <trkpt lat="42.0381550" lon="2.7413900">
    <ele>236.8</ele>
    <time>2018-12-27T09:59:48Z</time>
   </trkpt>
   <trkpt lat="42.0379110" lon="2.7413750">
    <ele>237.4</ele>
    <time>2018-12-27T09:59:52Z</time>
   </trkpt>
   <trkpt lat="42.0376510" lon="2.7413830">
    <ele>237.8</ele>
    <time>2018-12-27T09:59:56Z</time>
   </trkpt>
   <trkpt lat="42.0375310" lon="2.7410760">
    <ele>237.3</ele>
    <time>2018-12-27T10:00:01Z</time>
   </trkpt>
   <trkpt lat="42.0375330" lon="2.7405710">
    <ele>234.6</ele>
    <time>2018-12-27T10:00:07Z</time>
   </trkpt>
   <trkpt lat="42.0374930" lon="2.7400280">
    <ele>230.9</ele>
    <time>2018-12-27T10:00:13Z</time>
   </trkpt>
   <trkpt lat="42.0371560" lon="2.7396850">
    <ele>227.3</ele>
    <time>2018-12-27T10:00:20Z</time>
   </trkpt>
   <trkpt lat="42.0367880" lon="2.7395060">
    <ele>226.5</ele>
    <time>2018-12-27T10:00:26Z</time>
   </trkpt>
   <trkpt lat="42.0364910" lon="2.7393500">
    <ele>227.7</ele>
    <time>2018-12-27T10:00:31Z</time>
   </trkpt>
   <trkpt lat="42.0363430" lon="2.7391400">
    <ele>228.5</ele>
    <time>2018-12-27T10:00:35Z</time>
   </trkpt>
   <trkpt lat="42.0361710" lon="2.7388500">
    <ele>228.9</ele>
    <time>2018-12-27T10:00:39Z</time>
   </trkpt>
   <trkpt lat="42.0360230" lon="2.7386630">
    <ele>228.6</ele>
    <time>2018-12-27T10:00:42Z</time>
   </trkpt>
   <trkpt lat="42.0360180" lon="2.7385360">
    <ele>228.3</ele>
    <time>2018-12-27T10:00:44Z</time>
   </trkpt>
   <trkpt lat="42.0359150" lon="2.7384360">
    <ele>228.0</ele>
    <time>2018-12-27T10:00:46Z</time>
   </trkpt>
   <trkpt lat="42.0357610" lon="2.7382680">
    <ele>227.7</ele>
    <time>2018-12-27T10:00:49Z</time>
   </trkpt>
   <trkpt lat="42.0355960" lon="2.7381180">
    <ele>227.3</ele>
    <time>2018-12-27T10:00:52Z</time>
   </trkpt>
   <trkpt lat="42.0354300" lon="2.7379410">
    <ele>226.8</ele>
    <time>2018-12-27T10:00:56Z</time>
   </trkpt>
   <trkpt lat="42.0352800" lon="2.7378250">
    <ele>226.6</ele>
    <time>2018-12-27T10:00:58Z</time>
   </trkpt>
   <trkpt lat="42.0350510" lon="2.7376480">
    <ele>226.5</ele>
    <time>2018-12-27T10:01:03Z</time>
   </trkpt>
   <trkpt lat="42.0348430" lon="2.7375260">
    <ele>226.5</ele>
    <time>2018-12-27T10:01:06Z</time>
   </trkpt>
   <trkpt lat="42.0347080" lon="2.7372830">
    <ele>226.7</ele>
    <time>2018-12-27T10:01:10Z</time>
   </trkpt>
   <trkpt lat="42.0345680" lon="2.7370850">
    <ele>226.8</ele>
    <time>2018-12-27T10:01:13Z</time>
   </trkpt>
   <trkpt lat="42.0344360" lon="2.7369130">
    <ele>227.0</ele>
    <time>2018-12-27T10:01:16Z</time>
   </trkpt>
   <trkpt lat="42.0343430" lon="2.7367000">
    <ele>227.1</ele>
    <time>2018-12-27T10:01:19Z</time>
   </trkpt>
   <trkpt lat="42.0342500" lon="2.7365690">
    <ele>227.2</ele>
    <time>2018-12-27T10:01:20Z</time>
   </trkpt>
   <trkpt lat="42.0341450" lon="2.7366510">
    <ele>227.2</ele>
    <time>2018-12-27T10:01:23Z</time>
   </trkpt>
   <trkpt lat="42.0339320" lon="2.7368150">
    <ele>226.9</ele>
    <time>2018-12-27T10:01:26Z</time>
   </trkpt>
   <trkpt lat="42.0337840" lon="2.7369650">
    <ele>226.8</ele>
    <time>2018-12-27T10:01:29Z</time>
   </trkpt>
   <trkpt lat="42.0335940" lon="2.7371330">
    <ele>226.7</ele>
    <time>2018-12-27T10:01:33Z</time>
   </trkpt>
   <trkpt lat="42.0334780" lon="2.7372580">
    <ele>226.4</ele>
    <time>2018-12-27T10:05:40Z</time>
   </trkpt>
   <trkpt lat="42.0332460" lon="2.7375360">
    <ele>225.6</ele>
    <time>2018-12-27T10:05:44Z</time>
   </trkpt>
   <trkpt lat="42.0331160" lon="2.7377160">
    <ele>225.3</ele>
    <time>2018-12-27T10:05:47Z</time>
   </trkpt>
   <trkpt lat="42.0329800" lon="2.7379050">
    <ele>225.2</ele>
    <time>2018-12-27T10:05:51Z</time>
   </trkpt>
   <trkpt lat="42.0328360" lon="2.7381080">
    <ele>225.0</ele>
    <time>2018-12-27T10:05:54Z</time>
   </trkpt>
   <trkpt lat="42.0326810" lon="2.7383200">
    <ele>224.4</ele>
    <time>2018-12-27T10:05:57Z</time>
   </trkpt>
   <trkpt lat="42.0325110" lon="2.7385560">
    <ele>223.4</ele>
    <time>2018-12-27T10:06:01Z</time>
   </trkpt>
   <trkpt lat="42.0323000" lon="2.7388180">
    <ele>222.1</ele>
    <time>2018-12-27T10:06:06Z</time>
   </trkpt>
   <trkpt lat="42.0320350" lon="2.7391060">
    <ele>220.5</ele>
    <time>2018-12-27T10:06:11Z</time>
   </trkpt>
   <trkpt lat="42.0317150" lon="2.7394030">
    <ele>216.4</ele>
    <time>2018-12-27T10:06:18Z</time>
   </trkpt>
   <trkpt lat="42.0313200" lon="2.7396250">
    <ele>213.3</ele>
    <time>2018-12-27T10:06:24Z</time>
   </trkpt>
   <trkpt lat="42.0308630" lon="2.7397000">
    <ele>211.0</ele>
    <time>2018-12-27T10:06:32Z</time>
   </trkpt>
   <trkpt lat="42.0303750" lon="2.7397880">
    <ele>205.9</ele>
    <time>2018-12-27T10:06:40Z</time>
   </trkpt>
   <trkpt lat="42.0299180" lon="2.7399180">
    <ele>203.8</ele>
    <time>2018-12-27T10:06:47Z</time>
   </trkpt>
   <trkpt lat="42.0295350" lon="2.7401110">
    <ele>202.0</ele>
    <time>2018-12-27T10:06:54Z</time>
   </trkpt>
   <trkpt lat="42.0291930" lon="2.7403130">
    <ele>200.9</ele>
    <time>2018-12-27T10:07:00Z</time>
   </trkpt>
   <trkpt lat="42.0288710" lon="2.7405160">
    <ele>200.7</ele>
    <time>2018-12-27T10:07:05Z</time>
   </trkpt>
   <trkpt lat="42.0285580" lon="2.7407480">
    <ele>200.7</ele>
    <time>2018-12-27T10:07:11Z</time>
   </trkpt>
   <trkpt lat="42.0282550" lon="2.7409810">
    <ele>200.3</ele>
    <time>2018-12-27T10:07:17Z</time>
   </trkpt>
   <trkpt lat="42.0279650" lon="2.7412030">
    <ele>199.8</ele>
    <time>2018-12-27T10:07:22Z</time>
   </trkpt>
   <trkpt lat="42.0276880" lon="2.7414160">
    <ele>199.6</ele>
    <time>2018-12-27T10:07:27Z</time>
   </trkpt>
   <trkpt lat="42.0274150" lon="2.7416180">
    <ele>199.5</ele>
    <time>2018-12-27T10:07:32Z</time>
   </trkpt>
   <trkpt lat="42.0271300" lon="2.7417900">
    <ele>199.3</ele>
    <time>2018-12-27T10:07:37Z</time>
   </trkpt>
   <trkpt lat="42.0268230" lon="2.7419250">
    <ele>199.1</ele>
    <time>2018-12-27T10:07:42Z</time>
   </trkpt>
   <trkpt lat="42.0265130" lon="2.7420560">
    <ele>198.8</ele>
    <time>2018-12-27T10:07:48Z</time>
   </trkpt>
   <trkpt lat="42.0262010" lon="2.7421880">
    <ele>198.1</ele>
    <time>2018-12-27T10:07:53Z</time>
   </trkpt>
   <trkpt lat="42.0258810" lon="2.7423230">
    <ele>197.2</ele>
    <time>2018-12-27T10:07:58Z</time>
   </trkpt>
   <trkpt lat="42.0255600" lon="2.7424610">
    <ele>196.3</ele>
    <time>2018-12-27T10:08:04Z</time>
   </trkpt>
   <trkpt lat="42.0252360" lon="2.7426050">
    <ele>195.8</ele>
    <time>2018-12-27T10:08:09Z</time>
   </trkpt>
   <trkpt lat="42.0249180" lon="2.7427380">
    <ele>195.0</ele>
    <time>2018-12-27T10:08:14Z</time>
   </trkpt>
   <trkpt lat="42.0245960" lon="2.7428750">
    <ele>194.1</ele>
    <time>2018-12-27T10:08:20Z</time>
   </trkpt>
   <trkpt lat="42.0242750" lon="2.7430100">
    <ele>193.0</ele>
    <time>2018-12-27T10:08:25Z</time>
   </trkpt>
   <trkpt lat="42.0239510" lon="2.7431460">
    <ele>192.9</ele>
    <time>2018-12-27T10:08:31Z</time>
   </trkpt>
   <trkpt lat="42.0236300" lon="2.7432810">
    <ele>191.4</ele>
    <time>2018-12-27T10:08:36Z</time>
   </trkpt>
   <trkpt lat="42.0233110" lon="2.7434200">
    <ele>190.2</ele>
    <time>2018-12-27T10:08:41Z</time>
   </trkpt>
   <trkpt lat="42.0229980" lon="2.7435530">
    <ele>189.9</ele>
    <time>2018-12-27T10:08:47Z</time>
   </trkpt>
   <trkpt lat="42.0226860" lon="2.7436880">
    <ele>189.5</ele>
    <time>2018-12-27T10:08:52Z</time>
   </trkpt>
   <trkpt lat="42.0223660" lon="2.7438260">
    <ele>187.9</ele>
    <time>2018-12-27T10:08:57Z</time>
   </trkpt>
   <trkpt lat="42.0220330" lon="2.7439710">
    <ele>185.2</ele>
    <time>2018-12-27T10:09:03Z</time>
   </trkpt>
   <trkpt lat="42.0216900" lon="2.7441200">
    <ele>184.7</ele>
    <time>2018-12-27T10:09:09Z</time>
   </trkpt>
   <trkpt lat="42.0213410" lon="2.7442680">
    <ele>184.4</ele>
    <time>2018-12-27T10:09:14Z</time>
   </trkpt>
   <trkpt lat="42.0209860" lon="2.7444180">
    <ele>183.0</ele>
    <time>2018-12-27T10:09:20Z</time>
   </trkpt>
   <trkpt lat="42.0206330" lon="2.7445710">
    <ele>181.5</ele>
    <time>2018-12-27T10:09:26Z</time>
   </trkpt>
   <trkpt lat="42.0202780" lon="2.7447250">
    <ele>180.3</ele>
    <time>2018-12-27T10:09:32Z</time>
   </trkpt>
   <trkpt lat="42.0199260" lon="2.7448800">
    <ele>179.0</ele>
    <time>2018-12-27T10:09:38Z</time>
   </trkpt>
   <trkpt lat="42.0195730" lon="2.7450050">
    <ele>177.9</ele>
    <time>2018-12-27T10:09:44Z</time>
   </trkpt>
   <trkpt lat="42.0192150" lon="2.7449910">
    <ele>177.6</ele>
    <time>2018-12-27T10:09:50Z</time>
   </trkpt>
   <trkpt lat="42.0188800" lon="2.7448980">
    <ele>176.6</ele>
    <time>2018-12-27T10:09:55Z</time>
   </trkpt>
   <trkpt lat="42.0185560" lon="2.7447980">
    <ele>174.9</ele>
    <time>2018-12-27T10:10:01Z</time>
   </trkpt>
   <trkpt lat="42.0182480" lon="2.7446980">
    <ele>173.7</ele>
    <time>2018-12-27T10:10:06Z</time>
   </trkpt>
   <trkpt lat="42.0179510" lon="2.7446100">
    <ele>173.5</ele>
    <time>2018-12-27T10:10:11Z</time>
   </trkpt>
   <trkpt lat="42.0176630" lon="2.7445250">
    <ele>173.5</ele>
    <time>2018-12-27T10:10:15Z</time>
   </trkpt>
   <trkpt lat="42.0173780" lon="2.7444260">
    <ele>173.5</ele>
    <time>2018-12-27T10:10:20Z</time>
   </trkpt>
   <trkpt lat="42.0171050" lon="2.7442910">
    <ele>173.5</ele>
    <time>2018-12-27T10:10:25Z</time>
   </trkpt>
   <trkpt lat="42.0168750" lon="2.7440730">
    <ele>173.5</ele>
    <time>2018-12-27T10:10:29Z</time>
   </trkpt>
   <trkpt lat="42.0166660" lon="2.7438410">
    <ele>173.5</ele>
    <time>2018-12-27T10:10:33Z</time>
   </trkpt>
   <trkpt lat="42.0164700" lon="2.7435930">
    <ele>173.5</ele>
    <time>2018-12-27T10:10:38Z</time>
   </trkpt>
   <trkpt lat="42.0162800" lon="2.7433300">
    <ele>173.5</ele>
    <time>2018-12-27T10:10:42Z</time>
   </trkpt>
   <trkpt lat="42.0160950" lon="2.7430730">
    <ele>173.5</ele>
    <time>2018-12-27T10:10:46Z</time>
   </trkpt>
   <trkpt lat="42.0158910" lon="2.7428460">
    <ele>173.5</ele>
    <time>2018-12-27T10:10:51Z</time>
   </trkpt>
   <trkpt lat="42.0156450" lon="2.7427000">
    <ele>173.5</ele>
    <time>2018-12-27T10:10:55Z</time>
   </trkpt>
   <trkpt lat="42.0153700" lon="2.7426510">
    <ele>173.5</ele>
    <time>2018-12-27T10:10:59Z</time>
   </trkpt>
   <trkpt lat="42.0150880" lon="2.7426580">
    <ele>173.5</ele>
    <time>2018-12-27T10:11:04Z</time>
   </trkpt>
   <trkpt lat="42.0148080" lon="2.7426600">
    <ele>173.5</ele>
    <time>2018-12-27T10:11:08Z</time>
   </trkpt>
   <trkpt lat="42.0145250" lon="2.7426560">
    <ele>172.8</ele>
    <time>2018-12-27T10:11:13Z</time>
   </trkpt>
   <trkpt lat="42.0142350" lon="2.7426550">
    <ele>172.5</ele>
    <time>2018-12-27T10:11:18Z</time>
   </trkpt>
   <trkpt lat="42.0139430" lon="2.7426550">
    <ele>172.4</ele>
    <time>2018-12-27T10:11:22Z</time>
   </trkpt>
   <trkpt lat="42.0136510" lon="2.7426660">
    <ele>172.2</ele>
    <time>2018-12-27T10:11:27Z</time>
   </trkpt>
   <trkpt lat="42.0133580" lon="2.7427410">
    <ele>171.5</ele>
    <time>2018-12-27T10:11:32Z</time>
   </trkpt>
   <trkpt lat="42.0130550" lon="2.7428450">
    <ele>170.8</ele>
    <time>2018-12-27T10:11:37Z</time>
   </trkpt>
   <trkpt lat="42.0127410" lon="2.7429460">
    <ele>170.7</ele>
    <time>2018-12-27T10:11:42Z</time>
   </trkpt>
   <trkpt lat="42.0124330" lon="2.7430550">
    <ele>172.3</ele>
    <time>2018-12-27T10:11:47Z</time>
   </trkpt>
   <trkpt lat="42.0121260" lon="2.7431560">
    <ele>172.4</ele>
    <time>2018-12-27T10:11:52Z</time>
   </trkpt>
   <trkpt lat="42.0118250" lon="2.7432500">
    <ele>172.1</ele>
    <time>2018-12-27T10:11:57Z</time>
   </trkpt>
   <trkpt lat="42.0115180" lon="2.7432960">
    <ele>170.8</ele>
    <time>2018-12-27T10:12:02Z</time>
   </trkpt>
   <trkpt lat="42.0112210" lon="2.7432480">
    <ele>170.4</ele>
    <time>2018-12-27T10:12:07Z</time>
   </trkpt>
   <trkpt lat="42.0109200" lon="2.7431280">
    <ele>171.0</ele>
    <time>2018-12-27T10:12:12Z</time>
   </trkpt>
   <trkpt lat="42.0106250" lon="2.7429900">
    <ele>171.2</ele>
    <time>2018-12-27T10:12:17Z</time>
   </trkpt>
   <trkpt lat="42.0103400" lon="2.7428410">
    <ele>171.3</ele>
    <time>2018-12-27T10:12:22Z</time>
   </trkpt>
   <trkpt lat="42.0100560" lon="2.7426800">
    <ele>171.5</ele>
    <time>2018-12-27T10:12:27Z</time>
   </trkpt>
   <trkpt lat="42.0097750" lon="2.7425700">
    <ele>171.2</ele>
    <time>2018-12-27T10:12:31Z</time>
   </trkpt>
   <trkpt lat="42.0094760" lon="2.7424960">
    <ele>170.6</ele>
    <time>2018-12-27T10:12:36Z</time>
   </trkpt>
   <trkpt lat="42.0091780" lon="2.7424210">
    <ele>170.5</ele>
    <time>2018-12-27T10:12:41Z</time>
   </trkpt>
   <trkpt lat="42.0088860" lon="2.7423110">
    <ele>169.8</ele>
    <time>2018-12-27T10:12:46Z</time>
   </trkpt>
   <trkpt lat="42.0085910" lon="2.7421660">
    <ele>168.1</ele>
    <time>2018-12-27T10:12:51Z</time>
   </trkpt>
   <trkpt lat="42.0083010" lon="2.7419750">
    <ele>164.8</ele>
    <time>2018-12-27T10:12:56Z</time>
   </trkpt>
   <trkpt lat="42.0080350" lon="2.7416360">
    <ele>160.8</ele>
    <time>2018-12-27T10:13:02Z</time>
   </trkpt>
   <trkpt lat="42.0078900" lon="2.7411550">
    <ele>156.3</ele>
    <time>2018-12-27T10:13:08Z</time>
   </trkpt>
   <trkpt lat="42.0079410" lon="2.7406030">
    <ele>151.0</ele>
    <time>2018-12-27T10:13:15Z</time>
   </trkpt>
   <trkpt lat="42.0079130" lon="2.7399750">
    <ele>145.6</ele>
    <time>2018-12-27T10:13:22Z</time>
   </trkpt>
   <trkpt lat="42.0078060" lon="2.7393810">
    <ele>141.5</ele>
    <time>2018-12-27T10:13:29Z</time>
   </trkpt>
   <trkpt lat="42.0076650" lon="2.7388230">
    <ele>136.8</ele>
    <time>2018-12-27T10:13:36Z</time>
   </trkpt>
   <trkpt lat="42.0075330" lon="2.7383350">
    <ele>133.0</ele>
    <time>2018-12-27T10:13:43Z</time>
   </trkpt>
   <trkpt lat="42.0074380" lon="2.7379600">
    <ele>130.6</ele>
    <time>2018-12-27T10:13:47Z</time>
   </trkpt>
   <trkpt lat="42.0073860" lon="2.7377400">
    <ele>129.4</ele>
    <time>2018-12-27T10:13:50Z</time>
   </trkpt>
   <trkpt lat="42.0072230" lon="2.7376230">
    <ele>129.5</ele>
    <time>2018-12-27T10:13:53Z</time>
   </trkpt>
   <trkpt lat="42.0069730" lon="2.7376150">
    <ele>129.7</ele>
    <time>2018-12-27T10:13:57Z</time>
   </trkpt>
   <trkpt lat="42.0066850" lon="2.7376410">
    <ele>130.1</ele>
    <time>2018-12-27T10:14:02Z</time>
   </trkpt>
   <trkpt lat="42.0063830" lon="2.7376960">
    <ele>130.3</ele>
    <time>2018-12-27T10:14:07Z</time>
   </trkpt>
   <trkpt lat="42.0060680" lon="2.7377280">
    <ele>130.0</ele>
    <time>2018-12-27T10:14:12Z</time>
   </trkpt>
   <trkpt lat="42.0057450" lon="2.7377460">
    <ele>129.5</ele>
    <time>2018-12-27T10:14:17Z</time>
   </trkpt>
   <trkpt lat="42.0054160" lon="2.7377700">
    <ele>128.9</ele>
    <time>2018-12-27T10:14:22Z</time>
   </trkpt>
   <trkpt lat="42.0050760" lon="2.7377880">
    <ele>128.4</ele>
    <time>2018-12-27T10:14:28Z</time>
   </trkpt>
   <trkpt lat="42.0047400" lon="2.7378030">
    <ele>128.0</ele>
    <time>2018-12-27T10:14:33Z</time>
   </trkpt>
   <trkpt lat="42.0044010" lon="2.7378250">
    <ele>127.4</ele>
    <time>2018-12-27T10:14:38Z</time>
   </trkpt>
   <trkpt lat="42.0040610" lon="2.7378460">
    <ele>126.7</ele>
    <time>2018-12-27T10:14:44Z</time>
   </trkpt>
   <trkpt lat="42.0037300" lon="2.7379010">
    <ele>126.3</ele>
    <time>2018-12-27T10:14:49Z</time>
   </trkpt>
   <trkpt lat="42.0034300" lon="2.7380860">
    <ele>125.8</ele>
    <time>2018-12-27T10:14:54Z</time>
   </trkpt>
   <trkpt lat="42.0031660" lon="2.7383900">
    <ele>124.6</ele>
    <time>2018-12-27T10:15:00Z</time>
   </trkpt>
   <trkpt lat="42.0029030" lon="2.7387260">
    <ele>122.2</ele>
    <time>2018-12-27T10:15:06Z</time>
   </trkpt>
   <trkpt lat="42.0026350" lon="2.7390700">
    <ele>120.4</ele>
    <time>2018-12-27T10:15:12Z</time>
   </trkpt>
   <trkpt lat="42.0023600" lon="2.7394200">
    <ele>119.1</ele>
    <time>2018-12-27T10:15:18Z</time>
   </trkpt>
   <trkpt lat="42.0020810" lon="2.7397750">
    <ele>117.7</ele>
    <time>2018-12-27T10:15:24Z</time>
   </trkpt>
   <trkpt lat="42.0017330" lon="2.7402130">
    <ele>116.1</ele>
    <time>2018-12-27T10:15:32Z</time>
   </trkpt>
   <trkpt lat="42.0014710" lon="2.7405300">
    <ele>116.2</ele>
    <time>2018-12-27T10:15:37Z</time>
   </trkpt>
   <trkpt lat="42.0012280" lon="2.7408710">
    <ele>117.4</ele>
    <time>2018-12-27T10:15:43Z</time>
   </trkpt>
   <trkpt lat="42.0010330" lon="2.7411730">
    <ele>118.2</ele>
    <time>2018-12-27T10:15:48Z</time>
   </trkpt>
   <trkpt lat="42.0007980" lon="2.7414750">
    <ele>118.3</ele>
    <time>2018-12-27T10:15:53Z</time>
   </trkpt>
   <trkpt lat="42.0005530" lon="2.7417550">
    <ele>118.3</ele>
    <time>2018-12-27T10:15:58Z</time>
   </trkpt>
   <trkpt lat="42.0003060" lon="2.7420160">
    <ele>118.5</ele>
    <time>2018-12-27T10:16:03Z</time>
   </trkpt>
   <trkpt lat="42.0000960" lon="2.7422750">
    <ele>118.3</ele>
    <time>2018-12-27T10:16:08Z</time>
   </trkpt>
   <trkpt lat="41.9999200" lon="2.7425800">
    <ele>118.1</ele>
    <time>2018-12-27T10:16:12Z</time>
   </trkpt>
   <trkpt lat="41.9996960" lon="2.7428010">
    <ele>117.8</ele>
    <time>2018-12-27T10:16:17Z</time>
   </trkpt>
   <trkpt lat="41.9994710" lon="2.7430850">
    <ele>117.5</ele>
    <time>2018-12-27T10:16:21Z</time>
   </trkpt>
   <trkpt lat="41.9992630" lon="2.7433360">
    <ele>117.1</ele>
    <time>2018-12-27T10:16:26Z</time>
   </trkpt>
   <trkpt lat="41.9990210" lon="2.7435950">
    <ele>116.2</ele>
    <time>2018-12-27T10:16:31Z</time>
   </trkpt>
   <trkpt lat="41.9987950" lon="2.7438700">
    <ele>115.5</ele>
    <time>2018-12-27T10:16:36Z</time>
   </trkpt>
   <trkpt lat="41.9985930" lon="2.7441550">
    <ele>115.4</ele>
    <time>2018-12-27T10:16:40Z</time>
   </trkpt>
   <trkpt lat="41.9984300" lon="2.7444010">
    <ele>115.3</ele>
    <time>2018-12-27T10:16:44Z</time>
   </trkpt>
   <trkpt lat="41.9980410" lon="2.7448850">
    <ele>114.4</ele>
    <time>2018-12-27T10:16:53Z</time>
   </trkpt>
   <trkpt lat="41.9978380" lon="2.7451830">
    <ele>114.0</ele>
    <time>2018-12-27T10:16:58Z</time>
   </trkpt>
   <trkpt lat="41.9976330" lon="2.7454400">
    <ele>113.4</ele>
    <time>2018-12-27T10:17:02Z</time>
   </trkpt>
   <trkpt lat="41.9974080" lon="2.7457150">
    <ele>112.8</ele>
    <time>2018-12-27T10:17:07Z</time>
   </trkpt>
   <trkpt lat="41.9971680" lon="2.7460100">
    <ele>112.1</ele>
    <time>2018-12-27T10:17:12Z</time>
   </trkpt>
   <trkpt lat="41.9969260" lon="2.7463350">
    <ele>111.2</ele>
    <time>2018-12-27T10:17:18Z</time>
   </trkpt>
   <trkpt lat="41.9966900" lon="2.7466600">
    <ele>110.4</ele>
    <time>2018-12-27T10:17:23Z</time>
   </trkpt>
   <trkpt lat="41.9964450" lon="2.7469410">
    <ele>109.8</ele>
    <time>2018-12-27T10:17:28Z</time>
   </trkpt>
   <trkpt lat="41.9961780" lon="2.7472660">
    <ele>109.1</ele>
    <time>2018-12-27T10:17:34Z</time>
   </trkpt>
   <trkpt lat="41.9959600" lon="2.7475600">
    <ele>108.9</ele>
    <time>2018-12-27T10:17:39Z</time>
   </trkpt>
   <trkpt lat="41.9957130" lon="2.7478510">
    <ele>109.0</ele>
    <time>2018-12-27T10:17:44Z</time>
   </trkpt>
   <trkpt lat="41.9954780" lon="2.7481380">
    <ele>109.1</ele>
    <time>2018-12-27T10:17:49Z</time>
   </trkpt>
   <trkpt lat="41.9952260" lon="2.7484660">
    <ele>109.0</ele>
    <time>2018-12-27T10:17:55Z</time>
   </trkpt>
   <trkpt lat="41.9950200" lon="2.7487510">
    <ele>109.0</ele>
    <time>2018-12-27T10:18:00Z</time>
   </trkpt>
   <trkpt lat="41.9948080" lon="2.7490400">
    <ele>109.0</ele>
    <time>2018-12-27T10:18:05Z</time>
   </trkpt>
   <trkpt lat="41.9945650" lon="2.7493500">
    <ele>109.2</ele>
    <time>2018-12-27T10:18:10Z</time>
   </trkpt>
   <trkpt lat="41.9943430" lon="2.7496230">
    <ele>109.5</ele>
    <time>2018-12-27T10:18:15Z</time>
   </trkpt>
   <trkpt lat="41.9938960" lon="2.7502000">
    <ele>109.8</ele>
    <time>2018-12-27T10:18:25Z</time>
   </trkpt>
   <trkpt lat="41.9936730" lon="2.7504860">
    <ele>109.5</ele>
    <time>2018-12-27T10:18:30Z</time>
   </trkpt>
   <trkpt lat="41.9934560" lon="2.7507450">
    <ele>109.0</ele>
    <time>2018-12-27T10:18:34Z</time>
   </trkpt>
   <trkpt lat="41.9932780" lon="2.7510180">
    <ele>108.4</ele>
    <time>2018-12-27T10:18:38Z</time>
   </trkpt>
   <trkpt lat="41.9930100" lon="2.7512950">
    <ele>107.4</ele>
    <time>2018-12-27T10:18:44Z</time>
   </trkpt>
   <trkpt lat="41.9927760" lon="2.7516000">
    <ele>106.5</ele>
    <time>2018-12-27T10:18:49Z</time>
   </trkpt>
   <trkpt lat="41.9925710" lon="2.7518810">
    <ele>106.3</ele>
    <time>2018-12-27T10:18:54Z</time>
   </trkpt>
   <trkpt lat="41.9923550" lon="2.7521710">
    <ele>106.6</ele>
    <time>2018-12-27T10:18:59Z</time>
   </trkpt>
   <trkpt lat="41.9921310" lon="2.7524700">
    <ele>106.3</ele>
    <time>2018-12-27T10:19:04Z</time>
   </trkpt>
   <trkpt lat="41.9919110" lon="2.7527730">
    <ele>105.9</ele>
    <time>2018-12-27T10:19:09Z</time>
   </trkpt>
   <trkpt lat="41.9917030" lon="2.7530150">
    <ele>105.8</ele>
    <time>2018-12-27T10:19:13Z</time>
   </trkpt>
   <trkpt lat="41.9914900" lon="2.7532850">
    <ele>105.7</ele>
    <time>2018-12-27T10:19:18Z</time>
   </trkpt>
   <trkpt lat="41.9913100" lon="2.7535760">
    <ele>105.4</ele>
    <time>2018-12-27T10:19:22Z</time>
   </trkpt>
   <trkpt lat="41.9910960" lon="2.7538460">
    <ele>105.3</ele>
    <time>2018-12-27T10:19:27Z</time>
   </trkpt>
   <trkpt lat="41.9908630" lon="2.7541310">
    <ele>105.4</ele>
    <time>2018-12-27T10:19:32Z</time>
   </trkpt>
   <trkpt lat="41.9907430" lon="2.7544980">
    <ele>105.4</ele>
    <time>2018-12-27T10:19:37Z</time>
   </trkpt>
   <trkpt lat="41.9906880" lon="2.7548660">
    <ele>105.6</ele>
    <time>2018-12-27T10:19:41Z</time>
   </trkpt>
   <trkpt lat="41.9906800" lon="2.7552860">
    <ele>106.1</ele>
    <time>2018-12-27T10:19:46Z</time>
   </trkpt>
   <trkpt lat="41.9906500" lon="2.7556850">
    <ele>106.8</ele>
    <time>2018-12-27T10:19:51Z</time>
   </trkpt>
   <trkpt lat="41.9905750" lon="2.7564050">
    <ele>107.8</ele>
    <time>2018-12-27T10:20:00Z</time>
   </trkpt>
   <trkpt lat="41.9905850" lon="2.7567410">
    <ele>108.3</ele>
    <time>2018-12-27T10:20:04Z</time>
   </trkpt>
   <trkpt lat="41.9906150" lon="2.7571110">
    <ele>108.2</ele>
    <time>2018-12-27T10:20:08Z</time>
   </trkpt>
   <trkpt lat="41.9905530" lon="2.7574580">
    <ele>107.8</ele>
    <time>2018-12-27T10:20:12Z</time>
   </trkpt>
   <trkpt lat="41.9906100" lon="2.7578400">
    <ele>107.9</ele>
    <time>2018-12-27T10:20:17Z</time>
   </trkpt>
   <trkpt lat="41.9905650" lon="2.7582010">
    <ele>107.6</ele>
    <time>2018-12-27T10:20:21Z</time>
   </trkpt>
   <trkpt lat="41.9905830" lon="2.7585400">
    <ele>107.3</ele>
    <time>2018-12-27T10:20:25Z</time>
   </trkpt>
   <trkpt lat="41.9905610" lon="2.7589050">
    <ele>106.9</ele>
    <time>2018-12-27T10:20:30Z</time>
   </trkpt>
   <trkpt lat="41.9905850" lon="2.7592910">
    <ele>106.8</ele>
    <time>2018-12-27T10:20:34Z</time>
   </trkpt>
   <trkpt lat="41.9905580" lon="2.7596460">
    <ele>106.6</ele>
    <time>2018-12-27T10:20:39Z</time>
   </trkpt>
   <trkpt lat="41.9905510" lon="2.7599860">
    <ele>106.5</ele>
    <time>2018-12-27T10:20:43Z</time>
   </trkpt>
   <trkpt lat="41.9905910" lon="2.7602660">
    <ele>106.4</ele>
    <time>2018-12-27T10:20:46Z</time>
   </trkpt>
   <trkpt lat="41.9905830" lon="2.7605000">
    <ele>106.3</ele>
    <time>2018-12-27T10:20:49Z</time>
   </trkpt>
   <trkpt lat="41.9905500" lon="2.7606410">
    <ele>106.1</ele>
    <time>2018-12-27T10:20:51Z</time>
   </trkpt>
   <trkpt lat="41.9905660" lon="2.7607860">
    <ele>106.0</ele>
    <time>2018-12-27T10:20:52Z</time>
   </trkpt>
   <trkpt lat="41.9905860" lon="2.7609810">
    <ele>106.1</ele>
    <time>2018-12-27T10:20:55Z</time>
   </trkpt>
   <trkpt lat="41.9905550" lon="2.7612930">
    <ele>106.1</ele>
    <time>2018-12-27T10:20:59Z</time>
   </trkpt>
   <trkpt lat="41.9905430" lon="2.7616350">
    <ele>106.0</ele>
    <time>2018-12-27T10:21:03Z</time>
   </trkpt>
   <trkpt lat="41.9904510" lon="2.7619580">
    <ele>106.3</ele>
    <time>2018-12-27T10:21:07Z</time>
   </trkpt>
   <trkpt lat="41.9904800" lon="2.7627080">
    <ele>106.5</ele>
    <time>2018-12-27T10:21:16Z</time>
   </trkpt>
   <trkpt lat="41.9904810" lon="2.7630810">
    <ele>106.4</ele>
    <time>2018-12-27T10:21:20Z</time>
   </trkpt>
   <trkpt lat="41.9904880" lon="2.7634350">
    <ele>106.5</ele>
    <time>2018-12-27T10:21:24Z</time>
   </trkpt>
   <trkpt lat="41.9904360" lon="2.7638150">
    <ele>105.5</ele>
    <time>2018-12-27T10:21:29Z</time>
   </trkpt>
   <trkpt lat="41.9904580" lon="2.7642260">
    <ele>104.6</ele>
    <time>2018-12-27T10:21:34Z</time>
   </trkpt>
   <trkpt lat="41.9904610" lon="2.7646200">
    <ele>103.2</ele>
    <time>2018-12-27T10:21:38Z</time>
   </trkpt>
   <trkpt lat="41.9904410" lon="2.7650180">
    <ele>101.9</ele>
    <time>2018-12-27T10:21:43Z</time>
   </trkpt>
   <trkpt lat="41.9904560" lon="2.7654530">
    <ele>100.6</ele>
    <time>2018-12-27T10:21:48Z</time>
   </trkpt>
   <trkpt lat="41.9904800" lon="2.7659010">
    <ele>99.3</ele>
    <time>2018-12-27T10:21:54Z</time>
   </trkpt>
   <trkpt lat="41.9903350" lon="2.7662700">
    <ele>98.4</ele>
    <time>2018-12-27T10:21:59Z</time>
   </trkpt>
   <trkpt lat="41.9902410" lon="2.7666300">
    <ele>98.1</ele>
    <time>2018-12-27T10:22:03Z</time>
   </trkpt>
   <trkpt lat="41.9903900" lon="2.7669610">
    <ele>98.3</ele>
    <time>2018-12-27T10:22:08Z</time>
   </trkpt>
   <trkpt lat="41.9903580" lon="2.7673660">
    <ele>98.9</ele>
    <time>2018-12-27T10:22:13Z</time>
   </trkpt>
   <trkpt lat="41.9903300" lon="2.7678030">
    <ele>99.2</ele>
    <time>2018-12-27T10:22:18Z</time>
   </trkpt>
   <trkpt lat="41.9903210" lon="2.7682200">
    <ele>98.9</ele>
    <time>2018-12-27T10:22:23Z</time>
   </trkpt>
   <trkpt lat="41.9903430" lon="2.7686630">
    <ele>98.8</ele>
    <time>2018-12-27T10:22:28Z</time>
   </trkpt>
   <trkpt lat="41.9902980" lon="2.7690230">
    <ele>98.9</ele>
    <time>2018-12-27T10:22:33Z</time>
   </trkpt>
   <trkpt lat="41.9903000" lon="2.7694780">
    <ele>99.0</ele>
    <time>2018-12-27T10:22:38Z</time>
   </trkpt>
   <trkpt lat="41.9902600" lon="2.7698900">
    <ele>99.1</ele>
    <time>2018-12-27T10:22:43Z</time>
   </trkpt>
   <trkpt lat="41.9902660" lon="2.7707010">
    <ele>99.7</ele>
    <time>2018-12-27T10:22:53Z</time>
   </trkpt>
   <trkpt lat="41.9902450" lon="2.7710930">
    <ele>99.4</ele>
    <time>2018-12-27T10:22:57Z</time>
   </trkpt>
   <trkpt lat="41.9902580" lon="2.7715050">
    <ele>99.2</ele>
    <time>2018-12-27T10:23:02Z</time>
   </trkpt>
   <trkpt lat="41.9902830" lon="2.7719050">
    <ele>99.1</ele>
    <time>2018-12-27T10:23:07Z</time>
   </trkpt>
   <trkpt lat="41.9902680" lon="2.7723450">
    <ele>98.7</ele>
    <time>2018-12-27T10:23:12Z</time>
   </trkpt>
   <trkpt lat="41.9902110" lon="2.7727110">
    <ele>98.4</ele>
    <time>2018-12-27T10:23:17Z</time>
   </trkpt>
   <trkpt lat="41.9902010" lon="2.7731250">
    <ele>98.2</ele>
    <time>2018-12-27T10:23:22Z</time>
   </trkpt>
   <trkpt lat="41.9902110" lon="2.7735480">
    <ele>97.9</ele>
    <time>2018-12-27T10:23:27Z</time>
   </trkpt>
   <trkpt lat="41.9901130" lon="2.7739280">
    <ele>97.5</ele>
    <time>2018-12-27T10:23:31Z</time>
   </trkpt>
   <trkpt lat="41.9900760" lon="2.7742730">
    <ele>97.5</ele>
    <time>2018-12-27T10:23:36Z</time>
   </trkpt>
   <trkpt lat="41.9901380" lon="2.7746250">
    <ele>97.8</ele>
    <time>2018-12-27T10:23:40Z</time>
   </trkpt>
   <trkpt lat="41.9901000" lon="2.7750530">
    <ele>97.8</ele>
    <time>2018-12-27T10:23:45Z</time>
   </trkpt>
   <trkpt lat="41.9901100" lon="2.7755010">
    <ele>97.6</ele>
    <time>2018-12-27T10:23:50Z</time>
   </trkpt>
   <trkpt lat="41.9901050" lon="2.7759450">
    <ele>97.0</ele>
    <time>2018-12-27T10:23:56Z</time>
   </trkpt>
   <trkpt lat="41.9900960" lon="2.7763660">
    <ele>97.4</ele>
    <time>2018-12-27T10:24:01Z</time>
   </trkpt>
   <trkpt lat="41.9900830" lon="2.7767960">
    <ele>97.6</ele>
    <time>2018-12-27T10:24:06Z</time>
   </trkpt>
   <trkpt lat="41.9901000" lon="2.7772000">
    <ele>97.7</ele>
    <time>2018-12-27T10:24:11Z</time>
   </trkpt>
   <trkpt lat="41.9900800" lon="2.7776200">
    <ele>97.6</ele>
    <time>2018-12-27T10:24:16Z</time>
   </trkpt>
   <trkpt lat="41.9900980" lon="2.7784810">
    <ele>97.2</ele>
    <time>2018-12-27T10:24:26Z</time>
   </trkpt>
   <trkpt lat="41.9900600" lon="2.7789380">
    <ele>97.2</ele>
    <time>2018-12-27T10:24:31Z</time>
   </trkpt>
   <trkpt lat="41.9900530" lon="2.7793580">
    <ele>97.1</ele>
    <time>2018-12-27T10:24:36Z</time>
   </trkpt>
   <trkpt lat="41.9900550" lon="2.7797850">
    <ele>96.6</ele>
    <time>2018-12-27T10:24:41Z</time>
   </trkpt>
   <trkpt lat="41.9900800" lon="2.7802360">
    <ele>94.8</ele>
    <time>2018-12-27T10:24:47Z</time>
   </trkpt>
   <trkpt lat="41.9900760" lon="2.7807130">
    <ele>93.5</ele>
    <time>2018-12-27T10:24:52Z</time>
   </trkpt>
   <trkpt lat="41.9900330" lon="2.7811500">
    <ele>92.4</ele>
    <time>2018-12-27T10:24:58Z</time>
   </trkpt>
   <trkpt lat="41.9900160" lon="2.7815730">
    <ele>91.4</ele>
    <time>2018-12-27T10:25:03Z</time>
   </trkpt>
   <trkpt lat="41.9900230" lon="2.7819900">
    <ele>89.7</ele>
    <time>2018-12-27T10:25:08Z</time>
   </trkpt>
   <trkpt lat="41.9900300" lon="2.7824530">
    <ele>88.4</ele>
    <time>2018-12-27T10:25:13Z</time>
   </trkpt>
   <trkpt lat="41.9899800" lon="2.7829110">
    <ele>87.7</ele>
    <time>2018-12-27T10:25:19Z</time>
   </trkpt>
   <trkpt lat="41.9899450" lon="2.7833550">
    <ele>87.1</ele>
    <time>2018-12-27T10:25:24Z</time>
   </trkpt>
   <trkpt lat="41.9899330" lon="2.7837860">
    <ele>86.9</ele>
    <time>2018-12-27T10:25:29Z</time>
   </trkpt>
   <trkpt lat="41.9898930" lon="2.7842060">
    <ele>86.8</ele>
    <time>2018-12-27T10:25:34Z</time>
   </trkpt>
   <trkpt lat="41.9898810" lon="2.7846660">
    <ele>86.1</ele>
    <time>2018-12-27T10:25:40Z</time>
   </trkpt>
   <trkpt lat="41.9898860" lon="2.7850980">
    <ele>85.7</ele>
    <time>2018-12-27T10:25:45Z</time>
   </trkpt>
   <trkpt lat="41.9898760" lon="2.7855550">
    <ele>85.6</ele>
    <time>2018-12-27T10:25:50Z</time>
   </trkpt>
   <trkpt lat="41.9898580" lon="2.7859830">
    <ele>86.3</ele>
    <time>2018-12-27T10:25:55Z</time>
   </trkpt>
   <trkpt lat="41.9899250" lon="2.7863460">
    <ele>87.2</ele>
    <time>2018-12-27T10:26:00Z</time>
   </trkpt>
   <trkpt lat="41.9900360" lon="2.7870010">
    <ele>88.0</ele>
    <time>2018-12-27T10:26:08Z</time>
   </trkpt>
   <trkpt lat="41.9900300" lon="2.7872580">
    <ele>88.1</ele>
    <time>2018-12-27T10:26:11Z</time>
   </trkpt>
   <trkpt lat="41.9900730" lon="2.7875360">
    <ele>88.2</ele>
    <time>2018-12-27T10:26:14Z</time>
   </trkpt>
   <trkpt lat="41.9900710" lon="2.7878660">
    <ele>88.2</ele>
    <time>2018-12-27T10:26:18Z</time>
   </trkpt>
   <trkpt lat="41.9900580" lon="2.7882500">
    <ele>88.3</ele>
    <time>2018-12-27T10:26:23Z</time>
   </trkpt>
   <trkpt lat="41.9900180" lon="2.7885900">
    <ele>88.4</ele>
    <time>2018-12-27T10:26:27Z</time>
   </trkpt>
   <trkpt lat="41.9900100" lon="2.7889300">
    <ele>87.6</ele>
    <time>2018-12-27T10:26:31Z</time>
   </trkpt>
   <trkpt lat="41.9900130" lon="2.7893700">
    <ele>86.4</ele>
    <time>2018-12-27T10:26:36Z</time>
   </trkpt>
   <trkpt lat="41.9899480" lon="2.7897810">
    <ele>85.2</ele>
    <time>2018-12-27T10:26:41Z</time>
   </trkpt>
   <trkpt lat="41.9899110" lon="2.7902180">
    <ele>84.0</ele>
    <time>2018-12-27T10:26:46Z</time>
   </trkpt>
   <trkpt lat="41.9898410" lon="2.7907030">
    <ele>83.1</ele>
    <time>2018-12-27T10:26:52Z</time>
   </trkpt>
   <trkpt lat="41.9898310" lon="2.7912500">
    <ele>82.2</ele>
    <time>2018-12-27T10:26:59Z</time>
   </trkpt>
   <trkpt lat="41.9898550" lon="2.7917610">
    <ele>82.3</ele>
    <time>2018-12-27T10:27:05Z</time>
   </trkpt>
   <trkpt lat="41.9899310" lon="2.7922580">
    <ele>82.6</ele>
    <time>2018-12-27T10:27:11Z</time>
   </trkpt>
   <trkpt lat="41.9899980" lon="2.7927530">
    <ele>82.6</ele>
    <time>2018-12-27T10:27:17Z</time>
   </trkpt>
   <trkpt lat="41.9900510" lon="2.7931860">
    <ele>82.8</ele>
    <time>2018-12-27T10:27:22Z</time>
   </trkpt>
   <trkpt lat="41.9901210" lon="2.7936200">
    <ele>83.0</ele>
    <time>2018-12-27T10:27:27Z</time>
   </trkpt>
   <trkpt lat="41.9902210" lon="2.7939910">
    <ele>83.2</ele>
    <time>2018-12-27T10:27:32Z</time>
   </trkpt>
   <trkpt lat="41.9903410" lon="2.7947050">
    <ele>83.5</ele>
    <time>2018-12-27T10:27:41Z</time>
   </trkpt>
   <trkpt lat="41.9902160" lon="2.7950360">
    <ele>83.4</ele>
    <time>2018-12-27T10:27:45Z</time>
   </trkpt>
   <trkpt lat="41.9901700" lon="2.7953510">
    <ele>82.9</ele>
    <time>2018-12-27T10:27:49Z</time>
   </trkpt>
   <trkpt lat="41.9903880" lon="2.7956360">
    <ele>82.7</ele>
    <time>2018-12-27T10:27:54Z</time>
   </trkpt>
   <trkpt lat="41.9906200" lon="2.7959380">
    <ele>82.6</ele>
    <time>2018-12-27T10:27:59Z</time>
   </trkpt>
   <trkpt lat="41.9906580" lon="2.7963680">
    <ele>82.5</ele>
    <time>2018-12-27T10:28:04Z</time>
   </trkpt>
   <trkpt lat="41.9907250" lon="2.7967450">
    <ele>83.6</ele>
    <time>2018-12-27T10:28:09Z</time>
   </trkpt>
   <trkpt lat="41.9907930" lon="2.7971530">
    <ele>85.2</ele>
    <time>2018-12-27T10:28:14Z</time>
   </trkpt>
   <trkpt lat="41.9908880" lon="2.7975600">
    <ele>85.8</ele>
    <time>2018-12-27T10:28:19Z</time>
   </trkpt>
   <trkpt lat="41.9909250" lon="2.7979280">
    <ele>85.6</ele>
    <time>2018-12-27T10:28:23Z</time>
   </trkpt>
   <trkpt lat="41.9909630" lon="2.7983310">
    <ele>85.6</ele>
    <time>2018-12-27T10:28:28Z</time>
   </trkpt>
   <trkpt lat="41.9910200" lon="2.7987210">
    <ele>86.1</ele>
    <time>2018-12-27T10:28:33Z</time>
   </trkpt>
   <trkpt lat="41.9911110" lon="2.7991300">
    <ele>86.3</ele>
    <time>2018-12-27T10:28:38Z</time>
   </trkpt>
   <trkpt lat="41.9911900" lon="2.7995380">
    <ele>86.1</ele>
    <time>2018-12-27T10:28:43Z</time>
   </trkpt>
   <trkpt lat="41.9912480" lon="2.7999600">
    <ele>85.9</ele>
    <time>2018-12-27T10:28:48Z</time>
   </trkpt>
   <trkpt lat="41.9912910" lon="2.8003300">
    <ele>85.8</ele>
    <time>2018-12-27T10:28:52Z</time>
   </trkpt>
   <trkpt lat="41.9913910" lon="2.8007150">
    <ele>85.6</ele>
    <time>2018-12-27T10:28:57Z</time>
   </trkpt>
   <trkpt lat="41.9914930" lon="2.8011210">
    <ele>85.9</ele>
    <time>2018-12-27T10:29:02Z</time>
   </trkpt>
   <trkpt lat="41.9915410" lon="2.8014980">
    <ele>86.5</ele>
    <time>2018-12-27T10:29:07Z</time>
   </trkpt>
   <trkpt lat="41.9916600" lon="2.8023030">
    <ele>85.2</ele>
    <time>2018-12-27T10:29:17Z</time>
   </trkpt>
   <trkpt lat="41.9917280" lon="2.8027110">
    <ele>84.5</ele>
    <time>2018-12-27T10:29:22Z</time>
   </trkpt>
   <trkpt lat="41.9917730" lon="2.8031380">
    <ele>83.9</ele>
    <time>2018-12-27T10:29:27Z</time>
   </trkpt>
   <trkpt lat="41.9918330" lon="2.8035330">
    <ele>83.4</ele>
    <time>2018-12-27T10:29:32Z</time>
   </trkpt>
   <trkpt lat="41.9919200" lon="2.8039360">
    <ele>82.9</ele>
    <time>2018-12-27T10:29:37Z</time>
   </trkpt>
   <trkpt lat="41.9920150" lon="2.8043460">
    <ele>82.5</ele>
    <time>2018-12-27T10:29:42Z</time>
   </trkpt>
   <trkpt lat="41.9921150" lon="2.8047300">
    <ele>81.9</ele>
    <time>2018-12-27T10:29:47Z</time>
   </trkpt>
   <trkpt lat="41.9921730" lon="2.8051380">
    <ele>81.5</ele>
    <time>2018-12-27T10:29:52Z</time>
   </trkpt>
   <trkpt lat="41.9922060" lon="2.8055030">
    <ele>81.4</ele>
    <time>2018-12-27T10:29:56Z</time>
   </trkpt>
   <trkpt lat="41.9922580" lon="2.8059260">
    <ele>81.3</ele>
    <time>2018-12-27T10:30:01Z</time>
   </trkpt>
   <trkpt lat="41.9922860" lon="2.8063380">
    <ele>80.9</ele>
    <time>2018-12-27T10:30:06Z</time>
   </trkpt>
   <trkpt lat="41.9922830" lon="2.8067380">
    <ele>80.4</ele>
    <time>2018-12-27T10:30:11Z</time>
   </trkpt>
   <trkpt lat="41.9922560" lon="2.8071860">
    <ele>79.8</ele>
    <time>2018-12-27T10:30:16Z</time>
   </trkpt>
   <trkpt lat="41.9922600" lon="2.8076100">
    <ele>78.7</ele>
    <time>2018-12-27T10:30:21Z</time>
   </trkpt>
   <trkpt lat="41.9922550" lon="2.8080260">
    <ele>77.9</ele>
    <time>2018-12-27T10:30:26Z</time>
   </trkpt>
   <trkpt lat="41.9922610" lon="2.8084050">
    <ele>76.8</ele>
    <time>2018-12-27T10:30:31Z</time>
   </trkpt>
   <trkpt lat="41.9921680" lon="2.8087330">
    <ele>77.0</ele>
    <time>2018-12-27T10:30:35Z</time>
   </trkpt>
   <trkpt lat="41.9921030" lon="2.8090130">
    <ele>77.2</ele>
    <time>2018-12-27T10:30:38Z</time>
   </trkpt>
   <trkpt lat="41.9921950" lon="2.8093660">
    <ele>77.5</ele>
    <time>2018-12-27T10:30:43Z</time>
   </trkpt>
   <trkpt lat="41.9922260" lon="2.8101110">
    <ele>77.9</ele>
    <time>2018-12-27T10:30:52Z</time>
   </trkpt>
   <trkpt lat="41.9922250" lon="2.8104780">
    <ele>77.7</ele>
    <time>2018-12-27T10:30:56Z</time>
   </trkpt>
   <trkpt lat="41.9922480" lon="2.8108330">
    <ele>77.1</ele>
    <time>2018-12-27T10:31:00Z</time>
   </trkpt>
   <trkpt lat="41.9922710" lon="2.8111150">
    <ele>76.8</ele>
    <time>2018-12-27T10:31:04Z</time>
   </trkpt>
   <trkpt lat="41.9922550" lon="2.8112530">
    <ele>76.8</ele>
    <time>2018-12-27T10:31:05Z</time>
   </trkpt>
   <trkpt lat="41.9922280" lon="2.8113130">
    <ele>76.5</ele>
    <time>2018-12-27T10:31:06Z</time>
   </trkpt>
   <trkpt lat="41.9921880" lon="2.8113930">
    <ele>76.3</ele>
    <time>2018-12-27T10:31:07Z</time>
   </trkpt>
   <trkpt lat="41.9921080" lon="2.8115500">
    <ele>75.9</ele>
    <time>2018-12-27T10:31:09Z</time>
   </trkpt>
   <trkpt lat="41.9921280" lon="2.8118030">
    <ele>76.0</ele>
    <time>2018-12-27T10:31:12Z</time>
   </trkpt>
   <trkpt lat="41.9923000" lon="2.8119800">
    <ele>76.7</ele>
    <time>2018-12-27T10:31:16Z</time>
   </trkpt>
   <trkpt lat="41.9925210" lon="2.8119850">
    <ele>77.4</ele>
    <time>2018-12-27T10:31:19Z</time>
   </trkpt>
   <trkpt lat="41.9927110" lon="2.8121360">
    <ele>78.0</ele>
    <time>2018-12-27T10:31:23Z</time>
   </trkpt>
   <trkpt lat="41.9928800" lon="2.8123230">
    <ele>78.4</ele>
    <time>2018-12-27T10:31:26Z</time>
   </trkpt>
   <trkpt lat="41.9930650" lon="2.8125180">
    <ele>78.9</ele>
    <time>2018-12-27T10:31:30Z</time>
   </trkpt>
   <trkpt lat="41.9932480" lon="2.8127080">
    <ele>79.3</ele>
    <time>2018-12-27T10:31:34Z</time>
   </trkpt>
   <trkpt lat="41.9934210" lon="2.8129060">
    <ele>78.6</ele>
    <time>2018-12-27T10:31:38Z</time>
   </trkpt>
   <trkpt lat="41.9935980" lon="2.8130960">
    <ele>78.4</ele>
    <time>2018-12-27T10:31:41Z</time>
   </trkpt>
   <trkpt lat="41.9937700" lon="2.8132980">
    <ele>78.3</ele>
    <time>2018-12-27T10:31:45Z</time>
   </trkpt>
   <trkpt lat="41.9939500" lon="2.8134930">
    <ele>78.7</ele>
    <time>2018-12-27T10:31:49Z</time>
   </trkpt>
   <trkpt lat="41.9941260" lon="2.8136860">
    <ele>79.4</ele>
    <time>2018-12-27T10:31:52Z</time>
   </trkpt>
   <trkpt lat="41.9943010" lon="2.8138800">
    <ele>80.2</ele>
    <time>2018-12-27T10:31:56Z</time>
   </trkpt>
   <trkpt lat="41.9944750" lon="2.8140700">
    <ele>81.0</ele>
    <time>2018-12-27T10:31:59Z</time>
   </trkpt>
   <trkpt lat="41.9946300" lon="2.8142380">
    <ele>81.7</ele>
    <time>2018-12-27T10:32:03Z</time>
   </trkpt>
   <trkpt lat="41.9947830" lon="2.8144110">
    <ele>82.9</ele>
    <time>2018-12-27T10:32:06Z</time>
   </trkpt>
   <trkpt lat="41.9949450" lon="2.8146000">
    <ele>84.1</ele>
    <time>2018-12-27T10:32:09Z</time>
   </trkpt>
   <trkpt lat="41.9951130" lon="2.8147860">
    <ele>84.5</ele>
    <time>2018-12-27T10:32:13Z</time>
   </trkpt>
   <trkpt lat="41.9952880" lon="2.8149780">
    <ele>84.9</ele>
    <time>2018-12-27T10:32:16Z</time>
   </trkpt>
   <trkpt lat="41.9954560" lon="2.8151710">
    <ele>85.5</ele>
    <time>2018-12-27T10:32:20Z</time>
   </trkpt>
   <trkpt lat="41.9956210" lon="2.8153550">
    <ele>86.3</ele>
    <time>2018-12-27T10:32:23Z</time>
   </trkpt>
   <trkpt lat="41.9957900" lon="2.8155410">
    <ele>87.1</ele>
    <time>2018-12-27T10:32:27Z</time>
   </trkpt>
   <trkpt lat="41.9959710" lon="2.8157110">
    <ele>88.1</ele>
    <time>2018-12-27T10:32:30Z</time>
   </trkpt>
   <trkpt lat="41.9961650" lon="2.8158610">
    <ele>88.9</ele>
    <time>2018-12-27T10:32:34Z</time>
   </trkpt>
   <trkpt lat="41.9963680" lon="2.8159960">
    <ele>89.5</ele>
    <time>2018-12-27T10:32:38Z</time>
   </trkpt>
   <trkpt lat="41.9965930" lon="2.8161200">
    <ele>89.9</ele>
    <time>2018-12-27T10:32:41Z</time>
   </trkpt>
   <trkpt lat="41.9968080" lon="2.8162130">
    <ele>90.7</ele>
    <time>2018-12-27T10:32:45Z</time>
   </trkpt>
   <trkpt lat="41.9970530" lon="2.8163250">
    <ele>91.0</ele>
    <time>2018-12-27T10:32:49Z</time>
   </trkpt>
   <trkpt lat="41.9973030" lon="2.8164230">
    <ele>90.4</ele>
    <time>2018-12-27T10:32:53Z</time>
   </trkpt>
   <trkpt lat="41.9975510" lon="2.8165200">
    <ele>89.3</ele>
    <time>2018-12-27T10:32:57Z</time>
   </trkpt>
   <trkpt lat="41.9978480" lon="2.8166380">
    <ele>87.8</ele>
    <time>2018-12-27T10:33:02Z</time>
   </trkpt>
   <trkpt lat="41.9981300" lon="2.8167480">
    <ele>86.2</ele>
    <time>2018-12-27T10:33:07Z</time>
   </trkpt>
   <trkpt lat="41.9983780" lon="2.8168910">
    <ele>84.3</ele>
    <time>2018-12-27T10:33:11Z</time>
   </trkpt>
   <trkpt lat="41.9987330" lon="2.8170530">
    <ele>81.4</ele>
    <time>2018-12-27T10:33:17Z</time>
   </trkpt>
   <trkpt lat="41.9991010" lon="2.8172250">
    <ele>78.4</ele>
    <time>2018-12-27T10:33:24Z</time>
   </trkpt>
   <trkpt lat="41.9994280" lon="2.8173880">
    <ele>76.7</ele>
    <time>2018-12-27T10:33:29Z</time>
   </trkpt>
   <trkpt lat="41.9995550" lon="2.8175030">
    <ele>76.3</ele>
    <time>2018-12-27T10:33:32Z</time>
   </trkpt>
   <trkpt lat="41.9996410" lon="2.8177010">
    <ele>76.1</ele>
    <time>2018-12-27T10:33:34Z</time>
   </trkpt>
   <trkpt lat="41.9998430" lon="2.8178310">
    <ele>76.0</ele>
    <time>2018-12-27T10:33:38Z</time>
   </trkpt>
   <trkpt lat="42.0000750" lon="2.8176750">
    <ele>75.7</ele>
    <time>2018-12-27T10:33:42Z</time>
   </trkpt>
   <trkpt lat="42.0001460" lon="2.8173610">
    <ele>75.5</ele>
    <time>2018-12-27T10:33:46Z</time>
   </trkpt>
   <trkpt lat="42.0002600" lon="2.8170730">
    <ele>75.2</ele>
    <time>2018-12-27T10:33:50Z</time>
   </trkpt>
   <trkpt lat="42.0004910" lon="2.8168830">
    <ele>74.8</ele>
    <time>2018-12-27T10:33:54Z</time>
   </trkpt>
   <trkpt lat="42.0007110" lon="2.8166830">
    <ele>74.2</ele>
    <time>2018-12-27T10:33:59Z</time>
   </trkpt>
   <trkpt lat="42.0009910" lon="2.8165400">
    <ele>73.4</ele>
    <time>2018-12-27T10:34:03Z</time>
   </trkpt>
   <trkpt lat="42.0012650" lon="2.8164330">
    <ele>72.7</ele>
    <time>2018-12-27T10:34:08Z</time>
   </trkpt>
   <trkpt lat="42.0015330" lon="2.8163300">
    <ele>72.1</ele>
    <time>2018-12-27T10:34:12Z</time>
   </trkpt>
   <trkpt lat="42.0018150" lon="2.8162730">
    <ele>71.7</ele>
    <time>2018-12-27T10:34:17Z</time>
   </trkpt>
   <trkpt lat="42.0020850" lon="2.8162210">
    <ele>71.4</ele>
    <time>2018-12-27T10:34:21Z</time>
   </trkpt>
   <trkpt lat="42.0023530" lon="2.8161660">
    <ele>71.3</ele>
    <time>2018-12-27T10:34:26Z</time>
   </trkpt>
   <trkpt lat="42.0026330" lon="2.8161100">
    <ele>70.9</ele>
    <time>2018-12-27T10:34:30Z</time>
   </trkpt>
   <trkpt lat="42.0029200" lon="2.8160680">
    <ele>70.3</ele>
    <time>2018-12-27T10:34:35Z</time>
   </trkpt>
   <trkpt lat="42.0032080" lon="2.8160900">
    <ele>70.0</ele>
    <time>2018-12-27T10:34:39Z</time>
   </trkpt>
   <trkpt lat="42.0034730" lon="2.8161550">
    <ele>70.0</ele>
    <time>2018-12-27T10:34:44Z</time>
   </trkpt>
   <trkpt lat="42.0038080" lon="2.8161860">
    <ele>70.0</ele>
    <time>2018-12-27T10:34:49Z</time>
   </trkpt>
   <trkpt lat="42.0040330" lon="2.8162100">
    <ele>70.0</ele>
    <time>2018-12-27T10:34:53Z</time>
   </trkpt>
   <trkpt lat="42.0043060" lon="2.8162560">
    <ele>70.0</ele>
    <time>2018-12-27T10:34:57Z</time>
   </trkpt>
   <trkpt lat="42.0045880" lon="2.8163010">
    <ele>69.9</ele>
    <time>2018-12-27T10:35:02Z</time>
   </trkpt>
   <trkpt lat="42.0048760" lon="2.8163450">
    <ele>69.8</ele>
    <time>2018-12-27T10:35:06Z</time>
   </trkpt>
   <trkpt lat="42.0051610" lon="2.8164050">
    <ele>69.5</ele>
    <time>2018-12-27T10:35:11Z</time>
   </trkpt>
   <trkpt lat="42.0054530" lon="2.8164480">
    <ele>69.2</ele>
    <time>2018-12-27T10:35:16Z</time>
   </trkpt>
   <trkpt lat="42.0057410" lon="2.8164960">
    <ele>68.8</ele>
    <time>2018-12-27T10:35:20Z</time>
   </trkpt>
   <trkpt lat="42.0060350" lon="2.8165410">
    <ele>68.0</ele>
    <time>2018-12-27T10:35:25Z</time>
   </trkpt>
   <trkpt lat="42.0063200" lon="2.8165900">
    <ele>67.4</ele>
    <time>2018-12-27T10:35:30Z</time>
   </trkpt>
   <trkpt lat="42.0065810" lon="2.8166200">
    <ele>67.2</ele>
    <time>2018-12-27T10:35:34Z</time>
   </trkpt>
   <trkpt lat="42.0068510" lon="2.8166630">
    <ele>67.1</ele>
    <time>2018-12-27T10:35:38Z</time>
   </trkpt>
   <trkpt lat="42.0071280" lon="2.8167050">
    <ele>67.0</ele>
    <time>2018-12-27T10:35:43Z</time>
   </trkpt>
   <trkpt lat="42.0074100" lon="2.8167510">
    <ele>66.9</ele>
    <time>2018-12-27T10:35:47Z</time>
   </trkpt>
   <trkpt lat="42.0076980" lon="2.8167960">
    <ele>66.6</ele>
    <time>2018-12-27T10:35:52Z</time>
   </trkpt>
   <trkpt lat="42.0079850" lon="2.8168400">
    <ele>65.8</ele>
    <time>2018-12-27T10:35:56Z</time>
   </trkpt>
   <trkpt lat="42.0082530" lon="2.8168880">
    <ele>65.1</ele>
    <time>2018-12-27T10:36:01Z</time>
   </trkpt>
   <trkpt lat="42.0085060" lon="2.8169210">
    <ele>64.4</ele>
    <time>2018-12-27T10:36:05Z</time>
   </trkpt>
   <trkpt lat="42.0087200" lon="2.8169680">
    <ele>63.6</ele>
    <time>2018-12-27T10:36:08Z</time>
   </trkpt>
   <trkpt lat="42.0088780" lon="2.8171380">
    <ele>63.0</ele>
    <time>2018-12-27T10:36:12Z</time>
   </trkpt>
   <trkpt lat="42.0090710" lon="2.8172350">
    <ele>63.4</ele>
    <time>2018-12-27T10:36:15Z</time>
   </trkpt>
   <trkpt lat="42.0092480" lon="2.8171550">
    <ele>64.3</ele>
    <time>2018-12-27T10:36:18Z</time>
   </trkpt>
   <trkpt lat="42.0094080" lon="2.8171060">
    <ele>66.4</ele>
    <time>2018-12-27T10:36:21Z</time>
   </trkpt>
   <trkpt lat="42.0095360" lon="2.8171560">
    <ele>67.4</ele>
    <time>2018-12-27T10:36:23Z</time>
   </trkpt>
   <trkpt lat="42.0096380" lon="2.8171550">
    <ele>68.2</ele>
    <time>2018-12-27T10:36:24Z</time>
   </trkpt>
   <trkpt lat="42.0097360" lon="2.8171580">
    <ele>68.7</ele>
    <time>2018-12-27T10:36:26Z</time>
   </trkpt>
   <trkpt lat="42.0098160" lon="2.8171710">
    <ele>69.1</ele>
    <time>2018-12-27T10:36:27Z</time>
   </trkpt>
   <trkpt lat="42.0098650" lon="2.8172200">
    <ele>69.3</ele>
    <time>2018-12-27T10:36:28Z</time>
   </trkpt>
   <trkpt lat="42.0100510" lon="2.8172030">
    <ele>69.6</ele>
    <time>2018-12-27T10:36:31Z</time>
   </trkpt>
   <trkpt lat="42.0102430" lon="2.8172260">
    <ele>69.6</ele>
    <time>2018-12-27T10:36:34Z</time>
   </trkpt>
   <trkpt lat="42.0104700" lon="2.8172480">
    <ele>69.6</ele>
    <time>2018-12-27T10:36:38Z</time>
   </trkpt>
   <trkpt lat="42.0107060" lon="2.8172860">
    <ele>69.7</ele>
    <time>2018-12-27T10:36:42Z</time>
   </trkpt>
   <trkpt lat="42.0109460" lon="2.8172730">
    <ele>69.9</ele>
    <time>2018-12-27T10:36:45Z</time>
   </trkpt>
   <trkpt lat="42.0111610" lon="2.8173060">
    <ele>70.0</ele>
    <time>2018-12-27T10:36:49Z</time>
   </trkpt>
   <trkpt lat="42.0114660" lon="2.8173010">
    <ele>70.1</ele>
    <time>2018-12-27T10:36:54Z</time>
   </trkpt>
   <trkpt lat="42.0116980" lon="2.8173560">
    <ele>70.2</ele>
    <time>2018-12-27T10:36:58Z</time>
   </trkpt>
   <trkpt lat="42.0118800" lon="2.8174550">
    <ele>70.3</ele>
    <time>2018-12-27T10:37:01Z</time>
   </trkpt>
   <trkpt lat="42.0121350" lon="2.8174830">
    <ele>70.2</ele>
    <time>2018-12-27T10:37:05Z</time>
   </trkpt>
   <trkpt lat="42.0123400" lon="2.8175650">
    <ele>69.5</ele>
    <time>2018-12-27T10:37:08Z</time>
   </trkpt>
   <trkpt lat="42.0128810" lon="2.8177180">
    <ele>69.8</ele>
    <time>2018-12-27T10:37:17Z</time>
   </trkpt>
   <trkpt lat="42.0131150" lon="2.8178050">
    <ele>69.7</ele>
    <time>2018-12-27T10:37:21Z</time>
   </trkpt>
   <trkpt lat="42.0133610" lon="2.8178980">
    <ele>69.6</ele>
    <time>2018-12-27T10:37:25Z</time>
   </trkpt>
   <trkpt lat="42.0136260" lon="2.8180200">
    <ele>69.4</ele>
    <time>2018-12-27T10:37:30Z</time>
   </trkpt>
   <trkpt lat="42.0138230" lon="2.8181780">
    <ele>69.4</ele>
    <time>2018-12-27T10:37:33Z</time>
   </trkpt>
   <trkpt lat="42.0140560" lon="2.8182830">
    <ele>69.4</ele>
    <time>2018-12-27T10:37:37Z</time>
   </trkpt>
   <trkpt lat="42.0143010" lon="2.8184010">
    <ele>69.3</ele>
    <time>2018-12-27T10:37:41Z</time>
   </trkpt>
   <trkpt lat="42.0145130" lon="2.8185630">
    <ele>69.3</ele>
    <time>2018-12-27T10:37:45Z</time>
   </trkpt>
   <trkpt lat="42.0147460" lon="2.8187380">
    <ele>69.2</ele>
    <time>2018-12-27T10:37:50Z</time>
   </trkpt>
   <trkpt lat="42.0150100" lon="2.8188860">
    <ele>69.2</ele>
    <time>2018-12-27T10:37:54Z</time>
   </trkpt>
   <trkpt lat="42.0152510" lon="2.8190430">
    <ele>69.1</ele>
    <time>2018-12-27T10:37:58Z</time>
   </trkpt>
   <trkpt lat="42.0155110" lon="2.8192010">
    <ele>68.9</ele>
    <time>2018-12-27T10:38:03Z</time>
   </trkpt>
   <trkpt lat="42.0156960" lon="2.8194200">
    <ele>68.8</ele>
    <time>2018-12-27T10:38:07Z</time>
   </trkpt>
   <trkpt lat="42.0159150" lon="2.8196110">
    <ele>68.6</ele>
    <time>2018-12-27T10:38:11Z</time>
   </trkpt>
   <trkpt lat="42.0160610" lon="2.8198080">
    <ele>68.4</ele>
    <time>2018-12-27T10:38:14Z</time>
   </trkpt>
   <trkpt lat="42.0162780" lon="2.8200050">
    <ele>68.3</ele>
    <time>2018-12-27T10:38:19Z</time>
   </trkpt>
   <trkpt lat="42.0164610" lon="2.8201730">
    <ele>68.4</ele>
    <time>2018-12-27T10:38:22Z</time>
   </trkpt>
   <trkpt lat="42.0165750" lon="2.8203750">
    <ele>68.9</ele>
    <time>2018-12-27T10:38:25Z</time>
   </trkpt>
   <trkpt lat="42.0167210" lon="2.8206010">
    <ele>69.4</ele>
    <time>2018-12-27T10:38:29Z</time>
   </trkpt>
   <trkpt lat="42.0171280" lon="2.8207630">
    <ele>69.3</ele>
    <time>2018-12-27T10:38:35Z</time>
   </trkpt>
   <trkpt lat="42.0173460" lon="2.8209510">
    <ele>69.7</ele>
    <time>2018-12-27T10:38:40Z</time>
   </trkpt>
   <trkpt lat="42.0175930" lon="2.8211500">
    <ele>69.9</ele>
    <time>2018-12-27T10:38:44Z</time>
   </trkpt>
   <trkpt lat="42.0178700" lon="2.8213110">
    <ele>69.7</ele>
    <time>2018-12-27T10:38:49Z</time>
   </trkpt>
   <trkpt lat="42.0181280" lon="2.8214700">
    <ele>69.2</ele>
    <time>2018-12-27T10:38:54Z</time>
   </trkpt>
   <trkpt lat="42.0183130" lon="2.8216800">
    <ele>69.0</ele>
    <time>2018-12-27T10:38:57Z</time>
   </trkpt>
   <trkpt lat="42.0185380" lon="2.8218730">
    <ele>68.6</ele>
    <time>2018-12-27T10:39:02Z</time>
   </trkpt>
   <trkpt lat="42.0187200" lon="2.8221000">
    <ele>68.2</ele>
    <time>2018-12-27T10:39:06Z</time>
   </trkpt>
   <trkpt lat="42.0189100" lon="2.8223150">
    <ele>68.2</ele>
    <time>2018-12-27T10:39:10Z</time>
   </trkpt>
   <trkpt lat="42.0191000" lon="2.8225300">
    <ele>68.1</ele>
    <time>2018-12-27T10:39:14Z</time>
   </trkpt>
   <trkpt lat="42.0193430" lon="2.8227500">
    <ele>68.0</ele>
    <time>2018-12-27T10:39:18Z</time>
   </trkpt>
   <trkpt lat="42.0195730" lon="2.8229600">
    <ele>67.5</ele>
    <time>2018-12-27T10:39:23Z</time>
   </trkpt>
   <trkpt lat="42.0197710" lon="2.8231650">
    <ele>67.2</ele>
    <time>2018-12-27T10:39:27Z</time>
   </trkpt>
   <trkpt lat="42.0200300" lon="2.8233000">
    <ele>67.2</ele>
    <time>2018-12-27T10:39:31Z</time>
   </trkpt>
   <trkpt lat="42.0202710" lon="2.8235080">
    <ele>66.2</ele>
    <time>2018-12-27T10:39:36Z</time>
   </trkpt>
   <trkpt lat="42.0204880" lon="2.8237450">
    <ele>65.1</ele>
    <time>2018-12-27T10:39:40Z</time>
   </trkpt>
   <trkpt lat="42.0207150" lon="2.8239280">
    <ele>64.7</ele>
    <time>2018-12-27T10:39:45Z</time>
   </trkpt>
   <trkpt lat="42.0211400" lon="2.8243300">
    <ele>64.1</ele>
    <time>2018-12-27T10:39:53Z</time>
   </trkpt>
   <trkpt lat="42.0213910" lon="2.8245430">
    <ele>64.5</ele>
    <time>2018-12-27T10:39:58Z</time>
   </trkpt>
   <trkpt lat="42.0216410" lon="2.8247300">
    <ele>64.6</ele>
    <time>2018-12-27T10:40:02Z</time>
   </trkpt>
   <trkpt lat="42.0218810" lon="2.8249250">
    <ele>65.0</ele>
    <time>2018-12-27T10:40:07Z</time>
   </trkpt>
   <trkpt lat="42.0221400" lon="2.8251530">
    <ele>65.0</ele>
    <time>2018-12-27T10:40:12Z</time>
   </trkpt>
   <trkpt lat="42.0224460" lon="2.8253380">
    <ele>64.3</ele>
    <time>2018-12-27T10:40:17Z</time>
   </trkpt>
   <trkpt lat="42.0226830" lon="2.8255800">
    <ele>64.0</ele>
    <time>2018-12-27T10:40:22Z</time>
   </trkpt>
   <trkpt lat="42.0228950" lon="2.8257950">
    <ele>64.0</ele>
    <time>2018-12-27T10:40:26Z</time>
   </trkpt>
   <trkpt lat="42.0231500" lon="2.8260030">
    <ele>64.1</ele>
    <time>2018-12-27T10:40:31Z</time>
   </trkpt>
   <trkpt lat="42.0233510" lon="2.8262430">
    <ele>64.2</ele>
    <time>2018-12-27T10:40:35Z</time>
   </trkpt>
   <trkpt lat="42.0234500" lon="2.8265500">
    <ele>63.1</ele>
    <time>2018-12-27T10:40:39Z</time>
   </trkpt>
   <trkpt lat="42.0236830" lon="2.8265010">
    <ele>62.6</ele>
    <time>2018-12-27T10:40:43Z</time>
   </trkpt>
   <trkpt lat="42.0237450" lon="2.8261780">
    <ele>63.8</ele>
    <time>2018-12-27T10:40:47Z</time>
   </trkpt>
   <trkpt lat="42.0235400" lon="2.8260000">
    <ele>64.8</ele>
    <time>2018-12-27T10:40:51Z</time>
   </trkpt>
   <trkpt lat="42.0235450" lon="2.8257860">
    <ele>65.1</ele>
    <time>2018-12-27T10:40:53Z</time>
   </trkpt>
   <trkpt lat="42.0235660" lon="2.8255230">
    <ele>65.4</ele>
    <time>2018-12-27T10:40:56Z</time>
   </trkpt>
   <trkpt lat="42.0236160" lon="2.8252750">
    <ele>65.8</ele>
    <time>2018-12-27T10:40:59Z</time>
   </trkpt>
   <trkpt lat="42.0236700" lon="2.8250030">
    <ele>66.5</ele>
    <time>2018-12-27T10:41:03Z</time>
   </trkpt>
   <trkpt lat="42.0236960" lon="2.8246030">
    <ele>67.8</ele>
    <time>2018-12-27T10:41:08Z</time>
   </trkpt>
   <trkpt lat="42.0237530" lon="2.8243210">
    <ele>68.2</ele>
    <time>2018-12-27T10:41:11Z</time>
   </trkpt>
   <trkpt lat="42.0238010" lon="2.8240950">
    <ele>68.7</ele>
    <time>2018-12-27T10:41:14Z</time>
   </trkpt>
   <trkpt lat="42.0238330" lon="2.8238810">
    <ele>68.9</ele>
    <time>2018-12-27T10:41:16Z</time>
   </trkpt>
   <trkpt lat="42.0238930" lon="2.8236760">
    <ele>69.0</ele>
    <time>2018-12-27T10:41:19Z</time>
   </trkpt>
   <trkpt lat="42.0240330" lon="2.8235700">
    <ele>69.1</ele>
    <time>2018-12-27T10:41:22Z</time>
   </trkpt>
   <trkpt lat="42.0242110" lon="2.8235160">
    <ele>69.1</ele>
    <time>2018-12-27T10:41:25Z</time>
   </trkpt>
   <trkpt lat="42.0243500" lon="2.8234160">
    <ele>69.0</ele>
    <time>2018-12-27T10:41:27Z</time>
   </trkpt>
   <trkpt lat="42.0245410" lon="2.8233500">
    <ele>68.9</ele>
    <time>2018-12-27T10:41:30Z</time>
   </trkpt>
   <trkpt lat="42.0247160" lon="2.8232800">
    <ele>68.8</ele>
    <time>2018-12-27T10:41:33Z</time>
   </trkpt>
   <trkpt lat="42.0248880" lon="2.8232080">
    <ele>68.8</ele>
    <time>2018-12-27T10:41:36Z</time>
   </trkpt>
   <trkpt lat="42.0250660" lon="2.8231710">
    <ele>69.1</ele>
    <time>2018-12-27T10:41:39Z</time>
   </trkpt>
   <trkpt lat="42.0252510" lon="2.8231650">
    <ele>69.4</ele>
    <time>2018-12-27T10:41:42Z</time>
   </trkpt>
   <trkpt lat="42.0254330" lon="2.8231650">
    <ele>69.7</ele>
    <time>2018-12-27T10:41:45Z</time>
   </trkpt>
   <trkpt lat="42.0256000" lon="2.8231580">
    <ele>70.0</ele>
    <time>2018-12-27T10:41:48Z</time>
   </trkpt>
   <trkpt lat="42.0257380" lon="2.8231630">
    <ele>70.2</ele>
    <time>2018-12-27T10:41:50Z</time>
   </trkpt>
   <trkpt lat="42.0259080" lon="2.8231380">
    <ele>70.3</ele>
    <time>2018-12-27T10:41:52Z</time>
   </trkpt>
   <trkpt lat="42.0260650" lon="2.8231750">
    <ele>70.5</ele>
    <time>2018-12-27T10:41:55Z</time>
   </trkpt>
   <trkpt lat="42.0261660" lon="2.8231630">
    <ele>70.6</ele>
    <time>2018-12-27T10:41:57Z</time>
   </trkpt>
   <trkpt lat="42.0264730" lon="2.8231180">
    <ele>70.8</ele>
    <time>2018-12-27T10:42:02Z</time>
   </trkpt>
   <trkpt lat="42.0266000" lon="2.8231030">
    <ele>70.8</ele>
    <time>2018-12-27T10:42:04Z</time>
   </trkpt>
   <trkpt lat="42.0267060" lon="2.8231060">
    <ele>71.6</ele>
    <time>2018-12-27T10:42:05Z</time>
   </trkpt>
   <trkpt lat="42.0268680" lon="2.8230550">
    <ele>72.7</ele>
    <time>2018-12-27T10:42:08Z</time>
   </trkpt>
   <trkpt lat="42.0270500" lon="2.8229850">
    <ele>73.7</ele>
    <time>2018-12-27T10:42:11Z</time>
   </trkpt>
   <trkpt lat="42.0272110" lon="2.8228980">
    <ele>74.4</ele>
    <time>2018-12-27T10:42:14Z</time>
   </trkpt>
   <trkpt lat="42.0273760" lon="2.8228260">
    <ele>76.1</ele>
    <time>2018-12-27T10:42:17Z</time>
   </trkpt>
   <trkpt lat="42.0275630" lon="2.8227400">
    <ele>78.3</ele>
    <time>2018-12-27T10:42:20Z</time>
   </trkpt>
   <trkpt lat="42.0277600" lon="2.8226210">
    <ele>79.7</ele>
    <time>2018-12-27T10:42:23Z</time>
   </trkpt>
   <trkpt lat="42.0279130" lon="2.8225010">
    <ele>80.5</ele>
    <time>2018-12-27T10:42:26Z</time>
   </trkpt>
   <trkpt lat="42.0280700" lon="2.8223850">
    <ele>80.9</ele>
    <time>2018-12-27T10:42:29Z</time>
   </trkpt>
   <trkpt lat="42.0282580" lon="2.8222380">
    <ele>81.6</ele>
    <time>2018-12-27T10:42:32Z</time>
   </trkpt>
   <trkpt lat="42.0284310" lon="2.8221580">
    <ele>82.6</ele>
    <time>2018-12-27T10:42:35Z</time>
   </trkpt>
   <trkpt lat="42.0286280" lon="2.8222430">
    <ele>84.0</ele>
    <time>2018-12-27T10:42:39Z</time>
   </trkpt>
   <trkpt lat="42.0288480" lon="2.8221900">
    <ele>85.3</ele>
    <time>2018-12-27T10:42:42Z</time>
   </trkpt>
   <trkpt lat="42.0289800" lon="2.8220130">
    <ele>85.0</ele>
    <time>2018-12-27T10:42:45Z</time>
   </trkpt>
   <trkpt lat="42.0291730" lon="2.8219910">
    <ele>85.3</ele>
    <time>2018-12-27T10:42:48Z</time>
   </trkpt>
   <trkpt lat="42.0295330" lon="2.8219830">
    <ele>86.2</ele>
    <time>2018-12-27T10:42:54Z</time>
   </trkpt>
   <trkpt lat="42.0297200" lon="2.8219280">
    <ele>86.7</ele>
    <time>2018-12-27T10:42:57Z</time>
   </trkpt>
   <trkpt lat="42.0299150" lon="2.8219300">
    <ele>87.6</ele>
    <time>2018-12-27T10:43:00Z</time>
   </trkpt>
   <trkpt lat="42.0301110" lon="2.8218760">
    <ele>88.4</ele>
    <time>2018-12-27T10:43:03Z</time>
   </trkpt>
   <trkpt lat="42.0303180" lon="2.8218310">
    <ele>89.0</ele>
    <time>2018-12-27T10:43:07Z</time>
   </trkpt>
   <trkpt lat="42.0305060" lon="2.8218210">
    <ele>89.4</ele>
    <time>2018-12-27T10:43:10Z</time>
   </trkpt>
   <trkpt lat="42.0306800" lon="2.8217850">
    <ele>89.8</ele>
    <time>2018-12-27T10:43:13Z</time>
   </trkpt>
   <trkpt lat="42.0308480" lon="2.8217660">
    <ele>90.0</ele>
    <time>2018-12-27T10:43:15Z</time>
   </trkpt>
   <trkpt lat="42.0310860" lon="2.8217550">
    <ele>90.3</ele>
    <time>2018-12-27T10:43:19Z</time>
   </trkpt>
   <trkpt lat="42.0312980" lon="2.8217010">
    <ele>90.7</ele>
    <time>2018-12-27T10:43:23Z</time>
   </trkpt>
   <trkpt lat="42.0314480" lon="2.8216630">
    <ele>91.0</ele>
    <time>2018-12-27T10:43:25Z</time>
   </trkpt>
   <trkpt lat="42.0316200" lon="2.8216560">
    <ele>91.3</ele>
    <time>2018-12-27T10:43:28Z</time>
   </trkpt>
   <trkpt lat="42.0318310" lon="2.8216650">
    <ele>91.7</ele>
    <time>2018-12-27T10:43:31Z</time>
   </trkpt>
   <trkpt lat="42.0320230" lon="2.8216950">
    <ele>92.0</ele>
    <time>2018-12-27T10:43:34Z</time>
   </trkpt>
   <trkpt lat="42.0321830" lon="2.8217180">
    <ele>92.4</ele>
    <time>2018-12-27T10:43:37Z</time>
   </trkpt>
   <trkpt lat="42.0323780" lon="2.8217150">
    <ele>93.0</ele>
    <time>2018-12-27T10:43:40Z</time>
   </trkpt>
   <trkpt lat="42.0325930" lon="2.8217280">
    <ele>93.8</ele>
    <time>2018-12-27T10:43:43Z</time>
   </trkpt>
   <trkpt lat="42.0328210" lon="2.8217330">
    <ele>94.7</ele>
    <time>2018-12-27T10:43:47Z</time>
   </trkpt>
   <trkpt lat="42.0330450" lon="2.8216960">
    <ele>95.3</ele>
    <time>2018-12-27T10:43:51Z</time>
   </trkpt>
   <trkpt lat="42.0334060" lon="2.8217680">
    <ele>96.1</ele>
    <time>2018-12-27T10:43:56Z</time>
   </trkpt>
   <trkpt lat="42.0335980" lon="2.8218380">
    <ele>96.3</ele>
    <time>2018-12-27T10:44:00Z</time>
   </trkpt>
   <trkpt lat="42.0337700" lon="2.8219680">
    <ele>96.4</ele>
    <time>2018-12-27T10:44:03Z</time>
   </trkpt>
   <trkpt lat="42.0339480" lon="2.8219460">
    <ele>96.8</ele>
    <time>2018-12-27T10:44:06Z</time>
   </trkpt>
   <trkpt lat="42.0341350" lon="2.8218450">
    <ele>97.2</ele>
    <time>2018-12-27T10:44:09Z</time>
   </trkpt>
   <trkpt lat="42.0343210" lon="2.8218710">
    <ele>97.5</ele>
    <time>2018-12-27T10:44:12Z</time>
   </trkpt>
   <trkpt lat="42.0345400" lon="2.8219450">
    <ele>98.0</ele>
    <time>2018-12-27T10:44:16Z</time>
   </trkpt>
   <trkpt lat="42.0347530" lon="2.8220280">
    <ele>98.4</ele>
    <time>2018-12-27T10:44:19Z</time>
   </trkpt>
   <trkpt lat="42.0349460" lon="2.8221610">
    <ele>98.6</ele>
    <time>2018-12-27T10:44:23Z</time>
   </trkpt>
   <trkpt lat="42.0350780" lon="2.8223250">
    <ele>98.7</ele>
    <time>2018-12-27T10:44:25Z</time>
   </trkpt>
   <trkpt lat="42.0351900" lon="2.8225530">
    <ele>98.4</ele>
    <time>2018-12-27T10:44:29Z</time>
   </trkpt>
   <trkpt lat="42.0353250" lon="2.8228110">
    <ele>98.0</ele>
    <time>2018-12-27T10:44:32Z</time>
   </trkpt>
   <trkpt lat="42.0354700" lon="2.8230730">
    <ele>97.5</ele>
    <time>2018-12-27T10:44:36Z</time>
   </trkpt>
   <trkpt lat="42.0356100" lon="2.8233430">
    <ele>97.1</ele>
    <time>2018-12-27T10:44:40Z</time>
   </trkpt>
   <trkpt lat="42.0357550" lon="2.8236330">
    <ele>96.0</ele>
    <time>2018-12-27T10:44:44Z</time>
   </trkpt>
   <trkpt lat="42.0359200" lon="2.8238960">
    <ele>93.6</ele>
    <time>2018-12-27T10:44:48Z</time>
   </trkpt>
   <trkpt lat="42.0361250" lon="2.8241380">
    <ele>91.9</ele>
    <time>2018-12-27T10:44:53Z</time>
   </trkpt>
   <trkpt lat="42.0363400" lon="2.8243580">
    <ele>90.7</ele>
    <time>2018-12-27T10:44:57Z</time>
   </trkpt>
   <trkpt lat="42.0369150" lon="2.8246280">
    <ele>88.0</ele>
    <time>2018-12-27T10:45:07Z</time>
   </trkpt>
   <trkpt lat="42.0372660" lon="2.8245850">
    <ele>87.1</ele>
    <time>2018-12-27T10:45:13Z</time>
   </trkpt>
   <trkpt lat="42.0376210" lon="2.8244400">
    <ele>86.7</ele>
    <time>2018-12-27T10:45:19Z</time>
   </trkpt>
   <trkpt lat="42.0378950" lon="2.8241410">
    <ele>87.3</ele>
    <time>2018-12-27T10:45:24Z</time>
   </trkpt>
   <trkpt lat="42.0380750" lon="2.8237710">
    <ele>87.7</ele>
    <time>2018-12-27T10:45:29Z</time>
   </trkpt>
   <trkpt lat="42.0382000" lon="2.8234400">
    <ele>88.0</ele>
    <time>2018-12-27T10:45:34Z</time>
   </trkpt>
   <trkpt lat="42.0383760" lon="2.8231950">
    <ele>88.6</ele>
    <time>2018-12-27T10:45:38Z</time>
   </trkpt>
   <trkpt lat="42.0385930" lon="2.8230080">
    <ele>88.9</ele>
    <time>2018-12-27T10:45:42Z</time>
   </trkpt>
   <trkpt lat="42.0388260" lon="2.8228850">
    <ele>89.7</ele>
    <time>2018-12-27T10:45:46Z</time>
   </trkpt>
   <trkpt lat="42.0390610" lon="2.8227980">
    <ele>90.7</ele>
    <time>2018-12-27T10:45:50Z</time>
   </trkpt>
   <trkpt lat="42.0392800" lon="2.8227200">
    <ele>91.4</ele>
    <time>2018-12-27T10:45:54Z</time>
   </trkpt>
   <trkpt lat="42.0395210" lon="2.8226160">
    <ele>92.7</ele>
    <time>2018-12-27T10:45:58Z</time>
   </trkpt>
   <trkpt lat="42.0397330" lon="2.8225450">
    <ele>93.7</ele>
    <time>2018-12-27T10:46:01Z</time>
   </trkpt>
   <trkpt lat="42.0399480" lon="2.8224680">
    <ele>94.7</ele>
    <time>2018-12-27T10:46:05Z</time>
   </trkpt>
   <trkpt lat="42.0401450" lon="2.8224380">
    <ele>95.4</ele>
    <time>2018-12-27T10:46:08Z</time>
   </trkpt>
   <trkpt lat="42.0403600" lon="2.8222910">
    <ele>96.3</ele>
    <time>2018-12-27T10:46:12Z</time>
   </trkpt>
   <trkpt lat="42.0405180" lon="2.8222650">
    <ele>97.0</ele>
    <time>2018-12-27T10:46:14Z</time>
   </trkpt>
   <trkpt lat="42.0407230" lon="2.8221980">
    <ele>97.7</ele>
    <time>2018-12-27T10:46:18Z</time>
   </trkpt>
   <trkpt lat="42.0410900" lon="2.8220510">
    <ele>98.8</ele>
    <time>2018-12-27T10:46:24Z</time>
   </trkpt>
   <trkpt lat="42.0412650" lon="2.8219730">
    <ele>99.5</ele>
    <time>2018-12-27T10:46:27Z</time>
   </trkpt>
   <trkpt lat="42.0414510" lon="2.8218910">
    <ele>100.5</ele>
    <time>2018-12-27T10:46:30Z</time>
   </trkpt>
   <trkpt lat="42.0416410" lon="2.8218160">
    <ele>101.2</ele>
    <time>2018-12-27T10:46:33Z</time>
   </trkpt>
   <trkpt lat="42.0418200" lon="2.8217380">
    <ele>101.7</ele>
    <time>2018-12-27T10:46:36Z</time>
   </trkpt>
   <trkpt lat="42.0420300" lon="2.8216580">
    <ele>102.2</ele>
    <time>2018-12-27T10:46:40Z</time>
   </trkpt>
   <trkpt lat="42.0422080" lon="2.8216130">
    <ele>102.8</ele>
    <time>2018-12-27T10:46:42Z</time>
   </trkpt>
   <trkpt lat="42.0423650" lon="2.8215480">
    <ele>103.3</ele>
    <time>2018-12-27T10:46:45Z</time>
   </trkpt>
   <trkpt lat="42.0425650" lon="2.8214330">
    <ele>104.0</ele>
    <time>2018-12-27T10:46:49Z</time>
   </trkpt>
   <trkpt lat="42.0427580" lon="2.8213310">
    <ele>104.7</ele>
    <time>2018-12-27T10:46:52Z</time>
   </trkpt>
   <trkpt lat="42.0429100" lon="2.8212630">
    <ele>105.4</ele>
    <time>2018-12-27T10:46:54Z</time>
   </trkpt>
   <trkpt lat="42.0431010" lon="2.8211930">
    <ele>106.1</ele>
    <time>2018-12-27T10:46:58Z</time>
   </trkpt>
   <trkpt lat="42.0432710" lon="2.8211130">
    <ele>106.8</ele>
    <time>2018-12-27T10:47:00Z</time>
   </trkpt>
   <trkpt lat="42.0434360" lon="2.8210650">
    <ele>107.4</ele>
    <time>2018-12-27T10:47:03Z</time>
   </trkpt>
   <trkpt lat="42.0436030" lon="2.8209750">
    <ele>108.1</ele>
    <time>2018-12-27T10:47:06Z</time>
   </trkpt>
   <trkpt lat="42.0437900" lon="2.8208800">
    <ele>108.7</ele>
    <time>2018-12-27T10:47:09Z</time>
   </trkpt>
   <trkpt lat="42.0439380" lon="2.8208150">
    <ele>109.2</ele>
    <time>2018-12-27T10:47:12Z</time>
   </trkpt>
   <trkpt lat="42.0441280" lon="2.8207360">
    <ele>109.6</ele>
    <time>2018-12-27T10:47:15Z</time>
   </trkpt>
   <trkpt lat="42.0444610" lon="2.8205630">
    <ele>110.4</ele>
    <time>2018-12-27T10:47:21Z</time>
   </trkpt>
   <trkpt lat="42.0446200" lon="2.8204760">
    <ele>110.6</ele>
    <time>2018-12-27T10:47:23Z</time>
   </trkpt>
   <trkpt lat="42.0448210" lon="2.8203980">
    <ele>110.8</ele>
    <time>2018-12-27T10:47:27Z</time>
   </trkpt>
   <trkpt lat="42.0449600" lon="2.8203330">
    <ele>111.3</ele>
    <time>2018-12-27T10:47:29Z</time>
   </trkpt>
   <trkpt lat="42.0451350" lon="2.8202230">
    <ele>111.9</ele>
    <time>2018-12-27T10:47:32Z</time>
   </trkpt>
   <trkpt lat="42.0452880" lon="2.8201530">
    <ele>112.5</ele>
    <time>2018-12-27T10:47:35Z</time>
   </trkpt>
   <trkpt lat="42.0454530" lon="2.8201080">
    <ele>113.2</ele>
    <time>2018-12-27T10:47:37Z</time>
   </trkpt>
   <trkpt lat="42.0456500" lon="2.8200210">
    <ele>113.9</ele>
    <time>2018-12-27T10:47:41Z</time>
   </trkpt>
   <trkpt lat="42.0458030" lon="2.8198830">
    <ele>114.4</ele>
    <time>2018-12-27T10:47:44Z</time>
   </trkpt>
   <trkpt lat="42.0459730" lon="2.8198050">
    <ele>114.9</ele>
    <time>2018-12-27T10:47:47Z</time>
   </trkpt>
   <trkpt lat="42.0461880" lon="2.8197230">
    <ele>115.4</ele>
    <time>2018-12-27T10:47:50Z</time>
   </trkpt>
   <trkpt lat="42.0464010" lon="2.8196260">
    <ele>115.7</ele>
    <time>2018-12-27T10:47:54Z</time>
   </trkpt>
   <trkpt lat="42.0465930" lon="2.8195360">
    <ele>116.0</ele>
    <time>2018-12-27T10:47:57Z</time>
   </trkpt>
   <trkpt lat="42.0468080" lon="2.8194400">
    <ele>116.5</ele>
    <time>2018-12-27T10:48:01Z</time>
   </trkpt>
   <trkpt lat="42.0470280" lon="2.8194110">
    <ele>117.1</ele>
    <time>2018-12-27T10:48:04Z</time>
   </trkpt>
   <trkpt lat="42.0472200" lon="2.8193780">
    <ele>117.2</ele>
    <time>2018-12-27T10:48:07Z</time>
   </trkpt>
   <trkpt lat="42.0474730" lon="2.8192860">
    <ele>117.2</ele>
    <time>2018-12-27T10:48:11Z</time>
   </trkpt>
   <trkpt lat="42.0477080" lon="2.8192400">
    <ele>117.2</ele>
    <time>2018-12-27T10:48:15Z</time>
   </trkpt>
   <trkpt lat="42.0479210" lon="2.8191900">
    <ele>117.3</ele>
    <time>2018-12-27T10:48:19Z</time>
   </trkpt>
   <trkpt lat="42.0482980" lon="2.8191330">
    <ele>117.4</ele>
    <time>2018-12-27T10:48:25Z</time>
   </trkpt>
   <trkpt lat="42.0484960" lon="2.8190850">
    <ele>117.9</ele>
    <time>2018-12-27T10:48:28Z</time>
   </trkpt>
   <trkpt lat="42.0487030" lon="2.8190300">
    <ele>118.4</ele>
    <time>2018-12-27T10:48:31Z</time>
   </trkpt>
   <trkpt lat="42.0488610" lon="2.8189880">
    <ele>118.5</ele>
    <time>2018-12-27T10:48:34Z</time>
   </trkpt>
   <trkpt lat="42.0490730" lon="2.8189360">
    <ele>118.7</ele>
    <time>2018-12-27T10:48:37Z</time>
   </trkpt>
   <trkpt lat="42.0493100" lon="2.8188650">
    <ele>119.2</ele>
    <time>2018-12-27T10:48:41Z</time>
   </trkpt>
   <trkpt lat="42.0495450" lon="2.8188210">
    <ele>119.4</ele>
    <time>2018-12-27T10:48:45Z</time>
   </trkpt>
   <trkpt lat="42.0496750" lon="2.8188280">
    <ele>119.6</ele>
    <time>2018-12-27T10:48:47Z</time>
   </trkpt>
   <trkpt lat="42.0498730" lon="2.8188160">
    <ele>120.2</ele>
    <time>2018-12-27T10:48:50Z</time>
   </trkpt>
   <trkpt lat="42.0500100" lon="2.8187650">
    <ele>120.5</ele>
    <time>2018-12-27T10:48:53Z</time>
   </trkpt>
   <trkpt lat="42.0502550" lon="2.8186800">
    <ele>120.7</ele>
    <time>2018-12-27T10:48:57Z</time>
   </trkpt>
   <trkpt lat="42.0504460" lon="2.8186380">
    <ele>121.1</ele>
    <time>2018-12-27T10:49:00Z</time>
   </trkpt>
   <trkpt lat="42.0506350" lon="2.8186230">
    <ele>121.6</ele>
    <time>2018-12-27T10:49:03Z</time>
   </trkpt>
   <trkpt lat="42.0508380" lon="2.8186080">
    <ele>122.1</ele>
    <time>2018-12-27T10:49:06Z</time>
   </trkpt>
   <trkpt lat="42.0510500" lon="2.8185150">
    <ele>122.6</ele>
    <time>2018-12-27T10:49:10Z</time>
   </trkpt>
   <trkpt lat="42.0512160" lon="2.8185180">
    <ele>122.8</ele>
    <time>2018-12-27T10:49:12Z</time>
   </trkpt>
   <trkpt lat="42.0514210" lon="2.8184810">
    <ele>123.3</ele>
    <time>2018-12-27T10:49:16Z</time>
   </trkpt>
   <trkpt lat="42.0517780" lon="2.8184080">
    <ele>124.2</ele>
    <time>2018-12-27T10:49:21Z</time>
   </trkpt>
   <trkpt lat="42.0519780" lon="2.8183280">
    <ele>124.7</ele>
    <time>2018-12-27T10:49:25Z</time>
   </trkpt>
   <trkpt lat="42.0521630" lon="2.8183030">
    <ele>125.2</ele>
    <time>2018-12-27T10:49:28Z</time>
   </trkpt>
   <trkpt lat="42.0523800" lon="2.8182260">
    <ele>125.8</ele>
    <time>2018-12-27T10:49:31Z</time>
   </trkpt>
   <trkpt lat="42.0525930" lon="2.8181880">
    <ele>126.4</ele>
    <time>2018-12-27T10:49:35Z</time>
   </trkpt>
   <trkpt lat="42.0528250" lon="2.8180630">
    <ele>126.7</ele>
    <time>2018-12-27T10:49:39Z</time>
   </trkpt>
   <trkpt lat="42.0530210" lon="2.8180230">
    <ele>126.7</ele>
    <time>2018-12-27T10:49:42Z</time>
   </trkpt>
   <trkpt lat="42.0532310" lon="2.8179630">
    <ele>126.5</ele>
    <time>2018-12-27T10:49:45Z</time>
   </trkpt>
   <trkpt lat="42.0534310" lon="2.8179160">
    <ele>126.2</ele>
    <time>2018-12-27T10:49:49Z</time>
   </trkpt>
   <trkpt lat="42.0536160" lon="2.8178650">
    <ele>126.1</ele>
    <time>2018-12-27T10:49:52Z</time>
   </trkpt>
   <trkpt lat="42.0538730" lon="2.8177530">
    <ele>126.4</ele>
    <time>2018-12-27T10:49:56Z</time>
   </trkpt>
   <trkpt lat="42.0540660" lon="2.8176150">
    <ele>126.8</ele>
    <time>2018-12-27T10:49:59Z</time>
   </trkpt>
   <trkpt lat="42.0542560" lon="2.8175230">
    <ele>126.5</ele>
    <time>2018-12-27T10:50:03Z</time>
   </trkpt>
   <trkpt lat="42.0544710" lon="2.8174010">
    <ele>126.3</ele>
    <time>2018-12-27T10:50:06Z</time>
   </trkpt>
   <trkpt lat="42.0546750" lon="2.8172860">
    <ele>126.2</ele>
    <time>2018-12-27T10:50:10Z</time>
   </trkpt>
   <trkpt lat="42.0548860" lon="2.8171550">
    <ele>126.0</ele>
    <time>2018-12-27T10:50:14Z</time>
   </trkpt>
   <trkpt lat="42.0550850" lon="2.8170210">
    <ele>125.9</ele>
    <time>2018-12-27T10:50:17Z</time>
   </trkpt>
   <trkpt lat="42.0552900" lon="2.8168630">
    <ele>125.9</ele>
    <time>2018-12-27T10:50:21Z</time>
   </trkpt>
   <trkpt lat="42.0554930" lon="2.8166810">
    <ele>126.2</ele>
    <time>2018-12-27T10:50:25Z</time>
   </trkpt>
   <trkpt lat="42.0558900" lon="2.8163950">
    <ele>127.1</ele>
    <time>2018-12-27T10:50:32Z</time>
   </trkpt>
   <trkpt lat="42.0560950" lon="2.8162330">
    <ele>128.1</ele>
    <time>2018-12-27T10:50:36Z</time>
   </trkpt>
   <trkpt lat="42.0562580" lon="2.8161050">
    <ele>129.1</ele>
    <time>2018-12-27T10:50:39Z</time>
   </trkpt>
   <trkpt lat="42.0564110" lon="2.8159450">
    <ele>129.9</ele>
    <time>2018-12-27T10:50:42Z</time>
   </trkpt>
   <trkpt lat="42.0565710" lon="2.8157830">
    <ele>131.0</ele>
    <time>2018-12-27T10:50:45Z</time>
   </trkpt>
   <trkpt lat="42.0567630" lon="2.8156360">
    <ele>132.0</ele>
    <time>2018-12-27T10:50:49Z</time>
   </trkpt>
   <trkpt lat="42.0569450" lon="2.8154880">
    <ele>132.8</ele>
    <time>2018-12-27T10:50:52Z</time>
   </trkpt>
   <trkpt lat="42.0570950" lon="2.8153980">
    <ele>133.4</ele>
    <time>2018-12-27T10:50:55Z</time>
   </trkpt>
   <trkpt lat="42.0572830" lon="2.8152500">
    <ele>134.3</ele>
    <time>2018-12-27T10:50:58Z</time>
   </trkpt>
   <trkpt lat="42.0574600" lon="2.8150850">
    <ele>135.0</ele>
    <time>2018-12-27T10:51:02Z</time>
   </trkpt>
   <trkpt lat="42.0576500" lon="2.8149700">
    <ele>135.7</ele>
    <time>2018-12-27T10:51:05Z</time>
   </trkpt>
   <trkpt lat="42.0578360" lon="2.8148230">
    <ele>136.6</ele>
    <time>2018-12-27T10:51:09Z</time>
   </trkpt>
   <trkpt lat="42.0580100" lon="2.8146130">
    <ele>137.7</ele>
    <time>2018-12-27T10:51:12Z</time>
   </trkpt>
   <trkpt lat="42.0581860" lon="2.8144380">
    <ele>138.7</ele>
    <time>2018-12-27T10:51:16Z</time>
   </trkpt>
   <trkpt lat="42.0583880" lon="2.8143180">
    <ele>139.5</ele>
    <time>2018-12-27T10:51:19Z</time>
   </trkpt>
   <trkpt lat="42.0585910" lon="2.8141610">
    <ele>140.3</ele>
    <time>2018-12-27T10:51:23Z</time>
   </trkpt>
   <trkpt lat="42.0587930" lon="2.8139880">
    <ele>141.1</ele>
    <time>2018-12-27T10:51:27Z</time>
   </trkpt>
   <trkpt lat="42.0590110" lon="2.8138510">
    <ele>141.8</ele>
    <time>2018-12-27T10:51:31Z</time>
   </trkpt>
   <trkpt lat="42.0592280" lon="2.8137050">
    <ele>142.5</ele>
    <time>2018-12-27T10:51:35Z</time>
   </trkpt>
   <trkpt lat="42.0596830" lon="2.8133760">
    <ele>143.1</ele>
    <time>2018-12-27T10:51:43Z</time>
   </trkpt>
   <trkpt lat="42.0599260" lon="2.8132760">
    <ele>143.3</ele>
    <time>2018-12-27T10:51:47Z</time>
   </trkpt>
   <trkpt lat="42.0601550" lon="2.8131630">
    <ele>143.5</ele>
    <time>2018-12-27T10:51:51Z</time>
   </trkpt>
   <trkpt lat="42.0603710" lon="2.8130260">
    <ele>143.6</ele>
    <time>2018-12-27T10:51:55Z</time>
   </trkpt>
   <trkpt lat="42.0606400" lon="2.8129730">
    <ele>143.7</ele>
    <time>2018-12-27T10:51:59Z</time>
   </trkpt>
   <trkpt lat="42.0609180" lon="2.8128580">
    <ele>143.7</ele>
    <time>2018-12-27T10:52:04Z</time>
   </trkpt>
   <trkpt lat="42.0611750" lon="2.8127610">
    <ele>143.6</ele>
    <time>2018-12-27T10:52:08Z</time>
   </trkpt>
   <trkpt lat="42.0614780" lon="2.8127080">
    <ele>143.6</ele>
    <time>2018-12-27T10:52:13Z</time>
   </trkpt>
   <trkpt lat="42.0617750" lon="2.8126050">
    <ele>143.4</ele>
    <time>2018-12-27T10:52:18Z</time>
   </trkpt>
   <trkpt lat="42.0621130" lon="2.8125450">
    <ele>141.4</ele>
    <time>2018-12-27T10:52:23Z</time>
   </trkpt>
   <trkpt lat="42.0624560" lon="2.8124810">
    <ele>138.6</ele>
    <time>2018-12-27T10:52:29Z</time>
   </trkpt>
   <trkpt lat="42.0628230" lon="2.8124700">
    <ele>134.7</ele>
    <time>2018-12-27T10:52:35Z</time>
   </trkpt>
   <trkpt lat="42.0631780" lon="2.8124700">
    <ele>132.2</ele>
    <time>2018-12-27T10:52:40Z</time>
   </trkpt>
   <trkpt lat="42.0635250" lon="2.8124750">
    <ele>130.3</ele>
    <time>2018-12-27T10:52:46Z</time>
   </trkpt>
   <trkpt lat="42.0638880" lon="2.8125450">
    <ele>128.9</ele>
    <time>2018-12-27T10:52:52Z</time>
   </trkpt>
   <trkpt lat="42.0643000" lon="2.8125550">
    <ele>127.6</ele>
    <time>2018-12-27T10:52:58Z</time>
   </trkpt>
   <trkpt lat="42.0647130" lon="2.8126150">
    <ele>126.7</ele>
    <time>2018-12-27T10:53:05Z</time>
   </trkpt>
   <trkpt lat="42.0654880" lon="2.8127580">
    <ele>123.8</ele>
    <time>2018-12-27T10:53:18Z</time>
   </trkpt>
   <trkpt lat="42.0658030" lon="2.8129010">
    <ele>123.0</ele>
    <time>2018-12-27T10:53:23Z</time>
   </trkpt>
   <trkpt lat="42.0661160" lon="2.8130600">
    <ele>122.2</ele>
    <time>2018-12-27T10:53:28Z</time>
   </trkpt>
   <trkpt lat="42.0664400" lon="2.8131650">
    <ele>119.8</ele>
    <time>2018-12-27T10:53:34Z</time>
   </trkpt>
   <trkpt lat="42.0667730" lon="2.8132400">
    <ele>118.8</ele>
    <time>2018-12-27T10:53:39Z</time>
   </trkpt>
   <trkpt lat="42.0671110" lon="2.8133500">
    <ele>118.5</ele>
    <time>2018-12-27T10:53:45Z</time>
   </trkpt>
   <trkpt lat="42.0674060" lon="2.8134900">
    <ele>118.0</ele>
    <time>2018-12-27T10:53:50Z</time>
   </trkpt>
   <trkpt lat="42.0676960" lon="2.8136060">
    <ele>117.7</ele>
    <time>2018-12-27T10:53:54Z</time>
   </trkpt>
   <trkpt lat="42.0680550" lon="2.8137300">
    <ele>117.5</ele>
    <time>2018-12-27T10:54:00Z</time>
   </trkpt>
   <trkpt lat="42.0683630" lon="2.8138450">
    <ele>116.9</ele>
    <time>2018-12-27T10:54:05Z</time>
   </trkpt>
   <trkpt lat="42.0686850" lon="2.8139410">
    <ele>116.6</ele>
    <time>2018-12-27T10:54:11Z</time>
   </trkpt>
   <trkpt lat="42.0689880" lon="2.8140980">
    <ele>116.5</ele>
    <time>2018-12-27T10:54:16Z</time>
   </trkpt>
   <trkpt lat="42.0692410" lon="2.8141860">
    <ele>116.0</ele>
    <time>2018-12-27T10:54:20Z</time>
   </trkpt>
   <trkpt lat="42.0695330" lon="2.8142850">
    <ele>115.6</ele>
    <time>2018-12-27T10:54:25Z</time>
   </trkpt>
   <trkpt lat="42.0698130" lon="2.8144300">
    <ele>115.5</ele>
    <time>2018-12-27T10:54:30Z</time>
   </trkpt>
   <trkpt lat="42.0701200" lon="2.8145560">
    <ele>115.0</ele>
    <time>2018-12-27T10:54:35Z</time>
   </trkpt>
   <trkpt lat="42.0704410" lon="2.8146530">
    <ele>114.5</ele>
    <time>2018-12-27T10:54:40Z</time>
   </trkpt>
   <trkpt lat="42.0707460" lon="2.8147560">
    <ele>114.4</ele>
    <time>2018-12-27T10:54:45Z</time>
   </trkpt>
   <trkpt lat="42.0710360" lon="2.8148680">
    <ele>114.4</ele>
    <time>2018-12-27T10:54:50Z</time>
   </trkpt>
   <trkpt lat="42.0716500" lon="2.8151530">
    <ele>114.4</ele>
    <time>2018-12-27T10:55:00Z</time>
   </trkpt>
   <trkpt lat="42.0719930" lon="2.8152580">
    <ele>114.3</ele>
    <time>2018-12-27T10:55:06Z</time>
   </trkpt>
   <trkpt lat="42.0723500" lon="2.8153460">
    <ele>114.3</ele>
    <time>2018-12-27T10:55:12Z</time>
   </trkpt>
   <trkpt lat="42.0726600" lon="2.8154780">
    <ele>114.3</ele>
    <time>2018-12-27T10:55:17Z</time>
   </trkpt>
   <trkpt lat="42.0729200" lon="2.8156700">
    <ele>114.3</ele>
    <time>2018-12-27T10:55:22Z</time>
   </trkpt>
   <trkpt lat="42.0732630" lon="2.8157900">
    <ele>114.2</ele>
    <time>2018-12-27T10:55:27Z</time>
   </trkpt>
   <trkpt lat="42.0735850" lon="2.8159130">
    <ele>114.2</ele>
    <time>2018-12-27T10:55:33Z</time>
   </trkpt>
   <trkpt lat="42.0739100" lon="2.8160460">
    <ele>113.4</ele>
    <time>2018-12-27T10:55:38Z</time>
   </trkpt>
   <trkpt lat="42.0742410" lon="2.8161710">
    <ele>112.4</ele>
    <time>2018-12-27T10:55:44Z</time>
   </trkpt>
   <trkpt lat="42.0745710" lon="2.8163000">
    <ele>111.9</ele>
    <time>2018-12-27T10:55:49Z</time>
   </trkpt>
   <trkpt lat="42.0748910" lon="2.8164310">
    <ele>109.2</ele>
    <time>2018-12-27T10:55:55Z</time>
   </trkpt>
   <trkpt lat="42.0752050" lon="2.8165560">
    <ele>107.2</ele>
    <time>2018-12-27T10:56:00Z</time>
   </trkpt>
   <trkpt lat="42.0755180" lon="2.8166730">
    <ele>107.6</ele>
    <time>2018-12-27T10:56:05Z</time>
   </trkpt>
   <trkpt lat="42.0758210" lon="2.8167960">
    <ele>108.1</ele>
    <time>2018-12-27T10:56:10Z</time>
   </trkpt>
   <trkpt lat="42.0761280" lon="2.8169130">
    <ele>108.6</ele>
    <time>2018-12-27T10:56:15Z</time>
   </trkpt>
   <trkpt lat="42.0764260" lon="2.8170350">
    <ele>109.1</ele>
    <time>2018-12-27T10:56:20Z</time>
   </trkpt>
   <trkpt lat="42.0767200" lon="2.8171580">
    <ele>109.1</ele>
    <time>2018-12-27T10:56:25Z</time>
   </trkpt>
   <trkpt lat="42.0770180" lon="2.8172780">
    <ele>108.4</ele>
    <time>2018-12-27T10:56:30Z</time>
   </trkpt>
   <trkpt lat="42.0773180" lon="2.8173960">
    <ele>107.8</ele>
    <time>2018-12-27T10:56:35Z</time>
   </trkpt>
   <trkpt lat="42.0779280" lon="2.8176280">
    <ele>107.2</ele>
    <time>2018-12-27T10:56:45Z</time>
   </trkpt>
   <trkpt lat="42.0782250" lon="2.8177500">
    <ele>106.8</ele>
    <time>2018-12-27T10:56:50Z</time>
   </trkpt>
   <trkpt lat="42.0785200" lon="2.8178700">
    <ele>106.6</ele>
    <time>2018-12-27T10:56:55Z</time>
   </trkpt>
   <trkpt lat="42.0788130" lon="2.8179810">
    <ele>106.6</ele>
    <time>2018-12-27T10:57:00Z</time>
   </trkpt>
   <trkpt lat="42.0791130" lon="2.8180750">
    <ele>106.5</ele>
    <time>2018-12-27T10:57:05Z</time>
   </trkpt>
   <trkpt lat="42.0794160" lon="2.8181510">
    <ele>106.4</ele>
    <time>2018-12-27T10:57:10Z</time>
   </trkpt>
   <trkpt lat="42.0797310" lon="2.8181980">
    <ele>106.4</ele>
    <time>2018-12-27T10:57:15Z</time>
   </trkpt>
   <trkpt lat="42.0800500" lon="2.8182160">
    <ele>106.1</ele>
    <time>2018-12-27T10:57:20Z</time>
   </trkpt>
   <trkpt lat="42.0803710" lon="2.8182050">
    <ele>105.8</ele>
    <time>2018-12-27T10:57:25Z</time>
   </trkpt>
   <trkpt lat="42.0806980" lon="2.8181650">
    <ele>105.5</ele>
    <time>2018-12-27T10:57:31Z</time>
   </trkpt>
   <trkpt lat="42.0810200" lon="2.8180950">
    <ele>105.3</ele>
    <time>2018-12-27T10:57:36Z</time>
   </trkpt>
   <trkpt lat="42.0813350" lon="2.8179880">
    <ele>105.2</ele>
    <time>2018-12-27T10:57:41Z</time>
   </trkpt>
   <trkpt lat="42.0816360" lon="2.8178610">
    <ele>105.5</ele>
    <time>2018-12-27T10:57:46Z</time>
   </trkpt>
   <trkpt lat="42.0819280" lon="2.8177130">
    <ele>106.3</ele>
    <time>2018-12-27T10:57:51Z</time>
   </trkpt>
   <trkpt lat="42.0822130" lon="2.8175310">
    <ele>103.9</ele>
    <time>2018-12-27T10:57:56Z</time>
   </trkpt>
   <trkpt lat="42.0824800" lon="2.8173250">
    <ele>103.1</ele>
    <time>2018-12-27T10:58:01Z</time>
   </trkpt>
   <trkpt lat="42.0827350" lon="2.8171000">
    <ele>103.1</ele>
    <time>2018-12-27T10:58:06Z</time>
   </trkpt>
   <trkpt lat="42.0832030" lon="2.8166250">
    <ele>102.4</ele>
    <time>2018-12-27T10:58:15Z</time>
   </trkpt>
   <trkpt lat="42.0834230" lon="2.8163880">
    <ele>102.3</ele>
    <time>2018-12-27T10:58:20Z</time>
   </trkpt>
   <trkpt lat="42.0836450" lon="2.8161480">
    <ele>102.4</ele>
    <time>2018-12-27T10:58:24Z</time>
   </trkpt>
   <trkpt lat="42.0838610" lon="2.8159080">
    <ele>102.5</ele>
    <time>2018-12-27T10:58:29Z</time>
   </trkpt>
   <trkpt lat="42.0840810" lon="2.8156700">
    <ele>102.8</ele>
    <time>2018-12-27T10:58:33Z</time>
   </trkpt>
   <trkpt lat="42.0843080" lon="2.8154280">
    <ele>103.5</ele>
    <time>2018-12-27T10:58:38Z</time>
   </trkpt>
   <trkpt lat="42.0845350" lon="2.8151810">
    <ele>104.0</ele>
    <time>2018-12-27T10:58:43Z</time>
   </trkpt>
   <trkpt lat="42.0847600" lon="2.8149410">
    <ele>104.2</ele>
    <time>2018-12-27T10:58:47Z</time>
   </trkpt>
   <trkpt lat="42.0849830" lon="2.8147010">
    <ele>104.5</ele>
    <time>2018-12-27T10:58:52Z</time>
   </trkpt>
   <trkpt lat="42.0852050" lon="2.8144610">
    <ele>104.6</ele>
    <time>2018-12-27T10:58:56Z</time>
   </trkpt>
   <trkpt lat="42.0854310" lon="2.8142350">
    <ele>104.6</ele>
    <time>2018-12-27T10:59:01Z</time>
   </trkpt>
   <trkpt lat="42.0856500" lon="2.8139980">
    <ele>104.6</ele>
    <time>2018-12-27T10:59:05Z</time>
   </trkpt>
   <trkpt lat="42.0858550" lon="2.8137500">
    <ele>104.4</ele>
    <time>2018-12-27T10:59:10Z</time>
   </trkpt>
   <trkpt lat="42.0860680" lon="2.8135130">
    <ele>104.4</ele>
    <time>2018-12-27T10:59:14Z</time>
   </trkpt>
   <trkpt lat="42.0862860" lon="2.8132760">
    <ele>104.7</ele>
    <time>2018-12-27T10:59:19Z</time>
   </trkpt>
   <trkpt lat="42.0865060" lon="2.8130360">
    <ele>105.2</ele>
    <time>2018-12-27T10:59:23Z</time>
   </trkpt>
   <trkpt lat="42.0867300" lon="2.8127980">
    <ele>106.1</ele>
    <time>2018-12-27T10:59:28Z</time>
   </trkpt>
   <trkpt lat="42.0869600" lon="2.8125530">
    <ele>107.0</ele>
    <time>2018-12-27T10:59:32Z</time>
   </trkpt>
   <trkpt lat="42.0871860" lon="2.8123050">
    <ele>107.9</ele>
    <time>2018-12-27T10:59:37Z</time>
   </trkpt>
   <trkpt lat="42.0876380" lon="2.8118180">
    <ele>108.8</ele>
    <time>2018-12-27T10:59:46Z</time>
   </trkpt>
   <trkpt lat="42.0878630" lon="2.8115730">
    <ele>108.7</ele>
    <time>2018-12-27T10:59:51Z</time>
   </trkpt>
   <trkpt lat="42.0880860" lon="2.8113360">
    <ele>108.3</ele>
    <time>2018-12-27T10:59:56Z</time>
   </trkpt>
   <trkpt lat="42.0883060" lon="2.8110980">
    <ele>108.0</ele>
    <time>2018-12-27T11:00:00Z</time>
   </trkpt>
   <trkpt lat="42.0885310" lon="2.8108580">
    <ele>107.8</ele>
    <time>2018-12-27T11:00:05Z</time>
   </trkpt>
   <trkpt lat="42.0887610" lon="2.8106130">
    <ele>107.5</ele>
    <time>2018-12-27T11:00:09Z</time>
   </trkpt>
   <trkpt lat="42.0889850" lon="2.8103630">
    <ele>107.2</ele>
    <time>2018-12-27T11:00:14Z</time>
   </trkpt>
   <trkpt lat="42.0892130" lon="2.8101210">
    <ele>107.0</ele>
    <time>2018-12-27T11:00:19Z</time>
   </trkpt>
   <trkpt lat="42.0894400" lon="2.8098660">
    <ele>106.9</ele>
    <time>2018-12-27T11:00:23Z</time>
   </trkpt>
   <trkpt lat="42.0896710" lon="2.8096060">
    <ele>106.7</ele>
    <time>2018-12-27T11:00:28Z</time>
   </trkpt>
   <trkpt lat="42.0899000" lon="2.8093350">
    <ele>106.3</ele>
    <time>2018-12-27T11:00:33Z</time>
   </trkpt>
   <trkpt lat="42.0901200" lon="2.8090600">
    <ele>106.0</ele>
    <time>2018-12-27T11:00:38Z</time>
   </trkpt>
   <trkpt lat="42.0903360" lon="2.8087900">
    <ele>106.1</ele>
    <time>2018-12-27T11:00:43Z</time>
   </trkpt>
   <trkpt lat="42.0905350" lon="2.8085050">
    <ele>106.2</ele>
    <time>2018-12-27T11:00:47Z</time>
   </trkpt>
   <trkpt lat="42.0907280" lon="2.8082110">
    <ele>106.3</ele>
    <time>2018-12-27T11:00:52Z</time>
   </trkpt>
   <trkpt lat="42.0909160" lon="2.8079280">
    <ele>106.8</ele>
    <time>2018-12-27T11:00:56Z</time>
   </trkpt>
   <trkpt lat="42.0911010" lon="2.8076480">
    <ele>107.0</ele>
    <time>2018-12-27T11:01:01Z</time>
   </trkpt>
   <trkpt lat="42.0912460" lon="2.8073450">
    <ele>107.2</ele>
    <time>2018-12-27T11:01:05Z</time>
   </trkpt>
   <trkpt lat="42.0916000" lon="2.8068160">
    <ele>107.7</ele>
    <time>2018-12-27T11:01:14Z</time>
   </trkpt>
   <trkpt lat="42.0917960" lon="2.8065210">
    <ele>108.2</ele>
    <time>2018-12-27T11:01:18Z</time>
   </trkpt>
   <trkpt lat="42.0919310" lon="2.8062410">
    <ele>109.3</ele>
    <time>2018-12-27T11:01:22Z</time>
   </trkpt>
   <trkpt lat="42.0920910" lon="2.8060030">
    <ele>109.8</ele>
    <time>2018-12-27T11:01:26Z</time>
   </trkpt>
   <trkpt lat="42.0922600" lon="2.8057250">
    <ele>109.9</ele>
    <time>2018-12-27T11:01:30Z</time>
   </trkpt>
   <trkpt lat="42.0924300" lon="2.8053700">
    <ele>109.8</ele>
    <time>2018-12-27T11:01:35Z</time>
   </trkpt>
   <trkpt lat="42.0925710" lon="2.8051360">
    <ele>109.8</ele>
    <time>2018-12-27T11:01:39Z</time>
   </trkpt>
   <trkpt lat="42.0927800" lon="2.8048510">
    <ele>110.0</ele>
    <time>2018-12-27T11:01:44Z</time>
   </trkpt>
   <trkpt lat="42.0929250" lon="2.8045650">
    <ele>110.2</ele>
    <time>2018-12-27T11:01:48Z</time>
   </trkpt>
   <trkpt lat="42.0930910" lon="2.8042800">
    <ele>110.7</ele>
    <time>2018-12-27T11:01:52Z</time>
   </trkpt>
   <trkpt lat="42.0932660" lon="2.8039780">
    <ele>111.3</ele>
    <time>2018-12-27T11:01:57Z</time>
   </trkpt>
   <trkpt lat="42.0934210" lon="2.8037310">
    <ele>111.7</ele>
    <time>2018-12-27T11:02:01Z</time>
   </trkpt>
   <trkpt lat="42.0935810" lon="2.8034310">
    <ele>111.9</ele>
    <time>2018-12-27T11:02:05Z</time>
   </trkpt>
   <trkpt lat="42.0937530" lon="2.8031730">
    <ele>112.0</ele>
    <time>2018-12-27T11:02:09Z</time>
   </trkpt>
   <trkpt lat="42.0939130" lon="2.8029380">
    <ele>112.2</ele>
    <time>2018-12-27T11:02:13Z</time>
   </trkpt>
   <trkpt lat="42.0940710" lon="2.8026600">
    <ele>112.5</ele>
    <time>2018-12-27T11:02:17Z</time>
   </trkpt>
   <trkpt lat="42.0942450" lon="2.8023830">
    <ele>113.1</ele>
    <time>2018-12-27T11:02:21Z</time>
   </trkpt>
   <trkpt lat="42.0945930" lon="2.8018380">
    <ele>113.2</ele>
    <time>2018-12-27T11:02:30Z</time>
   </trkpt>
   <trkpt lat="42.0947600" lon="2.8015610">
    <ele>113.2</ele>
    <time>2018-12-27T11:02:34Z</time>
   </trkpt>
   <trkpt lat="42.0949230" lon="2.8012950">
    <ele>113.3</ele>
    <time>2018-12-27T11:02:38Z</time>
   </trkpt>
   <trkpt lat="42.0950810" lon="2.8010450">
    <ele>113.4</ele>
    <time>2018-12-27T11:02:42Z</time>
   </trkpt>
   <trkpt lat="42.0952300" lon="2.8007950">
    <ele>113.2</ele>
    <time>2018-12-27T11:02:46Z</time>
   </trkpt>
   <trkpt lat="42.0953880" lon="2.8005350">
    <ele>113.2</ele>
    <time>2018-12-27T11:02:50Z</time>
   </trkpt>
   <trkpt lat="42.0955560" lon="2.8003010">
    <ele>113.4</ele>
    <time>2018-12-27T11:02:54Z</time>
   </trkpt>
   <trkpt lat="42.0957150" lon="2.8000700">
    <ele>113.6</ele>
    <time>2018-12-27T11:02:58Z</time>
   </trkpt>
   <trkpt lat="42.0958360" lon="2.7998480">
    <ele>113.7</ele>
    <time>2018-12-27T11:03:01Z</time>
   </trkpt>
   <trkpt lat="42.0959960" lon="2.7995910">
    <ele>113.9</ele>
    <time>2018-12-27T11:03:05Z</time>
   </trkpt>
   <trkpt lat="42.0961560" lon="2.7993110">
    <ele>114.0</ele>
    <time>2018-12-27T11:03:09Z</time>
   </trkpt>
   <trkpt lat="42.0963310" lon="2.7991230">
    <ele>114.0</ele>
    <time>2018-12-27T11:03:13Z</time>
   </trkpt>
   <trkpt lat="42.0964900" lon="2.7989200">
    <ele>114.0</ele>
    <time>2018-12-27T11:03:16Z</time>
   </trkpt>
   <trkpt lat="42.0966380" lon="2.7987610">
    <ele>114.0</ele>
    <time>2018-12-27T11:03:19Z</time>
   </trkpt>
   <trkpt lat="42.0968260" lon="2.7986410">
    <ele>113.9</ele>
    <time>2018-12-27T11:03:22Z</time>
   </trkpt>
   <trkpt lat="42.0970430" lon="2.7985700">
    <ele>113.8</ele>
    <time>2018-12-27T11:03:26Z</time>
   </trkpt>
   <trkpt lat="42.0972780" lon="2.7984930">
    <ele>113.8</ele>
    <time>2018-12-27T11:03:30Z</time>
   </trkpt>
   <trkpt lat="42.0975010" lon="2.7984710">
    <ele>113.4</ele>
    <time>2018-12-27T11:03:33Z</time>
   </trkpt>
   <trkpt lat="42.0976810" lon="2.7984130">
    <ele>113.3</ele>
    <time>2018-12-27T11:03:36Z</time>
   </trkpt>
   <trkpt lat="42.0979550" lon="2.7980580">
    <ele>113.2</ele>
    <time>2018-12-27T11:03:43Z</time>
   </trkpt>
   <trkpt lat="42.0981430" lon="2.7978850">
    <ele>112.9</ele>
    <time>2018-12-27T11:03:46Z</time>
   </trkpt>
   <trkpt lat="42.0983560" lon="2.7977760">
    <ele>112.8</ele>
    <time>2018-12-27T11:03:50Z</time>
   </trkpt>
   <trkpt lat="42.0985730" lon="2.7977330">
    <ele>113.0</ele>
    <time>2018-12-27T11:03:53Z</time>
   </trkpt>
   <trkpt lat="42.0987930" lon="2.7976710">
    <ele>113.2</ele>
    <time>2018-12-27T11:03:57Z</time>
   </trkpt>
   <trkpt lat="42.0990060" lon="2.7976810">
    <ele>113.5</ele>
    <time>2018-12-27T11:04:00Z</time>
   </trkpt>
   <trkpt lat="42.0992660" lon="2.7976310">
    <ele>113.7</ele>
    <time>2018-12-27T11:04:05Z</time>
   </trkpt>
   <trkpt lat="42.0994810" lon="2.7975730">
    <ele>114.0</ele>
    <time>2018-12-27T11:04:08Z</time>
   </trkpt>
   <trkpt lat="42.0997110" lon="2.7975180">
    <ele>114.2</ele>
    <time>2018-12-27T11:04:12Z</time>
   </trkpt>
   <trkpt lat="42.0999110" lon="2.7974810">
    <ele>114.2</ele>
    <time>2018-12-27T11:04:15Z</time>
   </trkpt>
   <trkpt lat="42.1001600" lon="2.7974160">
    <ele>114.1</ele>
    <time>2018-12-27T11:04:19Z</time>
   </trkpt>
   <trkpt lat="42.1004460" lon="2.7973410">
    <ele>113.9</ele>
    <time>2018-12-27T11:04:24Z</time>
   </trkpt>
   <trkpt lat="42.1007200" lon="2.7972850">
    <ele>113.7</ele>
    <time>2018-12-27T11:04:28Z</time>
   </trkpt>
   <trkpt lat="42.1009580" lon="2.7972550">
    <ele>113.4</ele>
    <time>2018-12-27T11:04:32Z</time>
   </trkpt>
   <trkpt lat="42.1012560" lon="2.7971830">
    <ele>113.4</ele>
    <time>2018-12-27T11:04:37Z</time>
   </trkpt>
   <trkpt lat="42.1015380" lon="2.7971450">
    <ele>113.8</ele>
    <time>2018-12-27T11:04:41Z</time>
   </trkpt>
   <trkpt lat="42.1017930" lon="2.7971080">
    <ele>114.5</ele>
    <time>2018-12-27T11:04:46Z</time>
   </trkpt>
   <trkpt lat="42.1019510" lon="2.7970830">
    <ele>115.1</ele>
    <time>2018-12-27T11:04:48Z</time>
   </trkpt>
   <trkpt lat="42.1021900" lon="2.7970650">
    <ele>116.1</ele>
    <time>2018-12-27T11:04:52Z</time>
   </trkpt>
   <trkpt lat="42.1025310" lon="2.7969960">
    <ele>117.8</ele>
    <time>2018-12-27T11:04:57Z</time>
   </trkpt>
   <trkpt lat="42.1026800" lon="2.7969680">
    <ele>118.6</ele>
    <time>2018-12-27T11:05:00Z</time>
   </trkpt>
   <trkpt lat="42.1028260" lon="2.7969010">
    <ele>119.5</ele>
    <time>2018-12-27T11:05:02Z</time>
   </trkpt>
   <trkpt lat="42.1029810" lon="2.7967930">
    <ele>120.5</ele>
    <time>2018-12-27T11:05:05Z</time>
   </trkpt>
   <trkpt lat="42.1031480" lon="2.7967080">
    <ele>121.6</ele>
    <time>2018-12-27T11:05:08Z</time>
   </trkpt>
   <trkpt lat="42.1032650" lon="2.7966030">
    <ele>122.5</ele>
    <time>2018-12-27T11:05:10Z</time>
   </trkpt>
   <trkpt lat="42.1034030" lon="2.7965100">
    <ele>123.4</ele>
    <time>2018-12-27T11:05:13Z</time>
   </trkpt>
   <trkpt lat="42.1035300" lon="2.7964400">
    <ele>124.2</ele>
    <time>2018-12-27T11:05:15Z</time>
   </trkpt>
   <trkpt lat="42.1036550" lon="2.7963860">
    <ele>124.9</ele>
    <time>2018-12-27T11:05:17Z</time>
   </trkpt>
   <trkpt lat="42.1037410" lon="2.7963060">
    <ele>125.4</ele>
    <time>2018-12-27T11:05:19Z</time>
   </trkpt>
   <trkpt lat="42.1038580" lon="2.7962130">
    <ele>126.1</ele>
    <time>2018-12-27T11:05:21Z</time>
   </trkpt>
   <trkpt lat="42.1039900" lon="2.7961680">
    <ele>126.6</ele>
    <time>2018-12-27T11:05:23Z</time>
   </trkpt>
   <trkpt lat="42.1040710" lon="2.7960880">
    <ele>127.1</ele>
    <time>2018-12-27T11:05:25Z</time>
   </trkpt>
   <trkpt lat="42.1041550" lon="2.7959860">
    <ele>127.5</ele>
    <time>2018-12-27T11:05:26Z</time>
   </trkpt>
   <trkpt lat="42.1042800" lon="2.7958930">
    <ele>128.1</ele>
    <time>2018-12-27T11:05:29Z</time>
   </trkpt>
   <trkpt lat="42.1043900" lon="2.7957780">
    <ele>128.7</ele>
    <time>2018-12-27T11:05:31Z</time>
   </trkpt>
   <trkpt lat="42.1046110" lon="2.7955830">
    <ele>130.5</ele>
    <time>2018-12-27T11:05:35Z</time>
   </trkpt>
   <trkpt lat="42.1047100" lon="2.7954810">
    <ele>131.2</ele>
    <time>2018-12-27T11:05:37Z</time>
   </trkpt>
   <trkpt lat="42.1048350" lon="2.7954480">
    <ele>132.0</ele>
    <time>2018-12-27T11:05:39Z</time>
   </trkpt>
   <trkpt lat="42.1049430" lon="2.7953200">
    <ele>133.0</ele>
    <time>2018-12-27T11:05:41Z</time>
   </trkpt>
   <trkpt lat="42.1050680" lon="2.7952600">
    <ele>133.8</ele>
    <time>2018-12-27T11:05:44Z</time>
   </trkpt>
   <trkpt lat="42.1051860" lon="2.7951660">
    <ele>134.6</ele>
    <time>2018-12-27T11:05:46Z</time>
   </trkpt>
   <trkpt lat="42.1053330" lon="2.7951180">
    <ele>135.5</ele>
    <time>2018-12-27T11:05:48Z</time>
   </trkpt>
   <trkpt lat="42.1054750" lon="2.7950250">
    <ele>136.5</ele>
    <time>2018-12-27T11:05:51Z</time>
   </trkpt>
   <trkpt lat="42.1055900" lon="2.7949850">
    <ele>137.2</ele>
    <time>2018-12-27T11:05:53Z</time>
   </trkpt>
   <trkpt lat="42.1057030" lon="2.7948660">
    <ele>138.1</ele>
    <time>2018-12-27T11:05:55Z</time>
   </trkpt>
   <trkpt lat="42.1058000" lon="2.7948210">
    <ele>138.7</ele>
    <time>2018-12-27T11:05:57Z</time>
   </trkpt>
   <trkpt lat="42.1059210" lon="2.7947710">
    <ele>139.5</ele>
    <time>2018-12-27T11:05:59Z</time>
   </trkpt>
   <trkpt lat="42.1060500" lon="2.7947460">
    <ele>140.4</ele>
    <time>2018-12-27T11:06:01Z</time>
   </trkpt>
   <trkpt lat="42.1062000" lon="2.7946800">
    <ele>141.5</ele>
    <time>2018-12-27T11:06:03Z</time>
   </trkpt>
   <trkpt lat="42.1063210" lon="2.7946100">
    <ele>142.3</ele>
    <time>2018-12-27T11:06:05Z</time>
   </trkpt>
   <trkpt lat="42.1064450" lon="2.7946000">
    <ele>143.1</ele>
    <time>2018-12-27T11:06:07Z</time>
   </trkpt>
   <trkpt lat="42.1065810" lon="2.7945500">
    <ele>144.0</ele>
    <time>2018-12-27T11:06:10Z</time>
   </trkpt>
   <trkpt lat="42.1067060" lon="2.7944860">
    <ele>144.9</ele>
    <time>2018-12-27T11:06:12Z</time>
   </trkpt>
   <trkpt lat="42.1068510" lon="2.7944780">
    <ele>145.8</ele>
    <time>2018-12-27T11:06:14Z</time>
   </trkpt>
   <trkpt lat="42.1070750" lon="2.7944600">
    <ele>147.3</ele>
    <time>2018-12-27T11:06:18Z</time>
   </trkpt>
   <trkpt lat="42.1072210" lon="2.7944310">
    <ele>148.2</ele>
    <time>2018-12-27T11:06:20Z</time>
   </trkpt>
   <trkpt lat="42.1073630" lon="2.7944080">
    <ele>149.1</ele>
    <time>2018-12-27T11:06:22Z</time>
   </trkpt>
   <trkpt lat="42.1074930" lon="2.7943480">
    <ele>149.9</ele>
    <time>2018-12-27T11:06:24Z</time>
   </trkpt>
   <trkpt lat="42.1075910" lon="2.7943180">
    <ele>150.7</ele>
    <time>2018-12-27T11:06:26Z</time>
   </trkpt>
   <trkpt lat="42.1077400" lon="2.7942430">
    <ele>151.8</ele>
    <time>2018-12-27T11:06:29Z</time>
   </trkpt>
   <trkpt lat="42.1079110" lon="2.7942650">
    <ele>152.8</ele>
    <time>2018-12-27T11:06:31Z</time>
   </trkpt>
   <trkpt lat="42.1080230" lon="2.7942530">
    <ele>153.5</ele>
    <time>2018-12-27T11:06:33Z</time>
   </trkpt>
   <trkpt lat="42.1081180" lon="2.7942050">
    <ele>154.1</ele>
    <time>2018-12-27T11:06:35Z</time>
   </trkpt>
   <trkpt lat="42.1082350" lon="2.7941430">
    <ele>154.8</ele>
    <time>2018-12-27T11:06:37Z</time>
   </trkpt>
   <trkpt lat="42.1083480" lon="2.7940910">
    <ele>155.5</ele>
    <time>2018-12-27T11:06:39Z</time>
   </trkpt>
   <trkpt lat="42.1085000" lon="2.7940600">
    <ele>156.6</ele>
    <time>2018-12-27T11:06:41Z</time>
   </trkpt>
   <trkpt lat="42.1086210" lon="2.7940300">
    <ele>157.2</ele>
    <time>2018-12-27T11:06:43Z</time>
   </trkpt>
   <trkpt lat="42.1087660" lon="2.7940380">
    <ele>158.1</ele>
    <time>2018-12-27T11:06:45Z</time>
   </trkpt>
   <trkpt lat="42.1088530" lon="2.7939710">
    <ele>158.6</ele>
    <time>2018-12-27T11:06:47Z</time>
   </trkpt>
   <trkpt lat="42.1089710" lon="2.7939750">
    <ele>159.2</ele>
    <time>2018-12-27T11:06:49Z</time>
   </trkpt>
   <trkpt lat="42.1090960" lon="2.7939160">
    <ele>159.9</ele>
    <time>2018-12-27T11:06:51Z</time>
   </trkpt>
   <trkpt lat="42.1092210" lon="2.7938950">
    <ele>160.5</ele>
    <time>2018-12-27T11:06:53Z</time>
   </trkpt>
   <trkpt lat="42.1093510" lon="2.7938310">
    <ele>161.1</ele>
    <time>2018-12-27T11:06:55Z</time>
   </trkpt>
   <trkpt lat="42.1096950" lon="2.7937630">
    <ele>162.7</ele>
    <time>2018-12-27T11:07:01Z</time>
   </trkpt>
   <trkpt lat="42.1098380" lon="2.7937560">
    <ele>163.4</ele>
    <time>2018-12-27T11:07:03Z</time>
   </trkpt>
   <trkpt lat="42.1099650" lon="2.7937360">
    <ele>163.9</ele>
    <time>2018-12-27T11:07:05Z</time>
   </trkpt>
   <trkpt lat="42.1100910" lon="2.7936780">
    <ele>164.5</ele>
    <time>2018-12-27T11:07:07Z</time>
   </trkpt>
   <trkpt lat="42.1102580" lon="2.7936280">
    <ele>165.3</ele>
    <time>2018-12-27T11:07:10Z</time>
   </trkpt>
   <trkpt lat="42.1104460" lon="2.7935510">
    <ele>166.1</ele>
    <time>2018-12-27T11:07:13Z</time>
   </trkpt>
   <trkpt lat="42.1105900" lon="2.7935080">
    <ele>166.6</ele>
    <time>2018-12-27T11:07:16Z</time>
   </trkpt>
   <trkpt lat="42.1106760" lon="2.7934450">
    <ele>167.0</ele>
    <time>2018-12-27T11:07:17Z</time>
   </trkpt>
   <trkpt lat="42.1108310" lon="2.7933560">
    <ele>167.6</ele>
    <time>2018-12-27T11:07:20Z</time>
   </trkpt>
   <trkpt lat="42.1109650" lon="2.7932600">
    <ele>168.1</ele>
    <time>2018-12-27T11:07:22Z</time>
   </trkpt>
   <trkpt lat="42.1110830" lon="2.7931810">
    <ele>168.4</ele>
    <time>2018-12-27T11:07:24Z</time>
   </trkpt>
   <trkpt lat="42.1112050" lon="2.7931260">
    <ele>168.3</ele>
    <time>2018-12-27T11:07:26Z</time>
   </trkpt>
   <trkpt lat="42.1113180" lon="2.7930530">
    <ele>168.1</ele>
    <time>2018-12-27T11:07:28Z</time>
   </trkpt>
   <trkpt lat="42.1114150" lon="2.7929400">
    <ele>167.9</ele>
    <time>2018-12-27T11:07:31Z</time>
   </trkpt>
   <trkpt lat="42.1114930" lon="2.7929250">
    <ele>167.8</ele>
    <time>2018-12-27T11:07:32Z</time>
   </trkpt>
   <trkpt lat="42.1116260" lon="2.7928150">
    <ele>167.6</ele>
    <time>2018-12-27T11:07:34Z</time>
   </trkpt>
   <trkpt lat="42.1117760" lon="2.7926810">
    <ele>167.4</ele>
    <time>2018-12-27T11:07:37Z</time>
   </trkpt>
   <trkpt lat="42.1119250" lon="2.7925230">
    <ele>167.1</ele>
    <time>2018-12-27T11:07:40Z</time>
   </trkpt>
   <trkpt lat="42.1120560" lon="2.7923880">
    <ele>166.9</ele>
    <time>2018-12-27T11:07:43Z</time>
   </trkpt>
   <trkpt lat="42.1122130" lon="2.7922250">
    <ele>166.7</ele>
    <time>2018-12-27T11:07:46Z</time>
   </trkpt>
   <trkpt lat="42.1123430" lon="2.7921050">
    <ele>166.6</ele>
    <time>2018-12-27T11:07:49Z</time>
   </trkpt>
   <trkpt lat="42.1125100" lon="2.7919680">
    <ele>166.4</ele>
    <time>2018-12-27T11:07:52Z</time>
   </trkpt>
   <trkpt lat="42.1126680" lon="2.7918010">
    <ele>166.5</ele>
    <time>2018-12-27T11:07:55Z</time>
   </trkpt>
   <trkpt lat="42.1128200" lon="2.7916510">
    <ele>166.7</ele>
    <time>2018-12-27T11:07:58Z</time>
   </trkpt>
   <trkpt lat="42.1129610" lon="2.7915180">
    <ele>166.8</ele>
    <time>2018-12-27T11:08:01Z</time>
   </trkpt>
   <trkpt lat="42.1131050" lon="2.7913930">
    <ele>167.1</ele>
    <time>2018-12-27T11:08:03Z</time>
   </trkpt>
   <trkpt lat="42.1132600" lon="2.7912710">
    <ele>167.6</ele>
    <time>2018-12-27T11:08:06Z</time>
   </trkpt>
   <trkpt lat="42.1134200" lon="2.7911530">
    <ele>168.1</ele>
    <time>2018-12-27T11:08:09Z</time>
   </trkpt>
   <trkpt lat="42.1135850" lon="2.7910460">
    <ele>168.7</ele>
    <time>2018-12-27T11:08:12Z</time>
   </trkpt>
   <trkpt lat="42.1137510" lon="2.7909480">
    <ele>169.1</ele>
    <time>2018-12-27T11:08:15Z</time>
   </trkpt>
   <trkpt lat="42.1139260" lon="2.7908580">
    <ele>169.3</ele>
    <time>2018-12-27T11:08:18Z</time>
   </trkpt>
   <trkpt lat="42.1140980" lon="2.7907530">
    <ele>169.5</ele>
    <time>2018-12-27T11:08:21Z</time>
   </trkpt>
   <trkpt lat="42.1142510" lon="2.7906500">
    <ele>169.7</ele>
    <time>2018-12-27T11:08:24Z</time>
   </trkpt>
   <trkpt lat="42.1144430" lon="2.7905200">
    <ele>170.3</ele>
    <time>2018-12-27T11:08:27Z</time>
   </trkpt>
   <trkpt lat="42.1146280" lon="2.7904260">
    <ele>171.1</ele>
    <time>2018-12-27T11:08:30Z</time>
   </trkpt>
   <trkpt lat="42.1147660" lon="2.7903060">
    <ele>171.7</ele>
    <time>2018-12-27T11:08:33Z</time>
   </trkpt>
   <trkpt lat="42.1149380" lon="2.7902160">
    <ele>172.1</ele>
    <time>2018-12-27T11:08:36Z</time>
   </trkpt>
   <trkpt lat="42.1151130" lon="2.7901180">
    <ele>172.3</ele>
    <time>2018-12-27T11:08:39Z</time>
   </trkpt>
   <trkpt lat="42.1153060" lon="2.7900100">
    <ele>172.5</ele>
    <time>2018-12-27T11:08:42Z</time>
   </trkpt>
   <trkpt lat="42.1154650" lon="2.7898880">
    <ele>172.6</ele>
    <time>2018-12-27T11:08:45Z</time>
   </trkpt>
   <trkpt lat="42.1156430" lon="2.7897780">
    <ele>172.8</ele>
    <time>2018-12-27T11:08:48Z</time>
   </trkpt>
   <trkpt lat="42.1158300" lon="2.7896550">
    <ele>173.2</ele>
    <time>2018-12-27T11:08:52Z</time>
   </trkpt>
   <trkpt lat="42.1159830" lon="2.7895460">
    <ele>173.7</ele>
    <time>2018-12-27T11:08:55Z</time>
   </trkpt>
   <trkpt lat="42.1161250" lon="2.7894280">
    <ele>174.3</ele>
    <time>2018-12-27T11:08:57Z</time>
   </trkpt>
   <trkpt lat="42.1162960" lon="2.7893000">
    <ele>174.8</ele>
    <time>2018-12-27T11:09:00Z</time>
   </trkpt>
   <trkpt lat="42.1164700" lon="2.7891650">
    <ele>175.1</ele>
    <time>2018-12-27T11:09:04Z</time>
   </trkpt>
   <trkpt lat="42.1166480" lon="2.7890230">
    <ele>175.3</ele>
    <time>2018-12-27T11:09:07Z</time>
   </trkpt>
   <trkpt lat="42.1168400" lon="2.7888880">
    <ele>175.5</ele>
    <time>2018-12-27T11:09:10Z</time>
   </trkpt>
   <trkpt lat="42.1170400" lon="2.7887610">
    <ele>175.6</ele>
    <time>2018-12-27T11:09:14Z</time>
   </trkpt>
   <trkpt lat="42.1172030" lon="2.7886110">
    <ele>175.7</ele>
    <time>2018-12-27T11:09:17Z</time>
   </trkpt>
   <trkpt lat="42.1173930" lon="2.7884700">
    <ele>176.0</ele>
    <time>2018-12-27T11:09:20Z</time>
   </trkpt>
   <trkpt lat="42.1175560" lon="2.7883680">
    <ele>176.5</ele>
    <time>2018-12-27T11:09:23Z</time>
   </trkpt>
   <trkpt lat="42.1177500" lon="2.7881960">
    <ele>177.2</ele>
    <time>2018-12-27T11:09:27Z</time>
   </trkpt>
   <trkpt lat="42.1179630" lon="2.7880400">
    <ele>177.9</ele>
    <time>2018-12-27T11:09:31Z</time>
   </trkpt>
   <trkpt lat="42.1181230" lon="2.7879050">
    <ele>178.3</ele>
    <time>2018-12-27T11:09:34Z</time>
   </trkpt>
   <trkpt lat="42.1183550" lon="2.7877410">
    <ele>178.5</ele>
    <time>2018-12-27T11:09:38Z</time>
   </trkpt>
   <trkpt lat="42.1185610" lon="2.7876060">
    <ele>178.7</ele>
    <time>2018-12-27T11:09:42Z</time>
   </trkpt>
   <trkpt lat="42.1187650" lon="2.7874500">
    <ele>178.8</ele>
    <time>2018-12-27T11:09:46Z</time>
   </trkpt>
   <trkpt lat="42.1189510" lon="2.7873260">
    <ele>178.9</ele>
    <time>2018-12-27T11:09:49Z</time>
   </trkpt>
   <trkpt lat="42.1191530" lon="2.7871560">
    <ele>179.0</ele>
    <time>2018-12-27T11:09:53Z</time>
   </trkpt>
   <trkpt lat="42.1193260" lon="2.7870030">
    <ele>179.2</ele>
    <time>2018-12-27T11:09:56Z</time>
   </trkpt>
   <trkpt lat="42.1194780" lon="2.7868730">
    <ele>179.3</ele>
    <time>2018-12-27T11:09:59Z</time>
   </trkpt>
   <trkpt lat="42.1196560" lon="2.7867450">
    <ele>179.5</ele>
    <time>2018-12-27T11:10:02Z</time>
   </trkpt>
   <trkpt lat="42.1198550" lon="2.7866130">
    <ele>180.0</ele>
    <time>2018-12-27T11:10:06Z</time>
   </trkpt>
   <trkpt lat="42.1200360" lon="2.7864960">
    <ele>180.7</ele>
    <time>2018-12-27T11:10:09Z</time>
   </trkpt>
   <trkpt lat="42.1201960" lon="2.7863050">
    <ele>181.4</ele>
    <time>2018-12-27T11:10:12Z</time>
   </trkpt>
   <trkpt lat="42.1203930" lon="2.7861760">
    <ele>181.8</ele>
    <time>2018-12-27T11:10:16Z</time>
   </trkpt>
   <trkpt lat="42.1205610" lon="2.7860530">
    <ele>181.9</ele>
    <time>2018-12-27T11:10:19Z</time>
   </trkpt>
   <trkpt lat="42.1207410" lon="2.7859300">
    <ele>182.4</ele>
    <time>2018-12-27T11:10:22Z</time>
   </trkpt>
   <trkpt lat="42.1209400" lon="2.7857760">
    <ele>182.5</ele>
    <time>2018-12-27T11:10:26Z</time>
   </trkpt>
   <trkpt lat="42.1211250" lon="2.7856580">
    <ele>182.6</ele>
    <time>2018-12-27T11:10:29Z</time>
   </trkpt>
   <trkpt lat="42.1213110" lon="2.7855260">
    <ele>182.7</ele>
    <time>2018-12-27T11:10:32Z</time>
   </trkpt>
   <trkpt lat="42.1214630" lon="2.7853750">
    <ele>182.9</ele>
    <time>2018-12-27T11:10:35Z</time>
   </trkpt>
   <trkpt lat="42.1216360" lon="2.7852410">
    <ele>183.3</ele>
    <time>2018-12-27T11:10:39Z</time>
   </trkpt>
   <trkpt lat="42.1217860" lon="2.7851110">
    <ele>183.7</ele>
    <time>2018-12-27T11:10:42Z</time>
   </trkpt>
   <trkpt lat="42.1219480" lon="2.7849850">
    <ele>185.1</ele>
    <time>2018-12-27T11:10:45Z</time>
   </trkpt>
   <trkpt lat="42.1221280" lon="2.7848660">
    <ele>186.5</ele>
    <time>2018-12-27T11:10:48Z</time>
   </trkpt>
   <trkpt lat="42.1222760" lon="2.7847380">
    <ele>188.3</ele>
    <time>2018-12-27T11:10:51Z</time>
   </trkpt>
   <trkpt lat="42.1224280" lon="2.7846130">
    <ele>189.8</ele>
    <time>2018-12-27T11:10:53Z</time>
   </trkpt>
   <trkpt lat="42.1225750" lon="2.7844810">
    <ele>191.2</ele>
    <time>2018-12-27T11:10:56Z</time>
   </trkpt>
   <trkpt lat="42.1227130" lon="2.7843780">
    <ele>192.3</ele>
    <time>2018-12-27T11:10:59Z</time>
   </trkpt>
   <trkpt lat="42.1228780" lon="2.7842730">
    <ele>193.5</ele>
    <time>2018-12-27T11:11:02Z</time>
   </trkpt>
   <trkpt lat="42.1230150" lon="2.7841580">
    <ele>194.6</ele>
    <time>2018-12-27T11:11:04Z</time>
   </trkpt>
   <trkpt lat="42.1231750" lon="2.7840730">
    <ele>195.6</ele>
    <time>2018-12-27T11:11:07Z</time>
   </trkpt>
   <trkpt lat="42.1233300" lon="2.7839650">
    <ele>196.4</ele>
    <time>2018-12-27T11:11:10Z</time>
   </trkpt>
   <trkpt lat="42.1234850" lon="2.7838410">
    <ele>197.0</ele>
    <time>2018-12-27T11:11:13Z</time>
   </trkpt>
   <trkpt lat="42.1236250" lon="2.7837110">
    <ele>197.5</ele>
    <time>2018-12-27T11:11:15Z</time>
   </trkpt>
   <trkpt lat="42.1237660" lon="2.7835810">
    <ele>198.2</ele>
    <time>2018-12-27T11:11:18Z</time>
   </trkpt>
   <trkpt lat="42.1239050" lon="2.7834500">
    <ele>199.0</ele>
    <time>2018-12-27T11:11:21Z</time>
   </trkpt>
   <trkpt lat="42.1240450" lon="2.7833130">
    <ele>200.0</ele>
    <time>2018-12-27T11:11:24Z</time>
   </trkpt>
   <trkpt lat="42.1242010" lon="2.7832010">
    <ele>201.0</ele>
    <time>2018-12-27T11:11:26Z</time>
   </trkpt>
   <trkpt lat="42.1243600" lon="2.7830500">
    <ele>201.9</ele>
    <time>2018-12-27T11:11:30Z</time>
   </trkpt>
   <trkpt lat="42.1245050" lon="2.7829060">
    <ele>202.7</ele>
    <time>2018-12-27T11:11:32Z</time>
   </trkpt>
   <trkpt lat="42.1246430" lon="2.7827550">
    <ele>203.5</ele>
    <time>2018-12-27T11:11:35Z</time>
   </trkpt>
   <trkpt lat="42.1247660" lon="2.7826000">
    <ele>204.2</ele>
    <time>2018-12-27T11:11:38Z</time>
   </trkpt>
   <trkpt lat="42.1248930" lon="2.7824250">
    <ele>204.9</ele>
    <time>2018-12-27T11:11:41Z</time>
   </trkpt>
   <trkpt lat="42.1250080" lon="2.7822250">
    <ele>205.5</ele>
    <time>2018-12-27T11:11:44Z</time>
   </trkpt>
   <trkpt lat="42.1251410" lon="2.7820460">
    <ele>206.0</ele>
    <time>2018-12-27T11:11:47Z</time>
   </trkpt>
   <trkpt lat="42.1252530" lon="2.7818950">
    <ele>206.3</ele>
    <time>2018-12-27T11:11:49Z</time>
   </trkpt>
   <trkpt lat="42.1253730" lon="2.7816960">
    <ele>206.8</ele>
    <time>2018-12-27T11:11:53Z</time>
   </trkpt>
   <trkpt lat="42.1254930" lon="2.7815000">
    <ele>207.3</ele>
    <time>2018-12-27T11:11:56Z</time>
   </trkpt>
   <trkpt lat="42.1256100" lon="2.7813060">
    <ele>207.9</ele>
    <time>2018-12-27T11:11:58Z</time>
   </trkpt>
   <trkpt lat="42.1257230" lon="2.7811450">
    <ele>208.3</ele>
    <time>2018-12-27T11:12:01Z</time>
   </trkpt>
   <trkpt lat="42.1258400" lon="2.7809080">
    <ele>208.9</ele>
    <time>2018-12-27T11:12:05Z</time>
   </trkpt>
   <trkpt lat="42.1259850" lon="2.7807560">
    <ele>209.2</ele>
    <time>2018-12-27T11:12:07Z</time>
   </trkpt>
   <trkpt lat="42.1261260" lon="2.7804910">
    <ele>209.6</ele>
    <time>2018-12-27T11:12:11Z</time>
   </trkpt>
   <trkpt lat="42.1262630" lon="2.7802560">
    <ele>209.8</ele>
    <time>2018-12-27T11:12:15Z</time>
   </trkpt>
   <trkpt lat="42.1263760" lon="2.7800530">
    <ele>210.0</ele>
    <time>2018-12-27T11:12:18Z</time>
   </trkpt>
   <trkpt lat="42.1264730" lon="2.7798500">
    <ele>210.2</ele>
    <time>2018-12-27T11:12:21Z</time>
   </trkpt>
   <trkpt lat="42.1266050" lon="2.7796410">
    <ele>210.4</ele>
    <time>2018-12-27T11:12:24Z</time>
   </trkpt>
   <trkpt lat="42.1267550" lon="2.7793960">
    <ele>210.8</ele>
    <time>2018-12-27T11:12:28Z</time>
   </trkpt>
   <trkpt lat="42.1268880" lon="2.7791950">
    <ele>211.1</ele>
    <time>2018-12-27T11:12:31Z</time>
   </trkpt>
   <trkpt lat="42.1270280" lon="2.7789980">
    <ele>211.6</ele>
    <time>2018-12-27T11:12:34Z</time>
   </trkpt>
   <trkpt lat="42.1271560" lon="2.7788000">
    <ele>212.0</ele>
    <time>2018-12-27T11:12:37Z</time>
   </trkpt>
   <trkpt lat="42.1272910" lon="2.7785660">
    <ele>212.4</ele>
    <time>2018-12-27T11:12:41Z</time>
   </trkpt>
   <trkpt lat="42.1274250" lon="2.7783330">
    <ele>212.9</ele>
    <time>2018-12-27T11:12:44Z</time>
   </trkpt>
   <trkpt lat="42.1275980" lon="2.7781100">
    <ele>213.3</ele>
    <time>2018-12-27T11:12:48Z</time>
   </trkpt>
   <trkpt lat="42.1277250" lon="2.7778980">
    <ele>213.6</ele>
    <time>2018-12-27T11:12:51Z</time>
   </trkpt>
   <trkpt lat="42.1278730" lon="2.7776650">
    <ele>213.8</ele>
    <time>2018-12-27T11:12:55Z</time>
   </trkpt>
   <trkpt lat="42.1280210" lon="2.7774100">
    <ele>214.1</ele>
    <time>2018-12-27T11:12:59Z</time>
   </trkpt>
   <trkpt lat="42.1281350" lon="2.7771850">
    <ele>214.3</ele>
    <time>2018-12-27T11:13:02Z</time>
   </trkpt>
   <trkpt lat="42.1282810" lon="2.7769610">
    <ele>214.6</ele>
    <time>2018-12-27T11:13:06Z</time>
   </trkpt>
   <trkpt lat="42.1284230" lon="2.7767750">
    <ele>214.8</ele>
    <time>2018-12-27T11:13:09Z</time>
   </trkpt>
   <trkpt lat="42.1285750" lon="2.7765410">
    <ele>215.2</ele>
    <time>2018-12-27T11:13:13Z</time>
   </trkpt>
   <trkpt lat="42.1287280" lon="2.7762980">
    <ele>215.5</ele>
    <time>2018-12-27T11:13:16Z</time>
   </trkpt>
   <trkpt lat="42.1288410" lon="2.7760960">
    <ele>215.7</ele>
    <time>2018-12-27T11:13:19Z</time>
   </trkpt>
   <trkpt lat="42.1289710" lon="2.7758730">
    <ele>215.9</ele>
    <time>2018-12-27T11:13:23Z</time>
   </trkpt>
   <trkpt lat="42.1291610" lon="2.7756330">
    <ele>216.2</ele>
    <time>2018-12-27T11:13:27Z</time>
   </trkpt>
   <trkpt lat="42.1293210" lon="2.7754030">
    <ele>216.6</ele>
    <time>2018-12-27T11:13:31Z</time>
   </trkpt>
   <trkpt lat="42.1294760" lon="2.7752050">
    <ele>217.1</ele>
    <time>2018-12-27T11:13:34Z</time>
   </trkpt>
   <trkpt lat="42.1296550" lon="2.7750200">
    <ele>217.9</ele>
    <time>2018-12-27T11:13:38Z</time>
   </trkpt>
   <trkpt lat="42.1298330" lon="2.7748380">
    <ele>218.4</ele>
    <time>2018-12-27T11:13:41Z</time>
   </trkpt>
   <trkpt lat="42.1300550" lon="2.7746550">
    <ele>218.8</ele>
    <time>2018-12-27T11:13:45Z</time>
   </trkpt>
   <trkpt lat="42.1302460" lon="2.7744960">
    <ele>219.2</ele>
    <time>2018-12-27T11:13:49Z</time>
   </trkpt>
   <trkpt lat="42.1304800" lon="2.7743460">
    <ele>219.7</ele>
    <time>2018-12-27T11:13:53Z</time>
   </trkpt>
   <trkpt lat="42.1306650" lon="2.7742350">
    <ele>220.3</ele>
    <time>2018-12-27T11:13:56Z</time>
   </trkpt>
   <trkpt lat="42.1308850" lon="2.7741110">
    <ele>220.9</ele>
    <time>2018-12-27T11:14:00Z</time>
   </trkpt>
   <trkpt lat="42.1311130" lon="2.7739910">
    <ele>221.4</ele>
    <time>2018-12-27T11:14:04Z</time>
   </trkpt>
   <trkpt lat="42.1313400" lon="2.7738810">
    <ele>221.8</ele>
    <time>2018-12-27T11:14:08Z</time>
   </trkpt>
   <trkpt lat="42.1316010" lon="2.7738110">
    <ele>222.5</ele>
    <time>2018-12-27T11:14:12Z</time>
   </trkpt>
   <trkpt lat="42.1318600" lon="2.7737530">
    <ele>223.1</ele>
    <time>2018-12-27T11:14:16Z</time>
   </trkpt>
   <trkpt lat="42.1320810" lon="2.7737010">
    <ele>223.4</ele>
    <time>2018-12-27T11:14:20Z</time>
   </trkpt>
   <trkpt lat="42.1323030" lon="2.7736700">
    <ele>223.7</ele>
    <time>2018-12-27T11:14:24Z</time>
   </trkpt>
   <trkpt lat="42.1325750" lon="2.7736580">
    <ele>224.0</ele>
    <time>2018-12-27T11:14:28Z</time>
   </trkpt>
   <trkpt lat="42.1328080" lon="2.7736480">
    <ele>224.3</ele>
    <time>2018-12-27T11:14:32Z</time>
   </trkpt>
   <trkpt lat="42.1330230" lon="2.7736180">
    <ele>224.5</ele>
    <time>2018-12-27T11:14:35Z</time>
   </trkpt>
   <trkpt lat="42.1332760" lon="2.7735730">
    <ele>224.9</ele>
    <time>2018-12-27T11:14:39Z</time>
   </trkpt>
   <trkpt lat="42.1335130" lon="2.7735630">
    <ele>225.2</ele>
    <time>2018-12-27T11:14:43Z</time>
   </trkpt>
   <trkpt lat="42.1337460" lon="2.7735250">
    <ele>226.1</ele>
    <time>2018-12-27T11:14:47Z</time>
   </trkpt>
   <trkpt lat="42.1339930" lon="2.7734810">
    <ele>227.1</ele>
    <time>2018-12-27T11:14:51Z</time>
   </trkpt>
   <trkpt lat="42.1342200" lon="2.7733930">
    <ele>227.2</ele>
    <time>2018-12-27T11:14:55Z</time>
   </trkpt>
   <trkpt lat="42.1344400" lon="2.7733150">
    <ele>227.4</ele>
    <time>2018-12-27T11:14:58Z</time>
   </trkpt>
   <trkpt lat="42.1346530" lon="2.7732160">
    <ele>227.6</ele>
    <time>2018-12-27T11:15:02Z</time>
   </trkpt>
   <trkpt lat="42.1348710" lon="2.7731150">
    <ele>227.7</ele>
    <time>2018-12-27T11:15:05Z</time>
   </trkpt>
   <trkpt lat="42.1350960" lon="2.7729800">
    <ele>227.7</ele>
    <time>2018-12-27T11:15:09Z</time>
   </trkpt>
   <trkpt lat="42.1353110" lon="2.7728050">
    <ele>227.7</ele>
    <time>2018-12-27T11:15:13Z</time>
   </trkpt>
   <trkpt lat="42.1355210" lon="2.7726330">
    <ele>227.2</ele>
    <time>2018-12-27T11:15:17Z</time>
   </trkpt>
   <trkpt lat="42.1357600" lon="2.7724530">
    <ele>226.6</ele>
    <time>2018-12-27T11:15:22Z</time>
   </trkpt>
   <trkpt lat="42.1359430" lon="2.7722400">
    <ele>226.4</ele>
    <time>2018-12-27T11:15:26Z</time>
   </trkpt>
   <trkpt lat="42.1361450" lon="2.7720380">
    <ele>226.6</ele>
    <time>2018-12-27T11:15:30Z</time>
   </trkpt>
   <trkpt lat="42.1363380" lon="2.7718050">
    <ele>227.1</ele>
    <time>2018-12-27T11:15:34Z</time>
   </trkpt>
   <trkpt lat="42.1365080" lon="2.7715500">
    <ele>227.4</ele>
    <time>2018-12-27T11:15:38Z</time>
   </trkpt>
   <trkpt lat="42.1366650" lon="2.7712650">
    <ele>227.5</ele>
    <time>2018-12-27T11:15:42Z</time>
   </trkpt>
   <trkpt lat="42.1368360" lon="2.7709760">
    <ele>227.6</ele>
    <time>2018-12-27T11:15:46Z</time>
   </trkpt>
   <trkpt lat="42.1370050" lon="2.7706960">
    <ele>227.7</ele>
    <time>2018-12-27T11:15:51Z</time>
   </trkpt>
   <trkpt lat="42.1371600" lon="2.7703930">
    <ele>227.9</ele>
    <time>2018-12-27T11:15:55Z</time>
   </trkpt>
   <trkpt lat="42.1373100" lon="2.7700910">
    <ele>228.1</ele>
    <time>2018-12-27T11:15:59Z</time>
   </trkpt>
   <trkpt lat="42.1374730" lon="2.7697780">
    <ele>228.2</ele>
    <time>2018-12-27T11:16:04Z</time>
   </trkpt>
   <trkpt lat="42.1376200" lon="2.7695100">
    <ele>228.5</ele>
    <time>2018-12-27T11:16:08Z</time>
   </trkpt>
   <trkpt lat="42.1377700" lon="2.7691950">
    <ele>228.7</ele>
    <time>2018-12-27T11:16:12Z</time>
   </trkpt>
   <trkpt lat="42.1379330" lon="2.7688810">
    <ele>228.7</ele>
    <time>2018-12-27T11:16:17Z</time>
   </trkpt>
   <trkpt lat="42.1380880" lon="2.7685550">
    <ele>228.7</ele>
    <time>2018-12-27T11:16:22Z</time>
   </trkpt>
   <trkpt lat="42.1382580" lon="2.7682560">
    <ele>228.6</ele>
    <time>2018-12-27T11:16:26Z</time>
   </trkpt>
   <trkpt lat="42.1384060" lon="2.7679510">
    <ele>228.6</ele>
    <time>2018-12-27T11:16:30Z</time>
   </trkpt>
   <trkpt lat="42.1385700" lon="2.7676010">
    <ele>228.7</ele>
    <time>2018-12-27T11:16:35Z</time>
   </trkpt>
   <trkpt lat="42.1387360" lon="2.7673080">
    <ele>228.6</ele>
    <time>2018-12-27T11:16:40Z</time>
   </trkpt>
   <trkpt lat="42.1388880" lon="2.7669980">
    <ele>228.7</ele>
    <time>2018-12-27T11:16:44Z</time>
   </trkpt>
   <trkpt lat="42.1390580" lon="2.7666950">
    <ele>228.7</ele>
    <time>2018-12-27T11:16:49Z</time>
   </trkpt>
   <trkpt lat="42.1392150" lon="2.7663710">
    <ele>228.8</ele>
    <time>2018-12-27T11:16:53Z</time>
   </trkpt>
   <trkpt lat="42.1393650" lon="2.7660610">
    <ele>228.9</ele>
    <time>2018-12-27T11:16:58Z</time>
   </trkpt>
   <trkpt lat="42.1395380" lon="2.7657480">
    <ele>229.0</ele>
    <time>2018-12-27T11:17:02Z</time>
   </trkpt>
   <trkpt lat="42.1397280" lon="2.7654850">
    <ele>229.1</ele>
    <time>2018-12-27T11:17:07Z</time>
   </trkpt>
   <trkpt lat="42.1399560" lon="2.7653060">
    <ele>229.2</ele>
    <time>2018-12-27T11:17:11Z</time>
   </trkpt>
   <trkpt lat="42.1402250" lon="2.7652010">
    <ele>229.2</ele>
    <time>2018-12-27T11:17:15Z</time>
   </trkpt>
   <trkpt lat="42.1405580" lon="2.7652150">
    <ele>229.2</ele>
    <time>2018-12-27T11:17:21Z</time>
   </trkpt>
   <trkpt lat="42.1408810" lon="2.7653200">
    <ele>229.0</ele>
    <time>2018-12-27T11:17:26Z</time>
   </trkpt>
   <trkpt lat="42.1411900" lon="2.7655380">
    <ele>228.3</ele>
    <time>2018-12-27T11:17:32Z</time>
   </trkpt>
   <trkpt lat="42.1414030" lon="2.7658300">
    <ele>227.2</ele>
    <time>2018-12-27T11:17:36Z</time>
   </trkpt>
   <trkpt lat="42.1415900" lon="2.7661410">
    <ele>226.3</ele>
    <time>2018-12-27T11:17:41Z</time>
   </trkpt>
   <trkpt lat="42.1417680" lon="2.7664450">
    <ele>226.0</ele>
    <time>2018-12-27T11:17:46Z</time>
   </trkpt>
   <trkpt lat="42.1419160" lon="2.7667450">
    <ele>225.6</ele>
    <time>2018-12-27T11:17:50Z</time>
   </trkpt>
   <trkpt lat="42.1420730" lon="2.7670300">
    <ele>225.4</ele>
    <time>2018-12-27T11:17:54Z</time>
   </trkpt>
   <trkpt lat="42.1422280" lon="2.7673350">
    <ele>225.3</ele>
    <time>2018-12-27T11:17:59Z</time>
   </trkpt>
   <trkpt lat="42.1423880" lon="2.7676260">
    <ele>225.3</ele>
    <time>2018-12-27T11:18:03Z</time>
   </trkpt>
   <trkpt lat="42.1425180" lon="2.7679010">
    <ele>225.3</ele>
    <time>2018-12-27T11:18:07Z</time>
   </trkpt>
   <trkpt lat="42.1426910" lon="2.7682030">
    <ele>225.3</ele>
    <time>2018-12-27T11:18:11Z</time>
   </trkpt>
   <trkpt lat="42.1428530" lon="2.7685280">
    <ele>225.0</ele>
    <time>2018-12-27T11:18:16Z</time>
   </trkpt>
   <trkpt lat="42.1430200" lon="2.7688230">
    <ele>224.6</ele>
    <time>2018-12-27T11:18:20Z</time>
   </trkpt>
   <trkpt lat="42.1431950" lon="2.7691230">
    <ele>224.3</ele>
    <time>2018-12-27T11:18:25Z</time>
   </trkpt>
   <trkpt lat="42.1433580" lon="2.7694080">
    <ele>224.1</ele>
    <time>2018-12-27T11:18:29Z</time>
   </trkpt>
   <trkpt lat="42.1435950" lon="2.7695910">
    <ele>223.7</ele>
    <time>2018-12-27T11:18:34Z</time>
   </trkpt>
   <trkpt lat="42.1438650" lon="2.7695860">
    <ele>223.8</ele>
    <time>2018-12-27T11:18:38Z</time>
   </trkpt>
   <trkpt lat="42.1441260" lon="2.7696000">
    <ele>224.0</ele>
    <time>2018-12-27T11:18:42Z</time>
   </trkpt>
   <trkpt lat="42.1443860" lon="2.7696330">
    <ele>224.1</ele>
    <time>2018-12-27T11:18:46Z</time>
   </trkpt>
   <trkpt lat="42.1446430" lon="2.7696600">
    <ele>224.2</ele>
    <time>2018-12-27T11:18:50Z</time>
   </trkpt>
   <trkpt lat="42.1449080" lon="2.7696810">
    <ele>224.2</ele>
    <time>2018-12-27T11:18:55Z</time>
   </trkpt>
   <trkpt lat="42.1451710" lon="2.7696750">
    <ele>224.3</ele>
    <time>2018-12-27T11:18:59Z</time>
   </trkpt>
   <trkpt lat="42.1454160" lon="2.7696580">
    <ele>224.4</ele>
    <time>2018-12-27T11:19:03Z</time>
   </trkpt>
   <trkpt lat="42.1456950" lon="2.7696310">
    <ele>224.4</ele>
    <time>2018-12-27T11:19:07Z</time>
   </trkpt>
   <trkpt lat="42.1459550" lon="2.7696330">
    <ele>224.8</ele>
    <time>2018-12-27T11:19:11Z</time>
   </trkpt>
   <trkpt lat="42.1462130" lon="2.7697080">
    <ele>226.0</ele>
    <time>2018-12-27T11:19:16Z</time>
   </trkpt>
   <trkpt lat="42.1464650" lon="2.7697280">
    <ele>226.4</ele>
    <time>2018-12-27T11:19:20Z</time>
   </trkpt>
   <trkpt lat="42.1467110" lon="2.7697300">
    <ele>226.4</ele>
    <time>2018-12-27T11:19:24Z</time>
   </trkpt>
   <trkpt lat="42.1469650" lon="2.7697460">
    <ele>226.4</ele>
    <time>2018-12-27T11:19:28Z</time>
   </trkpt>
   <trkpt lat="42.1472300" lon="2.7697310">
    <ele>226.4</ele>
    <time>2018-12-27T11:19:32Z</time>
   </trkpt>
   <trkpt lat="42.1474630" lon="2.7697460">
    <ele>226.6</ele>
    <time>2018-12-27T11:19:36Z</time>
   </trkpt>
   <trkpt lat="42.1477100" lon="2.7697630">
    <ele>226.7</ele>
    <time>2018-12-27T11:19:40Z</time>
   </trkpt>
   <trkpt lat="42.1479400" lon="2.7697560">
    <ele>226.5</ele>
    <time>2018-12-27T11:19:43Z</time>
   </trkpt>
   <trkpt lat="42.1482110" lon="2.7697580">
    <ele>226.3</ele>
    <time>2018-12-27T11:19:48Z</time>
   </trkpt>
   <trkpt lat="42.1484760" lon="2.7697330">
    <ele>226.1</ele>
    <time>2018-12-27T11:19:52Z</time>
   </trkpt>
   <trkpt lat="42.1487100" lon="2.7697730">
    <ele>226.0</ele>
    <time>2018-12-27T11:19:56Z</time>
   </trkpt>
   <trkpt lat="42.1489680" lon="2.7697830">
    <ele>225.9</ele>
    <time>2018-12-27T11:20:00Z</time>
   </trkpt>
   <trkpt lat="42.1491950" lon="2.7698160">
    <ele>225.8</ele>
    <time>2018-12-27T11:20:03Z</time>
   </trkpt>
   <trkpt lat="42.1494130" lon="2.7698410">
    <ele>226.1</ele>
    <time>2018-12-27T11:20:07Z</time>
   </trkpt>
   <trkpt lat="42.1496960" lon="2.7698650">
    <ele>226.6</ele>
    <time>2018-12-27T11:20:11Z</time>
   </trkpt>
   <trkpt lat="42.1499450" lon="2.7698750">
    <ele>227.0</ele>
    <time>2018-12-27T11:20:15Z</time>
   </trkpt>
   <trkpt lat="42.1501880" lon="2.7698800">
    <ele>227.3</ele>
    <time>2018-12-27T11:20:19Z</time>
   </trkpt>
   <trkpt lat="42.1504150" lon="2.7698960">
    <ele>227.9</ele>
    <time>2018-12-27T11:20:23Z</time>
   </trkpt>
   <trkpt lat="42.1506730" lon="2.7699000">
    <ele>229.0</ele>
    <time>2018-12-27T11:20:27Z</time>
   </trkpt>
   <trkpt lat="42.1509180" lon="2.7699050">
    <ele>230.5</ele>
    <time>2018-12-27T11:20:31Z</time>
   </trkpt>
   <trkpt lat="42.1511700" lon="2.7699080">
    <ele>231.2</ele>
    <time>2018-12-27T11:20:35Z</time>
   </trkpt>
   <trkpt lat="42.1513980" lon="2.7699130">
    <ele>231.8</ele>
    <time>2018-12-27T11:20:39Z</time>
   </trkpt>
   <trkpt lat="42.1516450" lon="2.7699200">
    <ele>231.9</ele>
    <time>2018-12-27T11:20:43Z</time>
   </trkpt>
   <trkpt lat="42.1518880" lon="2.7699730">
    <ele>231.3</ele>
    <time>2018-12-27T11:20:47Z</time>
   </trkpt>
   <trkpt lat="42.1520880" lon="2.7701200">
    <ele>230.7</ele>
    <time>2018-12-27T11:20:50Z</time>
   </trkpt>
   <trkpt lat="42.1522730" lon="2.7701980">
    <ele>230.0</ele>
    <time>2018-12-27T11:20:53Z</time>
   </trkpt>
   <trkpt lat="42.1525030" lon="2.7701600">
    <ele>229.1</ele>
    <time>2018-12-27T11:20:57Z</time>
   </trkpt>
   <trkpt lat="42.1527260" lon="2.7702230">
    <ele>228.3</ele>
    <time>2018-12-27T11:21:01Z</time>
   </trkpt>
   <trkpt lat="42.1529250" lon="2.7703830">
    <ele>227.5</ele>
    <time>2018-12-27T11:21:04Z</time>
   </trkpt>
   <trkpt lat="42.1531050" lon="2.7704950">
    <ele>226.8</ele>
    <time>2018-12-27T11:21:08Z</time>
   </trkpt>
   <trkpt lat="42.1533410" lon="2.7707210">
    <ele>225.6</ele>
    <time>2018-12-27T11:21:12Z</time>
   </trkpt>
   <trkpt lat="42.1535800" lon="2.7709030">
    <ele>224.2</ele>
    <time>2018-12-27T11:21:17Z</time>
   </trkpt>
   <trkpt lat="42.1538010" lon="2.7710910">
    <ele>223.5</ele>
    <time>2018-12-27T11:21:21Z</time>
   </trkpt>
   <trkpt lat="42.1540430" lon="2.7712510">
    <ele>223.0</ele>
    <time>2018-12-27T11:21:25Z</time>
   </trkpt>
   <trkpt lat="42.1543050" lon="2.7713900">
    <ele>221.9</ele>
    <time>2018-12-27T11:21:30Z</time>
   </trkpt>
   <trkpt lat="42.1545680" lon="2.7715680">
    <ele>220.5</ele>
    <time>2018-12-27T11:21:34Z</time>
   </trkpt>
   <trkpt lat="42.1548130" lon="2.7717360">
    <ele>219.6</ele>
    <time>2018-12-27T11:21:39Z</time>
   </trkpt>
   <trkpt lat="42.1550530" lon="2.7719150">
    <ele>219.1</ele>
    <time>2018-12-27T11:21:43Z</time>
   </trkpt>
   <trkpt lat="42.1552780" lon="2.7720960">
    <ele>218.8</ele>
    <time>2018-12-27T11:21:47Z</time>
   </trkpt>
   <trkpt lat="42.1555110" lon="2.7722550">
    <ele>218.7</ele>
    <time>2018-12-27T11:21:52Z</time>
   </trkpt>
   <trkpt lat="42.1557430" lon="2.7724160">
    <ele>218.7</ele>
    <time>2018-12-27T11:21:56Z</time>
   </trkpt>
   <trkpt lat="42.1560080" lon="2.7725980">
    <ele>218.7</ele>
    <time>2018-12-27T11:22:00Z</time>
   </trkpt>
   <trkpt lat="42.1562510" lon="2.7727900">
    <ele>218.8</ele>
    <time>2018-12-27T11:22:05Z</time>
   </trkpt>
   <trkpt lat="42.1564660" lon="2.7729530">
    <ele>219.3</ele>
    <time>2018-12-27T11:22:09Z</time>
   </trkpt>
   <trkpt lat="42.1567400" lon="2.7730960">
    <ele>219.9</ele>
    <time>2018-12-27T11:22:14Z</time>
   </trkpt>
   <trkpt lat="42.1569460" lon="2.7732750">
    <ele>220.1</ele>
    <time>2018-12-27T11:22:18Z</time>
   </trkpt>
   <trkpt lat="42.1571600" lon="2.7734610">
    <ele>220.2</ele>
    <time>2018-12-27T11:22:22Z</time>
   </trkpt>
   <trkpt lat="42.1574000" lon="2.7736010">
    <ele>220.3</ele>
    <time>2018-12-27T11:22:26Z</time>
   </trkpt>
   <trkpt lat="42.1576250" lon="2.7737600">
    <ele>220.2</ele>
    <time>2018-12-27T11:22:30Z</time>
   </trkpt>
   <trkpt lat="42.1578630" lon="2.7739230">
    <ele>220.2</ele>
    <time>2018-12-27T11:22:34Z</time>
   </trkpt>
   <trkpt lat="42.1580760" lon="2.7741080">
    <ele>220.2</ele>
    <time>2018-12-27T11:22:38Z</time>
   </trkpt>
   <trkpt lat="42.1583050" lon="2.7742350">
    <ele>220.2</ele>
    <time>2018-12-27T11:22:42Z</time>
   </trkpt>
   <trkpt lat="42.1585310" lon="2.7744010">
    <ele>220.2</ele>
    <time>2018-12-27T11:22:46Z</time>
   </trkpt>
   <trkpt lat="42.1587660" lon="2.7745330">
    <ele>220.1</ele>
    <time>2018-12-27T11:22:50Z</time>
   </trkpt>
   <trkpt lat="42.1590030" lon="2.7746800">
    <ele>220.0</ele>
    <time>2018-12-27T11:22:55Z</time>
   </trkpt>
   <trkpt lat="42.1592310" lon="2.7748580">
    <ele>220.0</ele>
    <time>2018-12-27T11:22:59Z</time>
   </trkpt>
   <trkpt lat="42.1594400" lon="2.7750450">
    <ele>220.0</ele>
    <time>2018-12-27T11:23:03Z</time>
   </trkpt>
   <trkpt lat="42.1596800" lon="2.7752180">
    <ele>219.9</ele>
    <time>2018-12-27T11:23:07Z</time>
   </trkpt>
   <trkpt lat="42.1599230" lon="2.7754010">
    <ele>219.8</ele>
    <time>2018-12-27T11:23:12Z</time>
   </trkpt>
   <trkpt lat="42.1601430" lon="2.7755610">
    <ele>219.7</ele>
    <time>2018-12-27T11:23:16Z</time>
   </trkpt>
   <trkpt lat="42.1603780" lon="2.7757250">
    <ele>219.6</ele>
    <time>2018-12-27T11:23:20Z</time>
   </trkpt>
   <trkpt lat="42.1606080" lon="2.7758860">
    <ele>219.5</ele>
    <time>2018-12-27T11:23:24Z</time>
   </trkpt>
   <trkpt lat="42.1608450" lon="2.7760600">
    <ele>219.4</ele>
    <time>2018-12-27T11:23:28Z</time>
   </trkpt>
   <trkpt lat="42.1610760" lon="2.7762160">
    <ele>219.4</ele>
    <time>2018-12-27T11:23:32Z</time>
   </trkpt>
   <trkpt lat="42.1612930" lon="2.7763760">
    <ele>219.3</ele>
    <time>2018-12-27T11:23:36Z</time>
   </trkpt>
   <trkpt lat="42.1615500" lon="2.7765210">
    <ele>219.2</ele>
    <time>2018-12-27T11:23:41Z</time>
   </trkpt>
   <trkpt lat="42.1617650" lon="2.7766900">
    <ele>219.0</ele>
    <time>2018-12-27T11:23:45Z</time>
   </trkpt>
   <trkpt lat="42.1619730" lon="2.7768560">
    <ele>218.9</ele>
    <time>2018-12-27T11:23:49Z</time>
   </trkpt>
   <trkpt lat="42.1622060" lon="2.7770110">
    <ele>218.8</ele>
    <time>2018-12-27T11:23:53Z</time>
   </trkpt>
   <trkpt lat="42.1624360" lon="2.7771710">
    <ele>218.8</ele>
    <time>2018-12-27T11:23:57Z</time>
   </trkpt>
   <trkpt lat="42.1626800" lon="2.7773360">
    <ele>218.7</ele>
    <time>2018-12-27T11:24:01Z</time>
   </trkpt>
   <trkpt lat="42.1629000" lon="2.7775050">
    <ele>218.5</ele>
    <time>2018-12-27T11:24:05Z</time>
   </trkpt>
   <trkpt lat="42.1631310" lon="2.7776480">
    <ele>218.4</ele>
    <time>2018-12-27T11:24:09Z</time>
   </trkpt>
   <trkpt lat="42.1633800" lon="2.7778230">
    <ele>218.4</ele>
    <time>2018-12-27T11:24:14Z</time>
   </trkpt>
   <trkpt lat="42.1636400" lon="2.7779910">
    <ele>218.6</ele>
    <time>2018-12-27T11:24:19Z</time>
   </trkpt>
   <trkpt lat="42.1638930" lon="2.7781660">
    <ele>218.6</ele>
    <time>2018-12-27T11:24:23Z</time>
   </trkpt>
   <trkpt lat="42.1641250" lon="2.7783600">
    <ele>218.5</ele>
    <time>2018-12-27T11:24:28Z</time>
   </trkpt>
   <trkpt lat="42.1643510" lon="2.7785310">
    <ele>218.5</ele>
    <time>2018-12-27T11:24:32Z</time>
   </trkpt>
   <trkpt lat="42.1645800" lon="2.7787110">
    <ele>218.3</ele>
    <time>2018-12-27T11:24:36Z</time>
   </trkpt>
   <trkpt lat="42.1648710" lon="2.7788930">
    <ele>217.9</ele>
    <time>2018-12-27T11:24:41Z</time>
   </trkpt>
   <trkpt lat="42.1651230" lon="2.7791030">
    <ele>218.0</ele>
    <time>2018-12-27T11:24:46Z</time>
   </trkpt>
   <trkpt lat="42.1653780" lon="2.7792600">
    <ele>218.1</ele>
    <time>2018-12-27T11:24:50Z</time>
   </trkpt>
   <trkpt lat="42.1656300" lon="2.7794300">
    <ele>217.7</ele>
    <time>2018-12-27T11:24:55Z</time>
   </trkpt>
   <trkpt lat="42.1658730" lon="2.7796100">
    <ele>217.9</ele>
    <time>2018-12-27T11:24:59Z</time>
   </trkpt>
   <trkpt lat="42.1661250" lon="2.7797760">
    <ele>218.9</ele>
    <time>2018-12-27T11:25:04Z</time>
   </trkpt>
   <trkpt lat="42.1663680" lon="2.7799530">
    <ele>219.1</ele>
    <time>2018-12-27T11:25:08Z</time>
   </trkpt>
   <trkpt lat="42.1666200" lon="2.7801180">
    <ele>218.1</ele>
    <time>2018-12-27T11:25:13Z</time>
   </trkpt>
   <trkpt lat="42.1668500" lon="2.7802850">
    <ele>217.5</ele>
    <time>2018-12-27T11:25:17Z</time>
   </trkpt>
   <trkpt lat="42.1671060" lon="2.7804650">
    <ele>217.8</ele>
    <time>2018-12-27T11:25:21Z</time>
   </trkpt>
   <trkpt lat="42.1673280" lon="2.7806530">
    <ele>218.3</ele>
    <time>2018-12-27T11:25:26Z</time>
   </trkpt>
   <trkpt lat="42.1675780" lon="2.7807930">
    <ele>219.1</ele>
    <time>2018-12-27T11:25:30Z</time>
   </trkpt>
   <trkpt lat="42.1678660" lon="2.7809480">
    <ele>219.8</ele>
    <time>2018-12-27T11:25:35Z</time>
   </trkpt>
   <trkpt lat="42.1680960" lon="2.7811180">
    <ele>220.0</ele>
    <time>2018-12-27T11:25:39Z</time>
   </trkpt>
   <trkpt lat="42.1682950" lon="2.7813060">
    <ele>220.0</ele>
    <time>2018-12-27T11:25:43Z</time>
   </trkpt>
   <trkpt lat="42.1685400" lon="2.7815480">
    <ele>220.0</ele>
    <time>2018-12-27T11:25:48Z</time>
   </trkpt>
   <trkpt lat="42.1688000" lon="2.7817510">
    <ele>219.8</ele>
    <time>2018-12-27T11:25:53Z</time>
   </trkpt>
   <trkpt lat="42.1690850" lon="2.7819380">
    <ele>219.5</ele>
    <time>2018-12-27T11:25:58Z</time>
   </trkpt>
   <trkpt lat="42.1693210" lon="2.7821150">
    <ele>219.3</ele>
    <time>2018-12-27T11:26:02Z</time>
   </trkpt>
   <trkpt lat="42.1695580" lon="2.7822530">
    <ele>219.2</ele>
    <time>2018-12-27T11:26:06Z</time>
   </trkpt>
   <trkpt lat="42.1698610" lon="2.7824180">
    <ele>219.3</ele>
    <time>2018-12-27T11:26:11Z</time>
   </trkpt>
   <trkpt lat="42.1701030" lon="2.7825710">
    <ele>219.4</ele>
    <time>2018-12-27T11:26:16Z</time>
   </trkpt>
   <trkpt lat="42.1703280" lon="2.7827330">
    <ele>219.4</ele>
    <time>2018-12-27T11:26:20Z</time>
   </trkpt>
   <trkpt lat="42.1705810" lon="2.7829210">
    <ele>219.4</ele>
    <time>2018-12-27T11:26:24Z</time>
   </trkpt>
   <trkpt lat="42.1708060" lon="2.7830900">
    <ele>219.2</ele>
    <time>2018-12-27T11:26:29Z</time>
   </trkpt>
   <trkpt lat="42.1711100" lon="2.7832430">
    <ele>218.6</ele>
    <time>2018-12-27T11:26:34Z</time>
   </trkpt>
   <trkpt lat="42.1713730" lon="2.7832880">
    <ele>217.9</ele>
    <time>2018-12-27T11:26:38Z</time>
   </trkpt>
   <trkpt lat="42.1716180" lon="2.7833450">
    <ele>217.6</ele>
    <time>2018-12-27T11:26:42Z</time>
   </trkpt>
   <trkpt lat="42.1718610" lon="2.7834830">
    <ele>217.4</ele>
    <time>2018-12-27T11:26:46Z</time>
   </trkpt>
   <trkpt lat="42.1721810" lon="2.7836110">
    <ele>217.2</ele>
    <time>2018-12-27T11:26:52Z</time>
   </trkpt>
   <trkpt lat="42.1724180" lon="2.7836850">
    <ele>216.9</ele>
    <time>2018-12-27T11:26:55Z</time>
   </trkpt>
   <trkpt lat="42.1726900" lon="2.7837030">
    <ele>216.5</ele>
    <time>2018-12-27T11:27:00Z</time>
   </trkpt>
   <trkpt lat="42.1729150" lon="2.7838010">
    <ele>216.4</ele>
    <time>2018-12-27T11:27:04Z</time>
   </trkpt>
   <trkpt lat="42.1731310" lon="2.7839460">
    <ele>216.4</ele>
    <time>2018-12-27T11:27:07Z</time>
   </trkpt>
   <trkpt lat="42.1733350" lon="2.7841110">
    <ele>216.5</ele>
    <time>2018-12-27T11:27:11Z</time>
   </trkpt>
   <trkpt lat="42.1734200" lon="2.7843930">
    <ele>216.7</ele>
    <time>2018-12-27T11:27:15Z</time>
   </trkpt>
   <trkpt lat="42.1732960" lon="2.7846850">
    <ele>217.0</ele>
    <time>2018-12-27T11:27:19Z</time>
   </trkpt>
   <trkpt lat="42.1730850" lon="2.7849450">
    <ele>217.3</ele>
    <time>2018-12-27T11:27:23Z</time>
   </trkpt>
   <trkpt lat="42.1729250" lon="2.7852480">
    <ele>217.7</ele>
    <time>2018-12-27T11:27:28Z</time>
   </trkpt>
   <trkpt lat="42.1729700" lon="2.7856210">
    <ele>218.2</ele>
    <time>2018-12-27T11:27:32Z</time>
   </trkpt>
   <trkpt lat="42.1732080" lon="2.7857100">
    <ele>218.7</ele>
    <time>2018-12-27T11:27:36Z</time>
   </trkpt>
   <trkpt lat="42.1734530" lon="2.7855960">
    <ele>219.0</ele>
    <time>2018-12-27T11:27:40Z</time>
   </trkpt>
   <trkpt lat="42.1737060" lon="2.7854780">
    <ele>219.4</ele>
    <time>2018-12-27T11:27:45Z</time>
   </trkpt>
   <trkpt lat="42.1739550" lon="2.7854380">
    <ele>219.6</ele>
    <time>2018-12-27T11:27:49Z</time>
   </trkpt>
   <trkpt lat="42.1741460" lon="2.7853210">
    <ele>219.2</ele>
    <time>2018-12-27T11:27:52Z</time>
   </trkpt>
   <trkpt lat="42.1744450" lon="2.7853160">
    <ele>218.5</ele>
    <time>2018-12-27T11:27:57Z</time>
   </trkpt>
   <trkpt lat="42.1746960" lon="2.7853280">
    <ele>217.9</ele>
    <time>2018-12-27T11:28:01Z</time>
   </trkpt>
   <trkpt lat="42.1749130" lon="2.7852730">
    <ele>217.3</ele>
    <time>2018-12-27T11:28:04Z</time>
   </trkpt>
   <trkpt lat="42.1751160" lon="2.7853460">
    <ele>216.5</ele>
    <time>2018-12-27T11:28:08Z</time>
   </trkpt>
   <trkpt lat="42.1753900" lon="2.7854810">
    <ele>215.4</ele>
    <time>2018-12-27T11:28:12Z</time>
   </trkpt>
   <trkpt lat="42.1756530" lon="2.7855900">
    <ele>214.2</ele>
    <time>2018-12-27T11:28:17Z</time>
   </trkpt>
   <trkpt lat="42.1758550" lon="2.7856800">
    <ele>213.2</ele>
    <time>2018-12-27T11:28:20Z</time>
   </trkpt>
   <trkpt lat="42.1761250" lon="2.7857710">
    <ele>211.6</ele>
    <time>2018-12-27T11:28:25Z</time>
   </trkpt>
   <trkpt lat="42.1764730" lon="2.7858960">
    <ele>209.9</ele>
    <time>2018-12-27T11:28:31Z</time>
   </trkpt>
   <trkpt lat="42.1767480" lon="2.7860260">
    <ele>208.3</ele>
    <time>2018-12-27T11:28:35Z</time>
   </trkpt>
   <trkpt lat="42.1771180" lon="2.7862300">
    <ele>205.7</ele>
    <time>2018-12-27T11:28:42Z</time>
   </trkpt>
   <trkpt lat="42.1774100" lon="2.7865550">
    <ele>203.3</ele>
    <time>2018-12-27T11:28:48Z</time>
   </trkpt>
   <trkpt lat="42.1774150" lon="2.7870500">
    <ele>200.6</ele>
    <time>2018-12-27T11:28:54Z</time>
   </trkpt>
   <trkpt lat="42.1772480" lon="2.7876400">
    <ele>197.4</ele>
    <time>2018-12-27T11:29:01Z</time>
   </trkpt>
   <trkpt lat="42.1775160" lon="2.7880780">
    <ele>194.9</ele>
    <time>2018-12-27T11:29:08Z</time>
   </trkpt>
   <trkpt lat="42.1778660" lon="2.7885160">
    <ele>192.0</ele>
    <time>2018-12-27T11:29:15Z</time>
   </trkpt>
   <trkpt lat="42.1781750" lon="2.7889800">
    <ele>189.7</ele>
    <time>2018-12-27T11:29:23Z</time>
   </trkpt>
   <trkpt lat="42.1785280" lon="2.7893350">
    <ele>186.9</ele>
    <time>2018-12-27T11:29:30Z</time>
   </trkpt>
   <trkpt lat="42.1789530" lon="2.7893280">
    <ele>183.1</ele>
    <time>2018-12-27T11:29:37Z</time>
   </trkpt>
   <trkpt lat="42.1793560" lon="2.7893480">
    <ele>178.2</ele>
    <time>2018-12-27T11:29:43Z</time>
   </trkpt>
   <trkpt lat="42.1796910" lon="2.7897010">
    <ele>173.6</ele>
    <time>2018-12-27T11:29:50Z</time>
   </trkpt>
   <trkpt lat="42.1798150" lon="2.7902750">
    <ele>168.4</ele>
    <time>2018-12-27T11:29:57Z</time>
   </trkpt>
   <trkpt lat="42.1798750" lon="2.7908580">
    <ele>164.6</ele>
    <time>2018-12-27T11:30:04Z</time>
   </trkpt>
   <trkpt lat="42.1799430" lon="2.7915550">
    <ele>160.2</ele>
    <time>2018-12-27T11:30:12Z</time>
   </trkpt>
   <trkpt lat="42.1800350" lon="2.7922160">
    <ele>156.4</ele>
    <time>2018-12-27T11:30:20Z</time>
   </trkpt>
   <trkpt lat="42.1799660" lon="2.7928060">
    <ele>152.7</ele>
    <time>2018-12-27T11:30:27Z</time>
   </trkpt>
   <trkpt lat="42.1797510" lon="2.7933680">
    <ele>148.9</ele>
    <time>2018-12-27T11:30:35Z</time>
   </trkpt>
   <trkpt lat="42.1794630" lon="2.7938730">
    <ele>146.8</ele>
    <time>2018-12-27T11:30:42Z</time>
   </trkpt>
   <trkpt lat="42.1790560" lon="2.7940580">
    <ele>148.0</ele>
    <time>2018-12-27T11:30:49Z</time>
   </trkpt>
   <trkpt lat="42.1787430" lon="2.7937160">
    <ele>154.0</ele>
    <time>2018-12-27T11:30:56Z</time>
   </trkpt>
   <trkpt lat="42.1785650" lon="2.7932200">
    <ele>157.1</ele>
    <time>2018-12-27T11:31:02Z</time>
   </trkpt>
   <trkpt lat="42.1782550" lon="2.7931460">
    <ele>152.8</ele>
    <time>2018-12-27T11:31:07Z</time>
   </trkpt>
   <trkpt lat="42.1780180" lon="2.7935580">
    <ele>147.7</ele>
    <time>2018-12-27T11:31:14Z</time>
   </trkpt>
   <trkpt lat="42.1777700" lon="2.7940300">
    <ele>142.2</ele>
    <time>2018-12-27T11:31:20Z</time>
   </trkpt>
   <trkpt lat="42.1775100" lon="2.7945130">
    <ele>139.7</ele>
    <time>2018-12-27T11:31:27Z</time>
   </trkpt>
   <trkpt lat="42.1772600" lon="2.7949600">
    <ele>136.9</ele>
    <time>2018-12-27T11:31:34Z</time>
   </trkpt>
   <trkpt lat="42.1770560" lon="2.7952710">
    <ele>135.1</ele>
    <time>2018-12-27T11:31:39Z</time>
   </trkpt>
   <trkpt lat="42.1768700" lon="2.7953960">
    <ele>134.6</ele>
    <time>2018-12-27T11:31:42Z</time>
   </trkpt>
   <trkpt lat="42.1767310" lon="2.7955780">
    <ele>134.8</ele>
    <time>2018-12-27T11:31:45Z</time>
   </trkpt>
   <trkpt lat="42.1768230" lon="2.7958110">
    <ele>135.0</ele>
    <time>2018-12-27T11:31:49Z</time>
   </trkpt>
   <trkpt lat="42.1768230" lon="2.7960630">
    <ele>135.0</ele>
    <time>2018-12-27T11:31:52Z</time>
   </trkpt>
   <trkpt lat="42.1768060" lon="2.7963180">
    <ele>134.8</ele>
    <time>2018-12-27T11:31:55Z</time>
   </trkpt>
   <trkpt lat="42.1767900" lon="2.7965710">
    <ele>134.3</ele>
    <time>2018-12-27T11:31:58Z</time>
   </trkpt>
   <trkpt lat="42.1767730" lon="2.7968380">
    <ele>133.3</ele>
    <time>2018-12-27T11:32:01Z</time>
   </trkpt>
   <trkpt lat="42.1767630" lon="2.7971460">
    <ele>131.2</ele>
    <time>2018-12-27T11:32:04Z</time>
   </trkpt>
   <trkpt lat="42.1769050" lon="2.7974110">
    <ele>128.8</ele>
    <time>2018-12-27T11:32:08Z</time>
   </trkpt>
   <trkpt lat="42.1771460" lon="2.7973680">
    <ele>127.2</ele>
    <time>2018-12-27T11:32:12Z</time>
   </trkpt>
   <trkpt lat="42.1773650" lon="2.7972350">
    <ele>125.9</ele>
    <time>2018-12-27T11:32:16Z</time>
   </trkpt>
   <trkpt lat="42.1776100" lon="2.7971000">
    <ele>124.6</ele>
    <time>2018-12-27T11:32:20Z</time>
   </trkpt>
   <trkpt lat="42.1778900" lon="2.7969350">
    <ele>124.0</ele>
    <time>2018-12-27T11:32:25Z</time>
   </trkpt>
   <trkpt lat="42.1781850" lon="2.7966830">
    <ele>123.5</ele>
    <time>2018-12-27T11:32:31Z</time>
   </trkpt>
   <trkpt lat="42.1784760" lon="2.7963810">
    <ele>122.8</ele>
    <time>2018-12-27T11:32:37Z</time>
   </trkpt>
   <trkpt lat="42.1787530" lon="2.7961680">
    <ele>121.6</ele>
    <time>2018-12-27T11:32:42Z</time>
   </trkpt>
   <trkpt lat="42.1790200" lon="2.7960400">
    <ele>120.6</ele>
    <time>2018-12-27T11:32:46Z</time>
   </trkpt>
   <trkpt lat="42.1791910" lon="2.7961710">
    <ele>119.9</ele>
    <time>2018-12-27T11:32:49Z</time>
   </trkpt>
   <trkpt lat="42.1791230" lon="2.7964130">
    <ele>118.3</ele>
    <time>2018-12-27T11:32:53Z</time>
   </trkpt>
   <trkpt lat="42.1789530" lon="2.7966100">
    <ele>117.2</ele>
    <time>2018-12-27T11:32:56Z</time>
   </trkpt>
   <trkpt lat="42.1787460" lon="2.7967950">
    <ele>116.2</ele>
    <time>2018-12-27T11:33:00Z</time>
   </trkpt>
   <trkpt lat="42.1785230" lon="2.7969180">
    <ele>115.2</ele>
    <time>2018-12-27T11:33:04Z</time>
   </trkpt>
   <trkpt lat="42.1782950" lon="2.7970830">
    <ele>114.2</ele>
    <time>2018-12-27T11:33:08Z</time>
   </trkpt>
   <trkpt lat="42.1782100" lon="2.7973960">
    <ele>113.5</ele>
    <time>2018-12-27T11:33:12Z</time>
   </trkpt>
   <trkpt lat="42.1782510" lon="2.7977580">
    <ele>113.2</ele>
    <time>2018-12-27T11:33:16Z</time>
   </trkpt>
   <trkpt lat="42.1782860" lon="2.7981230">
    <ele>113.1</ele>
    <time>2018-12-27T11:33:21Z</time>
   </trkpt>
   <trkpt lat="42.1783380" lon="2.7984580">
    <ele>112.5</ele>
    <time>2018-12-27T11:33:25Z</time>
   </trkpt>
   <trkpt lat="42.1783710" lon="2.7987630">
    <ele>111.4</ele>
    <time>2018-12-27T11:33:29Z</time>
   </trkpt>
   <trkpt lat="42.1784280" lon="2.7990930">
    <ele>109.8</ele>
    <time>2018-12-27T11:33:33Z</time>
   </trkpt>
   <trkpt lat="42.1784680" lon="2.7995000">
    <ele>108.0</ele>
    <time>2018-12-27T11:33:37Z</time>
   </trkpt>
   <trkpt lat="42.1784860" lon="2.7999610">
    <ele>107.2</ele>
    <time>2018-12-27T11:33:43Z</time>
   </trkpt>
   <trkpt lat="42.1786430" lon="2.8003750">
    <ele>107.7</ele>
    <time>2018-12-27T11:33:48Z</time>
   </trkpt>
   <trkpt lat="42.1789160" lon="2.8003950">
    <ele>108.2</ele>
    <time>2018-12-27T11:33:53Z</time>
   </trkpt>
   <trkpt lat="42.1791760" lon="2.8003610">
    <ele>109.0</ele>
    <time>2018-12-27T11:33:57Z</time>
   </trkpt>
   <trkpt lat="42.1794110" lon="2.8002560">
    <ele>109.2</ele>
    <time>2018-12-27T11:34:01Z</time>
   </trkpt>
   <trkpt lat="42.1796210" lon="2.8001700">
    <ele>109.2</ele>
    <time>2018-12-27T11:34:04Z</time>
   </trkpt>
   <trkpt lat="42.1798510" lon="2.8000550">
    <ele>109.3</ele>
    <time>2018-12-27T11:34:08Z</time>
   </trkpt>
   <trkpt lat="42.1800780" lon="2.7999350">
    <ele>109.5</ele>
    <time>2018-12-27T11:34:12Z</time>
   </trkpt>
   <trkpt lat="42.1802750" lon="2.7997950">
    <ele>109.8</ele>
    <time>2018-12-27T11:34:16Z</time>
   </trkpt>
   <trkpt lat="42.1804730" lon="2.7996880">
    <ele>110.0</ele>
    <time>2018-12-27T11:34:19Z</time>
   </trkpt>
   <trkpt lat="42.1806850" lon="2.7996010">
    <ele>110.3</ele>
    <time>2018-12-27T11:34:23Z</time>
   </trkpt>
   <trkpt lat="42.1808600" lon="2.7995110">
    <ele>110.9</ele>
    <time>2018-12-27T11:34:26Z</time>
   </trkpt>
   <trkpt lat="42.1809880" lon="2.7994380">
    <ele>111.4</ele>
    <time>2018-12-27T11:34:28Z</time>
   </trkpt>
   <trkpt lat="42.1811230" lon="2.7994300">
    <ele>111.9</ele>
    <time>2018-12-27T11:34:30Z</time>
   </trkpt>
   <trkpt lat="42.1812660" lon="2.7994580">
    <ele>112.6</ele>
    <time>2018-12-27T11:34:32Z</time>
   </trkpt>
   <trkpt lat="42.1813710" lon="2.7995810">
    <ele>113.3</ele>
    <time>2018-12-27T11:34:35Z</time>
   </trkpt>
   <trkpt lat="42.1814030" lon="2.7997360">
    <ele>114.1</ele>
    <time>2018-12-27T11:34:37Z</time>
   </trkpt>
   <trkpt lat="42.1814210" lon="2.7998730">
    <ele>114.9</ele>
    <time>2018-12-27T11:34:38Z</time>
   </trkpt>
   <trkpt lat="42.1814230" lon="2.8000160">
    <ele>115.6</ele>
    <time>2018-12-27T11:34:40Z</time>
   </trkpt>
   <trkpt lat="42.1814250" lon="2.8001880">
    <ele>116.6</ele>
    <time>2018-12-27T11:34:42Z</time>
   </trkpt>
   <trkpt lat="42.1814130" lon="2.8003650">
    <ele>117.5</ele>
    <time>2018-12-27T11:34:44Z</time>
   </trkpt>
   <trkpt lat="42.1813450" lon="2.8005150">
    <ele>118.3</ele>
    <time>2018-12-27T11:34:46Z</time>
   </trkpt>
   <trkpt lat="42.1813960" lon="2.8006680">
    <ele>119.1</ele>
    <time>2018-12-27T11:34:48Z</time>
   </trkpt>
   <trkpt lat="42.1813750" lon="2.8008280">
    <ele>119.7</ele>
    <time>2018-12-27T11:34:50Z</time>
   </trkpt>
   <trkpt lat="42.1813810" lon="2.8009650">
    <ele>120.3</ele>
    <time>2018-12-27T11:34:52Z</time>
   </trkpt>
   <trkpt lat="42.1813680" lon="2.8011200">
    <ele>120.9</ele>
    <time>2018-12-27T11:34:54Z</time>
   </trkpt>
   <trkpt lat="42.1813150" lon="2.8012750">
    <ele>121.6</ele>
    <time>2018-12-27T11:34:56Z</time>
   </trkpt>
   <trkpt lat="42.1813430" lon="2.8014900">
    <ele>122.5</ele>
    <time>2018-12-27T11:34:58Z</time>
   </trkpt>
   <trkpt lat="42.1813960" lon="2.8016850">
    <ele>123.2</ele>
    <time>2018-12-27T11:35:01Z</time>
   </trkpt>
   <trkpt lat="42.1814180" lon="2.8018760">
    <ele>123.9</ele>
    <time>2018-12-27T11:35:03Z</time>
   </trkpt>
   <trkpt lat="42.1814530" lon="2.8020680">
    <ele>124.4</ele>
    <time>2018-12-27T11:35:05Z</time>
   </trkpt>
   <trkpt lat="42.1815080" lon="2.8022550">
    <ele>125.3</ele>
    <time>2018-12-27T11:35:08Z</time>
   </trkpt>
   <trkpt lat="42.1815200" lon="2.8024550">
    <ele>125.7</ele>
    <time>2018-12-27T11:35:10Z</time>
   </trkpt>
   <trkpt lat="42.1815750" lon="2.8026500">
    <ele>126.3</ele>
    <time>2018-12-27T11:35:13Z</time>
   </trkpt>
   <trkpt lat="42.1816200" lon="2.8028200">
    <ele>126.9</ele>
    <time>2018-12-27T11:35:15Z</time>
   </trkpt>
   <trkpt lat="42.1816760" lon="2.8029750">
    <ele>127.6</ele>
    <time>2018-12-27T11:35:17Z</time>
   </trkpt>
   <trkpt lat="42.1817200" lon="2.8031560">
    <ele>128.3</ele>
    <time>2018-12-27T11:35:19Z</time>
   </trkpt>
   <trkpt lat="42.1817510" lon="2.8033580">
    <ele>128.9</ele>
    <time>2018-12-27T11:35:21Z</time>
   </trkpt>
   <trkpt lat="42.1818260" lon="2.8035250">
    <ele>129.4</ele>
    <time>2018-12-27T11:35:24Z</time>
   </trkpt>
   <trkpt lat="42.1819000" lon="2.8036780">
    <ele>129.7</ele>
    <time>2018-12-27T11:35:26Z</time>
   </trkpt>
   <trkpt lat="42.1820180" lon="2.8037250">
    <ele>129.8</ele>
    <time>2018-12-27T11:35:28Z</time>
   </trkpt>
   <trkpt lat="42.1821260" lon="2.8036630">
    <ele>130.0</ele>
    <time>2018-12-27T11:35:30Z</time>
   </trkpt>
   <trkpt lat="42.1822010" lon="2.8034910">
    <ele>130.9</ele>
    <time>2018-12-27T11:35:32Z</time>
   </trkpt>
   <trkpt lat="42.1822530" lon="2.8032780">
    <ele>131.8</ele>
    <time>2018-12-27T11:35:35Z</time>
   </trkpt>
   <trkpt lat="42.1822450" lon="2.8030680">
    <ele>132.4</ele>
    <time>2018-12-27T11:35:37Z</time>
   </trkpt>
   <trkpt lat="42.1822650" lon="2.8028550">
    <ele>132.8</ele>
    <time>2018-12-27T11:35:40Z</time>
   </trkpt>
   <trkpt lat="42.1823130" lon="2.8026260">
    <ele>133.2</ele>
    <time>2018-12-27T11:35:43Z</time>
   </trkpt>
   <trkpt lat="42.1824060" lon="2.8024000">
    <ele>133.6</ele>
    <time>2018-12-27T11:35:46Z</time>
   </trkpt>
   <trkpt lat="42.1825150" lon="2.8021910">
    <ele>134.0</ele>
    <time>2018-12-27T11:35:49Z</time>
   </trkpt>
   <trkpt lat="42.1826360" lon="2.8019600">
    <ele>134.5</ele>
    <time>2018-12-27T11:35:52Z</time>
   </trkpt>
   <trkpt lat="42.1827580" lon="2.8017650">
    <ele>135.1</ele>
    <time>2018-12-27T11:35:55Z</time>
   </trkpt>
   <trkpt lat="42.1829030" lon="2.8015950">
    <ele>135.9</ele>
    <time>2018-12-27T11:35:58Z</time>
   </trkpt>
   <trkpt lat="42.1830800" lon="2.8014660">
    <ele>136.6</ele>
    <time>2018-12-27T11:36:01Z</time>
   </trkpt>
   <trkpt lat="42.1832550" lon="2.8013480">
    <ele>137.2</ele>
    <time>2018-12-27T11:36:05Z</time>
   </trkpt>
   <trkpt lat="42.1834510" lon="2.8011910">
    <ele>137.8</ele>
    <time>2018-12-27T11:36:08Z</time>
   </trkpt>
   <trkpt lat="42.1836610" lon="2.8010330">
    <ele>138.2</ele>
    <time>2018-12-27T11:36:12Z</time>
   </trkpt>
   <trkpt lat="42.1838430" lon="2.8008900">
    <ele>138.7</ele>
    <time>2018-12-27T11:36:15Z</time>
   </trkpt>
   <trkpt lat="42.1840250" lon="2.8007550">
    <ele>139.0</ele>
    <time>2018-12-27T11:36:19Z</time>
   </trkpt>
   <trkpt lat="42.1842080" lon="2.8006130">
    <ele>139.3</ele>
    <time>2018-12-27T11:36:22Z</time>
   </trkpt>
   <trkpt lat="42.1843930" lon="2.8004860">
    <ele>139.7</ele>
    <time>2018-12-27T11:36:25Z</time>
   </trkpt>
   <trkpt lat="42.1845750" lon="2.8003660">
    <ele>140.2</ele>
    <time>2018-12-27T11:36:29Z</time>
   </trkpt>
   <trkpt lat="42.1847750" lon="2.8002530">
    <ele>140.5</ele>
    <time>2018-12-27T11:36:32Z</time>
   </trkpt>
   <trkpt lat="42.1849250" lon="2.8001200">
    <ele>140.7</ele>
    <time>2018-12-27T11:36:35Z</time>
   </trkpt>
   <trkpt lat="42.1850900" lon="2.7999900">
    <ele>140.8</ele>
    <time>2018-12-27T11:36:38Z</time>
   </trkpt>
   <trkpt lat="42.1853010" lon="2.7998880">
    <ele>140.7</ele>
    <time>2018-12-27T11:36:42Z</time>
   </trkpt>
   <trkpt lat="42.1855210" lon="2.7998200">
    <ele>139.8</ele>
    <time>2018-12-27T11:36:45Z</time>
   </trkpt>
   <trkpt lat="42.1857680" lon="2.7998260">
    <ele>139.4</ele>
    <time>2018-12-27T11:36:49Z</time>
   </trkpt>
   <trkpt lat="42.1859960" lon="2.7998610">
    <ele>138.9</ele>
    <time>2018-12-27T11:36:53Z</time>
   </trkpt>
   <trkpt lat="42.1862010" lon="2.7999000">
    <ele>137.9</ele>
    <time>2018-12-27T11:36:56Z</time>
   </trkpt>
   <trkpt lat="42.1864380" lon="2.7999080">
    <ele>136.5</ele>
    <time>2018-12-27T11:37:00Z</time>
   </trkpt>
   <trkpt lat="42.1866650" lon="2.7999310">
    <ele>136.0</ele>
    <time>2018-12-27T11:37:04Z</time>
   </trkpt>
   <trkpt lat="42.1869060" lon="2.7999200">
    <ele>135.9</ele>
    <time>2018-12-27T11:37:08Z</time>
   </trkpt>
   <trkpt lat="42.1871500" lon="2.7998680">
    <ele>135.8</ele>
    <time>2018-12-27T11:37:12Z</time>
   </trkpt>
   <trkpt lat="42.1873850" lon="2.7997960">
    <ele>135.7</ele>
    <time>2018-12-27T11:37:15Z</time>
   </trkpt>
   <trkpt lat="42.1876310" lon="2.7997260">
    <ele>135.6</ele>
    <time>2018-12-27T11:37:19Z</time>
   </trkpt>
   <trkpt lat="42.1878780" lon="2.7997430">
    <ele>135.4</ele>
    <time>2018-12-27T11:37:23Z</time>
   </trkpt>
   <trkpt lat="42.1880130" lon="2.7999330">
    <ele>135.4</ele>
    <time>2018-12-27T11:37:26Z</time>
   </trkpt>
   <trkpt lat="42.1881600" lon="2.8002410">
    <ele>135.4</ele>
    <time>2018-12-27T11:37:31Z</time>
   </trkpt>
   <trkpt lat="42.1882660" lon="2.8005330">
    <ele>135.4</ele>
    <time>2018-12-27T11:37:35Z</time>
   </trkpt>
   <trkpt lat="42.1883900" lon="2.8008450">
    <ele>135.0</ele>
    <time>2018-12-27T11:37:39Z</time>
   </trkpt>
   <trkpt lat="42.1885550" lon="2.8010730">
    <ele>134.3</ele>
    <time>2018-12-27T11:37:43Z</time>
   </trkpt>
   <trkpt lat="42.1886560" lon="2.8013800">
    <ele>133.1</ele>
    <time>2018-12-27T11:37:47Z</time>
   </trkpt>
   <trkpt lat="42.1887550" lon="2.8016700">
    <ele>131.9</ele>
    <time>2018-12-27T11:37:50Z</time>
   </trkpt>
   <trkpt lat="42.1888450" lon="2.8019600">
    <ele>131.6</ele>
    <time>2018-12-27T11:37:54Z</time>
   </trkpt>
   <trkpt lat="42.1889550" lon="2.8022230">
    <ele>131.1</ele>
    <time>2018-12-27T11:37:58Z</time>
   </trkpt>
   <trkpt lat="42.1890800" lon="2.8024960">
    <ele>130.7</ele>
    <time>2018-12-27T11:38:02Z</time>
   </trkpt>
   <trkpt lat="42.1891880" lon="2.8028200">
    <ele>130.6</ele>
    <time>2018-12-27T11:38:06Z</time>
   </trkpt>
   <trkpt lat="42.1893230" lon="2.8031060">
    <ele>130.6</ele>
    <time>2018-12-27T11:38:10Z</time>
   </trkpt>
   <trkpt lat="42.1894730" lon="2.8033860">
    <ele>130.8</ele>
    <time>2018-12-27T11:38:14Z</time>
   </trkpt>
   <trkpt lat="42.1896310" lon="2.8036560">
    <ele>131.1</ele>
    <time>2018-12-27T11:38:18Z</time>
   </trkpt>
   <trkpt lat="42.1897930" lon="2.8039180">
    <ele>131.2</ele>
    <time>2018-12-27T11:38:22Z</time>
   </trkpt>
   <trkpt lat="42.1899500" lon="2.8041580">
    <ele>131.2</ele>
    <time>2018-12-27T11:38:26Z</time>
   </trkpt>
   <trkpt lat="42.1900850" lon="2.8043700">
    <ele>131.3</ele>
    <time>2018-12-27T11:38:29Z</time>
   </trkpt>
   <trkpt lat="42.1902030" lon="2.8045530">
    <ele>131.3</ele>
    <time>2018-12-27T11:38:32Z</time>
   </trkpt>
   <trkpt lat="42.1903130" lon="2.8047010">
    <ele>131.3</ele>
    <time>2018-12-27T11:38:35Z</time>
   </trkpt>
   <trkpt lat="42.1904180" lon="2.8048560">
    <ele>131.4</ele>
    <time>2018-12-27T11:38:37Z</time>
   </trkpt>
   <trkpt lat="42.1905480" lon="2.8050480">
    <ele>131.5</ele>
    <time>2018-12-27T11:38:40Z</time>
   </trkpt>
   <trkpt lat="42.1906810" lon="2.8052380">
    <ele>131.5</ele>
    <time>2018-12-27T11:38:43Z</time>
   </trkpt>
   <trkpt lat="42.1908230" lon="2.8054400">
    <ele>131.6</ele>
    <time>2018-12-27T11:38:46Z</time>
   </trkpt>
   <trkpt lat="42.1909610" lon="2.8056460">
    <ele>131.6</ele>
    <time>2018-12-27T11:38:50Z</time>
   </trkpt>
   <trkpt lat="42.1911150" lon="2.8058580">
    <ele>131.7</ele>
    <time>2018-12-27T11:38:53Z</time>
   </trkpt>
   <trkpt lat="42.1912630" lon="2.8060750">
    <ele>131.6</ele>
    <time>2018-12-27T11:38:57Z</time>
   </trkpt>
   <trkpt lat="42.1914150" lon="2.8062960">
    <ele>131.6</ele>
    <time>2018-12-27T11:39:00Z</time>
   </trkpt>
   <trkpt lat="42.1915730" lon="2.8065200">
    <ele>131.5</ele>
    <time>2018-12-27T11:39:04Z</time>
   </trkpt>
   <trkpt lat="42.1917250" lon="2.8067430">
    <ele>131.5</ele>
    <time>2018-12-27T11:39:08Z</time>
   </trkpt>
   <trkpt lat="42.1918700" lon="2.8069760">
    <ele>131.4</ele>
    <time>2018-12-27T11:39:11Z</time>
   </trkpt>
   <trkpt lat="42.1919930" lon="2.8072380">
    <ele>131.3</ele>
    <time>2018-12-27T11:39:15Z</time>
   </trkpt>
   <trkpt lat="42.1920960" lon="2.8075130">
    <ele>131.0</ele>
    <time>2018-12-27T11:39:19Z</time>
   </trkpt>
   <trkpt lat="42.1921960" lon="2.8077950">
    <ele>130.7</ele>
    <time>2018-12-27T11:39:22Z</time>
   </trkpt>
   <trkpt lat="42.1922980" lon="2.8080710">
    <ele>130.6</ele>
    <time>2018-12-27T11:39:26Z</time>
   </trkpt>
   <trkpt lat="42.1923950" lon="2.8083430">
    <ele>130.9</ele>
    <time>2018-12-27T11:39:30Z</time>
   </trkpt>
   <trkpt lat="42.1924930" lon="2.8086160">
    <ele>131.2</ele>
    <time>2018-12-27T11:39:33Z</time>
   </trkpt>
   <trkpt lat="42.1925930" lon="2.8088910">
    <ele>131.4</ele>
    <time>2018-12-27T11:39:37Z</time>
   </trkpt>
   <trkpt lat="42.1926910" lon="2.8091610">
    <ele>131.5</ele>
    <time>2018-12-27T11:39:40Z</time>
   </trkpt>
   <trkpt lat="42.1928010" lon="2.8094250">
    <ele>131.6</ele>
    <time>2018-12-27T11:39:44Z</time>
   </trkpt>
   <trkpt lat="42.1929250" lon="2.8096750">
    <ele>131.7</ele>
    <time>2018-12-27T11:39:47Z</time>
   </trkpt>
   <trkpt lat="42.1930580" lon="2.8099150">
    <ele>131.8</ele>
    <time>2018-12-27T11:39:51Z</time>
   </trkpt>
   <trkpt lat="42.1932060" lon="2.8101380">
    <ele>132.0</ele>
    <time>2018-12-27T11:39:55Z</time>
   </trkpt>
   <trkpt lat="42.1933780" lon="2.8103310">
    <ele>132.3</ele>
    <time>2018-12-27T11:39:58Z</time>
   </trkpt>
   <trkpt lat="42.1935710" lon="2.8104980">
    <ele>132.5</ele>
    <time>2018-12-27T11:40:02Z</time>
   </trkpt>
   <trkpt lat="42.1937700" lon="2.8106600">
    <ele>132.7</ele>
    <time>2018-12-27T11:40:06Z</time>
   </trkpt>
   <trkpt lat="42.1939700" lon="2.8108400">
    <ele>132.2</ele>
    <time>2018-12-27T11:40:09Z</time>
   </trkpt>
   <trkpt lat="42.1941050" lon="2.8111130">
    <ele>131.6</ele>
    <time>2018-12-27T11:40:13Z</time>
   </trkpt>
   <trkpt lat="42.1941880" lon="2.8114630">
    <ele>131.1</ele>
    <time>2018-12-27T11:40:18Z</time>
   </trkpt>
   <trkpt lat="42.1942180" lon="2.8117960">
    <ele>131.2</ele>
    <time>2018-12-27T11:40:22Z</time>
   </trkpt>
   <trkpt lat="42.1942710" lon="2.8121150">
    <ele>131.1</ele>
    <time>2018-12-27T11:40:26Z</time>
   </trkpt>
   <trkpt lat="42.1943650" lon="2.8123900">
    <ele>131.0</ele>
    <time>2018-12-27T11:40:29Z</time>
   </trkpt>
   <trkpt lat="42.1945260" lon="2.8126510">
    <ele>131.5</ele>
    <time>2018-12-27T11:40:33Z</time>
   </trkpt>
   <trkpt lat="42.1946810" lon="2.8129050">
    <ele>132.3</ele>
    <time>2018-12-27T11:40:37Z</time>
   </trkpt>
   <trkpt lat="42.1948200" lon="2.8131380">
    <ele>132.4</ele>
    <time>2018-12-27T11:40:41Z</time>
   </trkpt>
   <trkpt lat="42.1949410" lon="2.8133610">
    <ele>132.3</ele>
    <time>2018-12-27T11:40:44Z</time>
   </trkpt>
   <trkpt lat="42.1950630" lon="2.8136210">
    <ele>132.7</ele>
    <time>2018-12-27T11:40:48Z</time>
   </trkpt>
   <trkpt lat="42.1951850" lon="2.8138200">
    <ele>133.4</ele>
    <time>2018-12-27T11:40:51Z</time>
   </trkpt>
   <trkpt lat="42.1953330" lon="2.8140280">
    <ele>134.1</ele>
    <time>2018-12-27T11:40:54Z</time>
   </trkpt>
   <trkpt lat="42.1955060" lon="2.8142310">
    <ele>134.7</ele>
    <time>2018-12-27T11:40:58Z</time>
   </trkpt>
   <trkpt lat="42.1956950" lon="2.8143950">
    <ele>135.1</ele>
    <time>2018-12-27T11:41:01Z</time>
   </trkpt>
   <trkpt lat="42.1958450" lon="2.8145380">
    <ele>135.4</ele>
    <time>2018-12-27T11:41:04Z</time>
   </trkpt>
   <trkpt lat="42.1960180" lon="2.8147000">
    <ele>135.7</ele>
    <time>2018-12-27T11:41:08Z</time>
   </trkpt>
   <trkpt lat="42.1961660" lon="2.8148980">
    <ele>135.9</ele>
    <time>2018-12-27T11:41:11Z</time>
   </trkpt>
   <trkpt lat="42.1962700" lon="2.8151660">
    <ele>136.0</ele>
    <time>2018-12-27T11:41:15Z</time>
   </trkpt>
   <trkpt lat="42.1964060" lon="2.8153810">
    <ele>136.2</ele>
    <time>2018-12-27T11:41:18Z</time>
   </trkpt>
   <trkpt lat="42.1965150" lon="2.8156210">
    <ele>136.6</ele>
    <time>2018-12-27T11:41:21Z</time>
   </trkpt>
   <trkpt lat="42.1966330" lon="2.8157830">
    <ele>137.3</ele>
    <time>2018-12-27T11:41:24Z</time>
   </trkpt>
   <trkpt lat="42.1967730" lon="2.8159360">
    <ele>138.2</ele>
    <time>2018-12-27T11:41:27Z</time>
   </trkpt>
   <trkpt lat="42.1969010" lon="2.8159830">
    <ele>138.1</ele>
    <time>2018-12-27T11:41:29Z</time>
   </trkpt>
   <trkpt lat="42.1970300" lon="2.8160100">
    <ele>138.0</ele>
    <time>2018-12-27T11:41:31Z</time>
   </trkpt>
   <trkpt lat="42.1971700" lon="2.8160330">
    <ele>137.7</ele>
    <time>2018-12-27T11:41:33Z</time>
   </trkpt>
   <trkpt lat="42.1973550" lon="2.8160880">
    <ele>136.8</ele>
    <time>2018-12-27T11:41:36Z</time>
   </trkpt>
   <trkpt lat="42.1975280" lon="2.8161460">
    <ele>136.3</ele>
    <time>2018-12-27T11:41:39Z</time>
   </trkpt>
   <trkpt lat="42.1977330" lon="2.8162110">
    <ele>135.0</ele>
    <time>2018-12-27T11:41:43Z</time>
   </trkpt>
   <trkpt lat="42.1979150" lon="2.8162850">
    <ele>133.9</ele>
    <time>2018-12-27T11:41:46Z</time>
   </trkpt>
   <trkpt lat="42.1981630" lon="2.8163130">
    <ele>132.7</ele>
    <time>2018-12-27T11:41:50Z</time>
   </trkpt>
   <trkpt lat="42.1984100" lon="2.8163280">
    <ele>131.4</ele>
    <time>2018-12-27T11:41:54Z</time>
   </trkpt>
   <trkpt lat="42.1986750" lon="2.8162330">
    <ele>130.1</ele>
    <time>2018-12-27T11:41:58Z</time>
   </trkpt>
   <trkpt lat="42.1989860" lon="2.8161960">
    <ele>128.2</ele>
    <time>2018-12-27T11:42:03Z</time>
   </trkpt>
   <trkpt lat="42.1992750" lon="2.8164060">
    <ele>126.0</ele>
    <time>2018-12-27T11:42:08Z</time>
   </trkpt>
   <trkpt lat="42.1993530" lon="2.8168530">
    <ele>124.1</ele>
    <time>2018-12-27T11:42:14Z</time>
   </trkpt>
   <trkpt lat="42.1994550" lon="2.8172800">
    <ele>122.6</ele>
    <time>2018-12-27T11:42:19Z</time>
   </trkpt>
   <trkpt lat="42.1997400" lon="2.8175110">
    <ele>122.0</ele>
    <time>2018-12-27T11:42:24Z</time>
   </trkpt>
   <trkpt lat="42.1999930" lon="2.8177210">
    <ele>121.9</ele>
    <time>2018-12-27T11:42:29Z</time>
   </trkpt>
   <trkpt lat="42.2002550" lon="2.8178360">
    <ele>122.0</ele>
    <time>2018-12-27T11:42:33Z</time>
   </trkpt>
   <trkpt lat="42.2004930" lon="2.8178780">
    <ele>122.3</ele>
    <time>2018-12-27T11:42:37Z</time>
   </trkpt>
   <trkpt lat="42.2007880" lon="2.8179510">
    <ele>122.9</ele>
    <time>2018-12-27T11:42:42Z</time>
   </trkpt>
   <trkpt lat="42.2009810" lon="2.8180430">
    <ele>123.3</ele>
    <time>2018-12-27T11:42:45Z</time>
   </trkpt>
   <trkpt lat="42.2011930" lon="2.8181450">
    <ele>124.0</ele>
    <time>2018-12-27T11:42:49Z</time>
   </trkpt>
   <trkpt lat="42.2013510" lon="2.8182410">
    <ele>124.7</ele>
    <time>2018-12-27T11:42:52Z</time>
   </trkpt>
   <trkpt lat="42.2015210" lon="2.8183500">
    <ele>125.6</ele>
    <time>2018-12-27T11:42:55Z</time>
   </trkpt>
   <trkpt lat="42.2017080" lon="2.8184430">
    <ele>126.4</ele>
    <time>2018-12-27T11:42:58Z</time>
   </trkpt>
   <trkpt lat="42.2018630" lon="2.8185630">
    <ele>126.7</ele>
    <time>2018-12-27T11:43:01Z</time>
   </trkpt>
   <trkpt lat="42.2020230" lon="2.8186610">
    <ele>127.1</ele>
    <time>2018-12-27T11:43:04Z</time>
   </trkpt>
   <trkpt lat="42.2021880" lon="2.8187800">
    <ele>127.5</ele>
    <time>2018-12-27T11:43:07Z</time>
   </trkpt>
   <trkpt lat="42.2023550" lon="2.8188930">
    <ele>127.9</ele>
    <time>2018-12-27T11:43:10Z</time>
   </trkpt>
   <trkpt lat="42.2024960" lon="2.8190360">
    <ele>128.3</ele>
    <time>2018-12-27T11:43:12Z</time>
   </trkpt>
   <trkpt lat="42.2026260" lon="2.8191830">
    <ele>128.7</ele>
    <time>2018-12-27T11:43:15Z</time>
   </trkpt>
   <trkpt lat="42.2027450" lon="2.8193260">
    <ele>128.9</ele>
    <time>2018-12-27T11:43:18Z</time>
   </trkpt>
   <trkpt lat="42.2028960" lon="2.8194880">
    <ele>129.4</ele>
    <time>2018-12-27T11:43:21Z</time>
   </trkpt>
   <trkpt lat="42.2030600" lon="2.8196160">
    <ele>129.8</ele>
    <time>2018-12-27T11:43:24Z</time>
   </trkpt>
   <trkpt lat="42.2031950" lon="2.8197210">
    <ele>129.8</ele>
    <time>2018-12-27T11:43:26Z</time>
   </trkpt>
   <trkpt lat="42.2033300" lon="2.8198400">
    <ele>129.5</ele>
    <time>2018-12-27T11:43:29Z</time>
   </trkpt>
   <trkpt lat="42.2034910" lon="2.8198950">
    <ele>129.1</ele>
    <time>2018-12-27T11:43:32Z</time>
   </trkpt>
   <trkpt lat="42.2036900" lon="2.8199680">
    <ele>128.4</ele>
    <time>2018-12-27T11:43:35Z</time>
   </trkpt>
   <trkpt lat="42.2039080" lon="2.8200680">
    <ele>127.2</ele>
    <time>2018-12-27T11:43:38Z</time>
   </trkpt>
   <trkpt lat="42.2041760" lon="2.8201980">
    <ele>125.8</ele>
    <time>2018-12-27T11:43:43Z</time>
   </trkpt>
   <trkpt lat="42.2044550" lon="2.8201380">
    <ele>125.0</ele>
    <time>2018-12-27T11:43:48Z</time>
   </trkpt>
   <trkpt lat="42.2046880" lon="2.8198060">
    <ele>124.1</ele>
    <time>2018-12-27T11:43:53Z</time>
   </trkpt>
   <trkpt lat="42.2049480" lon="2.8194450">
    <ele>123.3</ele>
    <time>2018-12-27T11:43:59Z</time>
   </trkpt>
   <trkpt lat="42.2051560" lon="2.8194080">
    <ele>122.8</ele>
    <time>2018-12-27T11:44:02Z</time>
   </trkpt>
   <trkpt lat="42.2053300" lon="2.8195910">
    <ele>122.1</ele>
    <time>2018-12-27T11:44:06Z</time>
   </trkpt>
   <trkpt lat="42.2055710" lon="2.8197680">
    <ele>120.7</ele>
    <time>2018-12-27T11:44:10Z</time>
   </trkpt>
   <trkpt lat="42.2058880" lon="2.8199330">
    <ele>119.7</ele>
    <time>2018-12-27T11:44:16Z</time>
   </trkpt>
   <trkpt lat="42.2060810" lon="2.8201130">
    <ele>119.8</ele>
    <time>2018-12-27T11:44:19Z</time>
   </trkpt>
   <trkpt lat="42.2062350" lon="2.8202710">
    <ele>120.3</ele>
    <time>2018-12-27T11:44:23Z</time>
   </trkpt>
   <trkpt lat="42.2063780" lon="2.8203580">
    <ele>121.1</ele>
    <time>2018-12-27T11:44:25Z</time>
   </trkpt>
   <trkpt lat="42.2065350" lon="2.8204250">
    <ele>122.2</ele>
    <time>2018-12-27T11:44:28Z</time>
   </trkpt>
   <trkpt lat="42.2066700" lon="2.8204830">
    <ele>123.3</ele>
    <time>2018-12-27T11:44:30Z</time>
   </trkpt>
   <trkpt lat="42.2068060" lon="2.8205130">
    <ele>124.5</ele>
    <time>2018-12-27T11:44:32Z</time>
   </trkpt>
   <trkpt lat="42.2069200" lon="2.8205510">
    <ele>125.4</ele>
    <time>2018-12-27T11:44:34Z</time>
   </trkpt>
   <trkpt lat="42.2070480" lon="2.8205700">
    <ele>126.4</ele>
    <time>2018-12-27T11:44:36Z</time>
   </trkpt>
   <trkpt lat="42.2071760" lon="2.8205860">
    <ele>127.2</ele>
    <time>2018-12-27T11:44:38Z</time>
   </trkpt>
   <trkpt lat="42.2072900" lon="2.8205760">
    <ele>127.9</ele>
    <time>2018-12-27T11:44:40Z</time>
   </trkpt>
   <trkpt lat="42.2074050" lon="2.8206150">
    <ele>128.5</ele>
    <time>2018-12-27T11:44:42Z</time>
   </trkpt>
   <trkpt lat="42.2075450" lon="2.8206250">
    <ele>129.3</ele>
    <time>2018-12-27T11:44:44Z</time>
   </trkpt>
   <trkpt lat="42.2076910" lon="2.8206600">
    <ele>130.0</ele>
    <time>2018-12-27T11:44:47Z</time>
   </trkpt>
   <trkpt lat="42.2078460" lon="2.8206780">
    <ele>130.7</ele>
    <time>2018-12-27T11:44:49Z</time>
   </trkpt>
   <trkpt lat="42.2079750" lon="2.8206680">
    <ele>131.3</ele>
    <time>2018-12-27T11:44:51Z</time>
   </trkpt>
   <trkpt lat="42.2081030" lon="2.8207080">
    <ele>132.1</ele>
    <time>2018-12-27T11:44:53Z</time>
   </trkpt>
   <trkpt lat="42.2082360" lon="2.8207330">
    <ele>132.9</ele>
    <time>2018-12-27T11:44:55Z</time>
   </trkpt>
   <trkpt lat="42.2083580" lon="2.8207380">
    <ele>133.7</ele>
    <time>2018-12-27T11:44:57Z</time>
   </trkpt>
   <trkpt lat="42.2084950" lon="2.8207260">
    <ele>134.6</ele>
    <time>2018-12-27T11:44:59Z</time>
   </trkpt>
   <trkpt lat="42.2086010" lon="2.8207130">
    <ele>135.3</ele>
    <time>2018-12-27T11:45:01Z</time>
   </trkpt>
   <trkpt lat="42.2087250" lon="2.8207360">
    <ele>136.0</ele>
    <time>2018-12-27T11:45:03Z</time>
   </trkpt>
   <trkpt lat="42.2088430" lon="2.8207460">
    <ele>136.6</ele>
    <time>2018-12-27T11:45:05Z</time>
   </trkpt>
   <trkpt lat="42.2089780" lon="2.8207930">
    <ele>137.2</ele>
    <time>2018-12-27T11:45:07Z</time>
   </trkpt>
   <trkpt lat="42.2091050" lon="2.8208060">
    <ele>137.8</ele>
    <time>2018-12-27T11:45:09Z</time>
   </trkpt>
   <trkpt lat="42.2092260" lon="2.8208130">
    <ele>138.5</ele>
    <time>2018-12-27T11:45:11Z</time>
   </trkpt>
   <trkpt lat="42.2093460" lon="2.8208310">
    <ele>138.9</ele>
    <time>2018-12-27T11:45:13Z</time>
   </trkpt>
   <trkpt lat="42.2094630" lon="2.8208680">
    <ele>139.4</ele>
    <time>2018-12-27T11:45:15Z</time>
   </trkpt>
   <trkpt lat="42.2096000" lon="2.8208680">
    <ele>140.0</ele>
    <time>2018-12-27T11:45:17Z</time>
   </trkpt>
   <trkpt lat="42.2097600" lon="2.8208700">
    <ele>140.8</ele>
    <time>2018-12-27T11:45:20Z</time>
   </trkpt>
   <trkpt lat="42.2098800" lon="2.8208900">
    <ele>141.4</ele>
    <time>2018-12-27T11:45:22Z</time>
   </trkpt>
   <trkpt lat="42.2100210" lon="2.8208550">
    <ele>142.1</ele>
    <time>2018-12-27T11:45:24Z</time>
   </trkpt>
   <trkpt lat="42.2101430" lon="2.8208230">
    <ele>142.7</ele>
    <time>2018-12-27T11:45:26Z</time>
   </trkpt>
   <trkpt lat="42.2102680" lon="2.8207900">
    <ele>143.4</ele>
    <time>2018-12-27T11:45:28Z</time>
   </trkpt>
   <trkpt lat="42.2103680" lon="2.8207700">
    <ele>143.9</ele>
    <time>2018-12-27T11:45:30Z</time>
   </trkpt>
   <trkpt lat="42.2104910" lon="2.8207280">
    <ele>144.6</ele>
    <time>2018-12-27T11:45:32Z</time>
   </trkpt>
   <trkpt lat="42.2106360" lon="2.8206760">
    <ele>145.3</ele>
    <time>2018-12-27T11:45:34Z</time>
   </trkpt>
   <trkpt lat="42.2107330" lon="2.8206430">
    <ele>145.8</ele>
    <time>2018-12-27T11:45:36Z</time>
   </trkpt>
   <trkpt lat="42.2108780" lon="2.8205730">
    <ele>146.7</ele>
    <time>2018-12-27T11:45:38Z</time>
   </trkpt>
   <trkpt lat="42.2110360" lon="2.8205280">
    <ele>147.5</ele>
    <time>2018-12-27T11:45:41Z</time>
   </trkpt>
   <trkpt lat="42.2111210" lon="2.8205130">
    <ele>148.0</ele>
    <time>2018-12-27T11:45:42Z</time>
   </trkpt>
   <trkpt lat="42.2112610" lon="2.8204710">
    <ele>148.7</ele>
    <time>2018-12-27T11:45:45Z</time>
   </trkpt>
   <trkpt lat="42.2113700" lon="2.8203960">
    <ele>149.4</ele>
    <time>2018-12-27T11:45:46Z</time>
   </trkpt>
   <trkpt lat="42.2114830" lon="2.8203530">
    <ele>150.1</ele>
    <time>2018-12-27T11:45:48Z</time>
   </trkpt>
   <trkpt lat="42.2115830" lon="2.8203310">
    <ele>151.0</ele>
    <time>2018-12-27T11:45:50Z</time>
   </trkpt>
   <trkpt lat="42.2116880" lon="2.8203130">
    <ele>152.0</ele>
    <time>2018-12-27T11:45:52Z</time>
   </trkpt>
   <trkpt lat="42.2118060" lon="2.8202960">
    <ele>153.1</ele>
    <time>2018-12-27T11:45:54Z</time>
   </trkpt>
   <trkpt lat="42.2119060" lon="2.8203180">
    <ele>154.0</ele>
    <time>2018-12-27T11:45:55Z</time>
   </trkpt>
   <trkpt lat="42.2120050" lon="2.8203050">
    <ele>154.8</ele>
    <time>2018-12-27T11:45:57Z</time>
   </trkpt>
   <trkpt lat="42.2121110" lon="2.8202760">
    <ele>155.7</ele>
    <time>2018-12-27T11:45:59Z</time>
   </trkpt>
   <trkpt lat="42.2122010" lon="2.8202580">
    <ele>156.5</ele>
    <time>2018-12-27T11:46:00Z</time>
   </trkpt>
   <trkpt lat="42.2123400" lon="2.8202630">
    <ele>157.6</ele>
    <time>2018-12-27T11:46:02Z</time>
   </trkpt>
   <trkpt lat="42.2124600" lon="2.8201950">
    <ele>158.6</ele>
    <time>2018-12-27T11:46:04Z</time>
   </trkpt>
   <trkpt lat="42.2125550" lon="2.8201600">
    <ele>159.4</ele>
    <time>2018-12-27T11:46:06Z</time>
   </trkpt>
   <trkpt lat="42.2126360" lon="2.8201550">
    <ele>160.0</ele>
    <time>2018-12-27T11:46:07Z</time>
   </trkpt>
   <trkpt lat="42.2127510" lon="2.8201150">
    <ele>161.0</ele>
    <time>2018-12-27T11:46:09Z</time>
   </trkpt>
   <trkpt lat="42.2128610" lon="2.8200860">
    <ele>162.0</ele>
    <time>2018-12-27T11:46:11Z</time>
   </trkpt>
   <trkpt lat="42.2130230" lon="2.8200010">
    <ele>163.5</ele>
    <time>2018-12-27T11:46:14Z</time>
   </trkpt>
   <trkpt lat="42.2131380" lon="2.8198860">
    <ele>164.8</ele>
    <time>2018-12-27T11:46:16Z</time>
   </trkpt>
   <trkpt lat="42.2132710" lon="2.8198380">
    <ele>166.1</ele>
    <time>2018-12-27T11:46:18Z</time>
   </trkpt>
   <trkpt lat="42.2133800" lon="2.8198400">
    <ele>167.2</ele>
    <time>2018-12-27T11:46:20Z</time>
   </trkpt>
   <trkpt lat="42.2134550" lon="2.8198080">
    <ele>167.9</ele>
    <time>2018-12-27T11:46:21Z</time>
   </trkpt>
   <trkpt lat="42.2135800" lon="2.8197430">
    <ele>169.1</ele>
    <time>2018-12-27T11:46:23Z</time>
   </trkpt>
   <trkpt lat="42.2136700" lon="2.8197110">
    <ele>170.0</ele>
    <time>2018-12-27T11:46:25Z</time>
   </trkpt>
   <trkpt lat="42.2137550" lon="2.8196580">
    <ele>170.9</ele>
    <time>2018-12-27T11:46:26Z</time>
   </trkpt>
   <trkpt lat="42.2139060" lon="2.8196180">
    <ele>172.3</ele>
    <time>2018-12-27T11:46:29Z</time>
   </trkpt>
   <trkpt lat="42.2140050" lon="2.8196030">
    <ele>173.2</ele>
    <time>2018-12-27T11:46:30Z</time>
   </trkpt>
   <trkpt lat="42.2141160" lon="2.8195530">
    <ele>174.3</ele>
    <time>2018-12-27T11:46:32Z</time>
   </trkpt>
   <trkpt lat="42.2142030" lon="2.8195110">
    <ele>175.2</ele>
    <time>2018-12-27T11:46:34Z</time>
   </trkpt>
   <trkpt lat="42.2143480" lon="2.8194760">
    <ele>176.7</ele>
    <time>2018-12-27T11:46:36Z</time>
   </trkpt>
   <trkpt lat="42.2144280" lon="2.8194130">
    <ele>177.6</ele>
    <time>2018-12-27T11:46:38Z</time>
   </trkpt>
   <trkpt lat="42.2145730" lon="2.8193100">
    <ele>179.0</ele>
    <time>2018-12-27T11:46:40Z</time>
   </trkpt>
   <trkpt lat="42.2147100" lon="2.8192210">
    <ele>178.6</ele>
    <time>2018-12-27T11:46:43Z</time>
   </trkpt>
   <trkpt lat="42.2148400" lon="2.8191180">
    <ele>177.7</ele>
    <time>2018-12-27T11:46:45Z</time>
   </trkpt>
   <trkpt lat="42.2149480" lon="2.8190560">
    <ele>176.8</ele>
    <time>2018-12-27T11:46:47Z</time>
   </trkpt>
   <trkpt lat="42.2150850" lon="2.8190500">
    <ele>175.6</ele>
    <time>2018-12-27T11:46:49Z</time>
   </trkpt>
   <trkpt lat="42.2151860" lon="2.8190850">
    <ele>174.6</ele>
    <time>2018-12-27T11:46:51Z</time>
   </trkpt>
   <trkpt lat="42.2153160" lon="2.8191350">
    <ele>175.1</ele>
    <time>2018-12-27T11:46:53Z</time>
   </trkpt>
   <trkpt lat="42.2154400" lon="2.8191830">
    <ele>175.8</ele>
    <time>2018-12-27T11:46:55Z</time>
   </trkpt>
   <trkpt lat="42.2155550" lon="2.8192580">
    <ele>176.3</ele>
    <time>2018-12-27T11:46:57Z</time>
   </trkpt>
   <trkpt lat="42.2156930" lon="2.8193480">
    <ele>176.9</ele>
    <time>2018-12-27T11:46:59Z</time>
   </trkpt>
   <trkpt lat="42.2157960" lon="2.8194160">
    <ele>177.2</ele>
    <time>2018-12-27T11:47:01Z</time>
   </trkpt>
   <trkpt lat="42.2158880" lon="2.8194780">
    <ele>177.7</ele>
    <time>2018-12-27T11:47:03Z</time>
   </trkpt>
   <trkpt lat="42.2160100" lon="2.8195460">
    <ele>178.3</ele>
    <time>2018-12-27T11:47:05Z</time>
   </trkpt>
   <trkpt lat="42.2161350" lon="2.8195710">
    <ele>179.0</ele>
    <time>2018-12-27T11:47:07Z</time>
   </trkpt>
   <trkpt lat="42.2162410" lon="2.8196200">
    <ele>179.4</ele>
    <time>2018-12-27T11:47:09Z</time>
   </trkpt>
   <trkpt lat="42.2163810" lon="2.8195810">
    <ele>180.0</ele>
    <time>2018-12-27T11:47:11Z</time>
   </trkpt>
   <trkpt lat="42.2165400" lon="2.8195710">
    <ele>180.6</ele>
    <time>2018-12-27T11:47:14Z</time>
   </trkpt>
   <trkpt lat="42.2167300" lon="2.8196350">
    <ele>181.4</ele>
    <time>2018-12-27T11:47:17Z</time>
   </trkpt>
   <trkpt lat="42.2168750" lon="2.8197300">
    <ele>182.1</ele>
    <time>2018-12-27T11:47:19Z</time>
   </trkpt>
   <trkpt lat="42.2170310" lon="2.8198780">
    <ele>182.5</ele>
    <time>2018-12-27T11:47:22Z</time>
   </trkpt>
   <trkpt lat="42.2171400" lon="2.8199750">
    <ele>182.7</ele>
    <time>2018-12-27T11:47:25Z</time>
   </trkpt>
   <trkpt lat="42.2172400" lon="2.8200450">
    <ele>182.7</ele>
    <time>2018-12-27T11:47:26Z</time>
   </trkpt>
   <trkpt lat="42.2173780" lon="2.8201050">
    <ele>182.6</ele>
    <time>2018-12-27T11:47:29Z</time>
   </trkpt>
   <trkpt lat="42.2175550" lon="2.8201200">
    <ele>182.0</ele>
    <time>2018-12-27T11:47:32Z</time>
   </trkpt>
   <trkpt lat="42.2177900" lon="2.8201160">
    <ele>180.7</ele>
    <time>2018-12-27T11:47:35Z</time>
   </trkpt>
   <trkpt lat="42.2180930" lon="2.8201910">
    <ele>178.9</ele>
    <time>2018-12-27T11:47:40Z</time>
   </trkpt>
   <trkpt lat="42.2183730" lon="2.8203780">
    <ele>177.4</ele>
    <time>2018-12-27T11:47:45Z</time>
   </trkpt>
   <trkpt lat="42.2186200" lon="2.8205760">
    <ele>176.5</ele>
    <time>2018-12-27T11:47:50Z</time>
   </trkpt>
   <trkpt lat="42.2188580" lon="2.8207330">
    <ele>175.9</ele>
    <time>2018-12-27T11:47:54Z</time>
   </trkpt>
   <trkpt lat="42.2191030" lon="2.8208180">
    <ele>175.7</ele>
    <time>2018-12-27T11:47:58Z</time>
   </trkpt>
   <trkpt lat="42.2193130" lon="2.8208260">
    <ele>175.6</ele>
    <time>2018-12-27T11:48:01Z</time>
   </trkpt>
   <trkpt lat="42.2194450" lon="2.8208610">
    <ele>175.5</ele>
    <time>2018-12-27T11:48:04Z</time>
   </trkpt>
   <trkpt lat="42.2195000" lon="2.8208410">
    <ele>175.5</ele>
    <time>2018-12-27T11:48:05Z</time>
   </trkpt>
   <trkpt lat="42.2196010" lon="2.8207930">
    <ele>175.5</ele>
    <time>2018-12-27T11:48:06Z</time>
   </trkpt>
   <trkpt lat="42.2197280" lon="2.8207160">
    <ele>175.5</ele>
    <time>2018-12-27T11:48:08Z</time>
   </trkpt>
   <trkpt lat="42.2198580" lon="2.8206800">
    <ele>175.5</ele>
    <time>2018-12-27T11:48:11Z</time>
   </trkpt>
   <trkpt lat="42.2200630" lon="2.8206210">
    <ele>175.5</ele>
    <time>2018-12-27T11:48:14Z</time>
   </trkpt>
   <trkpt lat="42.2201960" lon="2.8206030">
    <ele>175.5</ele>
    <time>2018-12-27T11:48:16Z</time>
   </trkpt>
   <trkpt lat="42.2203060" lon="2.8205810">
    <ele>175.5</ele>
    <time>2018-12-27T11:48:18Z</time>
   </trkpt>
   <trkpt lat="42.2204080" lon="2.8205600">
    <ele>175.5</ele>
    <time>2018-12-27T11:48:20Z</time>
   </trkpt>
   <trkpt lat="42.2205130" lon="2.8205410">
    <ele>175.5</ele>
    <time>2018-12-27T11:48:21Z</time>
   </trkpt>
   <trkpt lat="42.2206480" lon="2.8205480">
    <ele>175.2</ele>
    <time>2018-12-27T11:48:23Z</time>
   </trkpt>
   <trkpt lat="42.2207230" lon="2.8206460">
    <ele>175.5</ele>
    <time>2018-12-27T11:48:25Z</time>
   </trkpt>
   <trkpt lat="42.2207830" lon="2.8208310">
    <ele>175.9</ele>
    <time>2018-12-27T11:48:27Z</time>
   </trkpt>
   <trkpt lat="42.2208230" lon="2.8210450">
    <ele>176.3</ele>
    <time>2018-12-27T11:48:30Z</time>
   </trkpt>
   <trkpt lat="42.2208750" lon="2.8213010">
    <ele>177.2</ele>
    <time>2018-12-27T11:48:33Z</time>
   </trkpt>
   <trkpt lat="42.2208560" lon="2.8214960">
    <ele>177.6</ele>
    <time>2018-12-27T11:48:36Z</time>
   </trkpt>
   <trkpt lat="42.2208860" lon="2.8217500">
    <ele>178.2</ele>
    <time>2018-12-27T11:48:39Z</time>
   </trkpt>
   <trkpt lat="42.2209160" lon="2.8219880">
    <ele>179.1</ele>
    <time>2018-12-27T11:48:41Z</time>
   </trkpt>
   <trkpt lat="42.2209480" lon="2.8221610">
    <ele>179.9</ele>
    <time>2018-12-27T11:48:44Z</time>
   </trkpt>
   <trkpt lat="42.2209760" lon="2.8223530">
    <ele>180.5</ele>
    <time>2018-12-27T11:48:46Z</time>
   </trkpt>
   <trkpt lat="42.2209880" lon="2.8225560">
    <ele>181.1</ele>
    <time>2018-12-27T11:48:48Z</time>
   </trkpt>
   <trkpt lat="42.2210300" lon="2.8227610">
    <ele>181.3</ele>
    <time>2018-12-27T11:48:51Z</time>
   </trkpt>
   <trkpt lat="42.2210660" lon="2.8229610">
    <ele>181.5</ele>
    <time>2018-12-27T11:48:53Z</time>
   </trkpt>
   <trkpt lat="42.2210910" lon="2.8231500">
    <ele>181.4</ele>
    <time>2018-12-27T11:48:56Z</time>
   </trkpt>
   <trkpt lat="42.2211300" lon="2.8233200">
    <ele>181.2</ele>
    <time>2018-12-27T11:48:58Z</time>
   </trkpt>
   <trkpt lat="42.2211660" lon="2.8234900">
    <ele>181.0</ele>
    <time>2018-12-27T11:49:00Z</time>
   </trkpt>
   <trkpt lat="42.2212150" lon="2.8237060">
    <ele>180.9</ele>
    <time>2018-12-27T11:49:02Z</time>
   </trkpt>
   <trkpt lat="42.2212280" lon="2.8238460">
    <ele>181.0</ele>
    <time>2018-12-27T11:49:04Z</time>
   </trkpt>
   <trkpt lat="42.2212580" lon="2.8239930">
    <ele>181.0</ele>
    <time>2018-12-27T11:49:06Z</time>
   </trkpt>
   <trkpt lat="42.2212880" lon="2.8241610">
    <ele>181.0</ele>
    <time>2018-12-27T11:49:08Z</time>
   </trkpt>
   <trkpt lat="42.2213330" lon="2.8243850">
    <ele>181.0</ele>
    <time>2018-12-27T11:49:11Z</time>
   </trkpt>
   <trkpt lat="42.2213780" lon="2.8246200">
    <ele>181.1</ele>
    <time>2018-12-27T11:49:14Z</time>
   </trkpt>
   <trkpt lat="42.2214460" lon="2.8248850">
    <ele>181.1</ele>
    <time>2018-12-27T11:49:17Z</time>
   </trkpt>
   <trkpt lat="42.2214960" lon="2.8251200">
    <ele>181.1</ele>
    <time>2018-12-27T11:49:20Z</time>
   </trkpt>
   <trkpt lat="42.2215650" lon="2.8254010">
    <ele>181.1</ele>
    <time>2018-12-27T11:49:23Z</time>
   </trkpt>
   <trkpt lat="42.2216200" lon="2.8257080">
    <ele>181.2</ele>
    <time>2018-12-27T11:49:27Z</time>
   </trkpt>
   <trkpt lat="42.2217010" lon="2.8260250">
    <ele>181.4</ele>
    <time>2018-12-27T11:49:31Z</time>
   </trkpt>
   <trkpt lat="42.2217830" lon="2.8263800">
    <ele>181.6</ele>
    <time>2018-12-27T11:49:35Z</time>
   </trkpt>
   <trkpt lat="42.2218750" lon="2.8267480">
    <ele>181.6</ele>
    <time>2018-12-27T11:49:40Z</time>
   </trkpt>
   <trkpt lat="42.2219980" lon="2.8271960">
    <ele>181.3</ele>
    <time>2018-12-27T11:49:46Z</time>
   </trkpt>
   <trkpt lat="42.2220600" lon="2.8275210">
    <ele>181.6</ele>
    <time>2018-12-27T11:49:50Z</time>
   </trkpt>
   <trkpt lat="42.2220100" lon="2.8275680">
    <ele>182.5</ele>
    <time>2018-12-27T11:49:51Z</time>
   </trkpt>
   <trkpt lat="42.2219430" lon="2.8276030">
    <ele>183.3</ele>
    <time>2018-12-27T11:49:52Z</time>
   </trkpt>
   <trkpt lat="42.2218630" lon="2.8276600">
    <ele>184.1</ele>
    <time>2018-12-27T11:49:53Z</time>
   </trkpt>
   <trkpt lat="42.2217380" lon="2.8277660">
    <ele>184.9</ele>
    <time>2018-12-27T11:49:56Z</time>
   </trkpt>
   <trkpt lat="42.2216500" lon="2.8278800">
    <ele>185.5</ele>
    <time>2018-12-27T11:49:58Z</time>
   </trkpt>
   <trkpt lat="42.2215510" lon="2.8278310">
    <ele>185.9</ele>
    <time>2018-12-27T11:49:59Z</time>
   </trkpt>
   <trkpt lat="42.2215010" lon="2.8278550">
    <ele>186.1</ele>
    <time>2018-12-27T11:50:00Z</time>
   </trkpt>
   <trkpt lat="42.2214350" lon="2.8278330">
    <ele>186.4</ele>
    <time>2018-12-27T11:50:01Z</time>
   </trkpt>
   <trkpt lat="42.2213710" lon="2.8277280">
    <ele>186.8</ele>
    <time>2018-12-27T11:50:03Z</time>
   </trkpt>
   <trkpt lat="42.2212610" lon="2.8276960">
    <ele>187.1</ele>
    <time>2018-12-27T11:50:05Z</time>
   </trkpt>
   <trkpt lat="42.2211710" lon="2.8276360">
    <ele>187.4</ele>
    <time>2018-12-27T11:50:06Z</time>
   </trkpt>
   <trkpt lat="42.2211050" lon="2.8275860">
    <ele>187.6</ele>
    <time>2018-12-27T11:50:07Z</time>
   </trkpt>
   <trkpt lat="42.2210150" lon="2.8275610">
    <ele>187.8</ele>
    <time>2018-12-27T11:50:09Z</time>
   </trkpt>
   <trkpt lat="42.2209160" lon="2.8275760">
    <ele>188.0</ele>
    <time>2018-12-27T11:50:11Z</time>
   </trkpt>
   <trkpt lat="42.2208480" lon="2.8276110">
    <ele>188.1</ele>
    <time>2018-12-27T11:50:12Z</time>
   </trkpt>
   <trkpt lat="42.2207900" lon="2.8276500">
    <ele>188.2</ele>
    <time>2018-12-27T11:50:13Z</time>
   </trkpt>
   <trkpt lat="42.2207710" lon="2.8276760">
    <ele>188.2</ele>
    <time>2018-12-27T11:50:13Z</time>
   </trkpt>
   <trkpt lat="42.2207530" lon="2.8277330">
    <ele>188.3</ele>
    <time>2018-12-27T11:50:14Z</time>
   </trkpt>
   <trkpt lat="42.2206780" lon="2.8278150">
    <ele>188.5</ele>
    <time>2018-12-27T11:50:15Z</time>
   </trkpt>
   <trkpt lat="42.2205780" lon="2.8279110">
    <ele>188.7</ele>
    <time>2018-12-27T11:50:17Z</time>
   </trkpt>
   <trkpt lat="42.2204350" lon="2.8281030">
    <ele>189.0</ele>
    <time>2018-12-27T11:50:21Z</time>
   </trkpt>
   <trkpt lat="42.2203710" lon="2.8282900">
    <ele>189.1</ele>
    <time>2018-12-27T11:50:23Z</time>
   </trkpt>
   <trkpt lat="42.2203510" lon="2.8283880">
    <ele>189.2</ele>
    <time>2018-12-27T11:50:24Z</time>
   </trkpt>
   <trkpt lat="42.2202510" lon="2.8284850">
    <ele>189.2</ele>
    <time>2018-12-27T11:50:26Z</time>
   </trkpt>
   <trkpt lat="42.2201800" lon="2.8285680">
    <ele>189.3</ele>
    <time>2018-12-27T11:50:28Z</time>
   </trkpt>
   <trkpt lat="42.2200800" lon="2.8286330">
    <ele>189.3</ele>
    <time>2018-12-27T11:50:30Z</time>
   </trkpt>
   <trkpt lat="42.2199600" lon="2.8287210">
    <ele>189.3</ele>
    <time>2018-12-27T11:50:32Z</time>
   </trkpt>
   <trkpt lat="42.2198100" lon="2.8288210">
    <ele>189.4</ele>
    <time>2018-12-27T11:50:34Z</time>
   </trkpt>
   <trkpt lat="42.2196950" lon="2.8289060">
    <ele>189.4</ele>
    <time>2018-12-27T11:50:36Z</time>
   </trkpt>
   <trkpt lat="42.2195960" lon="2.8288900">
    <ele>189.5</ele>
    <time>2018-12-27T11:50:38Z</time>
   </trkpt>
   <trkpt lat="42.2194330" lon="2.8289310">
    <ele>189.6</ele>
    <time>2018-12-27T11:50:41Z</time>
   </trkpt>
   <trkpt lat="42.2193330" lon="2.8289730">
    <ele>189.7</ele>
    <time>2018-12-27T11:50:42Z</time>
   </trkpt>
   <trkpt lat="42.2191560" lon="2.8290260">
    <ele>189.8</ele>
    <time>2018-12-27T11:50:45Z</time>
   </trkpt>
   <trkpt lat="42.2190100" lon="2.8290610">
    <ele>190.1</ele>
    <time>2018-12-27T11:50:48Z</time>
   </trkpt>
   <trkpt lat="42.2188960" lon="2.8291300">
    <ele>190.4</ele>
    <time>2018-12-27T11:50:50Z</time>
   </trkpt>
   <trkpt lat="42.2188010" lon="2.8292700">
    <ele>190.9</ele>
    <time>2018-12-27T11:50:52Z</time>
   </trkpt>
   <trkpt lat="42.2186900" lon="2.8293900">
    <ele>191.7</ele>
    <time>2018-12-27T11:50:54Z</time>
   </trkpt>
   <trkpt lat="42.2184960" lon="2.8295930">
    <ele>192.7</ele>
    <time>2018-12-27T11:50:58Z</time>
   </trkpt>
   <trkpt lat="42.2184080" lon="2.8297030">
    <ele>193.4</ele>
    <time>2018-12-27T11:51:00Z</time>
   </trkpt>
   <trkpt lat="42.2183430" lon="2.8297680">
    <ele>194.0</ele>
    <time>2018-12-27T11:51:01Z</time>
   </trkpt>
   <trkpt lat="42.2182510" lon="2.8299450">
    <ele>194.9</ele>
    <time>2018-12-27T11:51:04Z</time>
   </trkpt>
   <trkpt lat="42.2182060" lon="2.8301200">
    <ele>195.6</ele>
    <time>2018-12-27T11:51:06Z</time>
   </trkpt>
   <trkpt lat="42.2181330" lon="2.8302980">
    <ele>195.9</ele>
    <time>2018-12-27T11:51:09Z</time>
   </trkpt>
   <trkpt lat="42.2180860" lon="2.8305430">
    <ele>195.9</ele>
    <time>2018-12-27T11:51:12Z</time>
   </trkpt>
   <trkpt lat="42.2179630" lon="2.8307610">
    <ele>195.7</ele>
    <time>2018-12-27T11:51:15Z</time>
   </trkpt>
   <trkpt lat="42.2178310" lon="2.8310050">
    <ele>194.7</ele>
    <time>2018-12-27T11:51:18Z</time>
   </trkpt>
   <trkpt lat="42.2176280" lon="2.8312230">
    <ele>193.1</ele>
    <time>2018-12-27T11:51:23Z</time>
   </trkpt>
   <trkpt lat="42.2174180" lon="2.8314500">
    <ele>192.6</ele>
    <time>2018-12-27T11:51:27Z</time>
   </trkpt>
   <trkpt lat="42.2172200" lon="2.8317030">
    <ele>192.5</ele>
    <time>2018-12-27T11:51:31Z</time>
   </trkpt>
   <trkpt lat="42.2170460" lon="2.8319700">
    <ele>192.2</ele>
    <time>2018-12-27T11:51:35Z</time>
   </trkpt>
   <trkpt lat="42.2168930" lon="2.8322010">
    <ele>191.7</ele>
    <time>2018-12-27T11:51:39Z</time>
   </trkpt>
   <trkpt lat="42.2167150" lon="2.8324000">
    <ele>191.2</ele>
    <time>2018-12-27T11:51:43Z</time>
   </trkpt>
   <trkpt lat="42.2165050" lon="2.8325310">
    <ele>191.2</ele>
    <time>2018-12-27T11:51:46Z</time>
   </trkpt>
   <trkpt lat="42.2163000" lon="2.8325560">
    <ele>191.2</ele>
    <time>2018-12-27T11:51:50Z</time>
   </trkpt>
   <trkpt lat="42.2160850" lon="2.8325530">
    <ele>191.1</ele>
    <time>2018-12-27T11:51:53Z</time>
   </trkpt>
   <trkpt lat="42.2158310" lon="2.8326000">
    <ele>191.0</ele>
    <time>2018-12-27T11:51:57Z</time>
   </trkpt>
   <trkpt lat="42.2155500" lon="2.8330660">
    <ele>190.7</ele>
    <time>2018-12-27T11:52:04Z</time>
   </trkpt>
   <trkpt lat="42.2154530" lon="2.8333410">
    <ele>190.7</ele>
    <time>2018-12-27T11:52:08Z</time>
   </trkpt>
   <trkpt lat="42.2153230" lon="2.8336160">
    <ele>190.6</ele>
    <time>2018-12-27T11:52:12Z</time>
   </trkpt>
   <trkpt lat="42.2152750" lon="2.8339100">
    <ele>190.8</ele>
    <time>2018-12-27T11:52:16Z</time>
   </trkpt>
   <trkpt lat="42.2152310" lon="2.8341380">
    <ele>190.9</ele>
    <time>2018-12-27T11:52:18Z</time>
   </trkpt>
   <trkpt lat="42.2151960" lon="2.8343200">
    <ele>191.1</ele>
    <time>2018-12-27T11:52:21Z</time>
   </trkpt>
   <trkpt lat="42.2152010" lon="2.8345260">
    <ele>191.2</ele>
    <time>2018-12-27T11:52:23Z</time>
   </trkpt>
   <trkpt lat="42.2152700" lon="2.8347360">
    <ele>191.2</ele>
    <time>2018-12-27T11:52:26Z</time>
   </trkpt>
   <trkpt lat="42.2152800" lon="2.8349650">
    <ele>190.7</ele>
    <time>2018-12-27T11:52:28Z</time>
   </trkpt>
   <trkpt lat="42.2151830" lon="2.8351900">
    <ele>190.2</ele>
    <time>2018-12-27T11:52:32Z</time>
   </trkpt>
   <trkpt lat="42.2150330" lon="2.8354010">
    <ele>189.7</ele>
    <time>2018-12-27T11:52:35Z</time>
   </trkpt>
   <trkpt lat="42.2149010" lon="2.8356200">
    <ele>189.2</ele>
    <time>2018-12-27T11:52:38Z</time>
   </trkpt>
   <trkpt lat="42.2146550" lon="2.8357980">
    <ele>188.8</ele>
    <time>2018-12-27T11:52:43Z</time>
   </trkpt>
   <trkpt lat="42.2144410" lon="2.8359430">
    <ele>188.7</ele>
    <time>2018-12-27T11:52:47Z</time>
   </trkpt>
   <trkpt lat="42.2142500" lon="2.8360800">
    <ele>188.7</ele>
    <time>2018-12-27T11:52:50Z</time>
   </trkpt>
   <trkpt lat="42.2140480" lon="2.8362560">
    <ele>188.5</ele>
    <time>2018-12-27T11:52:54Z</time>
   </trkpt>
   <trkpt lat="42.2138850" lon="2.8364750">
    <ele>188.2</ele>
    <time>2018-12-27T11:52:58Z</time>
   </trkpt>
   <trkpt lat="42.2137010" lon="2.8367480">
    <ele>187.7</ele>
    <time>2018-12-27T11:53:02Z</time>
   </trkpt>
   <trkpt lat="42.2135230" lon="2.8369910">
    <ele>187.2</ele>
    <time>2018-12-27T11:53:06Z</time>
   </trkpt>
   <trkpt lat="42.2131930" lon="2.8374780">
    <ele>187.3</ele>
    <time>2018-12-27T11:53:14Z</time>
   </trkpt>
   <trkpt lat="42.2130830" lon="2.8376980">
    <ele>187.4</ele>
    <time>2018-12-27T11:53:17Z</time>
   </trkpt>
   <trkpt lat="42.2130010" lon="2.8379060">
    <ele>187.2</ele>
    <time>2018-12-27T11:53:20Z</time>
   </trkpt>
   <trkpt lat="42.2129160" lon="2.8381150">
    <ele>186.9</ele>
    <time>2018-12-27T11:53:23Z</time>
   </trkpt>
   <trkpt lat="42.2128030" lon="2.8383430">
    <ele>186.5</ele>
    <time>2018-12-27T11:53:26Z</time>
   </trkpt>
   <trkpt lat="42.2126880" lon="2.8386000">
    <ele>185.9</ele>
    <time>2018-12-27T11:53:29Z</time>
   </trkpt>
   <trkpt lat="42.2125930" lon="2.8388800">
    <ele>185.0</ele>
    <time>2018-12-27T11:53:33Z</time>
   </trkpt>
   <trkpt lat="42.2124510" lon="2.8392310">
    <ele>184.0</ele>
    <time>2018-12-27T11:53:38Z</time>
   </trkpt>
   <trkpt lat="42.2123860" lon="2.8395860">
    <ele>183.0</ele>
    <time>2018-12-27T11:53:42Z</time>
   </trkpt>
   <trkpt lat="42.2123650" lon="2.8399930">
    <ele>182.1</ele>
    <time>2018-12-27T11:53:47Z</time>
   </trkpt>
   <trkpt lat="42.2123300" lon="2.8404260">
    <ele>181.6</ele>
    <time>2018-12-27T11:53:52Z</time>
   </trkpt>
   <trkpt lat="42.2122530" lon="2.8408180">
    <ele>181.3</ele>
    <time>2018-12-27T11:53:57Z</time>
   </trkpt>
   <trkpt lat="42.2121260" lon="2.8411100">
    <ele>181.1</ele>
    <time>2018-12-27T11:54:01Z</time>
   </trkpt>
   <trkpt lat="42.2118980" lon="2.8413380">
    <ele>180.5</ele>
    <time>2018-12-27T11:54:06Z</time>
   </trkpt>
   <trkpt lat="42.2116880" lon="2.8415660">
    <ele>179.7</ele>
    <time>2018-12-27T11:54:10Z</time>
   </trkpt>
   <trkpt lat="42.2114710" lon="2.8417680">
    <ele>179.0</ele>
    <time>2018-12-27T11:54:14Z</time>
   </trkpt>
   <trkpt lat="42.2112150" lon="2.8419830">
    <ele>178.4</ele>
    <time>2018-12-27T11:54:19Z</time>
   </trkpt>
   <trkpt lat="42.2106860" lon="2.8423950">
    <ele>178.7</ele>
    <time>2018-12-27T11:54:29Z</time>
   </trkpt>
   <trkpt lat="42.2104710" lon="2.8425100">
    <ele>179.0</ele>
    <time>2018-12-27T11:54:32Z</time>
   </trkpt>
   <trkpt lat="42.2102930" lon="2.8425410">
    <ele>179.2</ele>
    <time>2018-12-27T11:54:35Z</time>
   </trkpt>
   <trkpt lat="42.2100860" lon="2.8425750">
    <ele>179.2</ele>
    <time>2018-12-27T11:54:39Z</time>
   </trkpt>
   <trkpt lat="42.2098860" lon="2.8426180">
    <ele>179.0</ele>
    <time>2018-12-27T11:54:42Z</time>
   </trkpt>
   <trkpt lat="42.2097130" lon="2.8427560">
    <ele>178.8</ele>
    <time>2018-12-27T11:54:45Z</time>
   </trkpt>
   <trkpt lat="42.2095480" lon="2.8430080">
    <ele>178.7</ele>
    <time>2018-12-27T11:54:49Z</time>
   </trkpt>
   <trkpt lat="42.2093710" lon="2.8432330">
    <ele>178.4</ele>
    <time>2018-12-27T11:54:53Z</time>
   </trkpt>
   <trkpt lat="42.2092110" lon="2.8434530">
    <ele>177.8</ele>
    <time>2018-12-27T11:54:57Z</time>
   </trkpt>
   <trkpt lat="42.2091000" lon="2.8436880">
    <ele>176.8</ele>
    <time>2018-12-27T11:55:00Z</time>
   </trkpt>
   <trkpt lat="42.2089830" lon="2.8439980">
    <ele>175.7</ele>
    <time>2018-12-27T11:55:04Z</time>
   </trkpt>
   <trkpt lat="42.2087450" lon="2.8440730">
    <ele>174.8</ele>
    <time>2018-12-27T11:55:08Z</time>
   </trkpt>
   <trkpt lat="42.2084180" lon="2.8441030">
    <ele>173.6</ele>
    <time>2018-12-27T11:55:13Z</time>
   </trkpt>
   <trkpt lat="42.2080680" lon="2.8441380">
    <ele>172.2</ele>
    <time>2018-12-27T11:55:19Z</time>
   </trkpt>
   <trkpt lat="42.2077280" lon="2.8441610">
    <ele>170.7</ele>
    <time>2018-12-27T11:55:24Z</time>
   </trkpt>
   <trkpt lat="42.2074250" lon="2.8441750">
    <ele>169.5</ele>
    <time>2018-12-27T11:55:29Z</time>
   </trkpt>
   <trkpt lat="42.2071330" lon="2.8441630">
    <ele>168.3</ele>
    <time>2018-12-27T11:55:34Z</time>
   </trkpt>
   <trkpt lat="42.2068200" lon="2.8441460">
    <ele>167.3</ele>
    <time>2018-12-27T11:55:39Z</time>
   </trkpt>
   <trkpt lat="42.2065300" lon="2.8440800">
    <ele>166.4</ele>
    <time>2018-12-27T11:55:44Z</time>
   </trkpt>
   <trkpt lat="42.2060500" lon="2.8440130">
    <ele>165.1</ele>
    <time>2018-12-27T11:55:51Z</time>
   </trkpt>
   <trkpt lat="42.2057700" lon="2.8439980">
    <ele>164.3</ele>
    <time>2018-12-27T11:55:56Z</time>
   </trkpt>
   <trkpt lat="42.2054730" lon="2.8439950">
    <ele>163.6</ele>
    <time>2018-12-27T11:56:00Z</time>
   </trkpt>
   <trkpt lat="42.2052800" lon="2.8438780">
    <ele>163.0</ele>
    <time>2018-12-27T11:56:04Z</time>
   </trkpt>
   <trkpt lat="42.2052110" lon="2.8436050">
    <ele>163.2</ele>
    <time>2018-12-27T11:56:07Z</time>
   </trkpt>
   <trkpt lat="42.2051250" lon="2.8433230">
    <ele>163.5</ele>
    <time>2018-12-27T11:56:11Z</time>
   </trkpt>
   <trkpt lat="42.2050360" lon="2.8430380">
    <ele>163.5</ele>
    <time>2018-12-27T11:56:15Z</time>
   </trkpt>
   <trkpt lat="42.2049680" lon="2.8427900">
    <ele>163.4</ele>
    <time>2018-12-27T11:56:18Z</time>
   </trkpt>
   <trkpt lat="42.2049100" lon="2.8425130">
    <ele>163.2</ele>
    <time>2018-12-27T11:56:21Z</time>
   </trkpt>
   <trkpt lat="42.2047750" lon="2.8423510">
    <ele>162.8</ele>
    <time>2018-12-27T11:56:24Z</time>
   </trkpt>
   <trkpt lat="42.2045260" lon="2.8423960">
    <ele>162.4</ele>
    <time>2018-12-27T11:56:28Z</time>
   </trkpt>
   <trkpt lat="42.2042900" lon="2.8424360">
    <ele>162.1</ele>
    <time>2018-12-27T11:56:32Z</time>
   </trkpt>
   <trkpt lat="42.2040260" lon="2.8424660">
    <ele>161.8</ele>
    <time>2018-12-27T11:56:36Z</time>
   </trkpt>
   <trkpt lat="42.2037630" lon="2.8425130">
    <ele>161.9</ele>
    <time>2018-12-27T11:56:40Z</time>
   </trkpt>
   <trkpt lat="42.2035230" lon="2.8425700">
    <ele>162.0</ele>
    <time>2018-12-27T11:56:44Z</time>
   </trkpt>
   <trkpt lat="42.2032750" lon="2.8426160">
    <ele>162.2</ele>
    <time>2018-12-27T11:56:48Z</time>
   </trkpt>
   <trkpt lat="42.2030560" lon="2.8426080">
    <ele>162.4</ele>
    <time>2018-12-27T11:56:52Z</time>
   </trkpt>
   <trkpt lat="42.2028180" lon="2.8425510">
    <ele>162.6</ele>
    <time>2018-12-27T11:56:56Z</time>
   </trkpt>
   <trkpt lat="42.2025980" lon="2.8425030">
    <ele>162.7</ele>
    <time>2018-12-27T11:56:59Z</time>
   </trkpt>
   <trkpt lat="42.2022230" lon="2.8423980">
    <ele>162.6</ele>
    <time>2018-12-27T11:57:05Z</time>
   </trkpt>
   <trkpt lat="42.2020450" lon="2.8423450">
    <ele>162.4</ele>
    <time>2018-12-27T11:57:08Z</time>
   </trkpt>
   <trkpt lat="42.2019660" lon="2.8421300">
    <ele>162.1</ele>
    <time>2018-12-27T11:57:11Z</time>
   </trkpt>
   <trkpt lat="42.2019900" lon="2.8418560">
    <ele>161.4</ele>
    <time>2018-12-27T11:57:14Z</time>
   </trkpt>
   <trkpt lat="42.2020010" lon="2.8416300">
    <ele>160.0</ele>
    <time>2018-12-27T11:57:17Z</time>
   </trkpt>
   <trkpt lat="42.2020650" lon="2.8413880">
    <ele>157.8</ele>
    <time>2018-12-27T11:57:20Z</time>
   </trkpt>
   <trkpt lat="42.2021400" lon="2.8410700">
    <ele>154.7</ele>
    <time>2018-12-27T11:57:24Z</time>
   </trkpt>
   <trkpt lat="42.2022730" lon="2.8406360">
    <ele>151.5</ele>
    <time>2018-12-27T11:57:30Z</time>
   </trkpt>
   <trkpt lat="42.2023260" lon="2.8401250">
    <ele>149.2</ele>
    <time>2018-12-27T11:57:36Z</time>
   </trkpt>
   <trkpt lat="42.2024310" lon="2.8396160">
    <ele>146.1</ele>
    <time>2018-12-27T11:57:42Z</time>
   </trkpt>
   <trkpt lat="42.2023760" lon="2.8391410">
    <ele>142.4</ele>
    <time>2018-12-27T11:57:48Z</time>
   </trkpt>
   <trkpt lat="42.2023000" lon="2.8387900">
    <ele>139.2</ele>
    <time>2018-12-27T11:57:52Z</time>
   </trkpt>
   <trkpt lat="42.2021460" lon="2.8384950">
    <ele>135.9</ele>
    <time>2018-12-27T11:57:56Z</time>
   </trkpt>
   <trkpt lat="42.2018980" lon="2.8382850">
    <ele>132.2</ele>
    <time>2018-12-27T11:58:01Z</time>
   </trkpt>
   <trkpt lat="42.2016760" lon="2.8380130">
    <ele>128.8</ele>
    <time>2018-12-27T11:58:06Z</time>
   </trkpt>
   <trkpt lat="42.2014080" lon="2.8377850">
    <ele>124.7</ele>
    <time>2018-12-27T11:58:11Z</time>
   </trkpt>
   <trkpt lat="42.2010310" lon="2.8376780">
    <ele>120.1</ele>
    <time>2018-12-27T11:58:17Z</time>
   </trkpt>
   <trkpt lat="42.2001510" lon="2.8375250">
    <ele>111.2</ele>
    <time>2018-12-27T11:58:31Z</time>
   </trkpt>
   <trkpt lat="42.1997450" lon="2.8373460">
    <ele>108.5</ele>
    <time>2018-12-27T11:58:38Z</time>
   </trkpt>
   <trkpt lat="42.1993610" lon="2.8372350">
    <ele>106.3</ele>
    <time>2018-12-27T11:58:44Z</time>
   </trkpt>
   <trkpt lat="42.1989880" lon="2.8372380">
    <ele>104.5</ele>
    <time>2018-12-27T11:58:50Z</time>
   </trkpt>
   <trkpt lat="42.1986250" lon="2.8373560">
    <ele>103.8</ele>
    <time>2018-12-27T11:58:56Z</time>
   </trkpt>
   <trkpt lat="42.1982730" lon="2.8375360">
    <ele>103.3</ele>
    <time>2018-12-27T11:59:02Z</time>
   </trkpt>
   <trkpt lat="42.1979730" lon="2.8377330">
    <ele>102.9</ele>
    <time>2018-12-27T11:59:08Z</time>
   </trkpt>
   <trkpt lat="42.1976680" lon="2.8378780">
    <ele>102.9</ele>
    <time>2018-12-27T11:59:13Z</time>
   </trkpt>
   <trkpt lat="42.1974210" lon="2.8379680">
    <ele>102.9</ele>
    <time>2018-12-27T11:59:17Z</time>
   </trkpt>
   <trkpt lat="42.1971430" lon="2.8380500">
    <ele>102.8</ele>
    <time>2018-12-27T11:59:22Z</time>
   </trkpt>
   <trkpt lat="42.1968410" lon="2.8381230">
    <ele>102.2</ele>
    <time>2018-12-27T11:59:26Z</time>
   </trkpt>
   <trkpt lat="42.1965730" lon="2.8381560">
    <ele>101.4</ele>
    <time>2018-12-27T11:59:31Z</time>
   </trkpt>
   <trkpt lat="42.1963180" lon="2.8381910">
    <ele>100.6</ele>
    <time>2018-12-27T11:59:35Z</time>
   </trkpt>
   <trkpt lat="42.1960700" lon="2.8382860">
    <ele>99.6</ele>
    <time>2018-12-27T11:59:39Z</time>
   </trkpt>
   <trkpt lat="42.1958050" lon="2.8383330">
    <ele>99.7</ele>
    <time>2018-12-27T11:59:43Z</time>
   </trkpt>
   <trkpt lat="42.1955550" lon="2.8383380">
    <ele>99.6</ele>
    <time>2018-12-27T11:59:47Z</time>
   </trkpt>
   <trkpt lat="42.1952850" lon="2.8383610">
    <ele>99.3</ele>
    <time>2018-12-27T11:59:52Z</time>
   </trkpt>
   <trkpt lat="42.1950050" lon="2.8384010">
    <ele>99.2</ele>
    <time>2018-12-27T11:59:56Z</time>
   </trkpt>
   <trkpt lat="42.1944610" lon="2.8385550">
    <ele>100.6</ele>
    <time>2018-12-27T12:00:05Z</time>
   </trkpt>
   <trkpt lat="42.1942050" lon="2.8385310">
    <ele>100.4</ele>
    <time>2018-12-27T12:00:09Z</time>
   </trkpt>
   <trkpt lat="42.1939280" lon="2.8384400">
    <ele>99.4</ele>
    <time>2018-12-27T12:00:14Z</time>
   </trkpt>
   <trkpt lat="42.1936280" lon="2.8383410">
    <ele>96.8</ele>
    <time>2018-12-27T12:00:19Z</time>
   </trkpt>
   <trkpt lat="42.1933530" lon="2.8384280">
    <ele>95.9</ele>
    <time>2018-12-27T12:00:23Z</time>
   </trkpt>
   <trkpt lat="42.1930360" lon="2.8385260">
    <ele>95.7</ele>
    <time>2018-12-27T12:00:28Z</time>
   </trkpt>
   <trkpt lat="42.1927060" lon="2.8387230">
    <ele>95.8</ele>
    <time>2018-12-27T12:00:34Z</time>
   </trkpt>
   <trkpt lat="42.1923730" lon="2.8388980">
    <ele>96.4</ele>
    <time>2018-12-27T12:00:40Z</time>
   </trkpt>
   <trkpt lat="42.1921700" lon="2.8390280">
    <ele>95.7</ele>
    <time>2018-12-27T12:00:43Z</time>
   </trkpt>
   <trkpt lat="42.1919730" lon="2.8390210">
    <ele>95.1</ele>
    <time>2018-12-27T12:00:47Z</time>
   </trkpt>
   <trkpt lat="42.1917650" lon="2.8389760">
    <ele>94.7</ele>
    <time>2018-12-27T12:00:50Z</time>
   </trkpt>
   <trkpt lat="42.1916080" lon="2.8389610">
    <ele>94.6</ele>
    <time>2018-12-27T12:00:52Z</time>
   </trkpt>
   <trkpt lat="42.1914680" lon="2.8389250">
    <ele>94.7</ele>
    <time>2018-12-27T12:00:55Z</time>
   </trkpt>
   <trkpt lat="42.1913550" lon="2.8389410">
    <ele>94.9</ele>
    <time>2018-12-27T12:00:57Z</time>
   </trkpt>
   <trkpt lat="42.1912750" lon="2.8389230">
    <ele>95.1</ele>
    <time>2018-12-27T12:00:58Z</time>
   </trkpt>
   <trkpt lat="42.1910930" lon="2.8388610">
    <ele>95.8</ele>
    <time>2018-12-27T12:01:01Z</time>
   </trkpt>
   <trkpt lat="42.1909750" lon="2.8388010">
    <ele>96.4</ele>
    <time>2018-12-27T12:01:03Z</time>
   </trkpt>
   <trkpt lat="42.1908380" lon="2.8387580">
    <ele>97.1</ele>
    <time>2018-12-27T12:01:05Z</time>
   </trkpt>
   <trkpt lat="42.1907180" lon="2.8387200">
    <ele>97.8</ele>
    <time>2018-12-27T12:01:07Z</time>
   </trkpt>
   <trkpt lat="42.1905380" lon="2.8386580">
    <ele>98.8</ele>
    <time>2018-12-27T12:01:10Z</time>
   </trkpt>
   <trkpt lat="42.1904630" lon="2.8385730">
    <ele>99.3</ele>
    <time>2018-12-27T12:01:12Z</time>
   </trkpt>
   <trkpt lat="42.1903950" lon="2.8385030">
    <ele>99.7</ele>
    <time>2018-12-27T12:01:13Z</time>
   </trkpt>
   <trkpt lat="42.1903050" lon="2.8383800">
    <ele>100.1</ele>
    <time>2018-12-27T12:01:15Z</time>
   </trkpt>
   <trkpt lat="42.1902400" lon="2.8382280">
    <ele>100.4</ele>
    <time>2018-12-27T12:01:17Z</time>
   </trkpt>
   <trkpt lat="42.1902060" lon="2.8380830">
    <ele>100.6</ele>
    <time>2018-12-27T12:01:19Z</time>
   </trkpt>
   <trkpt lat="42.1901450" lon="2.8379480">
    <ele>100.8</ele>
    <time>2018-12-27T12:01:21Z</time>
   </trkpt>
   <trkpt lat="42.1900900" lon="2.8378050">
    <ele>101.2</ele>
    <time>2018-12-27T12:01:23Z</time>
   </trkpt>
   <trkpt lat="42.1900910" lon="2.8376410">
    <ele>101.7</ele>
    <time>2018-12-27T12:01:25Z</time>
   </trkpt>
   <trkpt lat="42.1900780" lon="2.8374850">
    <ele>102.1</ele>
    <time>2018-12-27T12:01:27Z</time>
   </trkpt>
   <trkpt lat="42.1900530" lon="2.8373480">
    <ele>102.5</ele>
    <time>2018-12-27T12:01:28Z</time>
   </trkpt>
   <trkpt lat="42.1900750" lon="2.8371960">
    <ele>103.0</ele>
    <time>2018-12-27T12:01:30Z</time>
   </trkpt>
   <trkpt lat="42.1900800" lon="2.8370050">
    <ele>103.7</ele>
    <time>2018-12-27T12:01:32Z</time>
   </trkpt>
   <trkpt lat="42.1900860" lon="2.8368750">
    <ele>104.2</ele>
    <time>2018-12-27T12:01:34Z</time>
   </trkpt>
   <trkpt lat="42.1900730" lon="2.8367260">
    <ele>104.8</ele>
    <time>2018-12-27T12:01:36Z</time>
   </trkpt>
   <trkpt lat="42.1900710" lon="2.8365800">
    <ele>105.5</ele>
    <time>2018-12-27T12:01:37Z</time>
   </trkpt>
   <trkpt lat="42.1900200" lon="2.8364330">
    <ele>106.5</ele>
    <time>2018-12-27T12:01:39Z</time>
   </trkpt>
   <trkpt lat="42.1898910" lon="2.8362460">
    <ele>108.1</ele>
    <time>2018-12-27T12:01:42Z</time>
   </trkpt>
   <trkpt lat="42.1898760" lon="2.8361380">
    <ele>108.8</ele>
    <time>2018-12-27T12:01:44Z</time>
   </trkpt>
   <trkpt lat="42.1897860" lon="2.8360250">
    <ele>109.8</ele>
    <time>2018-12-27T12:01:46Z</time>
   </trkpt>
   <trkpt lat="42.1896900" lon="2.8359760">
    <ele>110.5</ele>
    <time>2018-12-27T12:01:47Z</time>
   </trkpt>
   <trkpt lat="42.1896850" lon="2.8359500">
    <ele>110.6</ele>
    <time>2018-12-27T12:01:48Z</time>
   </trkpt>
   <trkpt lat="42.1895960" lon="2.8360630">
    <ele>111.3</ele>
    <time>2018-12-27T12:01:50Z</time>
   </trkpt>
   <trkpt lat="42.1895830" lon="2.8362450">
    <ele>111.3</ele>
    <time>2018-12-27T12:01:52Z</time>
   </trkpt>
   <trkpt lat="42.1895160" lon="2.8363650">
    <ele>111.3</ele>
    <time>2018-12-27T12:01:54Z</time>
   </trkpt>
   <trkpt lat="42.1893950" lon="2.8364810">
    <ele>111.3</ele>
    <time>2018-12-27T12:01:56Z</time>
   </trkpt>
   <trkpt lat="42.1892480" lon="2.8365800">
    <ele>111.1</ele>
    <time>2018-12-27T12:01:59Z</time>
   </trkpt>
   <trkpt lat="42.1890900" lon="2.8366810">
    <ele>110.7</ele>
    <time>2018-12-27T12:02:01Z</time>
   </trkpt>
   <trkpt lat="42.1888910" lon="2.8367780">
    <ele>110.2</ele>
    <time>2018-12-27T12:02:05Z</time>
   </trkpt>
   <trkpt lat="42.1887250" lon="2.8368550">
    <ele>109.7</ele>
    <time>2018-12-27T12:02:08Z</time>
   </trkpt>
   <trkpt lat="42.1885410" lon="2.8369230">
    <ele>109.5</ele>
    <time>2018-12-27T12:02:11Z</time>
   </trkpt>
   <trkpt lat="42.1883760" lon="2.8370080">
    <ele>109.2</ele>
    <time>2018-12-27T12:02:13Z</time>
   </trkpt>
   <trkpt lat="42.1881530" lon="2.8371060">
    <ele>108.7</ele>
    <time>2018-12-27T12:02:17Z</time>
   </trkpt>
   <trkpt lat="42.1879380" lon="2.8372100">
    <ele>108.5</ele>
    <time>2018-12-27T12:02:21Z</time>
   </trkpt>
   <trkpt lat="42.1875480" lon="2.8375750">
    <ele>108.1</ele>
    <time>2018-12-27T12:02:28Z</time>
   </trkpt>
   <trkpt lat="42.1874580" lon="2.8379300">
    <ele>107.6</ele>
    <time>2018-12-27T12:02:33Z</time>
   </trkpt>
   <trkpt lat="42.1874360" lon="2.8382950">
    <ele>107.0</ele>
    <time>2018-12-27T12:02:37Z</time>
   </trkpt>
   <trkpt lat="42.1874410" lon="2.8386510">
    <ele>106.3</ele>
    <time>2018-12-27T12:02:41Z</time>
   </trkpt>
   <trkpt lat="42.1874130" lon="2.8389930">
    <ele>105.6</ele>
    <time>2018-12-27T12:02:46Z</time>
   </trkpt>
   <trkpt lat="42.1873900" lon="2.8393680">
    <ele>104.7</ele>
    <time>2018-12-27T12:02:50Z</time>
   </trkpt>
   <trkpt lat="42.1873580" lon="2.8397130">
    <ele>103.8</ele>
    <time>2018-12-27T12:02:54Z</time>
   </trkpt>
   <trkpt lat="42.1873060" lon="2.8401100">
    <ele>102.6</ele>
    <time>2018-12-27T12:02:59Z</time>
   </trkpt>
   <trkpt lat="42.1872610" lon="2.8405130">
    <ele>101.3</ele>
    <time>2018-12-27T12:03:04Z</time>
   </trkpt>
   <trkpt lat="42.1872480" lon="2.8409200">
    <ele>100.2</ele>
    <time>2018-12-27T12:03:09Z</time>
   </trkpt>
   <trkpt lat="42.1871880" lon="2.8412630">
    <ele>99.4</ele>
    <time>2018-12-27T12:03:13Z</time>
   </trkpt>
   <trkpt lat="42.1871350" lon="2.8416560">
    <ele>98.6</ele>
    <time>2018-12-27T12:03:17Z</time>
   </trkpt>
   <trkpt lat="42.1870710" lon="2.8420730">
    <ele>97.6</ele>
    <time>2018-12-27T12:03:23Z</time>
   </trkpt>
   <trkpt lat="42.1870780" lon="2.8424430">
    <ele>96.6</ele>
    <time>2018-12-27T12:03:27Z</time>
   </trkpt>
   <trkpt lat="42.1870810" lon="2.8428060">
    <ele>95.3</ele>
    <time>2018-12-27T12:03:31Z</time>
   </trkpt>
   <trkpt lat="42.1870800" lon="2.8430900">
    <ele>94.1</ele>
    <time>2018-12-27T12:03:35Z</time>
   </trkpt>
   <trkpt lat="42.1871760" lon="2.8432300">
    <ele>93.6</ele>
    <time>2018-12-27T12:03:37Z</time>
   </trkpt>
   <trkpt lat="42.1873000" lon="2.8433480">
    <ele>93.1</ele>
    <time>2018-12-27T12:03:39Z</time>
   </trkpt>
   <trkpt lat="42.1874630" lon="2.8434480">
    <ele>92.8</ele>
    <time>2018-12-27T12:03:42Z</time>
   </trkpt>
   <trkpt lat="42.1876300" lon="2.8434900">
    <ele>92.5</ele>
    <time>2018-12-27T12:03:45Z</time>
   </trkpt>
   <trkpt lat="42.1878250" lon="2.8435310">
    <ele>92.2</ele>
    <time>2018-12-27T12:03:48Z</time>
   </trkpt>
   <trkpt lat="42.1879350" lon="2.8435360">
    <ele>92.0</ele>
    <time>2018-12-27T12:03:50Z</time>
   </trkpt>
   <trkpt lat="42.1880180" lon="2.8435700">
    <ele>91.9</ele>
    <time>2018-12-27T12:03:51Z</time>
   </trkpt>
   <trkpt lat="42.1881180" lon="2.8435680">
    <ele>91.7</ele>
    <time>2018-12-27T12:03:53Z</time>
   </trkpt>
   <trkpt lat="42.1881900" lon="2.8435550">
    <ele>91.7</ele>
    <time>2018-12-27T12:03:54Z</time>
   </trkpt>
   <trkpt lat="42.1881810" lon="2.8435600">
    <ele>91.6</ele>
    <time>2018-12-27T12:03:54Z</time>
   </trkpt>
   <trkpt lat="42.1881810" lon="2.8435330">
    <ele>91.6</ele>
    <time>2018-12-27T12:03:54Z</time>
   </trkpt>
   <trkpt lat="42.1882810" lon="2.8434580">
    <ele>91.3</ele>
    <time>2018-12-27T12:03:56Z</time>
   </trkpt>
   <trkpt lat="42.1884100" lon="2.8434550">
    <ele>90.7</ele>
    <time>2018-12-27T12:03:58Z</time>
   </trkpt>
   <trkpt lat="42.1885380" lon="2.8434060">
    <ele>90.0</ele>
    <time>2018-12-27T12:04:00Z</time>
   </trkpt>
   <trkpt lat="42.1887280" lon="2.8433480">
    <ele>89.7</ele>
    <time>2018-12-27T12:04:04Z</time>
   </trkpt>
   <trkpt lat="42.1888180" lon="2.8433460">
    <ele>89.5</ele>
    <time>2018-12-27T12:04:05Z</time>
   </trkpt>
   <trkpt lat="42.1888100" lon="2.8434910">
    <ele>89.6</ele>
    <time>2018-12-27T12:04:07Z</time>
   </trkpt>
   <trkpt lat="42.1887550" lon="2.8436750">
    <ele>90.8</ele>
    <time>2018-12-27T12:04:09Z</time>
   </trkpt>
   <trkpt lat="42.1887700" lon="2.8438500">
    <ele>91.8</ele>
    <time>2018-12-27T12:04:11Z</time>
   </trkpt>
   <trkpt lat="42.1887350" lon="2.8440080">
    <ele>92.5</ele>
    <time>2018-12-27T12:04:13Z</time>
   </trkpt>
   <trkpt lat="42.1886950" lon="2.8441360">
    <ele>93.1</ele>
    <time>2018-12-27T12:04:15Z</time>
   </trkpt>
   <trkpt lat="42.1886750" lon="2.8441830">
    <ele>93.3</ele>
    <time>2018-12-27T12:04:15Z</time>
   </trkpt>
   <trkpt lat="42.1887610" lon="2.8444200">
    <ele>93.8</ele>
    <time>2018-12-27T12:04:19Z</time>
   </trkpt>
   <trkpt lat="42.1886700" lon="2.8444010">
    <ele>93.8</ele>
    <time>2018-12-27T12:04:20Z</time>
   </trkpt>
   <trkpt lat="42.1886810" lon="2.8444330">
    <ele>93.8</ele>
    <time>2018-12-27T12:04:20Z</time>
   </trkpt>
   <trkpt lat="42.1886850" lon="2.8444410">
    <ele>93.8</ele>
    <time>2018-12-27T12:04:21Z</time>
   </trkpt>
   <trkpt lat="42.1886960" lon="2.8444530">
    <ele>93.8</ele>
    <time>2018-12-27T12:04:21Z</time>
   </trkpt>
   <trkpt lat="42.1886060" lon="2.8444380">
    <ele>93.8</ele>
    <time>2018-12-27T12:04:22Z</time>
   </trkpt>
   <trkpt lat="42.1885430" lon="2.8444830">
    <ele>93.0</ele>
    <time>2018-12-27T12:04:24Z</time>
   </trkpt>
   <trkpt lat="42.1884880" lon="2.8445180">
    <ele>92.8</ele>
    <time>2018-12-27T12:04:25Z</time>
   </trkpt>
   <trkpt lat="42.1884380" lon="2.8445560">
    <ele>92.6</ele>
    <time>2018-12-27T12:04:26Z</time>
   </trkpt>
   <trkpt lat="42.1883880" lon="2.8445830">
    <ele>92.4</ele>
    <time>2018-12-27T12:04:26Z</time>
   </trkpt>
   <trkpt lat="42.1884310" lon="2.8445480">
    <ele>92.3</ele>
    <time>2018-12-27T12:04:27Z</time>
   </trkpt>
   <trkpt lat="42.1885280" lon="2.8445010">
    <ele>92.9</ele>
    <time>2018-12-27T12:04:29Z</time>
   </trkpt>
   <trkpt lat="42.1885650" lon="2.8444260">
    <ele>93.2</ele>
    <time>2018-12-27T12:04:30Z</time>
   </trkpt>
   <trkpt lat="42.1886360" lon="2.8442960">
    <ele>93.7</ele>
    <time>2018-12-27T12:04:32Z</time>
   </trkpt>
   <trkpt lat="42.1887200" lon="2.8441780">
    <ele>93.2</ele>
    <time>2018-12-27T12:04:34Z</time>
   </trkpt>
   <trkpt lat="42.1887630" lon="2.8440500">
    <ele>92.6</ele>
    <time>2018-12-27T12:04:35Z</time>
   </trkpt>
   <trkpt lat="42.1887780" lon="2.8438960">
    <ele>92.0</ele>
    <time>2018-12-27T12:04:37Z</time>
   </trkpt>
   <trkpt lat="42.1888180" lon="2.8437330">
    <ele>91.0</ele>
    <time>2018-12-27T12:04:39Z</time>
   </trkpt>
   <trkpt lat="42.1888930" lon="2.8435760">
    <ele>90.0</ele>
    <time>2018-12-27T12:04:42Z</time>
   </trkpt>
   <trkpt lat="42.1889450" lon="2.8434910">
    <ele>89.4</ele>
    <time>2018-12-27T12:04:43Z</time>
   </trkpt>
   <trkpt lat="42.1886800" lon="2.8434350">
    <ele>89.7</ele>
    <time>2018-12-27T12:04:47Z</time>
   </trkpt>
   <trkpt lat="42.1885510" lon="2.8434610">
    <ele>90.0</ele>
    <time>2018-12-27T12:04:49Z</time>
   </trkpt>
   <trkpt lat="42.1884060" lon="2.8435150">
    <ele>90.7</ele>
    <time>2018-12-27T12:04:52Z</time>
   </trkpt>
   <trkpt lat="42.1882580" lon="2.8435550">
    <ele>91.4</ele>
    <time>2018-12-27T12:04:54Z</time>
   </trkpt>
   <trkpt lat="42.1881110" lon="2.8435860">
    <ele>91.7</ele>
    <time>2018-12-27T12:04:56Z</time>
   </trkpt>
   <trkpt lat="42.1879550" lon="2.8435860">
    <ele>91.9</ele>
    <time>2018-12-27T12:04:59Z</time>
   </trkpt>
   <trkpt lat="42.1877880" lon="2.8435600">
    <ele>92.2</ele>
    <time>2018-12-27T12:05:02Z</time>
   </trkpt>
   <trkpt lat="42.1876080" lon="2.8435260">
    <ele>92.5</ele>
    <time>2018-12-27T12:05:05Z</time>
   </trkpt>
   <trkpt lat="42.1874260" lon="2.8434610">
    <ele>92.8</ele>
    <time>2018-12-27T12:05:08Z</time>
   </trkpt>
   <trkpt lat="42.1872750" lon="2.8433330">
    <ele>93.2</ele>
    <time>2018-12-27T12:05:10Z</time>
   </trkpt>
   <trkpt lat="42.1871700" lon="2.8431650">
    <ele>93.8</ele>
    <time>2018-12-27T12:05:13Z</time>
   </trkpt>
   <trkpt lat="42.1870310" lon="2.8431230">
    <ele>94.7</ele>
    <time>2018-12-27T12:05:15Z</time>
   </trkpt>
   <trkpt lat="42.1869050" lon="2.8431130">
    <ele>95.4</ele>
    <time>2018-12-27T12:05:17Z</time>
   </trkpt>
   <trkpt lat="42.1867950" lon="2.8431180">
    <ele>95.9</ele>
    <time>2018-12-27T12:05:19Z</time>
   </trkpt>
   <trkpt lat="42.1866880" lon="2.8431260">
    <ele>96.2</ele>
    <time>2018-12-27T12:05:21Z</time>
   </trkpt>
   <trkpt lat="42.1865760" lon="2.8431310">
    <ele>96.5</ele>
    <time>2018-12-27T12:05:23Z</time>
   </trkpt>
   <trkpt lat="42.1864560" lon="2.8431310">
    <ele>97.0</ele>
    <time>2018-12-27T12:05:24Z</time>
   </trkpt>
   <trkpt lat="42.1863280" lon="2.8431250">
    <ele>97.6</ele>
    <time>2018-12-27T12:05:27Z</time>
   </trkpt>
   <trkpt lat="42.1861930" lon="2.8431110">
    <ele>98.4</ele>
    <time>2018-12-27T12:05:29Z</time>
   </trkpt>
   <trkpt lat="42.1859180" lon="2.8430830">
    <ele>99.2</ele>
    <time>2018-12-27T12:05:33Z</time>
   </trkpt>
   <trkpt lat="42.1857760" lon="2.8430660">
    <ele>99.2</ele>
    <time>2018-12-27T12:05:35Z</time>
   </trkpt>
   <trkpt lat="42.1856330" lon="2.8430560">
    <ele>99.1</ele>
    <time>2018-12-27T12:05:38Z</time>
   </trkpt>
   <trkpt lat="42.1854860" lon="2.8430460">
    <ele>98.9</ele>
    <time>2018-12-27T12:05:40Z</time>
   </trkpt>
   <trkpt lat="42.1853330" lon="2.8430330">
    <ele>98.9</ele>
    <time>2018-12-27T12:05:42Z</time>
   </trkpt>
   <trkpt lat="42.1851710" lon="2.8429750">
    <ele>99.0</ele>
    <time>2018-12-27T12:05:45Z</time>
   </trkpt>
   <trkpt lat="42.1850660" lon="2.8427480">
    <ele>99.2</ele>
    <time>2018-12-27T12:05:48Z</time>
   </trkpt>
   <trkpt lat="42.1849680" lon="2.8424950">
    <ele>99.2</ele>
    <time>2018-12-27T12:05:52Z</time>
   </trkpt>
   <trkpt lat="42.1847830" lon="2.8424150">
    <ele>99.0</ele>
    <time>2018-12-27T12:05:55Z</time>
   </trkpt>
   <trkpt lat="42.1845880" lon="2.8423980">
    <ele>98.7</ele>
    <time>2018-12-27T12:05:58Z</time>
   </trkpt>
   <trkpt lat="42.1843830" lon="2.8423600">
    <ele>98.4</ele>
    <time>2018-12-27T12:06:01Z</time>
   </trkpt>
   <trkpt lat="42.1841810" lon="2.8422510">
    <ele>98.7</ele>
    <time>2018-12-27T12:06:05Z</time>
   </trkpt>
   <trkpt lat="42.1839730" lon="2.8421830">
    <ele>99.1</ele>
    <time>2018-12-27T12:06:08Z</time>
   </trkpt>
   <trkpt lat="42.1837810" lon="2.8421000">
    <ele>99.2</ele>
    <time>2018-12-27T12:06:11Z</time>
   </trkpt>
   <trkpt lat="42.1835960" lon="2.8420930">
    <ele>99.1</ele>
    <time>2018-12-27T12:06:14Z</time>
   </trkpt>
   <trkpt lat="42.1833910" lon="2.8421530">
    <ele>99.0</ele>
    <time>2018-12-27T12:06:18Z</time>
   </trkpt>
   <trkpt lat="42.1831660" lon="2.8421080">
    <ele>98.9</ele>
    <time>2018-12-27T12:06:21Z</time>
   </trkpt>
   <trkpt lat="42.1829660" lon="2.8419880">
    <ele>98.9</ele>
    <time>2018-12-27T12:06:25Z</time>
   </trkpt>
   <trkpt lat="42.1826510" lon="2.8416980">
    <ele>99.2</ele>
    <time>2018-12-27T12:06:31Z</time>
   </trkpt>
   <trkpt lat="42.1825110" lon="2.8415430">
    <ele>99.4</ele>
    <time>2018-12-27T12:06:34Z</time>
   </trkpt>
   <trkpt lat="42.1824180" lon="2.8412830">
    <ele>99.3</ele>
    <time>2018-12-27T12:06:37Z</time>
   </trkpt>
   <trkpt lat="42.1824000" lon="2.8409610">
    <ele>99.1</ele>
    <time>2018-12-27T12:06:41Z</time>
   </trkpt>
   <trkpt lat="42.1823880" lon="2.8406600">
    <ele>98.7</ele>
    <time>2018-12-27T12:06:45Z</time>
   </trkpt>
   <trkpt lat="42.1823550" lon="2.8403160">
    <ele>98.4</ele>
    <time>2018-12-27T12:06:49Z</time>
   </trkpt>
   <trkpt lat="42.1823110" lon="2.8400480">
    <ele>98.2</ele>
    <time>2018-12-27T12:06:52Z</time>
   </trkpt>
   <trkpt lat="42.1822600" lon="2.8398730">
    <ele>98.4</ele>
    <time>2018-12-27T12:06:54Z</time>
   </trkpt>
   <trkpt lat="42.1822210" lon="2.8397100">
    <ele>99.3</ele>
    <time>2018-12-27T12:06:56Z</time>
   </trkpt>
   <trkpt lat="42.1821350" lon="2.8395610">
    <ele>100.8</ele>
    <time>2018-12-27T12:06:59Z</time>
   </trkpt>
   <trkpt lat="42.1819650" lon="2.8394860">
    <ele>102.2</ele>
    <time>2018-12-27T12:07:01Z</time>
   </trkpt>
   <trkpt lat="42.1818180" lon="2.8394050">
    <ele>103.1</ele>
    <time>2018-12-27T12:07:04Z</time>
   </trkpt>
   <trkpt lat="42.1816750" lon="2.8393110">
    <ele>103.7</ele>
    <time>2018-12-27T12:07:07Z</time>
   </trkpt>
   <trkpt lat="42.1815710" lon="2.8391560">
    <ele>104.4</ele>
    <time>2018-12-27T12:07:09Z</time>
   </trkpt>
   <trkpt lat="42.1814950" lon="2.8389610">
    <ele>104.8</ele>
    <time>2018-12-27T12:07:12Z</time>
   </trkpt>
   <trkpt lat="42.1814100" lon="2.8387910">
    <ele>104.9</ele>
    <time>2018-12-27T12:07:14Z</time>
   </trkpt>
   <trkpt lat="42.1813710" lon="2.8385900">
    <ele>104.7</ele>
    <time>2018-12-27T12:07:17Z</time>
   </trkpt>
   <trkpt lat="42.1813180" lon="2.8384360">
    <ele>104.6</ele>
    <time>2018-12-27T12:07:19Z</time>
   </trkpt>
   <trkpt lat="42.1812760" lon="2.8382450">
    <ele>104.4</ele>
    <time>2018-12-27T12:07:21Z</time>
   </trkpt>
   <trkpt lat="42.1811550" lon="2.8378150">
    <ele>104.5</ele>
    <time>2018-12-27T12:07:26Z</time>
   </trkpt>
   <trkpt lat="42.1810530" lon="2.8375750">
    <ele>104.7</ele>
    <time>2018-12-27T12:07:30Z</time>
   </trkpt>
   <trkpt lat="42.1809560" lon="2.8373660">
    <ele>104.9</ele>
    <time>2018-12-27T12:07:33Z</time>
   </trkpt>
   <trkpt lat="42.1808180" lon="2.8372060">
    <ele>104.9</ele>
    <time>2018-12-27T12:07:36Z</time>
   </trkpt>
   <trkpt lat="42.1806730" lon="2.8370160">
    <ele>104.8</ele>
    <time>2018-12-27T12:07:39Z</time>
   </trkpt>
   <trkpt lat="42.1805380" lon="2.8368180">
    <ele>104.5</ele>
    <time>2018-12-27T12:07:42Z</time>
   </trkpt>
   <trkpt lat="42.1804030" lon="2.8365830">
    <ele>104.3</ele>
    <time>2018-12-27T12:07:45Z</time>
   </trkpt>
   <trkpt lat="42.1802930" lon="2.8363410">
    <ele>103.6</ele>
    <time>2018-12-27T12:07:49Z</time>
   </trkpt>
   <trkpt lat="42.1801580" lon="2.8361080">
    <ele>102.9</ele>
    <time>2018-12-27T12:07:52Z</time>
   </trkpt>
   <trkpt lat="42.1799900" lon="2.8358350">
    <ele>102.5</ele>
    <time>2018-12-27T12:07:57Z</time>
   </trkpt>
   <trkpt lat="42.1797860" lon="2.8355980">
    <ele>101.9</ele>
    <time>2018-12-27T12:08:01Z</time>
   </trkpt>
   <trkpt lat="42.1795930" lon="2.8354050">
    <ele>100.4</ele>
    <time>2018-12-27T12:08:05Z</time>
   </trkpt>
   <trkpt lat="42.1793650" lon="2.8353680">
    <ele>98.4</ele>
    <time>2018-12-27T12:08:08Z</time>
   </trkpt>
   <trkpt lat="42.1791310" lon="2.8353660">
    <ele>96.6</ele>
    <time>2018-12-27T12:08:12Z</time>
   </trkpt>
   <trkpt lat="42.1788980" lon="2.8353860">
    <ele>95.1</ele>
    <time>2018-12-27T12:08:16Z</time>
   </trkpt>
   <trkpt lat="42.1787050" lon="2.8354030">
    <ele>94.2</ele>
    <time>2018-12-27T12:08:19Z</time>
   </trkpt>
   <trkpt lat="42.1785200" lon="2.8354030">
    <ele>93.5</ele>
    <time>2018-12-27T12:08:22Z</time>
   </trkpt>
   <trkpt lat="42.1783700" lon="2.8353550">
    <ele>93.1</ele>
    <time>2018-12-27T12:08:24Z</time>
   </trkpt>
   <trkpt lat="42.1781850" lon="2.8352850">
    <ele>92.6</ele>
    <time>2018-12-27T12:08:27Z</time>
   </trkpt>
   <trkpt lat="42.1780300" lon="2.8349160">
    <ele>92.7</ele>
    <time>2018-12-27T12:08:32Z</time>
   </trkpt>
   <trkpt lat="42.1778280" lon="2.8345030">
    <ele>93.2</ele>
    <time>2018-12-27T12:08:38Z</time>
   </trkpt>
   <trkpt lat="42.1777200" lon="2.8342950">
    <ele>93.3</ele>
    <time>2018-12-27T12:08:41Z</time>
   </trkpt>
   <trkpt lat="42.1776130" lon="2.8340880">
    <ele>93.4</ele>
    <time>2018-12-27T12:08:44Z</time>
   </trkpt>
   <trkpt lat="42.1775150" lon="2.8338900">
    <ele>93.6</ele>
    <time>2018-12-27T12:08:47Z</time>
   </trkpt>
   <trkpt lat="42.1774030" lon="2.8337060">
    <ele>93.7</ele>
    <time>2018-12-27T12:08:50Z</time>
   </trkpt>
   <trkpt lat="42.1772960" lon="2.8335060">
    <ele>93.9</ele>
    <time>2018-12-27T12:08:53Z</time>
   </trkpt>
   <trkpt lat="42.1772380" lon="2.8332480">
    <ele>94.1</ele>
    <time>2018-12-27T12:08:56Z</time>
   </trkpt>
   <trkpt lat="42.1772130" lon="2.8329900">
    <ele>94.2</ele>
    <time>2018-12-27T12:08:59Z</time>
   </trkpt>
   <trkpt lat="42.1771480" lon="2.8327030">
    <ele>94.2</ele>
    <time>2018-12-27T12:09:03Z</time>
   </trkpt>
   <trkpt lat="42.1770960" lon="2.8324410">
    <ele>94.3</ele>
    <time>2018-12-27T12:09:06Z</time>
   </trkpt>
   <trkpt lat="42.1770330" lon="2.8321750">
    <ele>94.4</ele>
    <time>2018-12-27T12:09:09Z</time>
   </trkpt>
   <trkpt lat="42.1769560" lon="2.8318880">
    <ele>94.3</ele>
    <time>2018-12-27T12:09:13Z</time>
   </trkpt>
   <trkpt lat="42.1768730" lon="2.8316180">
    <ele>94.3</ele>
    <time>2018-12-27T12:09:16Z</time>
   </trkpt>
   <trkpt lat="42.1767760" lon="2.8313450">
    <ele>94.2</ele>
    <time>2018-12-27T12:09:20Z</time>
   </trkpt>
   <trkpt lat="42.1767060" lon="2.8311050">
    <ele>94.2</ele>
    <time>2018-12-27T12:09:23Z</time>
   </trkpt>
   <trkpt lat="42.1766130" lon="2.8308550">
    <ele>94.1</ele>
    <time>2018-12-27T12:09:26Z</time>
   </trkpt>
   <trkpt lat="42.1763910" lon="2.8303880">
    <ele>94.3</ele>
    <time>2018-12-27T12:09:33Z</time>
   </trkpt>
   <trkpt lat="42.1762480" lon="2.8301710">
    <ele>94.5</ele>
    <time>2018-12-27T12:09:36Z</time>
   </trkpt>
   <trkpt lat="42.1760910" lon="2.8299360">
    <ele>94.6</ele>
    <time>2018-12-27T12:09:40Z</time>
   </trkpt>
   <trkpt lat="42.1759680" lon="2.8296880">
    <ele>94.6</ele>
    <time>2018-12-27T12:09:44Z</time>
   </trkpt>
   <trkpt lat="42.1759500" lon="2.8295080">
    <ele>94.6</ele>
    <time>2018-12-27T12:09:46Z</time>
   </trkpt>
   <trkpt lat="42.1759130" lon="2.8293930">
    <ele>94.6</ele>
    <time>2018-12-27T12:09:47Z</time>
   </trkpt>
   <trkpt lat="42.1758630" lon="2.8292550">
    <ele>94.7</ele>
    <time>2018-12-27T12:09:49Z</time>
   </trkpt>
   <trkpt lat="42.1757760" lon="2.8290460">
    <ele>94.7</ele>
    <time>2018-12-27T12:09:52Z</time>
   </trkpt>
   <trkpt lat="42.1756730" lon="2.8288250">
    <ele>94.8</ele>
    <time>2018-12-27T12:09:55Z</time>
   </trkpt>
   <trkpt lat="42.1755850" lon="2.8285850">
    <ele>94.8</ele>
    <time>2018-12-27T12:09:58Z</time>
   </trkpt>
   <trkpt lat="42.1754900" lon="2.8283200">
    <ele>94.9</ele>
    <time>2018-12-27T12:10:02Z</time>
   </trkpt>
   <trkpt lat="42.1753550" lon="2.8280700">
    <ele>94.9</ele>
    <time>2018-12-27T12:10:05Z</time>
   </trkpt>
   <trkpt lat="42.1752580" lon="2.8278100">
    <ele>94.9</ele>
    <time>2018-12-27T12:10:09Z</time>
   </trkpt>
   <trkpt lat="42.1752050" lon="2.8275300">
    <ele>94.8</ele>
    <time>2018-12-27T12:10:12Z</time>
   </trkpt>
   <trkpt lat="42.1751310" lon="2.8272380">
    <ele>94.9</ele>
    <time>2018-12-27T12:10:16Z</time>
   </trkpt>
   <trkpt lat="42.1750500" lon="2.8270350">
    <ele>94.9</ele>
    <time>2018-12-27T12:10:19Z</time>
   </trkpt>
   <trkpt lat="42.1750100" lon="2.8268550">
    <ele>94.9</ele>
    <time>2018-12-27T12:10:21Z</time>
   </trkpt>
   <trkpt lat="42.1749780" lon="2.8266630">
    <ele>95.0</ele>
    <time>2018-12-27T12:10:23Z</time>
   </trkpt>
   <trkpt lat="42.1749930" lon="2.8264550">
    <ele>95.0</ele>
    <time>2018-12-27T12:10:26Z</time>
   </trkpt>
   <trkpt lat="42.1749960" lon="2.8262160">
    <ele>95.0</ele>
    <time>2018-12-27T12:10:29Z</time>
   </trkpt>
   <trkpt lat="42.1749650" lon="2.8259910">
    <ele>94.8</ele>
    <time>2018-12-27T12:10:31Z</time>
   </trkpt>
   <trkpt lat="42.1749430" lon="2.8257310">
    <ele>94.5</ele>
    <time>2018-12-27T12:10:34Z</time>
   </trkpt>
   <trkpt lat="42.1748650" lon="2.8254730">
    <ele>94.1</ele>
    <time>2018-12-27T12:10:38Z</time>
   </trkpt>
   <trkpt lat="42.1748260" lon="2.8251710">
    <ele>93.6</ele>
    <time>2018-12-27T12:10:41Z</time>
   </trkpt>
   <trkpt lat="42.1747750" lon="2.8248780">
    <ele>93.1</ele>
    <time>2018-12-27T12:10:45Z</time>
   </trkpt>
   <trkpt lat="42.1747530" lon="2.8245760">
    <ele>92.5</ele>
    <time>2018-12-27T12:10:49Z</time>
   </trkpt>
   <trkpt lat="42.1747330" lon="2.8242980">
    <ele>91.9</ele>
    <time>2018-12-27T12:10:52Z</time>
   </trkpt>
   <trkpt lat="42.1747310" lon="2.8240910">
    <ele>91.6</ele>
    <time>2018-12-27T12:10:54Z</time>
   </trkpt>
   <trkpt lat="42.1747400" lon="2.8239800">
    <ele>91.7</ele>
    <time>2018-12-27T12:10:56Z</time>
   </trkpt>
   <trkpt lat="42.1747510" lon="2.8239100">
    <ele>91.7</ele>
    <time>2018-12-27T12:10:56Z</time>
   </trkpt>
   <trkpt lat="42.1747400" lon="2.8239430">
    <ele>91.7</ele>
    <time>2018-12-27T12:10:57Z</time>
   </trkpt>
   <trkpt lat="42.1746930" lon="2.8239980">
    <ele>91.7</ele>
    <time>2018-12-27T12:10:58Z</time>
   </trkpt>
   <trkpt lat="42.1745930" lon="2.8238230">
    <ele>91.7</ele>
    <time>2018-12-27T12:11:01Z</time>
   </trkpt>
   <trkpt lat="42.1743900" lon="2.8237360">
    <ele>91.6</ele>
    <time>2018-12-27T12:11:04Z</time>
   </trkpt>
   <trkpt lat="42.1742560" lon="2.8237050">
    <ele>91.5</ele>
    <time>2018-12-27T12:11:06Z</time>
   </trkpt>
   <trkpt lat="42.1741330" lon="2.8237480">
    <ele>91.6</ele>
    <time>2018-12-27T12:11:08Z</time>
   </trkpt>
   <trkpt lat="42.1739880" lon="2.8237630">
    <ele>91.8</ele>
    <time>2018-12-27T12:11:10Z</time>
   </trkpt>
   <trkpt lat="42.1739400" lon="2.8237560">
    <ele>91.9</ele>
    <time>2018-12-27T12:11:11Z</time>
   </trkpt>
   <trkpt lat="42.1738880" lon="2.8237800">
    <ele>92.6</ele>
    <time>2018-12-27T12:11:12Z</time>
   </trkpt>
   <trkpt lat="42.1738700" lon="2.8239100">
    <ele>93.5</ele>
    <time>2018-12-27T12:11:14Z</time>
   </trkpt>
   <trkpt lat="42.1738350" lon="2.8239930">
    <ele>94.0</ele>
    <time>2018-12-27T12:11:15Z</time>
   </trkpt>
   <trkpt lat="42.1737200" lon="2.8241230">
    <ele>94.8</ele>
    <time>2018-12-27T12:11:17Z</time>
   </trkpt>
   <trkpt lat="42.1736810" lon="2.8242400">
    <ele>95.2</ele>
    <time>2018-12-27T12:11:19Z</time>
   </trkpt>
   <trkpt lat="42.1736350" lon="2.8243380">
    <ele>95.4</ele>
    <time>2018-12-27T12:11:20Z</time>
   </trkpt>
   <trkpt lat="42.1735850" lon="2.8244750">
    <ele>95.5</ele>
    <time>2018-12-27T12:11:22Z</time>
   </trkpt>
   <trkpt lat="42.1735860" lon="2.8245960">
    <ele>95.6</ele>
    <time>2018-12-27T12:11:23Z</time>
   </trkpt>
   <trkpt lat="42.1735730" lon="2.8247160">
    <ele>95.7</ele>
    <time>2018-12-27T12:11:25Z</time>
   </trkpt>
   <trkpt lat="42.1735430" lon="2.8248610">
    <ele>95.7</ele>
    <time>2018-12-27T12:11:27Z</time>
   </trkpt>
   <trkpt lat="42.1734730" lon="2.8249850">
    <ele>95.8</ele>
    <time>2018-12-27T12:11:28Z</time>
   </trkpt>
   <trkpt lat="42.1733980" lon="2.8251160">
    <ele>95.8</ele>
    <time>2018-12-27T12:11:30Z</time>
   </trkpt>
   <trkpt lat="42.1732830" lon="2.8252430">
    <ele>95.9</ele>
    <time>2018-12-27T12:11:33Z</time>
   </trkpt>
   <trkpt lat="42.1731700" lon="2.8252780">
    <ele>96.0</ele>
    <time>2018-12-27T12:11:35Z</time>
   </trkpt>
   <trkpt lat="42.1731380" lon="2.8252900">
    <ele>96.0</ele>
    <time>2018-12-27T12:11:35Z</time>
   </trkpt>
   <trkpt lat="42.1731260" lon="2.8254210">
    <ele>96.0</ele>
    <time>2018-12-27T12:11:37Z</time>
   </trkpt>
   <trkpt lat="42.1731230" lon="2.8255800">
    <ele>96.2</ele>
    <time>2018-12-27T12:11:39Z</time>
   </trkpt>
   <trkpt lat="42.1731150" lon="2.8257560">
    <ele>96.3</ele>
    <time>2018-12-27T12:11:41Z</time>
   </trkpt>
   <trkpt lat="42.1730960" lon="2.8259660">
    <ele>96.4</ele>
    <time>2018-12-27T12:11:43Z</time>
   </trkpt>
   <trkpt lat="42.1730710" lon="2.8261910">
    <ele>96.4</ele>
    <time>2018-12-27T12:11:46Z</time>
   </trkpt>
   <trkpt lat="42.1730450" lon="2.8264380">
    <ele>96.4</ele>
    <time>2018-12-27T12:11:49Z</time>
   </trkpt>
   <trkpt lat="42.1730150" lon="2.8266830">
    <ele>96.4</ele>
    <time>2018-12-27T12:11:52Z</time>
   </trkpt>
   <trkpt lat="42.1729880" lon="2.8269250">
    <ele>96.3</ele>
    <time>2018-12-27T12:11:55Z</time>
   </trkpt>
   <trkpt lat="42.1729730" lon="2.8271780">
    <ele>96.3</ele>
    <time>2018-12-27T12:11:58Z</time>
   </trkpt>
   <trkpt lat="42.1729550" lon="2.8274350">
    <ele>96.4</ele>
    <time>2018-12-27T12:12:01Z</time>
   </trkpt>
   <trkpt lat="42.1729300" lon="2.8276960">
    <ele>96.5</ele>
    <time>2018-12-27T12:12:04Z</time>
   </trkpt>
   <trkpt lat="42.1729050" lon="2.8279650">
    <ele>96.6</ele>
    <time>2018-12-27T12:12:07Z</time>
   </trkpt>
   <trkpt lat="42.1728950" lon="2.8282130">
    <ele>96.6</ele>
    <time>2018-12-27T12:12:10Z</time>
   </trkpt>
   <trkpt lat="42.1728760" lon="2.8285100">
    <ele>96.5</ele>
    <time>2018-12-27T12:12:14Z</time>
   </trkpt>
   <trkpt lat="42.1728760" lon="2.8287630">
    <ele>96.4</ele>
    <time>2018-12-27T12:12:17Z</time>
   </trkpt>
   <trkpt lat="42.1728730" lon="2.8290230">
    <ele>96.3</ele>
    <time>2018-12-27T12:12:20Z</time>
   </trkpt>
   <trkpt lat="42.1728530" lon="2.8293030">
    <ele>96.3</ele>
    <time>2018-12-27T12:12:23Z</time>
   </trkpt>
   <trkpt lat="42.1728460" lon="2.8295510">
    <ele>96.3</ele>
    <time>2018-12-27T12:12:26Z</time>
   </trkpt>
   <trkpt lat="42.1728210" lon="2.8298300">
    <ele>96.2</ele>
    <time>2018-12-27T12:12:29Z</time>
   </trkpt>
   <trkpt lat="42.1727980" lon="2.8301450">
    <ele>96.2</ele>
    <time>2018-12-27T12:12:33Z</time>
   </trkpt>
   <trkpt lat="42.1727650" lon="2.8304380">
    <ele>96.4</ele>
    <time>2018-12-27T12:12:37Z</time>
   </trkpt>
   <trkpt lat="42.1727580" lon="2.8307050">
    <ele>96.8</ele>
    <time>2018-12-27T12:12:40Z</time>
   </trkpt>
   <trkpt lat="42.1727460" lon="2.8309560">
    <ele>97.5</ele>
    <time>2018-12-27T12:12:43Z</time>
   </trkpt>
   <trkpt lat="42.1727380" lon="2.8312350">
    <ele>98.3</ele>
    <time>2018-12-27T12:12:46Z</time>
   </trkpt>
   <trkpt lat="42.1727210" lon="2.8315210">
    <ele>99.1</ele>
    <time>2018-12-27T12:12:49Z</time>
   </trkpt>
   <trkpt lat="42.1726930" lon="2.8318130">
    <ele>100.0</ele>
    <time>2018-12-27T12:12:53Z</time>
   </trkpt>
   <trkpt lat="42.1726630" lon="2.8321050">
    <ele>100.9</ele>
    <time>2018-12-27T12:12:56Z</time>
   </trkpt>
   <trkpt lat="42.1726460" lon="2.8323650">
    <ele>101.6</ele>
    <time>2018-12-27T12:13:00Z</time>
   </trkpt>
   <trkpt lat="42.1726250" lon="2.8325880">
    <ele>102.2</ele>
    <time>2018-12-27T12:13:02Z</time>
   </trkpt>
   <trkpt lat="42.1725980" lon="2.8327900">
    <ele>102.7</ele>
    <time>2018-12-27T12:13:05Z</time>
   </trkpt>
   <trkpt lat="42.1726000" lon="2.8330060">
    <ele>103.3</ele>
    <time>2018-12-27T12:13:07Z</time>
   </trkpt>
   <trkpt lat="42.1725900" lon="2.8331900">
    <ele>103.9</ele>
    <time>2018-12-27T12:13:09Z</time>
   </trkpt>
   <trkpt lat="42.1726050" lon="2.8333480">
    <ele>104.4</ele>
    <time>2018-12-27T12:13:11Z</time>
   </trkpt>
   <trkpt lat="42.1725900" lon="2.8335280">
    <ele>106.6</ele>
    <time>2018-12-27T12:13:13Z</time>
   </trkpt>
   <trkpt lat="42.1724650" lon="2.8336410">
    <ele>109.2</ele>
    <time>2018-12-27T12:13:16Z</time>
   </trkpt>
   <trkpt lat="42.1723610" lon="2.8337430">
    <ele>111.1</ele>
    <time>2018-12-27T12:13:18Z</time>
   </trkpt>
   <trkpt lat="42.1723150" lon="2.8338530">
    <ele>112.2</ele>
    <time>2018-12-27T12:13:19Z</time>
   </trkpt>
   <trkpt lat="42.1722130" lon="2.8339380">
    <ele>113.5</ele>
    <time>2018-12-27T12:13:21Z</time>
   </trkpt>
   <trkpt lat="42.1721510" lon="2.8339900">
    <ele>114.2</ele>
    <time>2018-12-27T12:13:23Z</time>
   </trkpt>
   <trkpt lat="42.1720480" lon="2.8340510">
    <ele>115.2</ele>
    <time>2018-12-27T12:13:24Z</time>
   </trkpt>
   <trkpt lat="42.1719200" lon="2.8341510">
    <ele>116.4</ele>
    <time>2018-12-27T12:13:27Z</time>
   </trkpt>
   <trkpt lat="42.1718210" lon="2.8341850">
    <ele>117.0</ele>
    <time>2018-12-27T12:13:28Z</time>
   </trkpt>
   <trkpt lat="42.1717750" lon="2.8342310">
    <ele>117.2</ele>
    <time>2018-12-27T12:13:29Z</time>
   </trkpt>
   <trkpt lat="42.1716980" lon="2.8343660">
    <ele>117.6</ele>
    <time>2018-12-27T12:13:31Z</time>
   </trkpt>
   <trkpt lat="42.1715880" lon="2.8344480">
    <ele>118.1</ele>
    <time>2018-12-27T12:13:33Z</time>
   </trkpt>
   <trkpt lat="42.1714780" lon="2.8344880">
    <ele>118.6</ele>
    <time>2018-12-27T12:13:35Z</time>
   </trkpt>
   <trkpt lat="42.1713780" lon="2.8345450">
    <ele>119.3</ele>
    <time>2018-12-27T12:13:37Z</time>
   </trkpt>
   <trkpt lat="42.1712780" lon="2.8346050">
    <ele>119.9</ele>
    <time>2018-12-27T12:13:39Z</time>
   </trkpt>
   <trkpt lat="42.1712130" lon="2.8347310">
    <ele>120.5</ele>
    <time>2018-12-27T12:13:40Z</time>
   </trkpt>
   <trkpt lat="42.1711000" lon="2.8348680">
    <ele>121.2</ele>
    <time>2018-12-27T12:13:43Z</time>
   </trkpt>
   <trkpt lat="42.1709880" lon="2.8349960">
    <ele>121.8</ele>
    <time>2018-12-27T12:13:45Z</time>
   </trkpt>
   <trkpt lat="42.1708180" lon="2.8350700">
    <ele>122.6</ele>
    <time>2018-12-27T12:13:48Z</time>
   </trkpt>
   <trkpt lat="42.1706730" lon="2.8351250">
    <ele>123.6</ele>
    <time>2018-12-27T12:13:50Z</time>
   </trkpt>
   <trkpt lat="42.1705660" lon="2.8351680">
    <ele>124.5</ele>
    <time>2018-12-27T12:13:52Z</time>
   </trkpt>
   <trkpt lat="42.1704700" lon="2.8352030">
    <ele>125.5</ele>
    <time>2018-12-27T12:13:54Z</time>
   </trkpt>
   <trkpt lat="42.1703360" lon="2.8352280">
    <ele>127.1</ele>
    <time>2018-12-27T12:13:56Z</time>
   </trkpt>
   <trkpt lat="42.1702160" lon="2.8352410">
    <ele>128.7</ele>
    <time>2018-12-27T12:13:58Z</time>
   </trkpt>
   <trkpt lat="42.1700780" lon="2.8352400">
    <ele>130.4</ele>
    <time>2018-12-27T12:14:00Z</time>
   </trkpt>
   <trkpt lat="42.1699650" lon="2.8352680">
    <ele>131.9</ele>
    <time>2018-12-27T12:14:02Z</time>
   </trkpt>
   <trkpt lat="42.1698800" lon="2.8353210">
    <ele>133.0</ele>
    <time>2018-12-27T12:14:03Z</time>
   </trkpt>
   <trkpt lat="42.1697480" lon="2.8353680">
    <ele>134.3</ele>
    <time>2018-12-27T12:14:06Z</time>
   </trkpt>
   <trkpt lat="42.1696710" lon="2.8354230">
    <ele>135.1</ele>
    <time>2018-12-27T12:14:07Z</time>
   </trkpt>
   <trkpt lat="42.1695400" lon="2.8354730">
    <ele>136.3</ele>
    <time>2018-12-27T12:14:09Z</time>
   </trkpt>
   <trkpt lat="42.1694610" lon="2.8355510">
    <ele>137.3</ele>
    <time>2018-12-27T12:14:11Z</time>
   </trkpt>
   <trkpt lat="42.1693430" lon="2.8356110">
    <ele>138.7</ele>
    <time>2018-12-27T12:14:13Z</time>
   </trkpt>
   <trkpt lat="42.1692510" lon="2.8356930">
    <ele>139.9</ele>
    <time>2018-12-27T12:14:15Z</time>
   </trkpt>
   <trkpt lat="42.1691660" lon="2.8357360">
    <ele>140.9</ele>
    <time>2018-12-27T12:14:16Z</time>
   </trkpt>
   <trkpt lat="42.1690910" lon="2.8357710">
    <ele>141.5</ele>
    <time>2018-12-27T12:14:17Z</time>
   </trkpt>
   <trkpt lat="42.1690380" lon="2.8358300">
    <ele>142.0</ele>
    <time>2018-12-27T12:14:18Z</time>
   </trkpt>
   <trkpt lat="42.1689250" lon="2.8358760">
    <ele>142.9</ele>
    <time>2018-12-27T12:14:20Z</time>
   </trkpt>
   <trkpt lat="42.1688700" lon="2.8359310">
    <ele>143.6</ele>
    <time>2018-12-27T12:14:21Z</time>
   </trkpt>
   <trkpt lat="42.1687860" lon="2.8359130">
    <ele>144.4</ele>
    <time>2018-12-27T12:14:23Z</time>
   </trkpt>
   <trkpt lat="42.1686580" lon="2.8359380">
    <ele>145.3</ele>
    <time>2018-12-27T12:14:25Z</time>
   </trkpt>
   <trkpt lat="42.1685460" lon="2.8359480">
    <ele>146.1</ele>
    <time>2018-12-27T12:14:27Z</time>
   </trkpt>
   <trkpt lat="42.1684660" lon="2.8359530">
    <ele>146.9</ele>
    <time>2018-12-27T12:14:28Z</time>
   </trkpt>
   <trkpt lat="42.1683480" lon="2.8359810">
    <ele>147.9</ele>
    <time>2018-12-27T12:14:30Z</time>
   </trkpt>
   <trkpt lat="42.1682750" lon="2.8359810">
    <ele>148.3</ele>
    <time>2018-12-27T12:14:31Z</time>
   </trkpt>
   <trkpt lat="42.1681700" lon="2.8360100">
    <ele>148.9</ele>
    <time>2018-12-27T12:14:33Z</time>
   </trkpt>
   <trkpt lat="42.1680600" lon="2.8360400">
    <ele>149.7</ele>
    <time>2018-12-27T12:14:35Z</time>
   </trkpt>
   <trkpt lat="42.1679480" lon="2.8360880">
    <ele>150.3</ele>
    <time>2018-12-27T12:14:36Z</time>
   </trkpt>
   <trkpt lat="42.1678310" lon="2.8361050">
    <ele>150.7</ele>
    <time>2018-12-27T12:14:38Z</time>
   </trkpt>
   <trkpt lat="42.1677080" lon="2.8362160">
    <ele>151.2</ele>
    <time>2018-12-27T12:14:41Z</time>
   </trkpt>
   <trkpt lat="42.1676030" lon="2.8362310">
    <ele>151.4</ele>
    <time>2018-12-27T12:14:42Z</time>
   </trkpt>
   <trkpt lat="42.1675180" lon="2.8362730">
    <ele>151.6</ele>
    <time>2018-12-27T12:14:44Z</time>
   </trkpt>
   <trkpt lat="42.1673980" lon="2.8362860">
    <ele>151.9</ele>
    <time>2018-12-27T12:14:46Z</time>
   </trkpt>
   <trkpt lat="42.1673060" lon="2.8363230">
    <ele>152.0</ele>
    <time>2018-12-27T12:14:47Z</time>
   </trkpt>
   <trkpt lat="42.1672050" lon="2.8363000">
    <ele>152.0</ele>
    <time>2018-12-27T12:14:49Z</time>
   </trkpt>
   <trkpt lat="42.1671010" lon="2.8362750">
    <ele>152.0</ele>
    <time>2018-12-27T12:14:51Z</time>
   </trkpt>
   <trkpt lat="42.1669760" lon="2.8362450">
    <ele>151.9</ele>
    <time>2018-12-27T12:14:53Z</time>
   </trkpt>
   <trkpt lat="42.1668330" lon="2.8362360">
    <ele>151.7</ele>
    <time>2018-12-27T12:14:55Z</time>
   </trkpt>
   <trkpt lat="42.1666550" lon="2.8362460">
    <ele>151.2</ele>
    <time>2018-12-27T12:14:58Z</time>
   </trkpt>
   <trkpt lat="42.1664850" lon="2.8362360">
    <ele>150.4</ele>
    <time>2018-12-27T12:15:00Z</time>
   </trkpt>
   <trkpt lat="42.1662960" lon="2.8362350">
    <ele>148.8</ele>
    <time>2018-12-27T12:15:04Z</time>
   </trkpt>
   <trkpt lat="42.1660860" lon="2.8362760">
    <ele>146.6</ele>
    <time>2018-12-27T12:15:07Z</time>
   </trkpt>
   <trkpt lat="42.1658650" lon="2.8363300">
    <ele>145.8</ele>
    <time>2018-12-27T12:15:11Z</time>
   </trkpt>
   <trkpt lat="42.1655480" lon="2.8363100">
    <ele>146.9</ele>
    <time>2018-12-27T12:15:16Z</time>
   </trkpt>
   <trkpt lat="42.1652330" lon="2.8361830">
    <ele>147.9</ele>
    <time>2018-12-27T12:15:21Z</time>
   </trkpt>
   <trkpt lat="42.1650400" lon="2.8359550">
    <ele>147.8</ele>
    <time>2018-12-27T12:15:25Z</time>
   </trkpt>
   <trkpt lat="42.1648950" lon="2.8358400">
    <ele>147.6</ele>
    <time>2018-12-27T12:15:28Z</time>
   </trkpt>
   <trkpt lat="42.1647630" lon="2.8357830">
    <ele>147.3</ele>
    <time>2018-12-27T12:15:30Z</time>
   </trkpt>
   <trkpt lat="42.1646200" lon="2.8357150">
    <ele>146.8</ele>
    <time>2018-12-27T12:15:32Z</time>
   </trkpt>
   <trkpt lat="42.1644910" lon="2.8356680">
    <ele>146.5</ele>
    <time>2018-12-27T12:15:34Z</time>
   </trkpt>
   <trkpt lat="42.1643300" lon="2.8356660">
    <ele>146.4</ele>
    <time>2018-12-27T12:15:37Z</time>
   </trkpt>
   <trkpt lat="42.1641450" lon="2.8357180">
    <ele>146.4</ele>
    <time>2018-12-27T12:15:40Z</time>
   </trkpt>
   <trkpt lat="42.1639500" lon="2.8358980">
    <ele>146.4</ele>
    <time>2018-12-27T12:15:44Z</time>
   </trkpt>
   <trkpt lat="42.1637580" lon="2.8361610">
    <ele>146.3</ele>
    <time>2018-12-27T12:15:48Z</time>
   </trkpt>
   <trkpt lat="42.1635860" lon="2.8361730">
    <ele>146.2</ele>
    <time>2018-12-27T12:15:51Z</time>
   </trkpt>
   <trkpt lat="42.1634700" lon="2.8362480">
    <ele>146.1</ele>
    <time>2018-12-27T12:15:53Z</time>
   </trkpt>
   <trkpt lat="42.1633300" lon="2.8364710">
    <ele>146.0</ele>
    <time>2018-12-27T12:15:56Z</time>
   </trkpt>
   <trkpt lat="42.1631900" lon="2.8366710">
    <ele>146.0</ele>
    <time>2018-12-27T12:16:00Z</time>
   </trkpt>
   <trkpt lat="42.1631180" lon="2.8368560">
    <ele>146.0</ele>
    <time>2018-12-27T12:16:02Z</time>
   </trkpt>
   <trkpt lat="42.1629850" lon="2.8370630">
    <ele>146.1</ele>
    <time>2018-12-27T12:16:05Z</time>
   </trkpt>
   <trkpt lat="42.1628050" lon="2.8371680">
    <ele>146.7</ele>
    <time>2018-12-27T12:16:09Z</time>
   </trkpt>
   <trkpt lat="42.1626000" lon="2.8373060">
    <ele>148.1</ele>
    <time>2018-12-27T12:16:12Z</time>
   </trkpt>
   <trkpt lat="42.1624100" lon="2.8373960">
    <ele>149.7</ele>
    <time>2018-12-27T12:16:16Z</time>
   </trkpt>
   <trkpt lat="42.1622200" lon="2.8375330">
    <ele>150.9</ele>
    <time>2018-12-27T12:16:19Z</time>
   </trkpt>
   <trkpt lat="42.1620510" lon="2.8376380">
    <ele>151.5</ele>
    <time>2018-12-27T12:16:22Z</time>
   </trkpt>
   <trkpt lat="42.1619300" lon="2.8377050">
    <ele>151.8</ele>
    <time>2018-12-27T12:16:24Z</time>
   </trkpt>
   <trkpt lat="42.1617850" lon="2.8377710">
    <ele>152.1</ele>
    <time>2018-12-27T12:16:26Z</time>
   </trkpt>
   <trkpt lat="42.1616130" lon="2.8378360">
    <ele>152.1</ele>
    <time>2018-12-27T12:16:29Z</time>
   </trkpt>
   <trkpt lat="42.1614700" lon="2.8379300">
    <ele>152.0</ele>
    <time>2018-12-27T12:16:32Z</time>
   </trkpt>
   <trkpt lat="42.1613480" lon="2.8380180">
    <ele>151.6</ele>
    <time>2018-12-27T12:16:34Z</time>
   </trkpt>
   <trkpt lat="42.1612100" lon="2.8380910">
    <ele>150.9</ele>
    <time>2018-12-27T12:16:36Z</time>
   </trkpt>
   <trkpt lat="42.1610850" lon="2.8381380">
    <ele>150.0</ele>
    <time>2018-12-27T12:16:39Z</time>
   </trkpt>
   <trkpt lat="42.1609110" lon="2.8382130">
    <ele>148.4</ele>
    <time>2018-12-27T12:16:41Z</time>
   </trkpt>
   <trkpt lat="42.1607330" lon="2.8383060">
    <ele>146.3</ele>
    <time>2018-12-27T12:16:45Z</time>
   </trkpt>
   <trkpt lat="42.1604600" lon="2.8384360">
    <ele>143.9</ele>
    <time>2018-12-27T12:16:49Z</time>
   </trkpt>
   <trkpt lat="42.1601480" lon="2.8384400">
    <ele>142.1</ele>
    <time>2018-12-27T12:16:54Z</time>
   </trkpt>
   <trkpt lat="42.1597610" lon="2.8383260">
    <ele>140.3</ele>
    <time>2018-12-27T12:17:01Z</time>
   </trkpt>
   <trkpt lat="42.1594030" lon="2.8382710">
    <ele>139.2</ele>
    <time>2018-12-27T12:17:06Z</time>
   </trkpt>
   <trkpt lat="42.1590500" lon="2.8381150">
    <ele>138.1</ele>
    <time>2018-12-27T12:17:12Z</time>
   </trkpt>
   <trkpt lat="42.1586950" lon="2.8378630">
    <ele>137.3</ele>
    <time>2018-12-27T12:17:19Z</time>
   </trkpt>
   <trkpt lat="42.1584030" lon="2.8376500">
    <ele>137.9</ele>
    <time>2018-12-27T12:17:24Z</time>
   </trkpt>
   <trkpt lat="42.1581030" lon="2.8375610">
    <ele>138.3</ele>
    <time>2018-12-27T12:17:29Z</time>
   </trkpt>
   <trkpt lat="42.1578750" lon="2.8374630">
    <ele>137.7</ele>
    <time>2018-12-27T12:17:33Z</time>
   </trkpt>
   <trkpt lat="42.1576030" lon="2.8373700">
    <ele>136.1</ele>
    <time>2018-12-27T12:17:37Z</time>
   </trkpt>
   <trkpt lat="42.1573030" lon="2.8373210">
    <ele>133.6</ele>
    <time>2018-12-27T12:17:42Z</time>
   </trkpt>
   <trkpt lat="42.1569600" lon="2.8373310">
    <ele>130.5</ele>
    <time>2018-12-27T12:17:48Z</time>
   </trkpt>
   <trkpt lat="42.1566630" lon="2.8372400">
    <ele>128.6</ele>
    <time>2018-12-27T12:17:52Z</time>
   </trkpt>
   <trkpt lat="42.1564950" lon="2.8369880">
    <ele>128.5</ele>
    <time>2018-12-27T12:17:56Z</time>
   </trkpt>
   <trkpt lat="42.1564930" lon="2.8366610">
    <ele>128.5</ele>
    <time>2018-12-27T12:18:00Z</time>
   </trkpt>
   <trkpt lat="42.1564030" lon="2.8363830">
    <ele>127.5</ele>
    <time>2018-12-27T12:18:04Z</time>
   </trkpt>
   <trkpt lat="42.1564280" lon="2.8360830">
    <ele>125.5</ele>
    <time>2018-12-27T12:18:07Z</time>
   </trkpt>
   <trkpt lat="42.1565530" lon="2.8357410">
    <ele>122.6</ele>
    <time>2018-12-27T12:18:12Z</time>
   </trkpt>
   <trkpt lat="42.1567010" lon="2.8354980">
    <ele>121.9</ele>
    <time>2018-12-27T12:18:16Z</time>
   </trkpt>
   <trkpt lat="42.1566230" lon="2.8354150">
    <ele>122.6</ele>
    <time>2018-12-27T12:18:17Z</time>
   </trkpt>
   <trkpt lat="42.1566530" lon="2.8354110">
    <ele>122.8</ele>
    <time>2018-12-27T12:18:18Z</time>
   </trkpt>
   <trkpt lat="42.1565100" lon="2.8354630">
    <ele>123.8</ele>
    <time>2018-12-27T12:18:20Z</time>
   </trkpt>
   <trkpt lat="42.1564560" lon="2.8354730">
    <ele>124.1</ele>
    <time>2018-12-27T12:18:21Z</time>
   </trkpt>
   <trkpt lat="42.1563710" lon="2.8354380">
    <ele>124.7</ele>
    <time>2018-12-27T12:18:22Z</time>
   </trkpt>
   <trkpt lat="42.1562780" lon="2.8353730">
    <ele>125.5</ele>
    <time>2018-12-27T12:18:24Z</time>
   </trkpt>
   <trkpt lat="42.1562080" lon="2.8353360">
    <ele>126.2</ele>
    <time>2018-12-27T12:18:25Z</time>
   </trkpt>
   <trkpt lat="42.1561500" lon="2.8352830">
    <ele>126.9</ele>
    <time>2018-12-27T12:18:26Z</time>
   </trkpt>
   <trkpt lat="42.1560910" lon="2.8352450">
    <ele>127.6</ele>
    <time>2018-12-27T12:18:28Z</time>
   </trkpt>
   <trkpt lat="42.1560210" lon="2.8351850">
    <ele>128.5</ele>
    <time>2018-12-27T12:18:29Z</time>
   </trkpt>
   <trkpt lat="42.1559410" lon="2.8351630">
    <ele>129.5</ele>
    <time>2018-12-27T12:18:30Z</time>
   </trkpt>
   <trkpt lat="42.1558510" lon="2.8351150">
    <ele>130.6</ele>
    <time>2018-12-27T12:18:32Z</time>
   </trkpt>
   <trkpt lat="42.1557910" lon="2.8349960">
    <ele>131.8</ele>
    <time>2018-12-27T12:18:33Z</time>
   </trkpt>
   <trkpt lat="42.1556610" lon="2.8347910">
    <ele>134.1</ele>
    <time>2018-12-27T12:18:37Z</time>
   </trkpt>
   <trkpt lat="42.1555900" lon="2.8347650">
    <ele>134.9</ele>
    <time>2018-12-27T12:18:38Z</time>
   </trkpt>
   <trkpt lat="42.1555180" lon="2.8347160">
    <ele>135.6</ele>
    <time>2018-12-27T12:18:39Z</time>
   </trkpt>
   <trkpt lat="42.1554330" lon="2.8346650">
    <ele>136.5</ele>
    <time>2018-12-27T12:18:41Z</time>
   </trkpt>
   <trkpt lat="42.1553530" lon="2.8346260">
    <ele>137.2</ele>
    <time>2018-12-27T12:18:42Z</time>
   </trkpt>
   <trkpt lat="42.1552600" lon="2.8345700">
    <ele>138.0</ele>
    <time>2018-12-27T12:18:44Z</time>
   </trkpt>
   <trkpt lat="42.1551550" lon="2.8345000">
    <ele>139.1</ele>
    <time>2018-12-27T12:18:45Z</time>
   </trkpt>
   <trkpt lat="42.1550510" lon="2.8344260">
    <ele>140.2</ele>
    <time>2018-12-27T12:18:47Z</time>
   </trkpt>
   <trkpt lat="42.1549910" lon="2.8343660">
    <ele>141.0</ele>
    <time>2018-12-27T12:18:49Z</time>
   </trkpt>
   <trkpt lat="42.1548600" lon="2.8342780">
    <ele>142.6</ele>
    <time>2018-12-27T12:18:51Z</time>
   </trkpt>
   <trkpt lat="42.1547510" lon="2.8342330">
    <ele>143.9</ele>
    <time>2018-12-27T12:18:53Z</time>
   </trkpt>
   <trkpt lat="42.1547260" lon="2.8341160">
    <ele>145.0</ele>
    <time>2018-12-27T12:18:54Z</time>
   </trkpt>
   <trkpt lat="42.1546810" lon="2.8340700">
    <ele>145.8</ele>
    <time>2018-12-27T12:18:55Z</time>
   </trkpt>
   <trkpt lat="42.1546200" lon="2.8339660">
    <ele>147.1</ele>
    <time>2018-12-27T12:18:57Z</time>
   </trkpt>
   <trkpt lat="42.1546060" lon="2.8338430">
    <ele>148.3</ele>
    <time>2018-12-27T12:18:58Z</time>
   </trkpt>
   <trkpt lat="42.1545810" lon="2.8337180">
    <ele>149.6</ele>
    <time>2018-12-27T12:19:00Z</time>
   </trkpt>
   <trkpt lat="42.1545050" lon="2.8336160">
    <ele>151.0</ele>
    <time>2018-12-27T12:19:01Z</time>
   </trkpt>
   <trkpt lat="42.1544710" lon="2.8335210">
    <ele>152.0</ele>
    <time>2018-12-27T12:19:03Z</time>
   </trkpt>
   <trkpt lat="42.1543930" lon="2.8334060">
    <ele>153.2</ele>
    <time>2018-12-27T12:19:04Z</time>
   </trkpt>
   <trkpt lat="42.1543230" lon="2.8333060">
    <ele>154.1</ele>
    <time>2018-12-27T12:19:06Z</time>
   </trkpt>
   <trkpt lat="42.1542780" lon="2.8332200">
    <ele>154.8</ele>
    <time>2018-12-27T12:19:07Z</time>
   </trkpt>
   <trkpt lat="42.1541480" lon="2.8331810">
    <ele>155.5</ele>
    <time>2018-12-27T12:19:09Z</time>
   </trkpt>
   <trkpt lat="42.1540660" lon="2.8331110">
    <ele>156.0</ele>
    <time>2018-12-27T12:19:11Z</time>
   </trkpt>
   <trkpt lat="42.1539500" lon="2.8330680">
    <ele>156.5</ele>
    <time>2018-12-27T12:19:13Z</time>
   </trkpt>
   <trkpt lat="42.1538400" lon="2.8330360">
    <ele>156.8</ele>
    <time>2018-12-27T12:19:15Z</time>
   </trkpt>
   <trkpt lat="42.1537150" lon="2.8329900">
    <ele>156.9</ele>
    <time>2018-12-27T12:19:17Z</time>
   </trkpt>
   <trkpt lat="42.1536060" lon="2.8329530">
    <ele>156.7</ele>
    <time>2018-12-27T12:19:19Z</time>
   </trkpt>
   <trkpt lat="42.1535550" lon="2.8329380">
    <ele>156.6</ele>
    <time>2018-12-27T12:19:19Z</time>
   </trkpt>
   <trkpt lat="42.1535010" lon="2.8329410">
    <ele>156.5</ele>
    <time>2018-12-27T12:19:20Z</time>
   </trkpt>
   <trkpt lat="42.1534660" lon="2.8327930">
    <ele>156.6</ele>
    <time>2018-12-27T12:19:22Z</time>
   </trkpt>
   <trkpt lat="42.1534280" lon="2.8326410">
    <ele>157.2</ele>
    <time>2018-12-27T12:19:24Z</time>
   </trkpt>
   <trkpt lat="42.1534260" lon="2.8323830">
    <ele>158.1</ele>
    <time>2018-12-27T12:19:27Z</time>
   </trkpt>
   <trkpt lat="42.1534150" lon="2.8321760">
    <ele>158.7</ele>
    <time>2018-12-27T12:19:30Z</time>
   </trkpt>
   <trkpt lat="42.1534000" lon="2.8318080">
    <ele>160.7</ele>
    <time>2018-12-27T12:19:34Z</time>
   </trkpt>
   <trkpt lat="42.1533760" lon="2.8316480">
    <ele>162.0</ele>
    <time>2018-12-27T12:19:36Z</time>
   </trkpt>
   <trkpt lat="42.1533250" lon="2.8314930">
    <ele>163.6</ele>
    <time>2018-12-27T12:19:38Z</time>
   </trkpt>
   <trkpt lat="42.1532730" lon="2.8313210">
    <ele>165.2</ele>
    <time>2018-12-27T12:19:40Z</time>
   </trkpt>
   <trkpt lat="42.1532180" lon="2.8311810">
    <ele>166.5</ele>
    <time>2018-12-27T12:19:42Z</time>
   </trkpt>
   <trkpt lat="42.1531530" lon="2.8310650">
    <ele>167.7</ele>
    <time>2018-12-27T12:19:44Z</time>
   </trkpt>
   <trkpt lat="42.1531100" lon="2.8309000">
    <ele>169.0</ele>
    <time>2018-12-27T12:19:46Z</time>
   </trkpt>
   <trkpt lat="42.1530460" lon="2.8307860">
    <ele>170.0</ele>
    <time>2018-12-27T12:19:47Z</time>
   </trkpt>
   <trkpt lat="42.1530160" lon="2.8306280">
    <ele>171.1</ele>
    <time>2018-12-27T12:19:49Z</time>
   </trkpt>
   <trkpt lat="42.1529950" lon="2.8305010">
    <ele>171.7</ele>
    <time>2018-12-27T12:19:51Z</time>
   </trkpt>
   <trkpt lat="42.1529280" lon="2.8303700">
    <ele>172.5</ele>
    <time>2018-12-27T12:19:53Z</time>
   </trkpt>
   <trkpt lat="42.1528680" lon="2.8302980">
    <ele>173.2</ele>
    <time>2018-12-27T12:19:54Z</time>
   </trkpt>
   <trkpt lat="42.1528280" lon="2.8301960">
    <ele>173.9</ele>
    <time>2018-12-27T12:19:56Z</time>
   </trkpt>
   <trkpt lat="42.1527700" lon="2.8300660">
    <ele>174.6</ele>
    <time>2018-12-27T12:19:57Z</time>
   </trkpt>
   <trkpt lat="42.1527150" lon="2.8299610">
    <ele>175.2</ele>
    <time>2018-12-27T12:19:59Z</time>
   </trkpt>
   <trkpt lat="42.1526580" lon="2.8298480">
    <ele>175.8</ele>
    <time>2018-12-27T12:20:00Z</time>
   </trkpt>
   <trkpt lat="42.1526100" lon="2.8297460">
    <ele>176.3</ele>
    <time>2018-12-27T12:20:02Z</time>
   </trkpt>
   <trkpt lat="42.1525600" lon="2.8296850">
    <ele>176.7</ele>
    <time>2018-12-27T12:20:03Z</time>
   </trkpt>
   <trkpt lat="42.1524760" lon="2.8295980">
    <ele>177.4</ele>
    <time>2018-12-27T12:20:05Z</time>
   </trkpt>
   <trkpt lat="42.1523630" lon="2.8293130">
    <ele>178.7</ele>
    <time>2018-12-27T12:20:09Z</time>
   </trkpt>
   <trkpt lat="42.1522750" lon="2.8292000">
    <ele>179.4</ele>
    <time>2018-12-27T12:20:10Z</time>
   </trkpt>
   <trkpt lat="42.1521500" lon="2.8291750">
    <ele>179.9</ele>
    <time>2018-12-27T12:20:12Z</time>
   </trkpt>
   <trkpt lat="42.1520500" lon="2.8290900">
    <ele>180.2</ele>
    <time>2018-12-27T12:20:14Z</time>
   </trkpt>
   <trkpt lat="42.1519930" lon="2.8290780">
    <ele>180.3</ele>
    <time>2018-12-27T12:20:15Z</time>
   </trkpt>
   <trkpt lat="42.1518610" lon="2.8290280">
    <ele>180.8</ele>
    <time>2018-12-27T12:20:17Z</time>
   </trkpt>
   <trkpt lat="42.1517310" lon="2.8289880">
    <ele>181.0</ele>
    <time>2018-12-27T12:20:20Z</time>
   </trkpt>
   <trkpt lat="42.1516380" lon="2.8289510">
    <ele>181.2</ele>
    <time>2018-12-27T12:20:21Z</time>
   </trkpt>
   <trkpt lat="42.1515180" lon="2.8289300">
    <ele>181.5</ele>
    <time>2018-12-27T12:20:23Z</time>
   </trkpt>
   <trkpt lat="42.1513730" lon="2.8289080">
    <ele>181.8</ele>
    <time>2018-12-27T12:20:25Z</time>
   </trkpt>
   <trkpt lat="42.1512700" lon="2.8288000">
    <ele>182.1</ele>
    <time>2018-12-27T12:20:28Z</time>
   </trkpt>
   <trkpt lat="42.1510410" lon="2.8286880">
    <ele>182.8</ele>
    <time>2018-12-27T12:20:31Z</time>
   </trkpt>
   <trkpt lat="42.1508310" lon="2.8286150">
    <ele>183.9</ele>
    <time>2018-12-27T12:20:35Z</time>
   </trkpt>
   <trkpt lat="42.1505800" lon="2.8286130">
    <ele>185.5</ele>
    <time>2018-12-27T12:20:39Z</time>
   </trkpt>
   <trkpt lat="42.1503780" lon="2.8285950">
    <ele>186.9</ele>
    <time>2018-12-27T12:20:42Z</time>
   </trkpt>
   <trkpt lat="42.1501360" lon="2.8286280">
    <ele>188.7</ele>
    <time>2018-12-27T12:20:46Z</time>
   </trkpt>
   <trkpt lat="42.1499380" lon="2.8286900">
    <ele>190.4</ele>
    <time>2018-12-27T12:20:49Z</time>
   </trkpt>
   <trkpt lat="42.1496400" lon="2.8285830">
    <ele>193.4</ele>
    <time>2018-12-27T12:20:54Z</time>
   </trkpt>
   <trkpt lat="42.1494900" lon="2.8286200">
    <ele>194.7</ele>
    <time>2018-12-27T12:20:57Z</time>
   </trkpt>
   <trkpt lat="42.1493430" lon="2.8286200">
    <ele>195.9</ele>
    <time>2018-12-27T12:20:59Z</time>
   </trkpt>
   <trkpt lat="42.1492000" lon="2.8286030">
    <ele>196.9</ele>
    <time>2018-12-27T12:21:01Z</time>
   </trkpt>
   <trkpt lat="42.1490530" lon="2.8285950">
    <ele>197.8</ele>
    <time>2018-12-27T12:21:04Z</time>
   </trkpt>
   <trkpt lat="42.1489200" lon="2.8285780">
    <ele>198.6</ele>
    <time>2018-12-27T12:21:06Z</time>
   </trkpt>
   <trkpt lat="42.1487930" lon="2.8285380">
    <ele>199.1</ele>
    <time>2018-12-27T12:21:08Z</time>
   </trkpt>
   <trkpt lat="42.1486660" lon="2.8284810">
    <ele>199.6</ele>
    <time>2018-12-27T12:21:10Z</time>
   </trkpt>
   <trkpt lat="42.1485410" lon="2.8284330">
    <ele>200.3</ele>
    <time>2018-12-27T12:21:12Z</time>
   </trkpt>
   <trkpt lat="42.1484210" lon="2.8284100">
    <ele>200.8</ele>
    <time>2018-12-27T12:21:14Z</time>
   </trkpt>
   <trkpt lat="42.1482980" lon="2.8284200">
    <ele>201.1</ele>
    <time>2018-12-27T12:21:16Z</time>
   </trkpt>
   <trkpt lat="42.1481660" lon="2.8284210">
    <ele>201.3</ele>
    <time>2018-12-27T12:21:18Z</time>
   </trkpt>
   <trkpt lat="42.1480350" lon="2.8284130">
    <ele>201.3</ele>
    <time>2018-12-27T12:21:20Z</time>
   </trkpt>
   <trkpt lat="42.1479010" lon="2.8283810">
    <ele>201.2</ele>
    <time>2018-12-27T12:21:22Z</time>
   </trkpt>
   <trkpt lat="42.1477800" lon="2.8283330">
    <ele>201.0</ele>
    <time>2018-12-27T12:21:24Z</time>
   </trkpt>
   <trkpt lat="42.1476510" lon="2.8282760">
    <ele>200.6</ele>
    <time>2018-12-27T12:21:27Z</time>
   </trkpt>
   <trkpt lat="42.1474910" lon="2.8282280">
    <ele>199.6</ele>
    <time>2018-12-27T12:21:29Z</time>
   </trkpt>
   <trkpt lat="42.1472680" lon="2.8283350">
    <ele>198.3</ele>
    <time>2018-12-27T12:21:33Z</time>
   </trkpt>
   <trkpt lat="42.1470400" lon="2.8285160">
    <ele>196.6</ele>
    <time>2018-12-27T12:21:37Z</time>
   </trkpt>
   <trkpt lat="42.1466080" lon="2.8286200">
    <ele>193.6</ele>
    <time>2018-12-27T12:21:44Z</time>
   </trkpt>
   <trkpt lat="42.1463350" lon="2.8285950">
    <ele>191.9</ele>
    <time>2018-12-27T12:21:49Z</time>
   </trkpt>
   <trkpt lat="42.1460300" lon="2.8285700">
    <ele>190.0</ele>
    <time>2018-12-27T12:21:54Z</time>
   </trkpt>
   <trkpt lat="42.1457000" lon="2.8285450">
    <ele>187.6</ele>
    <time>2018-12-27T12:21:59Z</time>
   </trkpt>
   <trkpt lat="42.1453680" lon="2.8285200">
    <ele>184.8</ele>
    <time>2018-12-27T12:22:04Z</time>
   </trkpt>
   <trkpt lat="42.1450850" lon="2.8284510">
    <ele>182.3</ele>
    <time>2018-12-27T12:22:09Z</time>
   </trkpt>
   <trkpt lat="42.1447510" lon="2.8284660">
    <ele>179.3</ele>
    <time>2018-12-27T12:22:14Z</time>
   </trkpt>
   <trkpt lat="42.1443410" lon="2.8284810">
    <ele>175.2</ele>
    <time>2018-12-27T12:22:21Z</time>
   </trkpt>
   <trkpt lat="42.1439460" lon="2.8285100">
    <ele>171.7</ele>
    <time>2018-12-27T12:22:27Z</time>
   </trkpt>
   <trkpt lat="42.1436000" lon="2.8283930">
    <ele>169.5</ele>
    <time>2018-12-27T12:22:33Z</time>
   </trkpt>
   <trkpt lat="42.1433580" lon="2.8281030">
    <ele>167.4</ele>
    <time>2018-12-27T12:22:38Z</time>
   </trkpt>
   <trkpt lat="42.1431730" lon="2.8276930">
    <ele>164.8</ele>
    <time>2018-12-27T12:22:44Z</time>
   </trkpt>
   <trkpt lat="42.1429800" lon="2.8273610">
    <ele>162.7</ele>
    <time>2018-12-27T12:22:49Z</time>
   </trkpt>
   <trkpt lat="42.1427810" lon="2.8270560">
    <ele>160.9</ele>
    <time>2018-12-27T12:22:53Z</time>
   </trkpt>
   <trkpt lat="42.1425300" lon="2.8268000">
    <ele>159.9</ele>
    <time>2018-12-27T12:22:59Z</time>
   </trkpt>
   <trkpt lat="42.1421760" lon="2.8266280">
    <ele>159.4</ele>
    <time>2018-12-27T12:23:05Z</time>
   </trkpt>
   <trkpt lat="42.1418200" lon="2.8267010">
    <ele>158.4</ele>
    <time>2018-12-27T12:23:10Z</time>
   </trkpt>
   <trkpt lat="42.1414850" lon="2.8266860">
    <ele>156.9</ele>
    <time>2018-12-27T12:23:16Z</time>
   </trkpt>
   <trkpt lat="42.1412000" lon="2.8266600">
    <ele>155.8</ele>
    <time>2018-12-27T12:23:20Z</time>
   </trkpt>
   <trkpt lat="42.1411580" lon="2.8268350">
    <ele>156.7</ele>
    <time>2018-12-27T12:23:22Z</time>
   </trkpt>
   <trkpt lat="42.1410960" lon="2.8269400">
    <ele>157.4</ele>
    <time>2018-12-27T12:23:24Z</time>
   </trkpt>
   <trkpt lat="42.1409710" lon="2.8270080">
    <ele>158.3</ele>
    <time>2018-12-27T12:23:26Z</time>
   </trkpt>
   <trkpt lat="42.1408630" lon="2.8270980">
    <ele>159.1</ele>
    <time>2018-12-27T12:23:28Z</time>
   </trkpt>
   <trkpt lat="42.1408000" lon="2.8272430">
    <ele>159.8</ele>
    <time>2018-12-27T12:23:30Z</time>
   </trkpt>
   <trkpt lat="42.1407260" lon="2.8273810">
    <ele>160.3</ele>
    <time>2018-12-27T12:23:32Z</time>
   </trkpt>
   <trkpt lat="42.1406760" lon="2.8274980">
    <ele>160.7</ele>
    <time>2018-12-27T12:23:34Z</time>
   </trkpt>
   <trkpt lat="42.1406350" lon="2.8276400">
    <ele>161.0</ele>
    <time>2018-12-27T12:23:36Z</time>
   </trkpt>
   <trkpt lat="42.1405700" lon="2.8277510">
    <ele>161.3</ele>
    <time>2018-12-27T12:23:37Z</time>
   </trkpt>
   <trkpt lat="42.1404700" lon="2.8278660">
    <ele>161.7</ele>
    <time>2018-12-27T12:23:39Z</time>
   </trkpt>
   <trkpt lat="42.1404460" lon="2.8279780">
    <ele>162.0</ele>
    <time>2018-12-27T12:23:41Z</time>
   </trkpt>
   <trkpt lat="42.1403680" lon="2.8280700">
    <ele>162.2</ele>
    <time>2018-12-27T12:23:42Z</time>
   </trkpt>
   <trkpt lat="42.1403310" lon="2.8282230">
    <ele>162.5</ele>
    <time>2018-12-27T12:23:44Z</time>
   </trkpt>
   <trkpt lat="42.1402600" lon="2.8283610">
    <ele>162.7</ele>
    <time>2018-12-27T12:23:46Z</time>
   </trkpt>
   <trkpt lat="42.1401850" lon="2.8284830">
    <ele>162.8</ele>
    <time>2018-12-27T12:23:48Z</time>
   </trkpt>
   <trkpt lat="42.1401660" lon="2.8285810">
    <ele>162.9</ele>
    <time>2018-12-27T12:23:49Z</time>
   </trkpt>
   <trkpt lat="42.1400200" lon="2.8289330">
    <ele>162.9</ele>
    <time>2018-12-27T12:23:54Z</time>
   </trkpt>
   <trkpt lat="42.1400350" lon="2.8291510">
    <ele>162.8</ele>
    <time>2018-12-27T12:23:57Z</time>
   </trkpt>
   <trkpt lat="42.1400610" lon="2.8293410">
    <ele>162.8</ele>
    <time>2018-12-27T12:23:59Z</time>
   </trkpt>
   <trkpt lat="42.1400180" lon="2.8294960">
    <ele>162.8</ele>
    <time>2018-12-27T12:24:01Z</time>
   </trkpt>
   <trkpt lat="42.1399880" lon="2.8297130">
    <ele>162.6</ele>
    <time>2018-12-27T12:24:04Z</time>
   </trkpt>
   <trkpt lat="42.1400200" lon="2.8299480">
    <ele>162.5</ele>
    <time>2018-12-27T12:24:07Z</time>
   </trkpt>
   <trkpt lat="42.1400200" lon="2.8302410">
    <ele>162.6</ele>
    <time>2018-12-27T12:24:10Z</time>
   </trkpt>
   <trkpt lat="42.1400110" lon="2.8305350">
    <ele>162.9</ele>
    <time>2018-12-27T12:24:14Z</time>
   </trkpt>
   <trkpt lat="42.1399930" lon="2.8307550">
    <ele>163.1</ele>
    <time>2018-12-27T12:24:16Z</time>
   </trkpt>
   <trkpt lat="42.1399350" lon="2.8310350">
    <ele>163.3</ele>
    <time>2018-12-27T12:24:20Z</time>
   </trkpt>
   <trkpt lat="42.1399030" lon="2.8312950">
    <ele>163.4</ele>
    <time>2018-12-27T12:24:23Z</time>
   </trkpt>
   <trkpt lat="42.1398700" lon="2.8315760">
    <ele>163.5</ele>
    <time>2018-12-27T12:24:26Z</time>
   </trkpt>
   <trkpt lat="42.1398510" lon="2.8318360">
    <ele>163.7</ele>
    <time>2018-12-27T12:24:29Z</time>
   </trkpt>
   <trkpt lat="42.1398360" lon="2.8321150">
    <ele>164.0</ele>
    <time>2018-12-27T12:24:33Z</time>
   </trkpt>
   <trkpt lat="42.1398130" lon="2.8323700">
    <ele>164.3</ele>
    <time>2018-12-27T12:24:36Z</time>
   </trkpt>
   <trkpt lat="42.1397910" lon="2.8326280">
    <ele>164.7</ele>
    <time>2018-12-27T12:24:39Z</time>
   </trkpt>
   <trkpt lat="42.1397630" lon="2.8329100">
    <ele>165.1</ele>
    <time>2018-12-27T12:24:42Z</time>
   </trkpt>
   <trkpt lat="42.1397250" lon="2.8331750">
    <ele>165.5</ele>
    <time>2018-12-27T12:24:45Z</time>
   </trkpt>
   <trkpt lat="42.1397130" lon="2.8334400">
    <ele>166.1</ele>
    <time>2018-12-27T12:24:48Z</time>
   </trkpt>
   <trkpt lat="42.1396560" lon="2.8338950">
    <ele>167.7</ele>
    <time>2018-12-27T12:24:54Z</time>
   </trkpt>
   <trkpt lat="42.1396530" lon="2.8341030">
    <ele>168.8</ele>
    <time>2018-12-27T12:24:56Z</time>
   </trkpt>
   <trkpt lat="42.1396450" lon="2.8342880">
    <ele>169.9</ele>
    <time>2018-12-27T12:24:59Z</time>
   </trkpt>
   <trkpt lat="42.1396400" lon="2.8344880">
    <ele>171.2</ele>
    <time>2018-12-27T12:25:01Z</time>
   </trkpt>
   <trkpt lat="42.1396860" lon="2.8346430">
    <ele>172.2</ele>
    <time>2018-12-27T12:25:03Z</time>
   </trkpt>
   <trkpt lat="42.1397730" lon="2.8347810">
    <ele>173.2</ele>
    <time>2018-12-27T12:25:05Z</time>
   </trkpt>
   <trkpt lat="42.1398060" lon="2.8348800">
    <ele>173.7</ele>
    <time>2018-12-27T12:25:06Z</time>
   </trkpt>
   <trkpt lat="42.1398580" lon="2.8349630">
    <ele>174.3</ele>
    <time>2018-12-27T12:25:08Z</time>
   </trkpt>
   <trkpt lat="42.1399160" lon="2.8351100">
    <ele>175.0</ele>
    <time>2018-12-27T12:25:10Z</time>
   </trkpt>
   <trkpt lat="42.1399350" lon="2.8352180">
    <ele>175.4</ele>
    <time>2018-12-27T12:25:11Z</time>
   </trkpt>
   <trkpt lat="42.1399780" lon="2.8353360">
    <ele>175.9</ele>
    <time>2018-12-27T12:25:13Z</time>
   </trkpt>
   <trkpt lat="42.1400480" lon="2.8354730">
    <ele>176.5</ele>
    <time>2018-12-27T12:25:14Z</time>
   </trkpt>
   <trkpt lat="42.1400910" lon="2.8356210">
    <ele>177.1</ele>
    <time>2018-12-27T12:25:16Z</time>
   </trkpt>
   <trkpt lat="42.1401680" lon="2.8357250">
    <ele>177.7</ele>
    <time>2018-12-27T12:25:18Z</time>
   </trkpt>
   <trkpt lat="42.1402130" lon="2.8358110">
    <ele>178.0</ele>
    <time>2018-12-27T12:25:19Z</time>
   </trkpt>
   <trkpt lat="42.1403130" lon="2.8359150">
    <ele>178.6</ele>
    <time>2018-12-27T12:25:21Z</time>
   </trkpt>
   <trkpt lat="42.1404450" lon="2.8360180">
    <ele>179.2</ele>
    <time>2018-12-27T12:25:24Z</time>
   </trkpt>
   <trkpt lat="42.1405080" lon="2.8361360">
    <ele>179.5</ele>
    <time>2018-12-27T12:25:26Z</time>
   </trkpt>
   <trkpt lat="42.1405730" lon="2.8362160">
    <ele>179.8</ele>
    <time>2018-12-27T12:25:27Z</time>
   </trkpt>
   <trkpt lat="42.1406150" lon="2.8365660">
    <ele>180.4</ele>
    <time>2018-12-27T12:25:31Z</time>
   </trkpt>
   <trkpt lat="42.1405500" lon="2.8367280">
    <ele>180.7</ele>
    <time>2018-12-27T12:25:33Z</time>
   </trkpt>
   <trkpt lat="42.1404780" lon="2.8368610">
    <ele>180.9</ele>
    <time>2018-12-27T12:25:35Z</time>
   </trkpt>
   <trkpt lat="42.1404610" lon="2.8370180">
    <ele>181.2</ele>
    <time>2018-12-27T12:25:37Z</time>
   </trkpt>
   <trkpt lat="42.1404350" lon="2.8371810">
    <ele>181.5</ele>
    <time>2018-12-27T12:25:39Z</time>
   </trkpt>
   <trkpt lat="42.1403760" lon="2.8372780">
    <ele>181.8</ele>
    <time>2018-12-27T12:25:41Z</time>
   </trkpt>
   <trkpt lat="42.1402810" lon="2.8373830">
    <ele>181.6</ele>
    <time>2018-12-27T12:25:43Z</time>
   </trkpt>
   <trkpt lat="42.1402480" lon="2.8374760">
    <ele>181.4</ele>
    <time>2018-12-27T12:25:44Z</time>
   </trkpt>
   <trkpt lat="42.1401480" lon="2.8375380">
    <ele>181.2</ele>
    <time>2018-12-27T12:25:46Z</time>
   </trkpt>
   <trkpt lat="42.1400500" lon="2.8376510">
    <ele>181.0</ele>
    <time>2018-12-27T12:25:48Z</time>
   </trkpt>
   <trkpt lat="42.1399430" lon="2.8377610">
    <ele>180.9</ele>
    <time>2018-12-27T12:25:50Z</time>
   </trkpt>
   <trkpt lat="42.1398480" lon="2.8378750">
    <ele>180.9</ele>
    <time>2018-12-27T12:25:52Z</time>
   </trkpt>
   <trkpt lat="42.1397630" lon="2.8379630">
    <ele>180.9</ele>
    <time>2018-12-27T12:25:54Z</time>
   </trkpt>
   <trkpt lat="42.1396660" lon="2.8380800">
    <ele>180.9</ele>
    <time>2018-12-27T12:25:56Z</time>
   </trkpt>
   <trkpt lat="42.1395360" lon="2.8381960">
    <ele>181.0</ele>
    <time>2018-12-27T12:25:58Z</time>
   </trkpt>
   <trkpt lat="42.1394180" lon="2.8383300">
    <ele>181.2</ele>
    <time>2018-12-27T12:26:01Z</time>
   </trkpt>
   <trkpt lat="42.1393200" lon="2.8384710">
    <ele>181.5</ele>
    <time>2018-12-27T12:26:03Z</time>
   </trkpt>
   <trkpt lat="42.1390060" lon="2.8387830">
    <ele>183.1</ele>
    <time>2018-12-27T12:26:09Z</time>
   </trkpt>
   <trkpt lat="42.1388760" lon="2.8389730">
    <ele>184.2</ele>
    <time>2018-12-27T12:26:12Z</time>
   </trkpt>
   <trkpt lat="42.1387630" lon="2.8391510">
    <ele>185.2</ele>
    <time>2018-12-27T12:26:15Z</time>
   </trkpt>
   <trkpt lat="42.1387030" lon="2.8394130">
    <ele>186.6</ele>
    <time>2018-12-27T12:26:18Z</time>
   </trkpt>
   <trkpt lat="42.1387250" lon="2.8396230">
    <ele>187.9</ele>
    <time>2018-12-27T12:26:21Z</time>
   </trkpt>
   <trkpt lat="42.1387210" lon="2.8398360">
    <ele>189.2</ele>
    <time>2018-12-27T12:26:23Z</time>
   </trkpt>
   <trkpt lat="42.1387200" lon="2.8400350">
    <ele>190.4</ele>
    <time>2018-12-27T12:26:26Z</time>
   </trkpt>
   <trkpt lat="42.1386980" lon="2.8402180">
    <ele>191.5</ele>
    <time>2018-12-27T12:26:28Z</time>
   </trkpt>
   <trkpt lat="42.1387130" lon="2.8403900">
    <ele>192.4</ele>
    <time>2018-12-27T12:26:30Z</time>
   </trkpt>
   <trkpt lat="42.1386780" lon="2.8405250">
    <ele>193.1</ele>
    <time>2018-12-27T12:26:32Z</time>
   </trkpt>
   <trkpt lat="42.1386700" lon="2.8406730">
    <ele>193.8</ele>
    <time>2018-12-27T12:26:33Z</time>
   </trkpt>
   <trkpt lat="42.1386730" lon="2.8408510">
    <ele>194.5</ele>
    <time>2018-12-27T12:26:36Z</time>
   </trkpt>
   <trkpt lat="42.1387100" lon="2.8410530">
    <ele>195.0</ele>
    <time>2018-12-27T12:26:38Z</time>
   </trkpt>
   <trkpt lat="42.1387100" lon="2.8412360">
    <ele>195.4</ele>
    <time>2018-12-27T12:26:40Z</time>
   </trkpt>
   <trkpt lat="42.1387630" lon="2.8414010">
    <ele>195.5</ele>
    <time>2018-12-27T12:26:42Z</time>
   </trkpt>
   <trkpt lat="42.1388000" lon="2.8415510">
    <ele>195.6</ele>
    <time>2018-12-27T12:26:44Z</time>
   </trkpt>
   <trkpt lat="42.1388050" lon="2.8417360">
    <ele>195.6</ele>
    <time>2018-12-27T12:26:46Z</time>
   </trkpt>
   <trkpt lat="42.1387160" lon="2.8418910">
    <ele>195.6</ele>
    <time>2018-12-27T12:26:49Z</time>
   </trkpt>
   <trkpt lat="42.1386430" lon="2.8420480">
    <ele>195.6</ele>
    <time>2018-12-27T12:26:51Z</time>
   </trkpt>
   <trkpt lat="42.1385180" lon="2.8422730">
    <ele>195.7</ele>
    <time>2018-12-27T12:26:54Z</time>
   </trkpt>
   <trkpt lat="42.1384800" lon="2.8423930">
    <ele>195.6</ele>
    <time>2018-12-27T12:26:56Z</time>
   </trkpt>
   <trkpt lat="42.1384430" lon="2.8425810">
    <ele>195.4</ele>
    <time>2018-12-27T12:26:58Z</time>
   </trkpt>
   <trkpt lat="42.1384930" lon="2.8428300">
    <ele>194.4</ele>
    <time>2018-12-27T12:27:01Z</time>
   </trkpt>
   <trkpt lat="42.1385900" lon="2.8430310">
    <ele>193.3</ele>
    <time>2018-12-27T12:27:04Z</time>
   </trkpt>
   <trkpt lat="42.1387500" lon="2.8432650">
    <ele>192.8</ele>
    <time>2018-12-27T12:27:08Z</time>
   </trkpt>
   <trkpt lat="42.1389280" lon="2.8435380">
    <ele>192.0</ele>
    <time>2018-12-27T12:27:12Z</time>
   </trkpt>
   <trkpt lat="42.1390910" lon="2.8438630">
    <ele>190.9</ele>
    <time>2018-12-27T12:27:17Z</time>
   </trkpt>
   <trkpt lat="42.1392600" lon="2.8442210">
    <ele>190.0</ele>
    <time>2018-12-27T12:27:22Z</time>
   </trkpt>
   <trkpt lat="42.1393800" lon="2.8446150">
    <ele>189.6</ele>
    <time>2018-12-27T12:27:27Z</time>
   </trkpt>
   <trkpt lat="42.1393960" lon="2.8450560">
    <ele>187.8</ele>
    <time>2018-12-27T12:27:32Z</time>
   </trkpt>
   <trkpt lat="42.1392400" lon="2.8454900">
    <ele>186.6</ele>
    <time>2018-12-27T12:27:38Z</time>
   </trkpt>
   <trkpt lat="42.1389930" lon="2.8458300">
    <ele>185.7</ele>
    <time>2018-12-27T12:27:43Z</time>
   </trkpt>
   <trkpt lat="42.1386910" lon="2.8460200">
    <ele>185.1</ele>
    <time>2018-12-27T12:27:49Z</time>
   </trkpt>
   <trkpt lat="42.1383560" lon="2.8461860">
    <ele>183.9</ele>
    <time>2018-12-27T12:27:55Z</time>
   </trkpt>
   <trkpt lat="42.1380550" lon="2.8463850">
    <ele>184.7</ele>
    <time>2018-12-27T12:28:00Z</time>
   </trkpt>
   <trkpt lat="42.1378080" lon="2.8465610">
    <ele>185.9</ele>
    <time>2018-12-27T12:28:04Z</time>
   </trkpt>
   <trkpt lat="42.1375680" lon="2.8467650">
    <ele>186.3</ele>
    <time>2018-12-27T12:28:09Z</time>
   </trkpt>
   <trkpt lat="42.1373450" lon="2.8469300">
    <ele>186.3</ele>
    <time>2018-12-27T12:28:13Z</time>
   </trkpt>
   <trkpt lat="42.1369180" lon="2.8472730">
    <ele>186.3</ele>
    <time>2018-12-27T12:28:21Z</time>
   </trkpt>
   <trkpt lat="42.1367410" lon="2.8474610">
    <ele>185.8</ele>
    <time>2018-12-27T12:28:25Z</time>
   </trkpt>
   <trkpt lat="42.1365660" lon="2.8476260">
    <ele>185.7</ele>
    <time>2018-12-27T12:28:28Z</time>
   </trkpt>
   <trkpt lat="42.1364200" lon="2.8478160">
    <ele>186.1</ele>
    <time>2018-12-27T12:28:31Z</time>
   </trkpt>
   <trkpt lat="42.1362280" lon="2.8479380">
    <ele>187.0</ele>
    <time>2018-12-27T12:28:35Z</time>
   </trkpt>
   <trkpt lat="42.1360550" lon="2.8480700">
    <ele>187.7</ele>
    <time>2018-12-27T12:28:38Z</time>
   </trkpt>
   <trkpt lat="42.1359430" lon="2.8482310">
    <ele>187.7</ele>
    <time>2018-12-27T12:28:40Z</time>
   </trkpt>
   <trkpt lat="42.1358500" lon="2.8484180">
    <ele>187.3</ele>
    <time>2018-12-27T12:28:43Z</time>
   </trkpt>
   <trkpt lat="42.1358360" lon="2.8486710">
    <ele>186.7</ele>
    <time>2018-12-27T12:28:46Z</time>
   </trkpt>
   <trkpt lat="42.1358760" lon="2.8489580">
    <ele>186.8</ele>
    <time>2018-12-27T12:28:50Z</time>
   </trkpt>
   <trkpt lat="42.1359230" lon="2.8492180">
    <ele>187.3</ele>
    <time>2018-12-27T12:28:53Z</time>
   </trkpt>
   <trkpt lat="42.1358330" lon="2.8494730">
    <ele>187.5</ele>
    <time>2018-12-27T12:28:56Z</time>
   </trkpt>
   <trkpt lat="42.1357660" lon="2.8497080">
    <ele>188.1</ele>
    <time>2018-12-27T12:28:59Z</time>
   </trkpt>
   <trkpt lat="42.1356680" lon="2.8499630">
    <ele>189.1</ele>
    <time>2018-12-27T12:29:02Z</time>
   </trkpt>
   <trkpt lat="42.1355800" lon="2.8502060">
    <ele>189.8</ele>
    <time>2018-12-27T12:29:06Z</time>
   </trkpt>
   <trkpt lat="42.1354760" lon="2.8503630">
    <ele>190.2</ele>
    <time>2018-12-27T12:29:08Z</time>
   </trkpt>
   <trkpt lat="42.1354310" lon="2.8505730">
    <ele>190.9</ele>
    <time>2018-12-27T12:29:11Z</time>
   </trkpt>
   <trkpt lat="42.1353030" lon="2.8509550">
    <ele>192.9</ele>
    <time>2018-12-27T12:29:16Z</time>
   </trkpt>
   <trkpt lat="42.1352550" lon="2.8511480">
    <ele>193.8</ele>
    <time>2018-12-27T12:29:18Z</time>
   </trkpt>
   <trkpt lat="42.1352130" lon="2.8513180">
    <ele>194.6</ele>
    <time>2018-12-27T12:29:20Z</time>
   </trkpt>
   <trkpt lat="42.1352010" lon="2.8514960">
    <ele>195.4</ele>
    <time>2018-12-27T12:29:22Z</time>
   </trkpt>
   <trkpt lat="42.1352180" lon="2.8517000">
    <ele>196.2</ele>
    <time>2018-12-27T12:29:25Z</time>
   </trkpt>
   <trkpt lat="42.1352080" lon="2.8519200">
    <ele>196.4</ele>
    <time>2018-12-27T12:29:27Z</time>
   </trkpt>
   <trkpt lat="42.1351900" lon="2.8521200">
    <ele>196.6</ele>
    <time>2018-12-27T12:29:30Z</time>
   </trkpt>
   <trkpt lat="42.1351410" lon="2.8523050">
    <ele>196.8</ele>
    <time>2018-12-27T12:29:32Z</time>
   </trkpt>
   <trkpt lat="42.1351110" lon="2.8525150">
    <ele>196.8</ele>
    <time>2018-12-27T12:29:35Z</time>
   </trkpt>
   <trkpt lat="42.1350850" lon="2.8527650">
    <ele>196.6</ele>
    <time>2018-12-27T12:29:38Z</time>
   </trkpt>
   <trkpt lat="42.1350160" lon="2.8530160">
    <ele>196.2</ele>
    <time>2018-12-27T12:29:41Z</time>
   </trkpt>
   <trkpt lat="42.1349630" lon="2.8532760">
    <ele>195.9</ele>
    <time>2018-12-27T12:29:44Z</time>
   </trkpt>
   <trkpt lat="42.1349050" lon="2.8535610">
    <ele>195.9</ele>
    <time>2018-12-27T12:29:48Z</time>
   </trkpt>
   <trkpt lat="42.1348500" lon="2.8537560">
    <ele>196.1</ele>
    <time>2018-12-27T12:29:50Z</time>
   </trkpt>
   <trkpt lat="42.1348060" lon="2.8538610">
    <ele>196.2</ele>
    <time>2018-12-27T12:29:52Z</time>
   </trkpt>
   <trkpt lat="42.1347110" lon="2.8539310">
    <ele>196.0</ele>
    <time>2018-12-27T12:29:53Z</time>
   </trkpt>
   <trkpt lat="42.1345680" lon="2.8539650">
    <ele>195.9</ele>
    <time>2018-12-27T12:29:56Z</time>
   </trkpt>
   <trkpt lat="42.1343900" lon="2.8540010">
    <ele>195.8</ele>
    <time>2018-12-27T12:29:58Z</time>
   </trkpt>
   <trkpt lat="42.1338080" lon="2.8541750">
    <ele>195.5</ele>
    <time>2018-12-27T12:30:08Z</time>
   </trkpt>
   <trkpt lat="42.1335060" lon="2.8543400">
    <ele>195.5</ele>
    <time>2018-12-27T12:30:13Z</time>
   </trkpt>
   <trkpt lat="42.1332660" lon="2.8545210">
    <ele>195.4</ele>
    <time>2018-12-27T12:30:18Z</time>
   </trkpt>
   <trkpt lat="42.1330350" lon="2.8547030">
    <ele>195.3</ele>
    <time>2018-12-27T12:30:22Z</time>
   </trkpt>
   <trkpt lat="42.1328050" lon="2.8548780">
    <ele>195.1</ele>
    <time>2018-12-27T12:30:26Z</time>
   </trkpt>
   <trkpt lat="42.1325630" lon="2.8550560">
    <ele>195.0</ele>
    <time>2018-12-27T12:30:31Z</time>
   </trkpt>
   <trkpt lat="42.1323060" lon="2.8552150">
    <ele>194.8</ele>
    <time>2018-12-27T12:30:35Z</time>
   </trkpt>
   <trkpt lat="42.1320580" lon="2.8554100">
    <ele>194.4</ele>
    <time>2018-12-27T12:30:40Z</time>
   </trkpt>
   <trkpt lat="42.1318360" lon="2.8555710">
    <ele>194.0</ele>
    <time>2018-12-27T12:30:44Z</time>
   </trkpt>
   <trkpt lat="42.1315980" lon="2.8557310">
    <ele>193.3</ele>
    <time>2018-12-27T12:30:48Z</time>
   </trkpt>
   <trkpt lat="42.1313550" lon="2.8558780">
    <ele>192.1</ele>
    <time>2018-12-27T12:30:52Z</time>
   </trkpt>
   <trkpt lat="42.1310980" lon="2.8560100">
    <ele>190.6</ele>
    <time>2018-12-27T12:30:57Z</time>
   </trkpt>
   <trkpt lat="42.1308250" lon="2.8561810">
    <ele>189.4</ele>
    <time>2018-12-27T12:31:01Z</time>
   </trkpt>
   <trkpt lat="42.1305160" lon="2.8563500">
    <ele>188.1</ele>
    <time>2018-12-27T12:31:07Z</time>
   </trkpt>
   <trkpt lat="42.1302560" lon="2.8565430">
    <ele>187.1</ele>
    <time>2018-12-27T12:31:12Z</time>
   </trkpt>
   <trkpt lat="42.1299650" lon="2.8567710">
    <ele>185.1</ele>
    <time>2018-12-27T12:31:17Z</time>
   </trkpt>
   <trkpt lat="42.1296800" lon="2.8569630">
    <ele>183.3</ele>
    <time>2018-12-27T12:31:22Z</time>
   </trkpt>
   <trkpt lat="42.1293810" lon="2.8571800">
    <ele>181.4</ele>
    <time>2018-12-27T12:31:27Z</time>
   </trkpt>
   <trkpt lat="42.1290530" lon="2.8574350">
    <ele>179.4</ele>
    <time>2018-12-27T12:31:34Z</time>
   </trkpt>
   <trkpt lat="42.1285130" lon="2.8579180">
    <ele>176.7</ele>
    <time>2018-12-27T12:31:44Z</time>
   </trkpt>
   <trkpt lat="42.1282000" lon="2.8581110">
    <ele>174.9</ele>
    <time>2018-12-27T12:31:49Z</time>
   </trkpt>
   <trkpt lat="42.1278830" lon="2.8583100">
    <ele>172.3</ele>
    <time>2018-12-27T12:31:55Z</time>
   </trkpt>
   <trkpt lat="42.1275600" lon="2.8585160">
    <ele>169.5</ele>
    <time>2018-12-27T12:32:01Z</time>
   </trkpt>
   <trkpt lat="42.1272460" lon="2.8587100">
    <ele>166.7</ele>
    <time>2018-12-27T12:32:06Z</time>
   </trkpt>
   <trkpt lat="42.1269230" lon="2.8589280">
    <ele>164.8</ele>
    <time>2018-12-27T12:32:12Z</time>
   </trkpt>
   <trkpt lat="42.1265610" lon="2.8591310">
    <ele>164.3</ele>
    <time>2018-12-27T12:32:18Z</time>
   </trkpt>
   <trkpt lat="42.1261930" lon="2.8593060">
    <ele>164.4</ele>
    <time>2018-12-27T12:32:25Z</time>
   </trkpt>
   <trkpt lat="42.1258450" lon="2.8594860">
    <ele>164.7</ele>
    <time>2018-12-27T12:32:31Z</time>
   </trkpt>
   <trkpt lat="42.1255110" lon="2.8595860">
    <ele>165.0</ele>
    <time>2018-12-27T12:32:36Z</time>
   </trkpt>
   <trkpt lat="42.1251930" lon="2.8596360">
    <ele>165.0</ele>
    <time>2018-12-27T12:32:41Z</time>
   </trkpt>
   <trkpt lat="42.1248600" lon="2.8596360">
    <ele>164.9</ele>
    <time>2018-12-27T12:32:46Z</time>
   </trkpt>
   <trkpt lat="42.1245830" lon="2.8596600">
    <ele>164.7</ele>
    <time>2018-12-27T12:32:51Z</time>
   </trkpt>
   <trkpt lat="42.1243110" lon="2.8597100">
    <ele>164.3</ele>
    <time>2018-12-27T12:32:55Z</time>
   </trkpt>
   <trkpt lat="42.1240060" lon="2.8597910">
    <ele>164.0</ele>
    <time>2018-12-27T12:33:00Z</time>
   </trkpt>
   <trkpt lat="42.1237150" lon="2.8599330">
    <ele>163.7</ele>
    <time>2018-12-27T12:33:05Z</time>
   </trkpt>
   <trkpt lat="42.1234500" lon="2.8600510">
    <ele>163.5</ele>
    <time>2018-12-27T12:33:10Z</time>
   </trkpt>
   <trkpt lat="42.1228930" lon="2.8603050">
    <ele>163.1</ele>
    <time>2018-12-27T12:33:19Z</time>
   </trkpt>
   <trkpt lat="42.1226530" lon="2.8604350">
    <ele>162.8</ele>
    <time>2018-12-27T12:33:23Z</time>
   </trkpt>
   <trkpt lat="42.1223510" lon="2.8605980">
    <ele>162.7</ele>
    <time>2018-12-27T12:33:28Z</time>
   </trkpt>
   <trkpt lat="42.1221100" lon="2.8607660">
    <ele>162.7</ele>
    <time>2018-12-27T12:33:33Z</time>
   </trkpt>
   <trkpt lat="42.1218600" lon="2.8608880">
    <ele>162.9</ele>
    <time>2018-12-27T12:33:37Z</time>
   </trkpt>
   <trkpt lat="42.1216000" lon="2.8610180">
    <ele>163.3</ele>
    <time>2018-12-27T12:33:42Z</time>
   </trkpt>
   <trkpt lat="42.1213710" lon="2.8611950">
    <ele>163.8</ele>
    <time>2018-12-27T12:33:46Z</time>
   </trkpt>
   <trkpt lat="42.1211550" lon="2.8613880">
    <ele>164.3</ele>
    <time>2018-12-27T12:33:50Z</time>
   </trkpt>
   <trkpt lat="42.1209380" lon="2.8615780">
    <ele>164.6</ele>
    <time>2018-12-27T12:33:54Z</time>
   </trkpt>
   <trkpt lat="42.1207400" lon="2.8617480">
    <ele>164.9</ele>
    <time>2018-12-27T12:33:58Z</time>
   </trkpt>
   <trkpt lat="42.1205230" lon="2.8619050">
    <ele>165.3</ele>
    <time>2018-12-27T12:34:02Z</time>
   </trkpt>
   <trkpt lat="42.1203160" lon="2.8620350">
    <ele>165.9</ele>
    <time>2018-12-27T12:34:05Z</time>
   </trkpt>
   <trkpt lat="42.1200880" lon="2.8621350">
    <ele>166.7</ele>
    <time>2018-12-27T12:34:09Z</time>
   </trkpt>
   <trkpt lat="42.1198430" lon="2.8622860">
    <ele>167.8</ele>
    <time>2018-12-27T12:34:14Z</time>
   </trkpt>
   <trkpt lat="42.1195910" lon="2.8624150">
    <ele>168.4</ele>
    <time>2018-12-27T12:34:18Z</time>
   </trkpt>
   <trkpt lat="42.1193800" lon="2.8625550">
    <ele>168.5</ele>
    <time>2018-12-27T12:34:22Z</time>
   </trkpt>
   <trkpt lat="42.1191530" lon="2.8627230">
    <ele>168.6</ele>
    <time>2018-12-27T12:34:26Z</time>
   </trkpt>
   <trkpt lat="42.1189680" lon="2.8628960">
    <ele>168.5</ele>
    <time>2018-12-27T12:34:29Z</time>
   </trkpt>
   <trkpt lat="42.1186330" lon="2.8632250">
    <ele>167.7</ele>
    <time>2018-12-27T12:34:36Z</time>
   </trkpt>
   <trkpt lat="42.1184530" lon="2.8633800">
    <ele>166.9</ele>
    <time>2018-12-27T12:34:39Z</time>
   </trkpt>
   <trkpt lat="42.1182500" lon="2.8635010">
    <ele>166.3</ele>
    <time>2018-12-27T12:34:43Z</time>
   </trkpt>
   <trkpt lat="42.1180380" lon="2.8636250">
    <ele>166.0</ele>
    <time>2018-12-27T12:34:47Z</time>
   </trkpt>
   <trkpt lat="42.1177930" lon="2.8637380">
    <ele>165.6</ele>
    <time>2018-12-27T12:34:51Z</time>
   </trkpt>
   <trkpt lat="42.1176210" lon="2.8638500">
    <ele>165.2</ele>
    <time>2018-12-27T12:34:54Z</time>
   </trkpt>
   <trkpt lat="42.1174910" lon="2.8639710">
    <ele>164.8</ele>
    <time>2018-12-27T12:34:56Z</time>
   </trkpt>
   <trkpt lat="42.1173850" lon="2.8639950">
    <ele>164.5</ele>
    <time>2018-12-27T12:34:58Z</time>
   </trkpt>
   <trkpt lat="42.1173310" lon="2.8639750">
    <ele>163.6</ele>
    <time>2018-12-27T12:34:59Z</time>
   </trkpt>
   <trkpt lat="42.1172450" lon="2.8639450">
    <ele>163.0</ele>
    <time>2018-12-27T12:35:00Z</time>
   </trkpt>
   <trkpt lat="42.1171760" lon="2.8639110">
    <ele>162.5</ele>
    <time>2018-12-27T12:35:02Z</time>
   </trkpt>
   <trkpt lat="42.1170880" lon="2.8637680">
    <ele>161.6</ele>
    <time>2018-12-27T12:35:04Z</time>
   </trkpt>
   <trkpt lat="42.1169900" lon="2.8636460">
    <ele>160.6</ele>
    <time>2018-12-27T12:35:06Z</time>
   </trkpt>
   <trkpt lat="42.1169730" lon="2.8634860">
    <ele>159.7</ele>
    <time>2018-12-27T12:35:08Z</time>
   </trkpt>
   <trkpt lat="42.1169080" lon="2.8633150">
    <ele>158.6</ele>
    <time>2018-12-27T12:35:10Z</time>
   </trkpt>
   <trkpt lat="42.1167830" lon="2.8630150">
    <ele>156.8</ele>
    <time>2018-12-27T12:35:14Z</time>
   </trkpt>
   <trkpt lat="42.1166210" lon="2.8626480">
    <ele>154.4</ele>
    <time>2018-12-27T12:35:19Z</time>
   </trkpt>
   <trkpt lat="42.1164250" lon="2.8622160">
    <ele>151.6</ele>
    <time>2018-12-27T12:35:25Z</time>
   </trkpt>
   <trkpt lat="42.1162110" lon="2.8617180">
    <ele>148.5</ele>
    <time>2018-12-27T12:35:32Z</time>
   </trkpt>
   <trkpt lat="42.1159680" lon="2.8611950">
    <ele>145.1</ele>
    <time>2018-12-27T12:35:40Z</time>
   </trkpt>
   <trkpt lat="42.1157580" lon="2.8606610">
    <ele>142.6</ele>
    <time>2018-12-27T12:35:47Z</time>
   </trkpt>
   <trkpt lat="42.1154880" lon="2.8600910">
    <ele>140.6</ele>
    <time>2018-12-27T12:35:55Z</time>
   </trkpt>
   <trkpt lat="42.1152900" lon="2.8595930">
    <ele>139.7</ele>
    <time>2018-12-27T12:36:01Z</time>
   </trkpt>
   <trkpt lat="42.1151000" lon="2.8591160">
    <ele>138.1</ele>
    <time>2018-12-27T12:36:08Z</time>
   </trkpt>
   <trkpt lat="42.1149810" lon="2.8586150">
    <ele>135.0</ele>
    <time>2018-12-27T12:36:14Z</time>
   </trkpt>
   <trkpt lat="42.1151900" lon="2.8581660">
    <ele>129.0</ele>
    <time>2018-12-27T12:36:20Z</time>
   </trkpt>
   <trkpt lat="42.1155050" lon="2.8579030">
    <ele>127.7</ele>
    <time>2018-12-27T12:36:26Z</time>
   </trkpt>
   <trkpt lat="42.1158610" lon="2.8576600">
    <ele>126.0</ele>
    <time>2018-12-27T12:36:33Z</time>
   </trkpt>
   <trkpt lat="42.1162230" lon="2.8574480">
    <ele>123.8</ele>
    <time>2018-12-27T12:36:39Z</time>
   </trkpt>
   <trkpt lat="42.1165900" lon="2.8571850">
    <ele>121.0</ele>
    <time>2018-12-27T12:36:46Z</time>
   </trkpt>
   <trkpt lat="42.1169200" lon="2.8569480">
    <ele>119.0</ele>
    <time>2018-12-27T12:36:52Z</time>
   </trkpt>
   <trkpt lat="42.1172510" lon="2.8567230">
    <ele>116.4</ele>
    <time>2018-12-27T12:36:58Z</time>
   </trkpt>
   <trkpt lat="42.1176260" lon="2.8563700">
    <ele>113.2</ele>
    <time>2018-12-27T12:37:05Z</time>
   </trkpt>
   <trkpt lat="42.1179310" lon="2.8558700">
    <ele>109.7</ele>
    <time>2018-12-27T12:37:13Z</time>
   </trkpt>
   <trkpt lat="42.1180950" lon="2.8553810">
    <ele>107.9</ele>
    <time>2018-12-27T12:37:19Z</time>
   </trkpt>
   <trkpt lat="42.1179080" lon="2.8549260">
    <ele>107.0</ele>
    <time>2018-12-27T12:37:25Z</time>
   </trkpt>
   <trkpt lat="42.1177550" lon="2.8546530">
    <ele>106.9</ele>
    <time>2018-12-27T12:37:29Z</time>
   </trkpt>
   <trkpt lat="42.1175030" lon="2.8546160">
    <ele>107.0</ele>
    <time>2018-12-27T12:37:33Z</time>
   </trkpt>
   <trkpt lat="42.1172010" lon="2.8545800">
    <ele>107.2</ele>
    <time>2018-12-27T12:37:38Z</time>
   </trkpt>
   <trkpt lat="42.1169180" lon="2.8544560">
    <ele>107.6</ele>
    <time>2018-12-27T12:37:43Z</time>
   </trkpt>
   <trkpt lat="42.1166650" lon="2.8543960">
    <ele>108.3</ele>
    <time>2018-12-27T12:37:47Z</time>
   </trkpt>
   <trkpt lat="42.1164230" lon="2.8544280">
    <ele>109.0</ele>
    <time>2018-12-27T12:37:51Z</time>
   </trkpt>
   <trkpt lat="42.1162260" lon="2.8543050">
    <ele>110.0</ele>
    <time>2018-12-27T12:37:54Z</time>
   </trkpt>
   <trkpt lat="42.1161080" lon="2.8542260">
    <ele>110.6</ele>
    <time>2018-12-27T12:37:57Z</time>
   </trkpt>
   <trkpt lat="42.1159730" lon="2.8541300">
    <ele>111.6</ele>
    <time>2018-12-27T12:37:59Z</time>
   </trkpt>
   <trkpt lat="42.1158950" lon="2.8540260">
    <ele>112.5</ele>
    <time>2018-12-27T12:38:01Z</time>
   </trkpt>
   <trkpt lat="42.1157980" lon="2.8539280">
    <ele>113.4</ele>
    <time>2018-12-27T12:38:03Z</time>
   </trkpt>
   <trkpt lat="42.1157310" lon="2.8537730">
    <ele>114.6</ele>
    <time>2018-12-27T12:38:05Z</time>
   </trkpt>
   <trkpt lat="42.1156000" lon="2.8537310">
    <ele>115.7</ele>
    <time>2018-12-27T12:38:07Z</time>
   </trkpt>
   <trkpt lat="42.1154760" lon="2.8537160">
    <ele>116.7</ele>
    <time>2018-12-27T12:38:09Z</time>
   </trkpt>
   <trkpt lat="42.1153630" lon="2.8537730">
    <ele>117.4</ele>
    <time>2018-12-27T12:38:11Z</time>
   </trkpt>
   <trkpt lat="42.1152780" lon="2.8538230">
    <ele>117.9</ele>
    <time>2018-12-27T12:38:12Z</time>
   </trkpt>
   <trkpt lat="42.1152150" lon="2.8538130">
    <ele>118.3</ele>
    <time>2018-12-27T12:38:13Z</time>
   </trkpt>
   <trkpt lat="42.1151350" lon="2.8538100">
    <ele>118.8</ele>
    <time>2018-12-27T12:38:15Z</time>
   </trkpt>
   <trkpt lat="42.1150100" lon="2.8537510">
    <ele>119.5</ele>
    <time>2018-12-27T12:38:17Z</time>
   </trkpt>
   <trkpt lat="42.1149180" lon="2.8537230">
    <ele>120.2</ele>
    <time>2018-12-27T12:38:18Z</time>
   </trkpt>
   <trkpt lat="42.1148080" lon="2.8537150">
    <ele>120.8</ele>
    <time>2018-12-27T12:38:20Z</time>
   </trkpt>
   <trkpt lat="42.1147280" lon="2.8536760">
    <ele>121.2</ele>
    <time>2018-12-27T12:38:21Z</time>
   </trkpt>
   <trkpt lat="42.1146530" lon="2.8536050">
    <ele>121.6</ele>
    <time>2018-12-27T12:38:23Z</time>
   </trkpt>
   <trkpt lat="42.1145250" lon="2.8535380">
    <ele>122.1</ele>
    <time>2018-12-27T12:38:25Z</time>
   </trkpt>
   <trkpt lat="42.1143850" lon="2.8535010">
    <ele>122.7</ele>
    <time>2018-12-27T12:38:27Z</time>
   </trkpt>
   <trkpt lat="42.1143060" lon="2.8534280">
    <ele>123.0</ele>
    <time>2018-12-27T12:38:29Z</time>
   </trkpt>
   <trkpt lat="42.1141850" lon="2.8533760">
    <ele>123.4</ele>
    <time>2018-12-27T12:38:31Z</time>
   </trkpt>
   <trkpt lat="42.1140510" lon="2.8533330">
    <ele>123.8</ele>
    <time>2018-12-27T12:38:33Z</time>
   </trkpt>
   <trkpt lat="42.1139260" lon="2.8532910">
    <ele>124.2</ele>
    <time>2018-12-27T12:38:35Z</time>
   </trkpt>
   <trkpt lat="42.1137980" lon="2.8532650">
    <ele>124.9</ele>
    <time>2018-12-27T12:38:37Z</time>
   </trkpt>
   <trkpt lat="42.1137080" lon="2.8532100">
    <ele>125.4</ele>
    <time>2018-12-27T12:38:39Z</time>
   </trkpt>
   <trkpt lat="42.1135450" lon="2.8531610">
    <ele>126.1</ele>
    <time>2018-12-27T12:38:42Z</time>
   </trkpt>
   <trkpt lat="42.1134330" lon="2.8531030">
    <ele>126.5</ele>
    <time>2018-12-27T12:38:43Z</time>
   </trkpt>
   <trkpt lat="42.1132910" lon="2.8530700">
    <ele>127.0</ele>
    <time>2018-12-27T12:38:46Z</time>
   </trkpt>
   <trkpt lat="42.1131660" lon="2.8530100">
    <ele>127.4</ele>
    <time>2018-12-27T12:38:48Z</time>
   </trkpt>
   <trkpt lat="42.1130360" lon="2.8529800">
    <ele>127.9</ele>
    <time>2018-12-27T12:38:50Z</time>
   </trkpt>
   <trkpt lat="42.1128980" lon="2.8529210">
    <ele>128.4</ele>
    <time>2018-12-27T12:38:52Z</time>
   </trkpt>
   <trkpt lat="42.1127760" lon="2.8528530">
    <ele>128.9</ele>
    <time>2018-12-27T12:38:54Z</time>
   </trkpt>
   <trkpt lat="42.1126450" lon="2.8527910">
    <ele>129.6</ele>
    <time>2018-12-27T12:38:57Z</time>
   </trkpt>
   <trkpt lat="42.1125330" lon="2.8527600">
    <ele>130.1</ele>
    <time>2018-12-27T12:38:58Z</time>
   </trkpt>
   <trkpt lat="42.1124200" lon="2.8527150">
    <ele>130.6</ele>
    <time>2018-12-27T12:39:00Z</time>
   </trkpt>
   <trkpt lat="42.1123150" lon="2.8526600">
    <ele>131.0</ele>
    <time>2018-12-27T12:39:02Z</time>
   </trkpt>
   <trkpt lat="42.1121800" lon="2.8526100">
    <ele>131.3</ele>
    <time>2018-12-27T12:39:04Z</time>
   </trkpt>
   <trkpt lat="42.1120410" lon="2.8525730">
    <ele>131.4</ele>
    <time>2018-12-27T12:39:07Z</time>
   </trkpt>
   <trkpt lat="42.1119180" lon="2.8525560">
    <ele>131.3</ele>
    <time>2018-12-27T12:39:09Z</time>
   </trkpt>
   <trkpt lat="42.1118060" lon="2.8525180">
    <ele>131.1</ele>
    <time>2018-12-27T12:39:10Z</time>
   </trkpt>
   <trkpt lat="42.1116480" lon="2.8523710">
    <ele>130.4</ele>
    <time>2018-12-27T12:39:14Z</time>
   </trkpt>
   <trkpt lat="42.1114980" lon="2.8522500">
    <ele>130.0</ele>
    <time>2018-12-27T12:39:16Z</time>
   </trkpt>
   <trkpt lat="42.1114150" lon="2.8520230">
    <ele>129.8</ele>
    <time>2018-12-27T12:39:19Z</time>
   </trkpt>
   <trkpt lat="42.1114600" lon="2.8516900">
    <ele>129.4</ele>
    <time>2018-12-27T12:39:23Z</time>
   </trkpt>
   <trkpt lat="42.1115660" lon="2.8513410">
    <ele>128.4</ele>
    <time>2018-12-27T12:39:28Z</time>
   </trkpt>
   <trkpt lat="42.1118100" lon="2.8510000">
    <ele>127.1</ele>
    <time>2018-12-27T12:39:34Z</time>
   </trkpt>
   <trkpt lat="42.1120850" lon="2.8506600">
    <ele>125.6</ele>
    <time>2018-12-27T12:39:39Z</time>
   </trkpt>
   <trkpt lat="42.1123330" lon="2.8503080">
    <ele>124.5</ele>
    <time>2018-12-27T12:39:45Z</time>
   </trkpt>
   <trkpt lat="42.1126180" lon="2.8499630">
    <ele>122.8</ele>
    <time>2018-12-27T12:39:51Z</time>
   </trkpt>
   <trkpt lat="42.1129230" lon="2.8495910">
    <ele>120.7</ele>
    <time>2018-12-27T12:39:58Z</time>
   </trkpt>
   <trkpt lat="42.1132310" lon="2.8491930">
    <ele>118.6</ele>
    <time>2018-12-27T12:40:05Z</time>
   </trkpt>
   <trkpt lat="42.1135550" lon="2.8487850">
    <ele>116.4</ele>
    <time>2018-12-27T12:40:12Z</time>
   </trkpt>
   <trkpt lat="42.1138560" lon="2.8483730">
    <ele>114.0</ele>
    <time>2018-12-27T12:40:19Z</time>
   </trkpt>
   <trkpt lat="42.1141750" lon="2.8480150">
    <ele>111.4</ele>
    <time>2018-12-27T12:40:25Z</time>
   </trkpt>
   <trkpt lat="42.1143430" lon="2.8476050">
    <ele>109.2</ele>
    <time>2018-12-27T12:40:31Z</time>
   </trkpt>
   <trkpt lat="42.1141600" lon="2.8472560">
    <ele>107.3</ele>
    <time>2018-12-27T12:40:36Z</time>
   </trkpt>
   <trkpt lat="42.1138960" lon="2.8470210">
    <ele>108.9</ele>
    <time>2018-12-27T12:40:41Z</time>
   </trkpt>
   <trkpt lat="42.1135830" lon="2.8469700">
    <ele>110.5</ele>
    <time>2018-12-27T12:40:46Z</time>
   </trkpt>
   <trkpt lat="42.1133730" lon="2.8469210">
    <ele>111.1</ele>
    <time>2018-12-27T12:40:50Z</time>
   </trkpt>
   <trkpt lat="42.1132460" lon="2.8468760">
    <ele>111.5</ele>
    <time>2018-12-27T12:40:52Z</time>
   </trkpt>
   <trkpt lat="42.1130930" lon="2.8468450">
    <ele>111.9</ele>
    <time>2018-12-27T12:40:54Z</time>
   </trkpt>
   <trkpt lat="42.1129480" lon="2.8467900">
    <ele>112.3</ele>
    <time>2018-12-27T12:40:57Z</time>
   </trkpt>
   <trkpt lat="42.1128030" lon="2.8467700">
    <ele>112.5</ele>
    <time>2018-12-27T12:40:59Z</time>
   </trkpt>
   <trkpt lat="42.1126400" lon="2.8467560">
    <ele>112.5</ele>
    <time>2018-12-27T12:41:02Z</time>
   </trkpt>
   <trkpt lat="42.1124660" lon="2.8467430">
    <ele>112.6</ele>
    <time>2018-12-27T12:41:04Z</time>
   </trkpt>
   <trkpt lat="42.1122710" lon="2.8466780">
    <ele>112.6</ele>
    <time>2018-12-27T12:41:08Z</time>
   </trkpt>
   <trkpt lat="42.1121330" lon="2.8466260">
    <ele>112.6</ele>
    <time>2018-12-27T12:41:10Z</time>
   </trkpt>
   <trkpt lat="42.1119580" lon="2.8465980">
    <ele>112.8</ele>
    <time>2018-12-27T12:41:13Z</time>
   </trkpt>
   <trkpt lat="42.1117830" lon="2.8465880">
    <ele>113.3</ele>
    <time>2018-12-27T12:41:15Z</time>
   </trkpt>
   <trkpt lat="42.1115980" lon="2.8466130">
    <ele>114.0</ele>
    <time>2018-12-27T12:41:18Z</time>
   </trkpt>
   <trkpt lat="42.1113780" lon="2.8465400">
    <ele>114.7</ele>
    <time>2018-12-27T12:41:22Z</time>
   </trkpt>
   <trkpt lat="42.1112530" lon="2.8464900">
    <ele>114.8</ele>
    <time>2018-12-27T12:41:24Z</time>
   </trkpt>
   <trkpt lat="42.1110600" lon="2.8463980">
    <ele>115.0</ele>
    <time>2018-12-27T12:41:27Z</time>
   </trkpt>
   <trkpt lat="42.1108900" lon="2.8463610">
    <ele>115.1</ele>
    <time>2018-12-27T12:41:30Z</time>
   </trkpt>
   <trkpt lat="42.1107010" lon="2.8463580">
    <ele>115.2</ele>
    <time>2018-12-27T12:41:33Z</time>
   </trkpt>
   <trkpt lat="42.1105460" lon="2.8462950">
    <ele>115.3</ele>
    <time>2018-12-27T12:41:36Z</time>
   </trkpt>
   <trkpt lat="42.1103600" lon="2.8462130">
    <ele>115.4</ele>
    <time>2018-12-27T12:41:39Z</time>
   </trkpt>
   <trkpt lat="42.1101630" lon="2.8461250">
    <ele>115.5</ele>
    <time>2018-12-27T12:41:42Z</time>
   </trkpt>
   <trkpt lat="42.1099700" lon="2.8460400">
    <ele>115.6</ele>
    <time>2018-12-27T12:41:45Z</time>
   </trkpt>
   <trkpt lat="42.1097600" lon="2.8459080">
    <ele>115.7</ele>
    <time>2018-12-27T12:41:49Z</time>
   </trkpt>
   <trkpt lat="42.1095560" lon="2.8458360">
    <ele>115.7</ele>
    <time>2018-12-27T12:41:53Z</time>
   </trkpt>
   <trkpt lat="42.1093580" lon="2.8457380">
    <ele>115.6</ele>
    <time>2018-12-27T12:41:56Z</time>
   </trkpt>
   <trkpt lat="42.1091610" lon="2.8456350">
    <ele>115.5</ele>
    <time>2018-12-27T12:41:59Z</time>
   </trkpt>
   <trkpt lat="42.1089360" lon="2.8455450">
    <ele>114.9</ele>
    <time>2018-12-27T12:42:03Z</time>
   </trkpt>
   <trkpt lat="42.1087460" lon="2.8454480">
    <ele>114.0</ele>
    <time>2018-12-27T12:42:06Z</time>
   </trkpt>
   <trkpt lat="42.1085350" lon="2.8453400">
    <ele>112.9</ele>
    <time>2018-12-27T12:42:10Z</time>
   </trkpt>
   <trkpt lat="42.1083430" lon="2.8451930">
    <ele>111.5</ele>
    <time>2018-12-27T12:42:13Z</time>
   </trkpt>
   <trkpt lat="42.1080680" lon="2.8450780">
    <ele>109.7</ele>
    <time>2018-12-27T12:42:18Z</time>
   </trkpt>
   <trkpt lat="42.1077760" lon="2.8449580">
    <ele>107.6</ele>
    <time>2018-12-27T12:42:23Z</time>
   </trkpt>
   <trkpt lat="42.1075600" lon="2.8447260">
    <ele>105.6</ele>
    <time>2018-12-27T12:42:27Z</time>
   </trkpt>
   <trkpt lat="42.1075810" lon="2.8442660">
    <ele>103.5</ele>
    <time>2018-12-27T12:42:33Z</time>
   </trkpt>
   <trkpt lat="42.1076580" lon="2.8437450">
    <ele>101.8</ele>
    <time>2018-12-27T12:42:39Z</time>
   </trkpt>
   <trkpt lat="42.1077130" lon="2.8432500">
    <ele>99.4</ele>
    <time>2018-12-27T12:42:45Z</time>
   </trkpt>
   <trkpt lat="42.1078300" lon="2.8427610">
    <ele>96.7</ele>
    <time>2018-12-27T12:42:51Z</time>
   </trkpt>
   <trkpt lat="42.1080150" lon="2.8422730">
    <ele>93.4</ele>
    <time>2018-12-27T12:42:58Z</time>
   </trkpt>
   <trkpt lat="42.1082850" lon="2.8417660">
    <ele>90.6</ele>
    <time>2018-12-27T12:43:05Z</time>
   </trkpt>
   <trkpt lat="42.1085650" lon="2.8413100">
    <ele>90.0</ele>
    <time>2018-12-27T12:43:12Z</time>
   </trkpt>
   <trkpt lat="42.1088130" lon="2.8409230">
    <ele>90.1</ele>
    <time>2018-12-27T12:43:18Z</time>
   </trkpt>
   <trkpt lat="42.1090160" lon="2.8406150">
    <ele>90.1</ele>
    <time>2018-12-27T12:43:23Z</time>
   </trkpt>
   <trkpt lat="42.1092160" lon="2.8403180">
    <ele>89.4</ele>
    <time>2018-12-27T12:43:28Z</time>
   </trkpt>
   <trkpt lat="42.1093810" lon="2.8399960">
    <ele>88.5</ele>
    <time>2018-12-27T12:43:33Z</time>
   </trkpt>
   <trkpt lat="42.1093430" lon="2.8395700">
    <ele>88.2</ele>
    <time>2018-12-27T12:43:38Z</time>
   </trkpt>
   <trkpt lat="42.1092310" lon="2.8392480">
    <ele>89.0</ele>
    <time>2018-12-27T12:43:42Z</time>
   </trkpt>
   <trkpt lat="42.1091460" lon="2.8388360">
    <ele>91.0</ele>
    <time>2018-12-27T12:43:47Z</time>
   </trkpt>
   <trkpt lat="42.1091300" lon="2.8385800">
    <ele>92.6</ele>
    <time>2018-12-27T12:43:50Z</time>
   </trkpt>
   <trkpt lat="42.1092250" lon="2.8384150">
    <ele>93.9</ele>
    <time>2018-12-27T12:43:52Z</time>
   </trkpt>
   <trkpt lat="42.1092850" lon="2.8382460">
    <ele>94.8</ele>
    <time>2018-12-27T12:43:55Z</time>
   </trkpt>
   <trkpt lat="42.1093810" lon="2.8381750">
    <ele>95.3</ele>
    <time>2018-12-27T12:43:56Z</time>
   </trkpt>
   <trkpt lat="42.1094880" lon="2.8380130">
    <ele>95.7</ele>
    <time>2018-12-27T12:43:59Z</time>
   </trkpt>
   <trkpt lat="42.1096330" lon="2.8378880">
    <ele>96.0</ele>
    <time>2018-12-27T12:44:02Z</time>
   </trkpt>
   <trkpt lat="42.1097210" lon="2.8377550">
    <ele>96.5</ele>
    <time>2018-12-27T12:44:04Z</time>
   </trkpt>
   <trkpt lat="42.1097750" lon="2.8375660">
    <ele>97.2</ele>
    <time>2018-12-27T12:44:06Z</time>
   </trkpt>
   <trkpt lat="42.1098530" lon="2.8374160">
    <ele>98.0</ele>
    <time>2018-12-27T12:44:09Z</time>
   </trkpt>
   <trkpt lat="42.1098980" lon="2.8373010">
    <ele>98.7</ele>
    <time>2018-12-27T12:44:10Z</time>
   </trkpt>
   <trkpt lat="42.1099430" lon="2.8371350">
    <ele>99.8</ele>
    <time>2018-12-27T12:44:12Z</time>
   </trkpt>
   <trkpt lat="42.1099700" lon="2.8369600">
    <ele>101.0</ele>
    <time>2018-12-27T12:44:14Z</time>
   </trkpt>
   <trkpt lat="42.1099830" lon="2.8368500">
    <ele>101.8</ele>
    <time>2018-12-27T12:44:16Z</time>
   </trkpt>
   <trkpt lat="42.1100380" lon="2.8366260">
    <ele>103.5</ele>
    <time>2018-12-27T12:44:18Z</time>
   </trkpt>
   <trkpt lat="42.1099900" lon="2.8364510">
    <ele>104.7</ele>
    <time>2018-12-27T12:44:21Z</time>
   </trkpt>
   <trkpt lat="42.1099430" lon="2.8362900">
    <ele>105.7</ele>
    <time>2018-12-27T12:44:23Z</time>
   </trkpt>
   <trkpt lat="42.1099050" lon="2.8360760">
    <ele>106.7</ele>
    <time>2018-12-27T12:44:25Z</time>
   </trkpt>
   <trkpt lat="42.1098430" lon="2.8359600">
    <ele>107.3</ele>
    <time>2018-12-27T12:44:27Z</time>
   </trkpt>
   <trkpt lat="42.1097880" lon="2.8358010">
    <ele>107.9</ele>
    <time>2018-12-27T12:44:29Z</time>
   </trkpt>
   <trkpt lat="42.1097680" lon="2.8356430">
    <ele>108.5</ele>
    <time>2018-12-27T12:44:31Z</time>
   </trkpt>
   <trkpt lat="42.1098350" lon="2.8354700">
    <ele>109.4</ele>
    <time>2018-12-27T12:44:33Z</time>
   </trkpt>
   <trkpt lat="42.1098250" lon="2.8353100">
    <ele>110.1</ele>
    <time>2018-12-27T12:44:35Z</time>
   </trkpt>
   <trkpt lat="42.1098980" lon="2.8351380">
    <ele>111.0</ele>
    <time>2018-12-27T12:44:38Z</time>
   </trkpt>
   <trkpt lat="42.1100330" lon="2.8349400">
    <ele>112.3</ele>
    <time>2018-12-27T12:44:41Z</time>
   </trkpt>
   <trkpt lat="42.1101900" lon="2.8348950">
    <ele>113.1</ele>
    <time>2018-12-27T12:44:43Z</time>
   </trkpt>
   <trkpt lat="42.1103280" lon="2.8349260">
    <ele>113.7</ele>
    <time>2018-12-27T12:44:46Z</time>
   </trkpt>
   <trkpt lat="42.1105010" lon="2.8349550">
    <ele>114.4</ele>
    <time>2018-12-27T12:44:48Z</time>
   </trkpt>
   <trkpt lat="42.1106430" lon="2.8350050">
    <ele>115.1</ele>
    <time>2018-12-27T12:44:51Z</time>
   </trkpt>
   <trkpt lat="42.1107600" lon="2.8349010">
    <ele>116.0</ele>
    <time>2018-12-27T12:44:53Z</time>
   </trkpt>
   <trkpt lat="42.1108750" lon="2.8347600">
    <ele>116.9</ele>
    <time>2018-12-27T12:44:55Z</time>
   </trkpt>
   <trkpt lat="42.1109460" lon="2.8346430">
    <ele>117.6</ele>
    <time>2018-12-27T12:44:57Z</time>
   </trkpt>
   <trkpt lat="42.1110300" lon="2.8345580">
    <ele>118.2</ele>
    <time>2018-12-27T12:44:59Z</time>
   </trkpt>
   <trkpt lat="42.1111400" lon="2.8344750">
    <ele>119.0</ele>
    <time>2018-12-27T12:45:01Z</time>
   </trkpt>
   <trkpt lat="42.1112810" lon="2.8344400">
    <ele>119.9</ele>
    <time>2018-12-27T12:45:03Z</time>
   </trkpt>
   <trkpt lat="42.1114700" lon="2.8342610">
    <ele>121.5</ele>
    <time>2018-12-27T12:45:07Z</time>
   </trkpt>
   <trkpt lat="42.1116380" lon="2.8341860">
    <ele>122.5</ele>
    <time>2018-12-27T12:45:10Z</time>
   </trkpt>
   <trkpt lat="42.1118100" lon="2.8340650">
    <ele>123.4</ele>
    <time>2018-12-27T12:45:13Z</time>
   </trkpt>
   <trkpt lat="42.1119230" lon="2.8339380">
    <ele>124.1</ele>
    <time>2018-12-27T12:45:15Z</time>
   </trkpt>
   <trkpt lat="42.1119900" lon="2.8337750">
    <ele>124.9</ele>
    <time>2018-12-27T12:45:17Z</time>
   </trkpt>
   <trkpt lat="42.1120160" lon="2.8336480">
    <ele>125.5</ele>
    <time>2018-12-27T12:45:19Z</time>
   </trkpt>
   <trkpt lat="42.1120300" lon="2.8334960">
    <ele>126.3</ele>
    <time>2018-12-27T12:45:21Z</time>
   </trkpt>
   <trkpt lat="42.1120400" lon="2.8333400">
    <ele>127.0</ele>
    <time>2018-12-27T12:45:23Z</time>
   </trkpt>
   <trkpt lat="42.1121210" lon="2.8331860">
    <ele>127.6</ele>
    <time>2018-12-27T12:45:25Z</time>
   </trkpt>
   <trkpt lat="42.1122450" lon="2.8330830">
    <ele>128.4</ele>
    <time>2018-12-27T12:45:27Z</time>
   </trkpt>
   <trkpt lat="42.1123760" lon="2.8330110">
    <ele>129.2</ele>
    <time>2018-12-27T12:45:29Z</time>
   </trkpt>
   <trkpt lat="42.1125100" lon="2.8329650">
    <ele>130.1</ele>
    <time>2018-12-27T12:45:32Z</time>
   </trkpt>
   <trkpt lat="42.1126660" lon="2.8328710">
    <ele>131.1</ele>
    <time>2018-12-27T12:45:34Z</time>
   </trkpt>
   <trkpt lat="42.1128100" lon="2.8327460">
    <ele>132.1</ele>
    <time>2018-12-27T12:45:37Z</time>
   </trkpt>
   <trkpt lat="42.1128960" lon="2.8325530">
    <ele>132.9</ele>
    <time>2018-12-27T12:45:40Z</time>
   </trkpt>
   <trkpt lat="42.1129660" lon="2.8323730">
    <ele>133.7</ele>
    <time>2018-12-27T12:45:42Z</time>
   </trkpt>
   <trkpt lat="42.1130110" lon="2.8321910">
    <ele>134.5</ele>
    <time>2018-12-27T12:45:45Z</time>
   </trkpt>
   <trkpt lat="42.1130330" lon="2.8319730">
    <ele>135.3</ele>
    <time>2018-12-27T12:45:47Z</time>
   </trkpt>
   <trkpt lat="42.1130480" lon="2.8317150">
    <ele>135.9</ele>
    <time>2018-12-27T12:45:50Z</time>
   </trkpt>
   <trkpt lat="42.1130400" lon="2.8314830">
    <ele>135.8</ele>
    <time>2018-12-27T12:45:53Z</time>
   </trkpt>
   <trkpt lat="42.1130730" lon="2.8312830">
    <ele>135.5</ele>
    <time>2018-12-27T12:45:55Z</time>
   </trkpt>
   <trkpt lat="42.1130700" lon="2.8310360">
    <ele>134.7</ele>
    <time>2018-12-27T12:45:58Z</time>
   </trkpt>
   <trkpt lat="42.1130750" lon="2.8307410">
    <ele>133.6</ele>
    <time>2018-12-27T12:46:02Z</time>
   </trkpt>
   <trkpt lat="42.1130960" lon="2.8304060">
    <ele>132.4</ele>
    <time>2018-12-27T12:46:06Z</time>
   </trkpt>
   <trkpt lat="42.1130960" lon="2.8300210">
    <ele>131.6</ele>
    <time>2018-12-27T12:46:10Z</time>
   </trkpt>
   <trkpt lat="42.1130780" lon="2.8296030">
    <ele>131.5</ele>
    <time>2018-12-27T12:46:15Z</time>
   </trkpt>
   <trkpt lat="42.1131180" lon="2.8291680">
    <ele>132.1</ele>
    <time>2018-12-27T12:46:21Z</time>
   </trkpt>
   <trkpt lat="42.1131280" lon="2.8288150">
    <ele>133.0</ele>
    <time>2018-12-27T12:46:25Z</time>
   </trkpt>
   <trkpt lat="42.1131250" lon="2.8285150">
    <ele>133.7</ele>
    <time>2018-12-27T12:46:28Z</time>
   </trkpt>
   <trkpt lat="42.1131450" lon="2.8282430">
    <ele>134.6</ele>
    <time>2018-12-27T12:46:32Z</time>
   </trkpt>
   <trkpt lat="42.1131250" lon="2.8279530">
    <ele>135.7</ele>
    <time>2018-12-27T12:46:35Z</time>
   </trkpt>
   <trkpt lat="42.1131000" lon="2.8277130">
    <ele>137.0</ele>
    <time>2018-12-27T12:46:38Z</time>
   </trkpt>
   <trkpt lat="42.1130200" lon="2.8275150">
    <ele>138.3</ele>
    <time>2018-12-27T12:46:41Z</time>
   </trkpt>
   <trkpt lat="42.1129280" lon="2.8273630">
    <ele>139.3</ele>
    <time>2018-12-27T12:46:43Z</time>
   </trkpt>
   <trkpt lat="42.1127780" lon="2.8271960">
    <ele>140.6</ele>
    <time>2018-12-27T12:46:46Z</time>
   </trkpt>
   <trkpt lat="42.1126500" lon="2.8270530">
    <ele>141.7</ele>
    <time>2018-12-27T12:46:49Z</time>
   </trkpt>
   <trkpt lat="42.1125130" lon="2.8269180">
    <ele>142.7</ele>
    <time>2018-12-27T12:46:51Z</time>
   </trkpt>
   <trkpt lat="42.1123750" lon="2.8268110">
    <ele>143.9</ele>
    <time>2018-12-27T12:46:54Z</time>
   </trkpt>
   <trkpt lat="42.1122480" lon="2.8266150">
    <ele>145.7</ele>
    <time>2018-12-27T12:46:57Z</time>
   </trkpt>
   <trkpt lat="42.1121030" lon="2.8264850">
    <ele>146.7</ele>
    <time>2018-12-27T12:47:00Z</time>
   </trkpt>
   <trkpt lat="42.1119730" lon="2.8263300">
    <ele>147.6</ele>
    <time>2018-12-27T12:47:03Z</time>
   </trkpt>
   <trkpt lat="42.1117910" lon="2.8262030">
    <ele>148.8</ele>
    <time>2018-12-27T12:47:06Z</time>
   </trkpt>
   <trkpt lat="42.1116380" lon="2.8260630">
    <ele>149.9</ele>
    <time>2018-12-27T12:47:09Z</time>
   </trkpt>
   <trkpt lat="42.1114760" lon="2.8259580">
    <ele>151.0</ele>
    <time>2018-12-27T12:47:12Z</time>
   </trkpt>
   <trkpt lat="42.1113080" lon="2.8258300">
    <ele>152.3</ele>
    <time>2018-12-27T12:47:15Z</time>
   </trkpt>
   <trkpt lat="42.1111330" lon="2.8257400">
    <ele>153.2</ele>
    <time>2018-12-27T12:47:18Z</time>
   </trkpt>
   <trkpt lat="42.1110160" lon="2.8255410">
    <ele>154.0</ele>
    <time>2018-12-27T12:47:21Z</time>
   </trkpt>
   <trkpt lat="42.1109600" lon="2.8252900">
    <ele>154.9</ele>
    <time>2018-12-27T12:47:24Z</time>
   </trkpt>
   <trkpt lat="42.1109710" lon="2.8250100">
    <ele>156.1</ele>
    <time>2018-12-27T12:47:27Z</time>
   </trkpt>
   <trkpt lat="42.1109730" lon="2.8247200">
    <ele>156.5</ele>
    <time>2018-12-27T12:47:31Z</time>
   </trkpt>
   <trkpt lat="42.1109800" lon="2.8244200">
    <ele>156.1</ele>
    <time>2018-12-27T12:47:34Z</time>
   </trkpt>
   <trkpt lat="42.1109880" lon="2.8241150">
    <ele>155.8</ele>
    <time>2018-12-27T12:47:38Z</time>
   </trkpt>
   <trkpt lat="42.1109950" lon="2.8238030">
    <ele>155.7</ele>
    <time>2018-12-27T12:47:42Z</time>
   </trkpt>
   <trkpt lat="42.1111050" lon="2.8235500">
    <ele>155.4</ele>
    <time>2018-12-27T12:47:45Z</time>
   </trkpt>
   <trkpt lat="42.1113080" lon="2.8234550">
    <ele>155.1</ele>
    <time>2018-12-27T12:47:49Z</time>
   </trkpt>
   <trkpt lat="42.1115410" lon="2.8234130">
    <ele>154.7</ele>
    <time>2018-12-27T12:47:52Z</time>
   </trkpt>
   <trkpt lat="42.1117980" lon="2.8232800">
    <ele>154.1</ele>
    <time>2018-12-27T12:47:57Z</time>
   </trkpt>
   <trkpt lat="42.1120700" lon="2.8230860">
    <ele>153.4</ele>
    <time>2018-12-27T12:48:02Z</time>
   </trkpt>
   <trkpt lat="42.1123380" lon="2.8228460">
    <ele>152.4</ele>
    <time>2018-12-27T12:48:07Z</time>
   </trkpt>
   <trkpt lat="42.1124400" lon="2.8224500">
    <ele>150.3</ele>
    <time>2018-12-27T12:48:12Z</time>
   </trkpt>
   <trkpt lat="42.1124330" lon="2.8220510">
    <ele>148.2</ele>
    <time>2018-12-27T12:48:17Z</time>
   </trkpt>
   <trkpt lat="42.1124250" lon="2.8216730">
    <ele>146.7</ele>
    <time>2018-12-27T12:48:21Z</time>
   </trkpt>
   <trkpt lat="42.1123900" lon="2.8213230">
    <ele>145.8</ele>
    <time>2018-12-27T12:48:25Z</time>
   </trkpt>
   <trkpt lat="42.1122460" lon="2.8210500">
    <ele>145.3</ele>
    <time>2018-12-27T12:48:29Z</time>
   </trkpt>
   <trkpt lat="42.1120360" lon="2.8208460">
    <ele>145.0</ele>
    <time>2018-12-27T12:48:33Z</time>
   </trkpt>
   <trkpt lat="42.1118280" lon="2.8206510">
    <ele>144.8</ele>
    <time>2018-12-27T12:48:37Z</time>
   </trkpt>
   <trkpt lat="42.1116350" lon="2.8204680">
    <ele>144.9</ele>
    <time>2018-12-27T12:48:41Z</time>
   </trkpt>
   <trkpt lat="42.1114130" lon="2.8203030">
    <ele>145.2</ele>
    <time>2018-12-27T12:48:45Z</time>
   </trkpt>
   <trkpt lat="42.1112200" lon="2.8201260">
    <ele>145.7</ele>
    <time>2018-12-27T12:48:49Z</time>
   </trkpt>
   <trkpt lat="42.1110850" lon="2.8199050">
    <ele>146.4</ele>
    <time>2018-12-27T12:48:52Z</time>
   </trkpt>
   <trkpt lat="42.1110850" lon="2.8196050">
    <ele>146.8</ele>
    <time>2018-12-27T12:48:56Z</time>
   </trkpt>
   <trkpt lat="42.1111480" lon="2.8193630">
    <ele>146.9</ele>
    <time>2018-12-27T12:48:59Z</time>
   </trkpt>
   <trkpt lat="42.1112530" lon="2.8191530">
    <ele>147.0</ele>
    <time>2018-12-27T12:49:02Z</time>
   </trkpt>
   <trkpt lat="42.1113500" lon="2.8189500">
    <ele>147.2</ele>
    <time>2018-12-27T12:49:05Z</time>
   </trkpt>
   <trkpt lat="42.1114380" lon="2.8187350">
    <ele>147.5</ele>
    <time>2018-12-27T12:49:08Z</time>
   </trkpt>
   <trkpt lat="42.1115380" lon="2.8185980">
    <ele>147.5</ele>
    <time>2018-12-27T12:49:10Z</time>
   </trkpt>
   <trkpt lat="42.1116250" lon="2.8183950">
    <ele>147.3</ele>
    <time>2018-12-27T12:49:13Z</time>
   </trkpt>
   <trkpt lat="42.1116850" lon="2.8181810">
    <ele>147.3</ele>
    <time>2018-12-27T12:49:16Z</time>
   </trkpt>
   <trkpt lat="42.1117550" lon="2.8180010">
    <ele>147.3</ele>
    <time>2018-12-27T12:49:18Z</time>
   </trkpt>
   <trkpt lat="42.1116300" lon="2.8178930">
    <ele>147.0</ele>
    <time>2018-12-27T12:49:20Z</time>
   </trkpt>
   <trkpt lat="42.1114460" lon="2.8178400">
    <ele>146.9</ele>
    <time>2018-12-27T12:49:23Z</time>
   </trkpt>
   <trkpt lat="42.1112500" lon="2.8178380">
    <ele>146.8</ele>
    <time>2018-12-27T12:49:27Z</time>
   </trkpt>
   <trkpt lat="42.1110180" lon="2.8178250">
    <ele>146.7</ele>
    <time>2018-12-27T12:49:30Z</time>
   </trkpt>
   <trkpt lat="42.1107960" lon="2.8179030">
    <ele>146.7</ele>
    <time>2018-12-27T12:49:34Z</time>
   </trkpt>
   <trkpt lat="42.1105600" lon="2.8179600">
    <ele>146.6</ele>
    <time>2018-12-27T12:49:38Z</time>
   </trkpt>
   <trkpt lat="42.1103350" lon="2.8180680">
    <ele>144.8</ele>
    <time>2018-12-27T12:49:42Z</time>
   </trkpt>
   <trkpt lat="42.1101030" lon="2.8181550">
    <ele>143.2</ele>
    <time>2018-12-27T12:49:45Z</time>
   </trkpt>
   <trkpt lat="42.1098700" lon="2.8182980">
    <ele>142.2</ele>
    <time>2018-12-27T12:49:50Z</time>
   </trkpt>
   <trkpt lat="42.1096350" lon="2.8184100">
    <ele>141.6</ele>
    <time>2018-12-27T12:49:54Z</time>
   </trkpt>
   <trkpt lat="42.1093780" lon="2.8185200">
    <ele>141.0</ele>
    <time>2018-12-27T12:49:58Z</time>
   </trkpt>
   <trkpt lat="42.1091510" lon="2.8185900">
    <ele>140.5</ele>
    <time>2018-12-27T12:50:02Z</time>
   </trkpt>
   <trkpt lat="42.1089350" lon="2.8186600">
    <ele>140.1</ele>
    <time>2018-12-27T12:50:05Z</time>
   </trkpt>
   <trkpt lat="42.1086930" lon="2.8186610">
    <ele>140.0</ele>
    <time>2018-12-27T12:50:09Z</time>
   </trkpt>
   <trkpt lat="42.1084610" lon="2.8186660">
    <ele>139.7</ele>
    <time>2018-12-27T12:50:13Z</time>
   </trkpt>
   <trkpt lat="42.1081950" lon="2.8186900">
    <ele>139.2</ele>
    <time>2018-12-27T12:50:17Z</time>
   </trkpt>
   <trkpt lat="42.1079600" lon="2.8186760">
    <ele>138.8</ele>
    <time>2018-12-27T12:50:21Z</time>
   </trkpt>
   <trkpt lat="42.1077300" lon="2.8186280">
    <ele>138.4</ele>
    <time>2018-12-27T12:50:24Z</time>
   </trkpt>
   <trkpt lat="42.1075000" lon="2.8185810">
    <ele>137.9</ele>
    <time>2018-12-27T12:50:28Z</time>
   </trkpt>
   <trkpt lat="42.1072680" lon="2.8186060">
    <ele>137.9</ele>
    <time>2018-12-27T12:50:32Z</time>
   </trkpt>
   <trkpt lat="42.1070550" lon="2.8186560">
    <ele>137.7</ele>
    <time>2018-12-27T12:50:35Z</time>
   </trkpt>
   <trkpt lat="42.1068580" lon="2.8187000">
    <ele>137.4</ele>
    <time>2018-12-27T12:50:39Z</time>
   </trkpt>
   <trkpt lat="42.1066930" lon="2.8187800">
    <ele>137.5</ele>
    <time>2018-12-27T12:50:41Z</time>
   </trkpt>
   <trkpt lat="42.1065000" lon="2.8187900">
    <ele>137.7</ele>
    <time>2018-12-27T12:50:44Z</time>
   </trkpt>
   <trkpt lat="42.1063400" lon="2.8188100">
    <ele>138.1</ele>
    <time>2018-12-27T12:50:47Z</time>
   </trkpt>
   <trkpt lat="42.1062210" lon="2.8188450">
    <ele>138.5</ele>
    <time>2018-12-27T12:50:49Z</time>
   </trkpt>
   <trkpt lat="42.1060630" lon="2.8188100">
    <ele>138.8</ele>
    <time>2018-12-27T12:50:52Z</time>
   </trkpt>
   <trkpt lat="42.1058930" lon="2.8187760">
    <ele>138.9</ele>
    <time>2018-12-27T12:50:54Z</time>
   </trkpt>
   <trkpt lat="42.1057380" lon="2.8188560">
    <ele>138.9</ele>
    <time>2018-12-27T12:50:57Z</time>
   </trkpt>
   <trkpt lat="42.1055610" lon="2.8188580">
    <ele>138.4</ele>
    <time>2018-12-27T12:51:00Z</time>
   </trkpt>
   <trkpt lat="42.1054110" lon="2.8188030">
    <ele>138.2</ele>
    <time>2018-12-27T12:51:02Z</time>
   </trkpt>
   <trkpt lat="42.1053360" lon="2.8188950">
    <ele>138.9</ele>
    <time>2018-12-27T12:51:04Z</time>
   </trkpt>
   <trkpt lat="42.1053010" lon="2.8189730">
    <ele>139.2</ele>
    <time>2018-12-27T12:51:05Z</time>
   </trkpt>
   <trkpt lat="42.1052030" lon="2.8191550">
    <ele>139.4</ele>
    <time>2018-12-27T12:51:08Z</time>
   </trkpt>
   <trkpt lat="42.1052400" lon="2.8194430">
    <ele>138.6</ele>
    <time>2018-12-27T12:51:11Z</time>
   </trkpt>
   <trkpt lat="42.1052400" lon="2.8196080">
    <ele>136.8</ele>
    <time>2018-12-27T12:51:13Z</time>
   </trkpt>
   <trkpt lat="42.1051830" lon="2.8197460">
    <ele>135.5</ele>
    <time>2018-12-27T12:51:15Z</time>
   </trkpt>
   <trkpt lat="42.1050310" lon="2.8198330">
    <ele>135.5</ele>
    <time>2018-12-27T12:51:18Z</time>
   </trkpt>
   <trkpt lat="42.1048650" lon="2.8199460">
    <ele>135.5</ele>
    <time>2018-12-27T12:51:21Z</time>
   </trkpt>
   <trkpt lat="42.1046750" lon="2.8200260">
    <ele>135.4</ele>
    <time>2018-12-27T12:51:24Z</time>
   </trkpt>
   <trkpt lat="42.1044560" lon="2.8200900">
    <ele>135.0</ele>
    <time>2018-12-27T12:51:27Z</time>
   </trkpt>
   <trkpt lat="42.1042360" lon="2.8201160">
    <ele>134.8</ele>
    <time>2018-12-27T12:51:31Z</time>
   </trkpt>
   <trkpt lat="42.1040030" lon="2.8201310">
    <ele>134.7</ele>
    <time>2018-12-27T12:51:35Z</time>
   </trkpt>
   <trkpt lat="42.1036950" lon="2.8201430">
    <ele>133.6</ele>
    <time>2018-12-27T12:51:40Z</time>
   </trkpt>
   <trkpt lat="42.1034000" lon="2.8201600">
    <ele>132.3</ele>
    <time>2018-12-27T12:51:44Z</time>
   </trkpt>
   <trkpt lat="42.1030960" lon="2.8201730">
    <ele>131.1</ele>
    <time>2018-12-27T12:51:49Z</time>
   </trkpt>
   <trkpt lat="42.1027380" lon="2.8201930">
    <ele>129.6</ele>
    <time>2018-12-27T12:51:55Z</time>
   </trkpt>
   <trkpt lat="42.1023800" lon="2.8201430">
    <ele>128.0</ele>
    <time>2018-12-27T12:52:01Z</time>
   </trkpt>
   <trkpt lat="42.1020150" lon="2.8199780">
    <ele>126.0</ele>
    <time>2018-12-27T12:52:07Z</time>
   </trkpt>
   <trkpt lat="42.1016850" lon="2.8196860">
    <ele>124.7</ele>
    <time>2018-12-27T12:52:13Z</time>
   </trkpt>
   <trkpt lat="42.1013550" lon="2.8194000">
    <ele>124.3</ele>
    <time>2018-12-27T12:52:19Z</time>
   </trkpt>
   <trkpt lat="42.1010280" lon="2.8191610">
    <ele>124.1</ele>
    <time>2018-12-27T12:52:25Z</time>
   </trkpt>
   <trkpt lat="42.1007400" lon="2.8189160">
    <ele>123.8</ele>
    <time>2018-12-27T12:52:31Z</time>
   </trkpt>
   <trkpt lat="42.1005550" lon="2.8187230">
    <ele>123.6</ele>
    <time>2018-12-27T12:52:35Z</time>
   </trkpt>
   <trkpt lat="42.1003360" lon="2.8185000">
    <ele>123.2</ele>
    <time>2018-12-27T12:52:39Z</time>
   </trkpt>
   <trkpt lat="42.1001160" lon="2.8183380">
    <ele>122.5</ele>
    <time>2018-12-27T12:52:43Z</time>
   </trkpt>
   <trkpt lat="42.0998910" lon="2.8181310">
    <ele>121.2</ele>
    <time>2018-12-27T12:52:47Z</time>
   </trkpt>
   <trkpt lat="42.0996530" lon="2.8179250">
    <ele>120.9</ele>
    <time>2018-12-27T12:52:52Z</time>
   </trkpt>
   <trkpt lat="42.0993630" lon="2.8177660">
    <ele>120.1</ele>
    <time>2018-12-27T12:52:57Z</time>
   </trkpt>
   <trkpt lat="42.0990400" lon="2.8177250">
    <ele>118.6</ele>
    <time>2018-12-27T12:53:02Z</time>
   </trkpt>
   <trkpt lat="42.0987300" lon="2.8177160">
    <ele>116.7</ele>
    <time>2018-12-27T12:53:07Z</time>
   </trkpt>
   <trkpt lat="42.0983980" lon="2.8177430">
    <ele>114.8</ele>
    <time>2018-12-27T12:53:12Z</time>
   </trkpt>
   <trkpt lat="42.0980450" lon="2.8177580">
    <ele>112.7</ele>
    <time>2018-12-27T12:53:18Z</time>
   </trkpt>
   <trkpt lat="42.0976780" lon="2.8177650">
    <ele>110.6</ele>
    <time>2018-12-27T12:53:24Z</time>
   </trkpt>
   <trkpt lat="42.0972610" lon="2.8177550">
    <ele>108.2</ele>
    <time>2018-12-27T12:53:31Z</time>
   </trkpt>
   <trkpt lat="42.0968400" lon="2.8177980">
    <ele>105.8</ele>
    <time>2018-12-27T12:53:37Z</time>
   </trkpt>
   <trkpt lat="42.0964010" lon="2.8178880">
    <ele>103.7</ele>
    <time>2018-12-27T12:53:44Z</time>
   </trkpt>
   <trkpt lat="42.0960030" lon="2.8179730">
    <ele>102.1</ele>
    <time>2018-12-27T12:53:51Z</time>
   </trkpt>
   <trkpt lat="42.0956080" lon="2.8180350">
    <ele>100.7</ele>
    <time>2018-12-27T12:53:57Z</time>
   </trkpt>
   <trkpt lat="42.0952530" lon="2.8180730">
    <ele>99.6</ele>
    <time>2018-12-27T12:54:03Z</time>
   </trkpt>
   <trkpt lat="42.0949030" lon="2.8180500">
    <ele>98.4</ele>
    <time>2018-12-27T12:54:09Z</time>
   </trkpt>
   <trkpt lat="42.0945530" lon="2.8179500">
    <ele>97.7</ele>
    <time>2018-12-27T12:54:14Z</time>
   </trkpt>
   <trkpt lat="42.0942110" lon="2.8177980">
    <ele>97.5</ele>
    <time>2018-12-27T12:54:20Z</time>
   </trkpt>
   <trkpt lat="42.0938610" lon="2.8176660">
    <ele>97.7</ele>
    <time>2018-12-27T12:54:26Z</time>
   </trkpt>
   <trkpt lat="42.0935130" lon="2.8176380">
    <ele>97.9</ele>
    <time>2018-12-27T12:54:31Z</time>
   </trkpt>
   <trkpt lat="42.0932450" lon="2.8175650">
    <ele>98.4</ele>
    <time>2018-12-27T12:54:36Z</time>
   </trkpt>
   <trkpt lat="42.0930200" lon="2.8174630">
    <ele>98.9</ele>
    <time>2018-12-27T12:54:40Z</time>
   </trkpt>
   <trkpt lat="42.0928360" lon="2.8174980">
    <ele>99.0</ele>
    <time>2018-12-27T12:54:43Z</time>
   </trkpt>
   <trkpt lat="42.0926930" lon="2.8175060">
    <ele>99.1</ele>
    <time>2018-12-27T12:54:45Z</time>
   </trkpt>
   <trkpt lat="42.0926010" lon="2.8174660">
    <ele>99.1</ele>
    <time>2018-12-27T12:54:46Z</time>
   </trkpt>
   <trkpt lat="42.0925460" lon="2.8174150">
    <ele>99.1</ele>
    <time>2018-12-27T12:54:48Z</time>
   </trkpt>
   <trkpt lat="42.0924350" lon="2.8173900">
    <ele>99.0</ele>
    <time>2018-12-27T12:54:49Z</time>
   </trkpt>
   <trkpt lat="42.0923160" lon="2.8173660">
    <ele>99.0</ele>
    <time>2018-12-27T12:54:51Z</time>
   </trkpt>
   <trkpt lat="42.0921760" lon="2.8173150">
    <ele>99.0</ele>
    <time>2018-12-27T12:54:54Z</time>
   </trkpt>
   <trkpt lat="42.0919860" lon="2.8172730">
    <ele>98.9</ele>
    <time>2018-12-27T12:54:57Z</time>
   </trkpt>
   <trkpt lat="42.0917910" lon="2.8172000">
    <ele>98.8</ele>
    <time>2018-12-27T12:55:00Z</time>
   </trkpt>
   <trkpt lat="42.0915880" lon="2.8171530">
    <ele>98.7</ele>
    <time>2018-12-27T12:55:03Z</time>
   </trkpt>
   <trkpt lat="42.0913930" lon="2.8171060">
    <ele>98.8</ele>
    <time>2018-12-27T12:55:06Z</time>
   </trkpt>
   <trkpt lat="42.0911960" lon="2.8170210">
    <ele>98.4</ele>
    <time>2018-12-27T12:55:10Z</time>
   </trkpt>
   <trkpt lat="42.0910110" lon="2.8169030">
    <ele>98.4</ele>
    <time>2018-12-27T12:55:13Z</time>
   </trkpt>
   <trkpt lat="42.0907830" lon="2.8168830">
    <ele>98.5</ele>
    <time>2018-12-27T12:55:17Z</time>
   </trkpt>
   <trkpt lat="42.0905730" lon="2.8168480">
    <ele>98.6</ele>
    <time>2018-12-27T12:55:20Z</time>
   </trkpt>
   <trkpt lat="42.0903800" lon="2.8168680">
    <ele>98.7</ele>
    <time>2018-12-27T12:55:23Z</time>
   </trkpt>
   <trkpt lat="42.0901700" lon="2.8168180">
    <ele>98.7</ele>
    <time>2018-12-27T12:55:27Z</time>
   </trkpt>
   <trkpt lat="42.0899700" lon="2.8168350">
    <ele>98.9</ele>
    <time>2018-12-27T12:55:30Z</time>
   </trkpt>
   <trkpt lat="42.0898760" lon="2.8167860">
    <ele>99.1</ele>
    <time>2018-12-27T12:55:31Z</time>
   </trkpt>
   <trkpt lat="42.0898030" lon="2.8167930">
    <ele>99.0</ele>
    <time>2018-12-27T12:55:33Z</time>
   </trkpt>
   <trkpt lat="42.0897760" lon="2.8167930">
    <ele>99.0</ele>
    <time>2018-12-27T12:55:33Z</time>
   </trkpt>
   <trkpt lat="42.0898110" lon="2.8168300">
    <ele>99.0</ele>
    <time>2018-12-27T12:55:34Z</time>
   </trkpt>
   <trkpt lat="42.0897480" lon="2.8170010">
    <ele>98.3</ele>
    <time>2018-12-27T12:55:36Z</time>
   </trkpt>
   <trkpt lat="42.0896910" lon="2.8171730">
    <ele>97.5</ele>
    <time>2018-12-27T12:55:38Z</time>
   </trkpt>
   <trkpt lat="42.0895150" lon="2.8173180">
    <ele>96.7</ele>
    <time>2018-12-27T12:55:41Z</time>
   </trkpt>
   <trkpt lat="42.0894010" lon="2.8172950">
    <ele>96.7</ele>
    <time>2018-12-27T12:55:43Z</time>
   </trkpt>
   <trkpt lat="42.0892850" lon="2.8172260">
    <ele>96.8</ele>
    <time>2018-12-27T12:55:45Z</time>
   </trkpt>
   <trkpt lat="42.0892010" lon="2.8171550">
    <ele>96.8</ele>
    <time>2018-12-27T12:55:47Z</time>
   </trkpt>
   <trkpt lat="42.0890730" lon="2.8170660">
    <ele>96.9</ele>
    <time>2018-12-27T12:55:49Z</time>
   </trkpt>
   <trkpt lat="42.0889800" lon="2.8170300">
    <ele>97.0</ele>
    <time>2018-12-27T12:55:51Z</time>
   </trkpt>
   <trkpt lat="42.0889300" lon="2.8170200">
    <ele>97.0</ele>
    <time>2018-12-27T12:55:52Z</time>
   </trkpt>
   <trkpt lat="42.0888610" lon="2.8170650">
    <ele>96.9</ele>
    <time>2018-12-27T12:55:53Z</time>
   </trkpt>
   <trkpt lat="42.0888260" lon="2.8171930">
    <ele>96.8</ele>
    <time>2018-12-27T12:55:54Z</time>
   </trkpt>
   <trkpt lat="42.0887510" lon="2.8173160">
    <ele>96.6</ele>
    <time>2018-12-27T12:55:56Z</time>
   </trkpt>
   <trkpt lat="42.0886410" lon="2.8174380">
    <ele>96.4</ele>
    <time>2018-12-27T12:55:59Z</time>
   </trkpt>
   <trkpt lat="42.0885480" lon="2.8176300">
    <ele>96.2</ele>
    <time>2018-12-27T12:56:01Z</time>
   </trkpt>
   <trkpt lat="42.0884380" lon="2.8178160">
    <ele>96.1</ele>
    <time>2018-12-27T12:56:04Z</time>
   </trkpt>
   <trkpt lat="42.0883230" lon="2.8179950">
    <ele>96.1</ele>
    <time>2018-12-27T12:56:07Z</time>
   </trkpt>
   <trkpt lat="42.0882060" lon="2.8181950">
    <ele>96.0</ele>
    <time>2018-12-27T12:56:10Z</time>
   </trkpt>
   <trkpt lat="42.0880950" lon="2.8183930">
    <ele>96.1</ele>
    <time>2018-12-27T12:56:13Z</time>
   </trkpt>
   <trkpt lat="42.0879860" lon="2.8185850">
    <ele>95.8</ele>
    <time>2018-12-27T12:56:16Z</time>
   </trkpt>
   <trkpt lat="42.0878730" lon="2.8188060">
    <ele>95.5</ele>
    <time>2018-12-27T12:56:19Z</time>
   </trkpt>
   <trkpt lat="42.0876960" lon="2.8190610">
    <ele>94.7</ele>
    <time>2018-12-27T12:56:23Z</time>
   </trkpt>
   <trkpt lat="42.0875760" lon="2.8192600">
    <ele>93.9</ele>
    <time>2018-12-27T12:56:26Z</time>
   </trkpt>
   <trkpt lat="42.0874830" lon="2.8194930">
    <ele>93.5</ele>
    <time>2018-12-27T12:56:29Z</time>
   </trkpt>
   <trkpt lat="42.0873860" lon="2.8197330">
    <ele>93.9</ele>
    <time>2018-12-27T12:56:33Z</time>
   </trkpt>
   <trkpt lat="42.0872780" lon="2.8199780">
    <ele>94.2</ele>
    <time>2018-12-27T12:56:36Z</time>
   </trkpt>
   <trkpt lat="42.0871450" lon="2.8202150">
    <ele>94.7</ele>
    <time>2018-12-27T12:56:40Z</time>
   </trkpt>
   <trkpt lat="42.0869910" lon="2.8204750">
    <ele>95.0</ele>
    <time>2018-12-27T12:56:43Z</time>
   </trkpt>
   <trkpt lat="42.0868750" lon="2.8206930">
    <ele>95.6</ele>
    <time>2018-12-27T12:56:47Z</time>
   </trkpt>
   <trkpt lat="42.0867710" lon="2.8209280">
    <ele>96.0</ele>
    <time>2018-12-27T12:56:50Z</time>
   </trkpt>
   <trkpt lat="42.0866450" lon="2.8211400">
    <ele>96.2</ele>
    <time>2018-12-27T12:56:53Z</time>
   </trkpt>
   <trkpt lat="42.0865550" lon="2.8213680">
    <ele>96.4</ele>
    <time>2018-12-27T12:56:56Z</time>
   </trkpt>
   <trkpt lat="42.0864500" lon="2.8216010">
    <ele>96.6</ele>
    <time>2018-12-27T12:56:59Z</time>
   </trkpt>
   <trkpt lat="42.0863450" lon="2.8218430">
    <ele>96.7</ele>
    <time>2018-12-27T12:57:03Z</time>
   </trkpt>
   <trkpt lat="42.0862360" lon="2.8220650">
    <ele>96.8</ele>
    <time>2018-12-27T12:57:06Z</time>
   </trkpt>
   <trkpt lat="42.0861130" lon="2.8223060">
    <ele>96.8</ele>
    <time>2018-12-27T12:57:09Z</time>
   </trkpt>
   <trkpt lat="42.0859960" lon="2.8225200">
    <ele>96.9</ele>
    <time>2018-12-27T12:57:13Z</time>
   </trkpt>
   <trkpt lat="42.0858900" lon="2.8227510">
    <ele>96.5</ele>
    <time>2018-12-27T12:57:16Z</time>
   </trkpt>
   <trkpt lat="42.0857930" lon="2.8229780">
    <ele>95.5</ele>
    <time>2018-12-27T12:57:19Z</time>
   </trkpt>
   <trkpt lat="42.0856950" lon="2.8232000">
    <ele>94.9</ele>
    <time>2018-12-27T12:57:22Z</time>
   </trkpt>
   <trkpt lat="42.0855460" lon="2.8234560">
    <ele>94.4</ele>
    <time>2018-12-27T12:57:26Z</time>
   </trkpt>
   <trkpt lat="42.0853980" lon="2.8237400">
    <ele>94.1</ele>
    <time>2018-12-27T12:57:30Z</time>
   </trkpt>
   <trkpt lat="42.0852410" lon="2.8240430">
    <ele>93.9</ele>
    <time>2018-12-27T12:57:34Z</time>
   </trkpt>
   <trkpt lat="42.0850830" lon="2.8243680">
    <ele>93.8</ele>
    <time>2018-12-27T12:57:39Z</time>
   </trkpt>
   <trkpt lat="42.0848910" lon="2.8247030">
    <ele>93.6</ele>
    <time>2018-12-27T12:57:44Z</time>
   </trkpt>
   <trkpt lat="42.0847050" lon="2.8249410">
    <ele>93.6</ele>
    <time>2018-12-27T12:57:48Z</time>
   </trkpt>
   <trkpt lat="42.0844600" lon="2.8251750">
    <ele>93.7</ele>
    <time>2018-12-27T12:57:53Z</time>
   </trkpt>
   <trkpt lat="42.0842110" lon="2.8254250">
    <ele>93.9</ele>
    <time>2018-12-27T12:57:58Z</time>
   </trkpt>
   <trkpt lat="42.0840150" lon="2.8256550">
    <ele>94.2</ele>
    <time>2018-12-27T12:58:02Z</time>
   </trkpt>
   <trkpt lat="42.0838460" lon="2.8258480">
    <ele>94.5</ele>
    <time>2018-12-27T12:58:06Z</time>
   </trkpt>
   <trkpt lat="42.0836730" lon="2.8260280">
    <ele>94.6</ele>
    <time>2018-12-27T12:58:09Z</time>
   </trkpt>
   <trkpt lat="42.0835050" lon="2.8262230">
    <ele>95.0</ele>
    <time>2018-12-27T12:58:13Z</time>
   </trkpt>
   <trkpt lat="42.0833480" lon="2.8264110">
    <ele>95.7</ele>
    <time>2018-12-27T12:58:16Z</time>
   </trkpt>
   <trkpt lat="42.0831630" lon="2.8265650">
    <ele>96.3</ele>
    <time>2018-12-27T12:58:19Z</time>
   </trkpt>
   <trkpt lat="42.0829950" lon="2.8267510">
    <ele>96.8</ele>
    <time>2018-12-27T12:58:23Z</time>
   </trkpt>
   <trkpt lat="42.0828150" lon="2.8269780">
    <ele>97.1</ele>
    <time>2018-12-27T12:58:27Z</time>
   </trkpt>
   <trkpt lat="42.0826200" lon="2.8271950">
    <ele>97.3</ele>
    <time>2018-12-27T12:58:31Z</time>
   </trkpt>
   <trkpt lat="42.0824310" lon="2.8273900">
    <ele>97.4</ele>
    <time>2018-12-27T12:58:35Z</time>
   </trkpt>
   <trkpt lat="42.0822430" lon="2.8276050">
    <ele>97.4</ele>
    <time>2018-12-27T12:58:39Z</time>
   </trkpt>
   <trkpt lat="42.0820500" lon="2.8278300">
    <ele>97.4</ele>
    <time>2018-12-27T12:58:43Z</time>
   </trkpt>
   <trkpt lat="42.0818530" lon="2.8280450">
    <ele>97.1</ele>
    <time>2018-12-27T12:58:47Z</time>
   </trkpt>
   <trkpt lat="42.0816460" lon="2.8282500">
    <ele>96.7</ele>
    <time>2018-12-27T12:58:51Z</time>
   </trkpt>
   <trkpt lat="42.0814630" lon="2.8284750">
    <ele>96.2</ele>
    <time>2018-12-27T12:58:55Z</time>
   </trkpt>
   <trkpt lat="42.0812630" lon="2.8287110">
    <ele>95.9</ele>
    <time>2018-12-27T12:58:59Z</time>
   </trkpt>
   <trkpt lat="42.0810630" lon="2.8289500">
    <ele>95.7</ele>
    <time>2018-12-27T12:59:03Z</time>
   </trkpt>
   <trkpt lat="42.0808280" lon="2.8291760">
    <ele>95.3</ele>
    <time>2018-12-27T12:59:08Z</time>
   </trkpt>
   <trkpt lat="42.0806160" lon="2.8294380">
    <ele>94.9</ele>
    <time>2018-12-27T12:59:13Z</time>
   </trkpt>
   <trkpt lat="42.0803760" lon="2.8296580">
    <ele>94.9</ele>
    <time>2018-12-27T12:59:17Z</time>
   </trkpt>
   <trkpt lat="42.0801610" lon="2.8299480">
    <ele>94.9</ele>
    <time>2018-12-27T12:59:22Z</time>
   </trkpt>
   <trkpt lat="42.0799550" lon="2.8301800">
    <ele>94.8</ele>
    <time>2018-12-27T12:59:27Z</time>
   </trkpt>
   <trkpt lat="42.0797430" lon="2.8304010">
    <ele>94.8</ele>
    <time>2018-12-27T12:59:31Z</time>
   </trkpt>
   <trkpt lat="42.0795300" lon="2.8306000">
    <ele>95.0</ele>
    <time>2018-12-27T12:59:35Z</time>
   </trkpt>
   <trkpt lat="42.0793380" lon="2.8307980">
    <ele>95.3</ele>
    <time>2018-12-27T12:59:39Z</time>
   </trkpt>
   <trkpt lat="42.0791830" lon="2.8306410">
    <ele>95.5</ele>
    <time>2018-12-27T12:59:42Z</time>
   </trkpt>
   <trkpt lat="42.0791030" lon="2.8303680">
    <ele>95.6</ele>
    <time>2018-12-27T12:59:45Z</time>
   </trkpt>
   <trkpt lat="42.0789830" lon="2.8300780">
    <ele>95.5</ele>
    <time>2018-12-27T12:59:49Z</time>
   </trkpt>
   <trkpt lat="42.0788700" lon="2.8297900">
    <ele>95.3</ele>
    <time>2018-12-27T12:59:53Z</time>
   </trkpt>
   <trkpt lat="42.0786930" lon="2.8295400">
    <ele>94.8</ele>
    <time>2018-12-27T12:59:57Z</time>
   </trkpt>
   <trkpt lat="42.0785130" lon="2.8293210">
    <ele>94.6</ele>
    <time>2018-12-27T13:00:01Z</time>
   </trkpt>
   <trkpt lat="42.0783900" lon="2.8290850">
    <ele>94.6</ele>
    <time>2018-12-27T13:00:05Z</time>
   </trkpt>
   <trkpt lat="42.0782810" lon="2.8288560">
    <ele>94.6</ele>
    <time>2018-12-27T13:00:08Z</time>
   </trkpt>
   <trkpt lat="42.0781410" lon="2.8286080">
    <ele>94.7</ele>
    <time>2018-12-27T13:00:12Z</time>
   </trkpt>
   <trkpt lat="42.0780230" lon="2.8283630">
    <ele>94.4</ele>
    <time>2018-12-27T13:00:15Z</time>
   </trkpt>
   <trkpt lat="42.0779100" lon="2.8280750">
    <ele>94.1</ele>
    <time>2018-12-27T13:00:19Z</time>
   </trkpt>
   <trkpt lat="42.0778130" lon="2.8278010">
    <ele>94.3</ele>
    <time>2018-12-27T13:00:23Z</time>
   </trkpt>
   <trkpt lat="42.0777180" lon="2.8275350">
    <ele>94.6</ele>
    <time>2018-12-27T13:00:26Z</time>
   </trkpt>
   <trkpt lat="42.0775880" lon="2.8272630">
    <ele>95.0</ele>
    <time>2018-12-27T13:00:30Z</time>
   </trkpt>
   <trkpt lat="42.0775300" lon="2.8269850">
    <ele>95.3</ele>
    <time>2018-12-27T13:00:33Z</time>
   </trkpt>
   <trkpt lat="42.0774560" lon="2.8267100">
    <ele>95.7</ele>
    <time>2018-12-27T13:00:37Z</time>
   </trkpt>
   <trkpt lat="42.0773750" lon="2.8264330">
    <ele>96.1</ele>
    <time>2018-12-27T13:00:40Z</time>
   </trkpt>
   <trkpt lat="42.0772780" lon="2.8261860">
    <ele>96.4</ele>
    <time>2018-12-27T13:00:44Z</time>
   </trkpt>
   <trkpt lat="42.0772130" lon="2.8259480">
    <ele>96.8</ele>
    <time>2018-12-27T13:00:47Z</time>
   </trkpt>
   <trkpt lat="42.0771300" lon="2.8256750">
    <ele>97.1</ele>
    <time>2018-12-27T13:00:50Z</time>
   </trkpt>
   <trkpt lat="42.0770430" lon="2.8253960">
    <ele>97.3</ele>
    <time>2018-12-27T13:00:54Z</time>
   </trkpt>
   <trkpt lat="42.0769700" lon="2.8251430">
    <ele>97.4</ele>
    <time>2018-12-27T13:00:57Z</time>
   </trkpt>
   <trkpt lat="42.0768480" lon="2.8249250">
    <ele>97.5</ele>
    <time>2018-12-27T13:01:00Z</time>
   </trkpt>
   <trkpt lat="42.0767260" lon="2.8247280">
    <ele>98.2</ele>
    <time>2018-12-27T13:01:03Z</time>
   </trkpt>
   <trkpt lat="42.0766400" lon="2.8244900">
    <ele>98.8</ele>
    <time>2018-12-27T13:01:06Z</time>
   </trkpt>
   <trkpt lat="42.0765780" lon="2.8242380">
    <ele>99.1</ele>
    <time>2018-12-27T13:01:10Z</time>
   </trkpt>
   <trkpt lat="42.0764830" lon="2.8240050">
    <ele>99.3</ele>
    <time>2018-12-27T13:01:13Z</time>
   </trkpt>
   <trkpt lat="42.0764130" lon="2.8237930">
    <ele>99.6</ele>
    <time>2018-12-27T13:01:16Z</time>
   </trkpt>
   <trkpt lat="42.0763230" lon="2.8235560">
    <ele>99.9</ele>
    <time>2018-12-27T13:01:19Z</time>
   </trkpt>
   <trkpt lat="42.0762510" lon="2.8233160">
    <ele>99.9</ele>
    <time>2018-12-27T13:01:22Z</time>
   </trkpt>
   <trkpt lat="42.0761780" lon="2.8230660">
    <ele>100.0</ele>
    <time>2018-12-27T13:01:25Z</time>
   </trkpt>
   <trkpt lat="42.0761010" lon="2.8228410">
    <ele>100.6</ele>
    <time>2018-12-27T13:01:28Z</time>
   </trkpt>
   <trkpt lat="42.0760110" lon="2.8226050">
    <ele>101.3</ele>
    <time>2018-12-27T13:01:31Z</time>
   </trkpt>
   <trkpt lat="42.0759280" lon="2.8223830">
    <ele>101.5</ele>
    <time>2018-12-27T13:01:34Z</time>
   </trkpt>
   <trkpt lat="42.0758100" lon="2.8221850">
    <ele>101.9</ele>
    <time>2018-12-27T13:01:37Z</time>
   </trkpt>
   <trkpt lat="42.0756810" lon="2.8220050">
    <ele>102.2</ele>
    <time>2018-12-27T13:01:40Z</time>
   </trkpt>
   <trkpt lat="42.0755750" lon="2.8217930">
    <ele>102.4</ele>
    <time>2018-12-27T13:01:43Z</time>
   </trkpt>
   <trkpt lat="42.0754610" lon="2.8216180">
    <ele>102.8</ele>
    <time>2018-12-27T13:01:46Z</time>
   </trkpt>
   <trkpt lat="42.0753150" lon="2.8213900">
    <ele>103.5</ele>
    <time>2018-12-27T13:01:49Z</time>
   </trkpt>
   <trkpt lat="42.0752000" lon="2.8211710">
    <ele>104.0</ele>
    <time>2018-12-27T13:01:53Z</time>
   </trkpt>
   <trkpt lat="42.0750610" lon="2.8209800">
    <ele>104.4</ele>
    <time>2018-12-27T13:01:56Z</time>
   </trkpt>
   <trkpt lat="42.0749560" lon="2.8207980">
    <ele>104.7</ele>
    <time>2018-12-27T13:01:58Z</time>
   </trkpt>
   <trkpt lat="42.0748430" lon="2.8206310">
    <ele>105.1</ele>
    <time>2018-12-27T13:02:01Z</time>
   </trkpt>
   <trkpt lat="42.0747500" lon="2.8204110">
    <ele>105.6</ele>
    <time>2018-12-27T13:02:04Z</time>
   </trkpt>
   <trkpt lat="42.0746200" lon="2.8201900">
    <ele>106.1</ele>
    <time>2018-12-27T13:02:08Z</time>
   </trkpt>
   <trkpt lat="42.0745110" lon="2.8199750">
    <ele>106.4</ele>
    <time>2018-12-27T13:02:11Z</time>
   </trkpt>
   <trkpt lat="42.0743980" lon="2.8197530">
    <ele>106.8</ele>
    <time>2018-12-27T13:02:14Z</time>
   </trkpt>
   <trkpt lat="42.0742830" lon="2.8195480">
    <ele>107.2</ele>
    <time>2018-12-27T13:02:17Z</time>
   </trkpt>
   <trkpt lat="42.0741780" lon="2.8192860">
    <ele>107.7</ele>
    <time>2018-12-27T13:02:20Z</time>
   </trkpt>
   <trkpt lat="42.0740530" lon="2.8190530">
    <ele>108.0</ele>
    <time>2018-12-27T13:02:24Z</time>
   </trkpt>
   <trkpt lat="42.0739930" lon="2.8188730">
    <ele>108.1</ele>
    <time>2018-12-27T13:02:26Z</time>
   </trkpt>
   <trkpt lat="42.0738680" lon="2.8186330">
    <ele>108.4</ele>
    <time>2018-12-27T13:02:30Z</time>
   </trkpt>
   <trkpt lat="42.0737750" lon="2.8184060">
    <ele>108.8</ele>
    <time>2018-12-27T13:02:33Z</time>
   </trkpt>
   <trkpt lat="42.0736630" lon="2.8181800">
    <ele>109.0</ele>
    <time>2018-12-27T13:02:36Z</time>
   </trkpt>
   <trkpt lat="42.0735630" lon="2.8179450">
    <ele>109.1</ele>
    <time>2018-12-27T13:02:39Z</time>
   </trkpt>
   <trkpt lat="42.0734650" lon="2.8177480">
    <ele>109.3</ele>
    <time>2018-12-27T13:02:42Z</time>
   </trkpt>
   <trkpt lat="42.0734000" lon="2.8175500">
    <ele>109.5</ele>
    <time>2018-12-27T13:02:45Z</time>
   </trkpt>
   <trkpt lat="42.0732050" lon="2.8174710">
    <ele>109.3</ele>
    <time>2018-12-27T13:02:48Z</time>
   </trkpt>
   <trkpt lat="42.0730230" lon="2.8174310">
    <ele>109.3</ele>
    <time>2018-12-27T13:02:51Z</time>
   </trkpt>
   <trkpt lat="42.0728330" lon="2.8174000">
    <ele>109.7</ele>
    <time>2018-12-27T13:02:54Z</time>
   </trkpt>
   <trkpt lat="42.0726300" lon="2.8173260">
    <ele>110.5</ele>
    <time>2018-12-27T13:02:57Z</time>
   </trkpt>
   <trkpt lat="42.0725860" lon="2.8171000">
    <ele>111.3</ele>
    <time>2018-12-27T13:03:00Z</time>
   </trkpt>
   <trkpt lat="42.0726000" lon="2.8169030">
    <ele>111.5</ele>
    <time>2018-12-27T13:03:02Z</time>
   </trkpt>
   <trkpt lat="42.0726200" lon="2.8167510">
    <ele>111.7</ele>
    <time>2018-12-27T13:03:04Z</time>
   </trkpt>
   <trkpt lat="42.0726400" lon="2.8165930">
    <ele>112.0</ele>
    <time>2018-12-27T13:03:06Z</time>
   </trkpt>
   <trkpt lat="42.0726500" lon="2.8164460">
    <ele>112.7</ele>
    <time>2018-12-27T13:03:08Z</time>
   </trkpt>
   <trkpt lat="42.0727210" lon="2.8163000">
    <ele>113.7</ele>
    <time>2018-12-27T13:03:10Z</time>
   </trkpt>
   <trkpt lat="42.0727850" lon="2.8161710">
    <ele>113.7</ele>
    <time>2018-12-27T13:03:12Z</time>
   </trkpt>
   <trkpt lat="42.0728450" lon="2.8159860">
    <ele>114.2</ele>
    <time>2018-12-27T13:03:14Z</time>
   </trkpt>
   <trkpt lat="42.0727860" lon="2.8158060">
    <ele>114.8</ele>
    <time>2018-12-27T13:03:17Z</time>
   </trkpt>
   <trkpt lat="42.0727650" lon="2.8156880">
    <ele>115.2</ele>
    <time>2018-12-27T13:03:18Z</time>
   </trkpt>
   <trkpt lat="42.0727930" lon="2.8155650">
    <ele>115.3</ele>
    <time>2018-12-27T13:03:19Z</time>
   </trkpt>
   <trkpt lat="42.0728260" lon="2.8154260">
    <ele>115.4</ele>
    <time>2018-12-27T13:03:21Z</time>
   </trkpt>
   <trkpt lat="42.0728680" lon="2.8152700">
    <ele>115.4</ele>
    <time>2018-12-27T13:03:23Z</time>
   </trkpt>
   <trkpt lat="42.0729560" lon="2.8151730">
    <ele>115.2</ele>
    <time>2018-12-27T13:03:25Z</time>
   </trkpt>
   <trkpt lat="42.0730250" lon="2.8150080">
    <ele>114.9</ele>
    <time>2018-12-27T13:03:27Z</time>
   </trkpt>
   <trkpt lat="42.0729100" lon="2.8148630">
    <ele>115.1</ele>
    <time>2018-12-27T13:03:30Z</time>
   </trkpt>
   <trkpt lat="42.0727860" lon="2.8148850">
    <ele>115.2</ele>
    <time>2018-12-27T13:03:32Z</time>
   </trkpt>
   <trkpt lat="42.0726310" lon="2.8149460">
    <ele>115.2</ele>
    <time>2018-12-27T13:03:34Z</time>
   </trkpt>
   <trkpt lat="42.0724650" lon="2.8149630">
    <ele>115.2</ele>
    <time>2018-12-27T13:03:37Z</time>
   </trkpt>
   <trkpt lat="42.0722500" lon="2.8149610">
    <ele>115.2</ele>
    <time>2018-12-27T13:03:40Z</time>
   </trkpt>
   <trkpt lat="42.0719480" lon="2.8149010">
    <ele>115.3</ele>
    <time>2018-12-27T13:03:45Z</time>
   </trkpt>
   <trkpt lat="42.0716380" lon="2.8148480">
    <ele>115.4</ele>
    <time>2018-12-27T13:03:50Z</time>
   </trkpt>
   <trkpt lat="42.0713660" lon="2.8147880">
    <ele>115.5</ele>
    <time>2018-12-27T13:03:55Z</time>
   </trkpt>
   <trkpt lat="42.0711200" lon="2.8147150">
    <ele>115.7</ele>
    <time>2018-12-27T13:03:59Z</time>
   </trkpt>
   <trkpt lat="42.0708700" lon="2.8146750">
    <ele>115.9</ele>
    <time>2018-12-27T13:04:03Z</time>
   </trkpt>
   <trkpt lat="42.0706460" lon="2.8146110">
    <ele>116.2</ele>
    <time>2018-12-27T13:04:07Z</time>
   </trkpt>
   <trkpt lat="42.0704310" lon="2.8145350">
    <ele>116.8</ele>
    <time>2018-12-27T13:04:10Z</time>
   </trkpt>
   <trkpt lat="42.0702010" lon="2.8144800">
    <ele>117.9</ele>
    <time>2018-12-27T13:04:14Z</time>
   </trkpt>
   <trkpt lat="42.0700060" lon="2.8143650">
    <ele>118.9</ele>
    <time>2018-12-27T13:04:17Z</time>
   </trkpt>
   <trkpt lat="42.0697930" lon="2.8142860">
    <ele>119.5</ele>
    <time>2018-12-27T13:04:21Z</time>
   </trkpt>
   <trkpt lat="42.0696010" lon="2.8141730">
    <ele>119.9</ele>
    <time>2018-12-27T13:04:24Z</time>
   </trkpt>
   <trkpt lat="42.0693880" lon="2.8140880">
    <ele>120.2</ele>
    <time>2018-12-27T13:04:28Z</time>
   </trkpt>
   <trkpt lat="42.0691610" lon="2.8139860">
    <ele>120.4</ele>
    <time>2018-12-27T13:04:31Z</time>
   </trkpt>
   <trkpt lat="42.0689460" lon="2.8139380">
    <ele>120.6</ele>
    <time>2018-12-27T13:04:35Z</time>
   </trkpt>
   <trkpt lat="42.0687260" lon="2.8138400">
    <ele>120.9</ele>
    <time>2018-12-27T13:04:39Z</time>
   </trkpt>
   <trkpt lat="42.0685100" lon="2.8137630">
    <ele>121.1</ele>
    <time>2018-12-27T13:04:42Z</time>
   </trkpt>
   <trkpt lat="42.0682900" lon="2.8136930">
    <ele>121.4</ele>
    <time>2018-12-27T13:04:46Z</time>
   </trkpt>
   <trkpt lat="42.0680800" lon="2.8135750">
    <ele>121.7</ele>
    <time>2018-12-27T13:04:50Z</time>
   </trkpt>
   <trkpt lat="42.0678560" lon="2.8134810">
    <ele>121.9</ele>
    <time>2018-12-27T13:04:53Z</time>
   </trkpt>
   <trkpt lat="42.0676380" lon="2.8133650">
    <ele>122.1</ele>
    <time>2018-12-27T13:04:57Z</time>
   </trkpt>
   <trkpt lat="42.0674210" lon="2.8133180">
    <ele>122.4</ele>
    <time>2018-12-27T13:05:01Z</time>
   </trkpt>
   <trkpt lat="42.0672030" lon="2.8131980">
    <ele>122.6</ele>
    <time>2018-12-27T13:05:04Z</time>
   </trkpt>
   <trkpt lat="42.0670130" lon="2.8131360">
    <ele>122.9</ele>
    <time>2018-12-27T13:05:07Z</time>
   </trkpt>
   <trkpt lat="42.0668010" lon="2.8130780">
    <ele>123.1</ele>
    <time>2018-12-27T13:05:11Z</time>
   </trkpt>
   <trkpt lat="42.0665930" lon="2.8130030">
    <ele>123.4</ele>
    <time>2018-12-27T13:05:14Z</time>
   </trkpt>
   <trkpt lat="42.0663810" lon="2.8129650">
    <ele>123.8</ele>
    <time>2018-12-27T13:05:18Z</time>
   </trkpt>
   <trkpt lat="42.0661580" lon="2.8129050">
    <ele>124.2</ele>
    <time>2018-12-27T13:05:21Z</time>
   </trkpt>
   <trkpt lat="42.0659410" lon="2.8128080">
    <ele>124.5</ele>
    <time>2018-12-27T13:05:25Z</time>
   </trkpt>
   <trkpt lat="42.0657300" lon="2.8127180">
    <ele>124.8</ele>
    <time>2018-12-27T13:05:29Z</time>
   </trkpt>
   <trkpt lat="42.0655230" lon="2.8126260">
    <ele>125.0</ele>
    <time>2018-12-27T13:05:32Z</time>
   </trkpt>
   <trkpt lat="42.0652980" lon="2.8125500">
    <ele>125.3</ele>
    <time>2018-12-27T13:05:36Z</time>
   </trkpt>
   <trkpt lat="42.0650800" lon="2.8124860">
    <ele>125.7</ele>
    <time>2018-12-27T13:05:39Z</time>
   </trkpt>
   <trkpt lat="42.0648430" lon="2.8124230">
    <ele>126.5</ele>
    <time>2018-12-27T13:05:43Z</time>
   </trkpt>
   <trkpt lat="42.0646310" lon="2.8123650">
    <ele>127.4</ele>
    <time>2018-12-27T13:05:47Z</time>
   </trkpt>
   <trkpt lat="42.0644360" lon="2.8123160">
    <ele>128.3</ele>
    <time>2018-12-27T13:05:50Z</time>
   </trkpt>
   <trkpt lat="42.0642250" lon="2.8123130">
    <ele>129.2</ele>
    <time>2018-12-27T13:05:53Z</time>
   </trkpt>
   <trkpt lat="42.0640280" lon="2.8122880">
    <ele>130.1</ele>
    <time>2018-12-27T13:05:56Z</time>
   </trkpt>
   <trkpt lat="42.0638360" lon="2.8122650">
    <ele>131.0</ele>
    <time>2018-12-27T13:06:00Z</time>
   </trkpt>
   <trkpt lat="42.0636250" lon="2.8122800">
    <ele>132.3</ele>
    <time>2018-12-27T13:06:03Z</time>
   </trkpt>
   <trkpt lat="42.0634200" lon="2.8122630">
    <ele>133.6</ele>
    <time>2018-12-27T13:06:06Z</time>
   </trkpt>
   <trkpt lat="42.0632030" lon="2.8122450">
    <ele>134.9</ele>
    <time>2018-12-27T13:06:10Z</time>
   </trkpt>
   <trkpt lat="42.0630080" lon="2.8122460">
    <ele>136.0</ele>
    <time>2018-12-27T13:06:13Z</time>
   </trkpt>
   <trkpt lat="42.0628100" lon="2.8122600">
    <ele>137.3</ele>
    <time>2018-12-27T13:06:16Z</time>
   </trkpt>
   <trkpt lat="42.0625760" lon="2.8123360">
    <ele>138.7</ele>
    <time>2018-12-27T13:06:20Z</time>
   </trkpt>
   <trkpt lat="42.0623650" lon="2.8123610">
    <ele>140.0</ele>
    <time>2018-12-27T13:06:23Z</time>
   </trkpt>
   <trkpt lat="42.0621580" lon="2.8123810">
    <ele>141.3</ele>
    <time>2018-12-27T13:06:27Z</time>
   </trkpt>
   <trkpt lat="42.0619850" lon="2.8123850">
    <ele>142.4</ele>
    <time>2018-12-27T13:06:29Z</time>
   </trkpt>
   <trkpt lat="42.0617750" lon="2.8124180">
    <ele>144.2</ele>
    <time>2018-12-27T13:06:33Z</time>
   </trkpt>
   <trkpt lat="42.0615800" lon="2.8124860">
    <ele>144.9</ele>
    <time>2018-12-27T13:06:36Z</time>
   </trkpt>
   <trkpt lat="42.0614000" lon="2.8124900">
    <ele>145.1</ele>
    <time>2018-12-27T13:06:39Z</time>
   </trkpt>
   <trkpt lat="42.0612180" lon="2.8125380">
    <ele>145.0</ele>
    <time>2018-12-27T13:06:42Z</time>
   </trkpt>
   <trkpt lat="42.0610180" lon="2.8125860">
    <ele>145.1</ele>
    <time>2018-12-27T13:06:45Z</time>
   </trkpt>
   <trkpt lat="42.0608100" lon="2.8126200">
    <ele>145.2</ele>
    <time>2018-12-27T13:06:48Z</time>
   </trkpt>
   <trkpt lat="42.0606250" lon="2.8127200">
    <ele>144.9</ele>
    <time>2018-12-27T13:06:52Z</time>
   </trkpt>
   <trkpt lat="42.0604510" lon="2.8127630">
    <ele>144.6</ele>
    <time>2018-12-27T13:06:54Z</time>
   </trkpt>
   <trkpt lat="42.0602580" lon="2.8129030">
    <ele>144.4</ele>
    <time>2018-12-27T13:06:58Z</time>
   </trkpt>
   <trkpt lat="42.0600730" lon="2.8129830">
    <ele>144.2</ele>
    <time>2018-12-27T13:07:01Z</time>
   </trkpt>
   <trkpt lat="42.0598560" lon="2.8130600">
    <ele>143.6</ele>
    <time>2018-12-27T13:07:05Z</time>
   </trkpt>
   <trkpt lat="42.0596610" lon="2.8132000">
    <ele>142.7</ele>
    <time>2018-12-27T13:07:08Z</time>
   </trkpt>
   <trkpt lat="42.0594360" lon="2.8133650">
    <ele>141.8</ele>
    <time>2018-12-27T13:07:12Z</time>
   </trkpt>
   <trkpt lat="42.0592080" lon="2.8135230">
    <ele>141.7</ele>
    <time>2018-12-27T13:07:16Z</time>
   </trkpt>
   <trkpt lat="42.0589880" lon="2.8136930">
    <ele>141.4</ele>
    <time>2018-12-27T13:07:20Z</time>
   </trkpt>
   <trkpt lat="42.0587560" lon="2.8138630">
    <ele>140.9</ele>
    <time>2018-12-27T13:07:25Z</time>
   </trkpt>
   <trkpt lat="42.0585150" lon="2.8140610">
    <ele>140.2</ele>
    <time>2018-12-27T13:07:29Z</time>
   </trkpt>
   <trkpt lat="42.0582850" lon="2.8142160">
    <ele>139.2</ele>
    <time>2018-12-27T13:07:33Z</time>
   </trkpt>
   <trkpt lat="42.0580350" lon="2.8144100">
    <ele>138.2</ele>
    <time>2018-12-27T13:07:38Z</time>
   </trkpt>
   <trkpt lat="42.0578130" lon="2.8145910">
    <ele>137.3</ele>
    <time>2018-12-27T13:07:42Z</time>
   </trkpt>
   <trkpt lat="42.0575350" lon="2.8148110">
    <ele>136.4</ele>
    <time>2018-12-27T13:07:47Z</time>
   </trkpt>
   <trkpt lat="42.0572700" lon="2.8150530">
    <ele>135.7</ele>
    <time>2018-12-27T13:07:52Z</time>
   </trkpt>
   <trkpt lat="42.0569880" lon="2.8152810">
    <ele>134.9</ele>
    <time>2018-12-27T13:07:58Z</time>
   </trkpt>
   <trkpt lat="42.0567010" lon="2.8155330">
    <ele>134.2</ele>
    <time>2018-12-27T13:08:03Z</time>
   </trkpt>
   <trkpt lat="42.0564080" lon="2.8157800">
    <ele>133.1</ele>
    <time>2018-12-27T13:08:09Z</time>
   </trkpt>
   <trkpt lat="42.0561250" lon="2.8159850">
    <ele>131.9</ele>
    <time>2018-12-27T13:08:14Z</time>
   </trkpt>
   <trkpt lat="42.0558410" lon="2.8161730">
    <ele>131.1</ele>
    <time>2018-12-27T13:08:19Z</time>
   </trkpt>
   <trkpt lat="42.0555560" lon="2.8164030">
    <ele>129.9</ele>
    <time>2018-12-27T13:08:24Z</time>
   </trkpt>
   <trkpt lat="42.0552850" lon="2.8166180">
    <ele>128.5</ele>
    <time>2018-12-27T13:08:29Z</time>
   </trkpt>
   <trkpt lat="42.0550110" lon="2.8168260">
    <ele>127.6</ele>
    <time>2018-12-27T13:08:34Z</time>
   </trkpt>
   <trkpt lat="42.0547000" lon="2.8170860">
    <ele>126.5</ele>
    <time>2018-12-27T13:08:40Z</time>
   </trkpt>
   <trkpt lat="42.0544160" lon="2.8172830">
    <ele>125.8</ele>
    <time>2018-12-27T13:08:45Z</time>
   </trkpt>
   <trkpt lat="42.0541210" lon="2.8174650">
    <ele>125.4</ele>
    <time>2018-12-27T13:08:50Z</time>
   </trkpt>
   <trkpt lat="42.0538180" lon="2.8176030">
    <ele>125.1</ele>
    <time>2018-12-27T13:08:56Z</time>
   </trkpt>
   <trkpt lat="42.0535160" lon="2.8177380">
    <ele>124.9</ele>
    <time>2018-12-27T13:09:01Z</time>
   </trkpt>
   <trkpt lat="42.0532260" lon="2.8178700">
    <ele>124.8</ele>
    <time>2018-12-27T13:09:06Z</time>
   </trkpt>
   <trkpt lat="42.0529380" lon="2.8179500">
    <ele>124.5</ele>
    <time>2018-12-27T13:09:10Z</time>
   </trkpt>
   <trkpt lat="42.0526460" lon="2.8180280">
    <ele>124.3</ele>
    <time>2018-12-27T13:09:15Z</time>
   </trkpt>
   <trkpt lat="42.0523680" lon="2.8180800">
    <ele>124.1</ele>
    <time>2018-12-27T13:09:20Z</time>
   </trkpt>
   <trkpt lat="42.0521000" lon="2.8181330">
    <ele>124.0</ele>
    <time>2018-12-27T13:09:24Z</time>
   </trkpt>
   <trkpt lat="42.0518310" lon="2.8181750">
    <ele>123.7</ele>
    <time>2018-12-27T13:09:28Z</time>
   </trkpt>
   <trkpt lat="42.0515860" lon="2.8182160">
    <ele>123.0</ele>
    <time>2018-12-27T13:09:32Z</time>
   </trkpt>
   <trkpt lat="42.0513410" lon="2.8182630">
    <ele>122.0</ele>
    <time>2018-12-27T13:09:36Z</time>
   </trkpt>
   <trkpt lat="42.0510900" lon="2.8183100">
    <ele>120.9</ele>
    <time>2018-12-27T13:09:40Z</time>
   </trkpt>
   <trkpt lat="42.0508460" lon="2.8183400">
    <ele>119.8</ele>
    <time>2018-12-27T13:09:44Z</time>
   </trkpt>
   <trkpt lat="42.0506010" lon="2.8183800">
    <ele>119.0</ele>
    <time>2018-12-27T13:09:48Z</time>
   </trkpt>
   <trkpt lat="42.0503700" lon="2.8184330">
    <ele>118.5</ele>
    <time>2018-12-27T13:09:52Z</time>
   </trkpt>
   <trkpt lat="42.0501310" lon="2.8184650">
    <ele>118.2</ele>
    <time>2018-12-27T13:09:56Z</time>
   </trkpt>
   <trkpt lat="42.0498610" lon="2.8185360">
    <ele>118.0</ele>
    <time>2018-12-27T13:10:00Z</time>
   </trkpt>
   <trkpt lat="42.0496180" lon="2.8185830">
    <ele>117.7</ele>
    <time>2018-12-27T13:10:04Z</time>
   </trkpt>
   <trkpt lat="42.0493500" lon="2.8185160">
    <ele>117.7</ele>
    <time>2018-12-27T13:10:08Z</time>
   </trkpt>
   <trkpt lat="42.0491850" lon="2.8183080">
    <ele>118.7</ele>
    <time>2018-12-27T13:10:12Z</time>
   </trkpt>
   <trkpt lat="42.0491350" lon="2.8180530">
    <ele>121.0</ele>
    <time>2018-12-27T13:10:15Z</time>
   </trkpt>
   <trkpt lat="42.0491000" lon="2.8179130">
    <ele>121.7</ele>
    <time>2018-12-27T13:10:17Z</time>
   </trkpt>
   <trkpt lat="42.0490310" lon="2.8177710">
    <ele>121.9</ele>
    <time>2018-12-27T13:10:19Z</time>
   </trkpt>
   <trkpt lat="42.0489860" lon="2.8176380">
    <ele>122.6</ele>
    <time>2018-12-27T13:10:21Z</time>
   </trkpt>
   <trkpt lat="42.0489900" lon="2.8175310">
    <ele>123.3</ele>
    <time>2018-12-27T13:10:22Z</time>
   </trkpt>
   <trkpt lat="42.0489650" lon="2.8173810">
    <ele>124.6</ele>
    <time>2018-12-27T13:10:24Z</time>
   </trkpt>
   <trkpt lat="42.0489280" lon="2.8172150">
    <ele>125.9</ele>
    <time>2018-12-27T13:10:26Z</time>
   </trkpt>
   <trkpt lat="42.0489450" lon="2.8170600">
    <ele>126.8</ele>
    <time>2018-12-27T13:10:28Z</time>
   </trkpt>
   <trkpt lat="42.0489500" lon="2.8169150">
    <ele>127.5</ele>
    <time>2018-12-27T13:10:29Z</time>
   </trkpt>
   <trkpt lat="42.0488950" lon="2.8167560">
    <ele>128.3</ele>
    <time>2018-12-27T13:10:31Z</time>
   </trkpt>
   <trkpt lat="42.0488960" lon="2.8166230">
    <ele>129.0</ele>
    <time>2018-12-27T13:10:33Z</time>
   </trkpt>
   <trkpt lat="42.0488810" lon="2.8164260">
    <ele>130.1</ele>
    <time>2018-12-27T13:10:35Z</time>
   </trkpt>
   <trkpt lat="42.0488660" lon="2.8162280">
    <ele>131.5</ele>
    <time>2018-12-27T13:10:38Z</time>
   </trkpt>
   <trkpt lat="42.0488660" lon="2.8160830">
    <ele>132.4</ele>
    <time>2018-12-27T13:10:39Z</time>
   </trkpt>
   <trkpt lat="42.0488630" lon="2.8159260">
    <ele>133.3</ele>
    <time>2018-12-27T13:10:41Z</time>
   </trkpt>
   <trkpt lat="42.0488200" lon="2.8157960">
    <ele>133.9</ele>
    <time>2018-12-27T13:10:43Z</time>
   </trkpt>
   <trkpt lat="42.0488050" lon="2.8156310">
    <ele>134.7</ele>
    <time>2018-12-27T13:10:45Z</time>
   </trkpt>
   <trkpt lat="42.0488550" lon="2.8154360">
    <ele>135.5</ele>
    <time>2018-12-27T13:10:47Z</time>
   </trkpt>
   <trkpt lat="42.0489400" lon="2.8152550">
    <ele>136.4</ele>
    <time>2018-12-27T13:10:50Z</time>
   </trkpt>
   <trkpt lat="42.0489980" lon="2.8151410">
    <ele>137.0</ele>
    <time>2018-12-27T13:10:52Z</time>
   </trkpt>
   <trkpt lat="42.0490280" lon="2.8149980">
    <ele>137.6</ele>
    <time>2018-12-27T13:10:53Z</time>
   </trkpt>
   <trkpt lat="42.0490660" lon="2.8148230">
    <ele>138.6</ele>
    <time>2018-12-27T13:10:56Z</time>
   </trkpt>
   <trkpt lat="42.0491030" lon="2.8146530">
    <ele>139.6</ele>
    <time>2018-12-27T13:10:58Z</time>
   </trkpt>
   <trkpt lat="42.0491230" lon="2.8144980">
    <ele>140.3</ele>
    <time>2018-12-27T13:11:00Z</time>
   </trkpt>
   <trkpt lat="42.0491730" lon="2.8143630">
    <ele>141.1</ele>
    <time>2018-12-27T13:11:01Z</time>
   </trkpt>
   <trkpt lat="42.0492580" lon="2.8142350">
    <ele>141.9</ele>
    <time>2018-12-27T13:11:03Z</time>
   </trkpt>
   <trkpt lat="42.0493760" lon="2.8142010">
    <ele>142.6</ele>
    <time>2018-12-27T13:11:05Z</time>
   </trkpt>
   <trkpt lat="42.0495010" lon="2.8142080">
    <ele>143.6</ele>
    <time>2018-12-27T13:11:07Z</time>
   </trkpt>
   <trkpt lat="42.0496130" lon="2.8142200">
    <ele>144.3</ele>
    <time>2018-12-27T13:11:09Z</time>
   </trkpt>
   <trkpt lat="42.0497200" lon="2.8142250">
    <ele>144.8</ele>
    <time>2018-12-27T13:11:11Z</time>
   </trkpt>
   <trkpt lat="42.0498180" lon="2.8142030">
    <ele>145.1</ele>
    <time>2018-12-27T13:11:12Z</time>
   </trkpt>
   <trkpt lat="42.0499500" lon="2.8141680">
    <ele>145.7</ele>
    <time>2018-12-27T13:11:15Z</time>
   </trkpt>
   <trkpt lat="42.0500830" lon="2.8141330">
    <ele>146.5</ele>
    <time>2018-12-27T13:11:17Z</time>
   </trkpt>
   <trkpt lat="42.0501910" lon="2.8141230">
    <ele>147.1</ele>
    <time>2018-12-27T13:11:18Z</time>
   </trkpt>
   <trkpt lat="42.0503260" lon="2.8141000">
    <ele>147.9</ele>
    <time>2018-12-27T13:11:21Z</time>
   </trkpt>
   <trkpt lat="42.0504850" lon="2.8140200">
    <ele>148.7</ele>
    <time>2018-12-27T13:11:23Z</time>
   </trkpt>
   <trkpt lat="42.0506180" lon="2.8140460">
    <ele>149.2</ele>
    <time>2018-12-27T13:11:26Z</time>
   </trkpt>
   <trkpt lat="42.0507750" lon="2.8140180">
    <ele>149.7</ele>
    <time>2018-12-27T13:11:28Z</time>
   </trkpt>
   <trkpt lat="42.0509710" lon="2.8139350">
    <ele>150.1</ele>
    <time>2018-12-27T13:11:31Z</time>
   </trkpt>
   <trkpt lat="42.0511030" lon="2.8138810">
    <ele>150.5</ele>
    <time>2018-12-27T13:11:34Z</time>
   </trkpt>
   <trkpt lat="42.0512530" lon="2.8138700">
    <ele>151.1</ele>
    <time>2018-12-27T13:11:36Z</time>
   </trkpt>
   <trkpt lat="42.0513930" lon="2.8137330">
    <ele>152.0</ele>
    <time>2018-12-27T13:11:39Z</time>
   </trkpt>
   <trkpt lat="42.0515060" lon="2.8136650">
    <ele>152.9</ele>
    <time>2018-12-27T13:11:41Z</time>
   </trkpt>
   <trkpt lat="42.0515950" lon="2.8136230">
    <ele>153.6</ele>
    <time>2018-12-27T13:11:42Z</time>
   </trkpt>
   <trkpt lat="42.0517460" lon="2.8135480">
    <ele>154.7</ele>
    <time>2018-12-27T13:11:45Z</time>
   </trkpt>
   <trkpt lat="42.0518580" lon="2.8134830">
    <ele>155.6</ele>
    <time>2018-12-27T13:11:47Z</time>
   </trkpt>
   <trkpt lat="42.0519800" lon="2.8133760">
    <ele>156.7</ele>
    <time>2018-12-27T13:11:49Z</time>
   </trkpt>
   <trkpt lat="42.0520630" lon="2.8132360">
    <ele>157.4</ele>
    <time>2018-12-27T13:11:51Z</time>
   </trkpt>
   <trkpt lat="42.0520800" lon="2.8131050">
    <ele>157.9</ele>
    <time>2018-12-27T13:11:53Z</time>
   </trkpt>
   <trkpt lat="42.0520310" lon="2.8130300">
    <ele>158.4</ele>
    <time>2018-12-27T13:11:54Z</time>
   </trkpt>
   <trkpt lat="42.0519550" lon="2.8130000">
    <ele>158.9</ele>
    <time>2018-12-27T13:11:55Z</time>
   </trkpt>
   <trkpt lat="42.0518450" lon="2.8129960">
    <ele>159.7</ele>
    <time>2018-12-27T13:11:57Z</time>
   </trkpt>
   <trkpt lat="42.0517130" lon="2.8130380">
    <ele>161.0</ele>
    <time>2018-12-27T13:11:59Z</time>
   </trkpt>
   <trkpt lat="42.0515960" lon="2.8129630">
    <ele>162.3</ele>
    <time>2018-12-27T13:12:01Z</time>
   </trkpt>
   <trkpt lat="42.0514810" lon="2.8128860">
    <ele>163.6</ele>
    <time>2018-12-27T13:12:03Z</time>
   </trkpt>
   <trkpt lat="42.0513580" lon="2.8128600">
    <ele>164.6</ele>
    <time>2018-12-27T13:12:05Z</time>
   </trkpt>
   <trkpt lat="42.0512210" lon="2.8128650">
    <ele>165.5</ele>
    <time>2018-12-27T13:12:07Z</time>
   </trkpt>
   <trkpt lat="42.0510930" lon="2.8128210">
    <ele>166.4</ele>
    <time>2018-12-27T13:12:10Z</time>
   </trkpt>
   <trkpt lat="42.0509600" lon="2.8127780">
    <ele>167.1</ele>
    <time>2018-12-27T13:12:12Z</time>
   </trkpt>
   <trkpt lat="42.0508230" lon="2.8127350">
    <ele>167.9</ele>
    <time>2018-12-27T13:12:14Z</time>
   </trkpt>
   <trkpt lat="42.0506980" lon="2.8126960">
    <ele>168.8</ele>
    <time>2018-12-27T13:12:16Z</time>
   </trkpt>
   <trkpt lat="42.0505800" lon="2.8126530">
    <ele>169.6</ele>
    <time>2018-12-27T13:12:18Z</time>
   </trkpt>
   <trkpt lat="42.0504610" lon="2.8126280">
    <ele>170.6</ele>
    <time>2018-12-27T13:12:20Z</time>
   </trkpt>
   <trkpt lat="42.0503450" lon="2.8126280">
    <ele>171.5</ele>
    <time>2018-12-27T13:12:22Z</time>
   </trkpt>
   <trkpt lat="42.0502800" lon="2.8125710">
    <ele>172.2</ele>
    <time>2018-12-27T13:12:23Z</time>
   </trkpt>
   <trkpt lat="42.0502080" lon="2.8124710">
    <ele>172.9</ele>
    <time>2018-12-27T13:12:25Z</time>
   </trkpt>
   <trkpt lat="42.0501760" lon="2.8123280">
    <ele>173.6</ele>
    <time>2018-12-27T13:12:27Z</time>
   </trkpt>
   <trkpt lat="42.0501280" lon="2.8121650">
    <ele>174.4</ele>
    <time>2018-12-27T13:12:29Z</time>
   </trkpt>
   <trkpt lat="42.0500530" lon="2.8120450">
    <ele>175.4</ele>
    <time>2018-12-27T13:12:30Z</time>
   </trkpt>
   <trkpt lat="42.0500250" lon="2.8118610">
    <ele>176.7</ele>
    <time>2018-12-27T13:12:33Z</time>
   </trkpt>
   <trkpt lat="42.0499830" lon="2.8117710">
    <ele>177.4</ele>
    <time>2018-12-27T13:12:34Z</time>
   </trkpt>
   <trkpt lat="42.0499610" lon="2.8115850">
    <ele>178.6</ele>
    <time>2018-12-27T13:12:36Z</time>
   </trkpt>
   <trkpt lat="42.0499000" lon="2.8114610">
    <ele>179.6</ele>
    <time>2018-12-27T13:12:38Z</time>
   </trkpt>
   <trkpt lat="42.0498730" lon="2.8113300">
    <ele>180.4</ele>
    <time>2018-12-27T13:12:40Z</time>
   </trkpt>
   <trkpt lat="42.0498480" lon="2.8111610">
    <ele>181.5</ele>
    <time>2018-12-27T13:12:42Z</time>
   </trkpt>
   <trkpt lat="42.0498800" lon="2.8110280">
    <ele>182.4</ele>
    <time>2018-12-27T13:12:43Z</time>
   </trkpt>
   <trkpt lat="42.0499030" lon="2.8108780">
    <ele>183.4</ele>
    <time>2018-12-27T13:12:45Z</time>
   </trkpt>
   <trkpt lat="42.0499460" lon="2.8107360">
    <ele>184.3</ele>
    <time>2018-12-27T13:12:47Z</time>
   </trkpt>
   <trkpt lat="42.0499830" lon="2.8106150">
    <ele>185.1</ele>
    <time>2018-12-27T13:12:48Z</time>
   </trkpt>
   <trkpt lat="42.0500380" lon="2.8105180">
    <ele>185.8</ele>
    <time>2018-12-27T13:12:50Z</time>
   </trkpt>
   <trkpt lat="42.0500760" lon="2.8104160">
    <ele>186.6</ele>
    <time>2018-12-27T13:12:51Z</time>
   </trkpt>
   <trkpt lat="42.0501980" lon="2.8104230">
    <ele>187.8</ele>
    <time>2018-12-27T13:12:53Z</time>
   </trkpt>
   <trkpt lat="42.0503650" lon="2.8104300">
    <ele>189.3</ele>
    <time>2018-12-27T13:12:56Z</time>
   </trkpt>
   <trkpt lat="42.0504450" lon="2.8103750">
    <ele>190.2</ele>
    <time>2018-12-27T13:12:57Z</time>
   </trkpt>
   <trkpt lat="42.0505300" lon="2.8103610">
    <ele>190.8</ele>
    <time>2018-12-27T13:12:59Z</time>
   </trkpt>
   <trkpt lat="42.0506130" lon="2.8103100">
    <ele>191.4</ele>
    <time>2018-12-27T13:13:00Z</time>
   </trkpt>
   <trkpt lat="42.0507660" lon="2.8102560">
    <ele>192.5</ele>
    <time>2018-12-27T13:13:03Z</time>
   </trkpt>
   <trkpt lat="42.0508380" lon="2.8101660">
    <ele>193.4</ele>
    <time>2018-12-27T13:13:04Z</time>
   </trkpt>
   <trkpt lat="42.0509110" lon="2.8100800">
    <ele>194.3</ele>
    <time>2018-12-27T13:13:06Z</time>
   </trkpt>
   <trkpt lat="42.0509910" lon="2.8099550">
    <ele>195.3</ele>
    <time>2018-12-27T13:13:08Z</time>
   </trkpt>
   <trkpt lat="42.0510350" lon="2.8097860">
    <ele>196.5</ele>
    <time>2018-12-27T13:13:10Z</time>
   </trkpt>
   <trkpt lat="42.0510830" lon="2.8096610">
    <ele>197.3</ele>
    <time>2018-12-27T13:13:12Z</time>
   </trkpt>
   <trkpt lat="42.0511380" lon="2.8095510">
    <ele>198.1</ele>
    <time>2018-12-27T13:13:13Z</time>
   </trkpt>
   <trkpt lat="42.0511930" lon="2.8094500">
    <ele>198.8</ele>
    <time>2018-12-27T13:13:15Z</time>
   </trkpt>
   <trkpt lat="42.0512180" lon="2.8092650">
    <ele>199.8</ele>
    <time>2018-12-27T13:13:17Z</time>
   </trkpt>
   <trkpt lat="42.0512110" lon="2.8090430">
    <ele>200.9</ele>
    <time>2018-12-27T13:13:20Z</time>
   </trkpt>
   <trkpt lat="42.0512280" lon="2.8088500">
    <ele>201.7</ele>
    <time>2018-12-27T13:13:22Z</time>
   </trkpt>
   <trkpt lat="42.0512310" lon="2.8086780">
    <ele>202.5</ele>
    <time>2018-12-27T13:13:24Z</time>
   </trkpt>
   <trkpt lat="42.0512600" lon="2.8085230">
    <ele>203.4</ele>
    <time>2018-12-27T13:13:26Z</time>
   </trkpt>
   <trkpt lat="42.0513030" lon="2.8084150">
    <ele>204.1</ele>
    <time>2018-12-27T13:13:27Z</time>
   </trkpt>
   <trkpt lat="42.0514050" lon="2.8082950">
    <ele>205.3</ele>
    <time>2018-12-27T13:13:29Z</time>
   </trkpt>
   <trkpt lat="42.0514960" lon="2.8081880">
    <ele>206.4</ele>
    <time>2018-12-27T13:13:31Z</time>
   </trkpt>
   <trkpt lat="42.0515150" lon="2.8080280">
    <ele>207.4</ele>
    <time>2018-12-27T13:13:33Z</time>
   </trkpt>
   <trkpt lat="42.0515430" lon="2.8078630">
    <ele>208.5</ele>
    <time>2018-12-27T13:13:35Z</time>
   </trkpt>
   <trkpt lat="42.0515060" lon="2.8077000">
    <ele>209.3</ele>
    <time>2018-12-27T13:13:37Z</time>
   </trkpt>
   <trkpt lat="42.0514280" lon="2.8075860">
    <ele>210.1</ele>
    <time>2018-12-27T13:13:39Z</time>
   </trkpt>
   <trkpt lat="42.0513300" lon="2.8075160">
    <ele>211.1</ele>
    <time>2018-12-27T13:13:41Z</time>
   </trkpt>
   <trkpt lat="42.0512310" lon="2.8074630">
    <ele>211.9</ele>
    <time>2018-12-27T13:13:43Z</time>
   </trkpt>
   <trkpt lat="42.0511260" lon="2.8074310">
    <ele>212.8</ele>
    <time>2018-12-27T13:13:44Z</time>
   </trkpt>
   <trkpt lat="42.0510200" lon="2.8073900">
    <ele>213.8</ele>
    <time>2018-12-27T13:13:46Z</time>
   </trkpt>
   <trkpt lat="42.0509450" lon="2.8072900">
    <ele>214.6</ele>
    <time>2018-12-27T13:13:48Z</time>
   </trkpt>
   <trkpt lat="42.0508600" lon="2.8072500">
    <ele>215.4</ele>
    <time>2018-12-27T13:13:49Z</time>
   </trkpt>
   <trkpt lat="42.0507900" lon="2.8070630">
    <ele>216.6</ele>
    <time>2018-12-27T13:13:52Z</time>
   </trkpt>
   <trkpt lat="42.0507910" lon="2.8068560">
    <ele>217.7</ele>
    <time>2018-12-27T13:13:54Z</time>
   </trkpt>
   <trkpt lat="42.0507980" lon="2.8066560">
    <ele>218.9</ele>
    <time>2018-12-27T13:13:57Z</time>
   </trkpt>
   <trkpt lat="42.0507800" lon="2.8065330">
    <ele>219.4</ele>
    <time>2018-12-27T13:13:58Z</time>
   </trkpt>
   <trkpt lat="42.0507000" lon="2.8063860">
    <ele>220.2</ele>
    <time>2018-12-27T13:14:00Z</time>
   </trkpt>
   <trkpt lat="42.0506110" lon="2.8061830">
    <ele>221.0</ele>
    <time>2018-12-27T13:14:03Z</time>
   </trkpt>
   <trkpt lat="42.0505110" lon="2.8060400">
    <ele>221.4</ele>
    <time>2018-12-27T13:14:05Z</time>
   </trkpt>
   <trkpt lat="42.0503980" lon="2.8058210">
    <ele>221.8</ele>
    <time>2018-12-27T13:14:09Z</time>
   </trkpt>
   <trkpt lat="42.0503160" lon="2.8056230">
    <ele>222.0</ele>
    <time>2018-12-27T13:14:11Z</time>
   </trkpt>
   <trkpt lat="42.0503030" lon="2.8053730">
    <ele>222.2</ele>
    <time>2018-12-27T13:14:14Z</time>
   </trkpt>
   <trkpt lat="42.0503750" lon="2.8051960">
    <ele>222.4</ele>
    <time>2018-12-27T13:14:17Z</time>
   </trkpt>
   <trkpt lat="42.0504700" lon="2.8050350">
    <ele>223.0</ele>
    <time>2018-12-27T13:14:19Z</time>
   </trkpt>
   <trkpt lat="42.0505580" lon="2.8048700">
    <ele>223.9</ele>
    <time>2018-12-27T13:14:21Z</time>
   </trkpt>
   <trkpt lat="42.0506400" lon="2.8047460">
    <ele>224.9</ele>
    <time>2018-12-27T13:14:23Z</time>
   </trkpt>
   <trkpt lat="42.0507400" lon="2.8045960">
    <ele>225.8</ele>
    <time>2018-12-27T13:14:26Z</time>
   </trkpt>
   <trkpt lat="42.0508500" lon="2.8044700">
    <ele>226.4</ele>
    <time>2018-12-27T13:14:28Z</time>
   </trkpt>
   <trkpt lat="42.0509450" lon="2.8043750">
    <ele>226.7</ele>
    <time>2018-12-27T13:14:30Z</time>
   </trkpt>
   <trkpt lat="42.0510410" lon="2.8042780">
    <ele>226.8</ele>
    <time>2018-12-27T13:14:32Z</time>
   </trkpt>
   <trkpt lat="42.0511650" lon="2.8041560">
    <ele>226.9</ele>
    <time>2018-12-27T13:14:34Z</time>
   </trkpt>
   <trkpt lat="42.0512960" lon="2.8039950">
    <ele>226.9</ele>
    <time>2018-12-27T13:14:37Z</time>
   </trkpt>
   <trkpt lat="42.0513830" lon="2.8038960">
    <ele>226.9</ele>
    <time>2018-12-27T13:14:39Z</time>
   </trkpt>
   <trkpt lat="42.0514860" lon="2.8037560">
    <ele>226.9</ele>
    <time>2018-12-27T13:14:41Z</time>
   </trkpt>
   <trkpt lat="42.0515900" lon="2.8035100">
    <ele>226.9</ele>
    <time>2018-12-27T13:14:45Z</time>
   </trkpt>
   <trkpt lat="42.0516430" lon="2.8032860">
    <ele>226.8</ele>
    <time>2018-12-27T13:14:48Z</time>
   </trkpt>
   <trkpt lat="42.0516580" lon="2.8030900">
    <ele>226.9</ele>
    <time>2018-12-27T13:14:50Z</time>
   </trkpt>
   <trkpt lat="42.0516860" lon="2.8029460">
    <ele>227.5</ele>
    <time>2018-12-27T13:14:52Z</time>
   </trkpt>
   <trkpt lat="42.0517000" lon="2.8028480">
    <ele>228.0</ele>
    <time>2018-12-27T13:14:53Z</time>
   </trkpt>
   <trkpt lat="42.0517430" lon="2.8027330">
    <ele>228.6</ele>
    <time>2018-12-27T13:14:54Z</time>
   </trkpt>
   <trkpt lat="42.0517950" lon="2.8025360">
    <ele>229.9</ele>
    <time>2018-12-27T13:14:57Z</time>
   </trkpt>
   <trkpt lat="42.0518380" lon="2.8023860">
    <ele>230.9</ele>
    <time>2018-12-27T13:14:59Z</time>
   </trkpt>
   <trkpt lat="42.0518910" lon="2.8022180">
    <ele>231.8</ele>
    <time>2018-12-27T13:15:01Z</time>
   </trkpt>
   <trkpt lat="42.0519530" lon="2.8020250">
    <ele>232.9</ele>
    <time>2018-12-27T13:15:04Z</time>
   </trkpt>
   <trkpt lat="42.0520650" lon="2.8018550">
    <ele>233.7</ele>
    <time>2018-12-27T13:15:06Z</time>
   </trkpt>
   <trkpt lat="42.0521310" lon="2.8016750">
    <ele>234.0</ele>
    <time>2018-12-27T13:15:09Z</time>
   </trkpt>
   <trkpt lat="42.0521550" lon="2.8014650">
    <ele>234.8</ele>
    <time>2018-12-27T13:15:11Z</time>
   </trkpt>
   <trkpt lat="42.0521210" lon="2.8013110">
    <ele>236.0</ele>
    <time>2018-12-27T13:15:13Z</time>
   </trkpt>
   <trkpt lat="42.0521450" lon="2.8010810">
    <ele>236.9</ele>
    <time>2018-12-27T13:15:16Z</time>
   </trkpt>
   <trkpt lat="42.0521900" lon="2.8008430">
    <ele>237.0</ele>
    <time>2018-12-27T13:15:19Z</time>
   </trkpt>
   <trkpt lat="42.0521900" lon="2.8006950">
    <ele>237.0</ele>
    <time>2018-12-27T13:15:20Z</time>
   </trkpt>
   <trkpt lat="42.0521230" lon="2.8005180">
    <ele>237.3</ele>
    <time>2018-12-27T13:15:23Z</time>
   </trkpt>
   <trkpt lat="42.0520750" lon="2.8002910">
    <ele>238.0</ele>
    <time>2018-12-27T13:15:26Z</time>
   </trkpt>
   <trkpt lat="42.0520460" lon="2.8001310">
    <ele>238.6</ele>
    <time>2018-12-27T13:15:28Z</time>
   </trkpt>
   <trkpt lat="42.0519850" lon="2.7999780">
    <ele>239.2</ele>
    <time>2018-12-27T13:15:30Z</time>
   </trkpt>
   <trkpt lat="42.0519230" lon="2.7998250">
    <ele>239.9</ele>
    <time>2018-12-27T13:15:32Z</time>
   </trkpt>
   <trkpt lat="42.0518580" lon="2.7996360">
    <ele>240.9</ele>
    <time>2018-12-27T13:15:34Z</time>
   </trkpt>
   <trkpt lat="42.0517800" lon="2.7995380">
    <ele>241.8</ele>
    <time>2018-12-27T13:15:36Z</time>
   </trkpt>
   <trkpt lat="42.0516980" lon="2.7994010">
    <ele>243.0</ele>
    <time>2018-12-27T13:15:38Z</time>
   </trkpt>
   <trkpt lat="42.0515960" lon="2.7992100">
    <ele>243.7</ele>
    <time>2018-12-27T13:15:41Z</time>
   </trkpt>
   <trkpt lat="42.0515950" lon="2.7990080">
    <ele>244.0</ele>
    <time>2018-12-27T13:15:43Z</time>
   </trkpt>
   <trkpt lat="42.0516380" lon="2.7988660">
    <ele>244.3</ele>
    <time>2018-12-27T13:15:45Z</time>
   </trkpt>
   <trkpt lat="42.0516700" lon="2.7986550">
    <ele>244.8</ele>
    <time>2018-12-27T13:15:48Z</time>
   </trkpt>
   <trkpt lat="42.0516100" lon="2.7985800">
    <ele>245.2</ele>
    <time>2018-12-27T13:15:49Z</time>
   </trkpt>
   <trkpt lat="42.0515560" lon="2.7984310">
    <ele>246.0</ele>
    <time>2018-12-27T13:15:51Z</time>
   </trkpt>
   <trkpt lat="42.0514730" lon="2.7983900">
    <ele>246.7</ele>
    <time>2018-12-27T13:15:52Z</time>
   </trkpt>
   <trkpt lat="42.0513960" lon="2.7982580">
    <ele>247.8</ele>
    <time>2018-12-27T13:15:54Z</time>
   </trkpt>
   <trkpt lat="42.0513510" lon="2.7981410">
    <ele>248.7</ele>
    <time>2018-12-27T13:15:56Z</time>
   </trkpt>
   <trkpt lat="42.0512980" lon="2.7979630">
    <ele>249.9</ele>
    <time>2018-12-27T13:15:58Z</time>
   </trkpt>
   <trkpt lat="42.0513360" lon="2.7978080">
    <ele>250.6</ele>
    <time>2018-12-27T13:16:00Z</time>
   </trkpt>
   <trkpt lat="42.0513950" lon="2.7976310">
    <ele>251.1</ele>
    <time>2018-12-27T13:16:02Z</time>
   </trkpt>
   <trkpt lat="42.0515330" lon="2.7975400">
    <ele>251.7</ele>
    <time>2018-12-27T13:16:05Z</time>
   </trkpt>
   <trkpt lat="42.0516360" lon="2.7974950">
    <ele>252.2</ele>
    <time>2018-12-27T13:16:07Z</time>
   </trkpt>
   <trkpt lat="42.0517300" lon="2.7974100">
    <ele>252.6</ele>
    <time>2018-12-27T13:16:08Z</time>
   </trkpt>
   <trkpt lat="42.0518630" lon="2.7973650">
    <ele>253.1</ele>
    <time>2018-12-27T13:16:11Z</time>
   </trkpt>
   <trkpt lat="42.0519900" lon="2.7973110">
    <ele>253.7</ele>
    <time>2018-12-27T13:16:13Z</time>
   </trkpt>
   <trkpt lat="42.0521260" lon="2.7972950">
    <ele>254.3</ele>
    <time>2018-12-27T13:16:15Z</time>
   </trkpt>
   <trkpt lat="42.0522450" lon="2.7972180">
    <ele>254.8</ele>
    <time>2018-12-27T13:16:17Z</time>
   </trkpt>
   <trkpt lat="42.0523250" lon="2.7971030">
    <ele>255.1</ele>
    <time>2018-12-27T13:16:19Z</time>
   </trkpt>
   <trkpt lat="42.0524230" lon="2.7969650">
    <ele>255.2</ele>
    <time>2018-12-27T13:16:21Z</time>
   </trkpt>
   <trkpt lat="42.0524650" lon="2.7968660">
    <ele>255.2</ele>
    <time>2018-12-27T13:16:23Z</time>
   </trkpt>
   <trkpt lat="42.0523910" lon="2.7967160">
    <ele>255.8</ele>
    <time>2018-12-27T13:16:25Z</time>
   </trkpt>
   <trkpt lat="42.0522530" lon="2.7965510">
    <ele>256.3</ele>
    <time>2018-12-27T13:16:28Z</time>
   </trkpt>
   <trkpt lat="42.0521410" lon="2.7963980">
    <ele>257.0</ele>
    <time>2018-12-27T13:16:30Z</time>
   </trkpt>
   <trkpt lat="42.0520100" lon="2.7962950">
    <ele>257.7</ele>
    <time>2018-12-27T13:16:33Z</time>
   </trkpt>
   <trkpt lat="42.0518180" lon="2.7961930">
    <ele>258.6</ele>
    <time>2018-12-27T13:16:36Z</time>
   </trkpt>
   <trkpt lat="42.0516980" lon="2.7961000">
    <ele>259.0</ele>
    <time>2018-12-27T13:16:38Z</time>
   </trkpt>
   <trkpt lat="42.0515700" lon="2.7959630">
    <ele>259.5</ele>
    <time>2018-12-27T13:16:41Z</time>
   </trkpt>
   <trkpt lat="42.0515160" lon="2.7957160">
    <ele>260.1</ele>
    <time>2018-12-27T13:16:44Z</time>
   </trkpt>
   <trkpt lat="42.0514930" lon="2.7954850">
    <ele>260.4</ele>
    <time>2018-12-27T13:16:47Z</time>
   </trkpt>
   <trkpt lat="42.0514860" lon="2.7952850">
    <ele>260.7</ele>
    <time>2018-12-27T13:16:49Z</time>
   </trkpt>
   <trkpt lat="42.0514810" lon="2.7950910">
    <ele>261.0</ele>
    <time>2018-12-27T13:16:51Z</time>
   </trkpt>
   <trkpt lat="42.0514830" lon="2.7949030">
    <ele>261.5</ele>
    <time>2018-12-27T13:16:53Z</time>
   </trkpt>
   <trkpt lat="42.0514810" lon="2.7947260">
    <ele>262.3</ele>
    <time>2018-12-27T13:16:56Z</time>
   </trkpt>
   <trkpt lat="42.0514630" lon="2.7945580">
    <ele>263.2</ele>
    <time>2018-12-27T13:16:58Z</time>
   </trkpt>
   <trkpt lat="42.0514600" lon="2.7943860">
    <ele>264.0</ele>
    <time>2018-12-27T13:17:00Z</time>
   </trkpt>
   <trkpt lat="42.0514750" lon="2.7942260">
    <ele>264.8</ele>
    <time>2018-12-27T13:17:02Z</time>
   </trkpt>
   <trkpt lat="42.0515180" lon="2.7940850">
    <ele>265.4</ele>
    <time>2018-12-27T13:17:03Z</time>
   </trkpt>
   <trkpt lat="42.0515510" lon="2.7939730">
    <ele>266.1</ele>
    <time>2018-12-27T13:17:05Z</time>
   </trkpt>
   <trkpt lat="42.0515230" lon="2.7937980">
    <ele>267.2</ele>
    <time>2018-12-27T13:17:07Z</time>
   </trkpt>
   <trkpt lat="42.0514950" lon="2.7936410">
    <ele>268.3</ele>
    <time>2018-12-27T13:17:09Z</time>
   </trkpt>
   <trkpt lat="42.0514430" lon="2.7934680">
    <ele>269.5</ele>
    <time>2018-12-27T13:17:11Z</time>
   </trkpt>
   <trkpt lat="42.0513550" lon="2.7932510">
    <ele>270.7</ele>
    <time>2018-12-27T13:17:14Z</time>
   </trkpt>
   <trkpt lat="42.0513180" lon="2.7930580">
    <ele>271.2</ele>
    <time>2018-12-27T13:17:16Z</time>
   </trkpt>
   <trkpt lat="42.0512160" lon="2.7929000">
    <ele>271.5</ele>
    <time>2018-12-27T13:17:19Z</time>
   </trkpt>
   <trkpt lat="42.0512000" lon="2.7927260">
    <ele>271.7</ele>
    <time>2018-12-27T13:17:21Z</time>
   </trkpt>
   <trkpt lat="42.0512260" lon="2.7925130">
    <ele>271.8</ele>
    <time>2018-12-27T13:17:24Z</time>
   </trkpt>
   <trkpt lat="42.0512060" lon="2.7921610">
    <ele>271.9</ele>
    <time>2018-12-27T13:17:28Z</time>
   </trkpt>
   <trkpt lat="42.0511360" lon="2.7917160">
    <ele>271.7</ele>
    <time>2018-12-27T13:17:33Z</time>
   </trkpt>
   <trkpt lat="42.0510210" lon="2.7912600">
    <ele>270.9</ele>
    <time>2018-12-27T13:17:39Z</time>
   </trkpt>
   <trkpt lat="42.0509350" lon="2.7908080">
    <ele>269.4</ele>
    <time>2018-12-27T13:17:44Z</time>
   </trkpt>
   <trkpt lat="42.0508980" lon="2.7904080">
    <ele>268.1</ele>
    <time>2018-12-27T13:17:49Z</time>
   </trkpt>
   <trkpt lat="42.0509380" lon="2.7901160">
    <ele>267.5</ele>
    <time>2018-12-27T13:17:53Z</time>
   </trkpt>
   <trkpt lat="42.0510010" lon="2.7898850">
    <ele>267.4</ele>
    <time>2018-12-27T13:17:56Z</time>
   </trkpt>
   <trkpt lat="42.0511030" lon="2.7896960">
    <ele>267.4</ele>
    <time>2018-12-27T13:17:58Z</time>
   </trkpt>
   <trkpt lat="42.0511700" lon="2.7895030">
    <ele>267.7</ele>
    <time>2018-12-27T13:18:01Z</time>
   </trkpt>
   <trkpt lat="42.0512430" lon="2.7893280">
    <ele>268.1</ele>
    <time>2018-12-27T13:18:03Z</time>
   </trkpt>
   <trkpt lat="42.0513400" lon="2.7891610">
    <ele>268.6</ele>
    <time>2018-12-27T13:18:06Z</time>
   </trkpt>
   <trkpt lat="42.0514950" lon="2.7890950">
    <ele>269.3</ele>
    <time>2018-12-27T13:18:08Z</time>
   </trkpt>
   <trkpt lat="42.0516430" lon="2.7889330">
    <ele>270.1</ele>
    <time>2018-12-27T13:18:12Z</time>
   </trkpt>
   <trkpt lat="42.0517100" lon="2.7886800">
    <ele>270.9</ele>
    <time>2018-12-27T13:18:15Z</time>
   </trkpt>
   <trkpt lat="42.0516950" lon="2.7884130">
    <ele>271.3</ele>
    <time>2018-12-27T13:18:18Z</time>
   </trkpt>
   <trkpt lat="42.0517560" lon="2.7881000">
    <ele>271.0</ele>
    <time>2018-12-27T13:18:22Z</time>
   </trkpt>
   <trkpt lat="42.0518830" lon="2.7878450">
    <ele>270.2</ele>
    <time>2018-12-27T13:18:25Z</time>
   </trkpt>
   <trkpt lat="42.0520610" lon="2.7876880">
    <ele>268.7</ele>
    <time>2018-12-27T13:18:29Z</time>
   </trkpt>
   <trkpt lat="42.0522260" lon="2.7875160">
    <ele>267.7</ele>
    <time>2018-12-27T13:18:32Z</time>
   </trkpt>
   <trkpt lat="42.0523200" lon="2.7873100">
    <ele>267.7</ele>
    <time>2018-12-27T13:18:35Z</time>
   </trkpt>
   <trkpt lat="42.0523030" lon="2.7870350">
    <ele>268.2</ele>
    <time>2018-12-27T13:18:38Z</time>
   </trkpt>
   <trkpt lat="42.0521530" lon="2.7867480">
    <ele>269.8</ele>
    <time>2018-12-27T13:18:42Z</time>
   </trkpt>
   <trkpt lat="42.0519630" lon="2.7864580">
    <ele>271.7</ele>
    <time>2018-12-27T13:18:47Z</time>
   </trkpt>
   <trkpt lat="42.0516930" lon="2.7861950">
    <ele>273.6</ele>
    <time>2018-12-27T13:18:52Z</time>
   </trkpt>
   <trkpt lat="42.0515250" lon="2.7860100">
    <ele>274.9</ele>
    <time>2018-12-27T13:18:56Z</time>
   </trkpt>
   <trkpt lat="42.0514200" lon="2.7858400">
    <ele>275.5</ele>
    <time>2018-12-27T13:18:58Z</time>
   </trkpt>
   <trkpt lat="42.0514500" lon="2.7856050">
    <ele>275.8</ele>
    <time>2018-12-27T13:19:01Z</time>
   </trkpt>
   <trkpt lat="42.0515500" lon="2.7853750">
    <ele>276.1</ele>
    <time>2018-12-27T13:19:04Z</time>
   </trkpt>
   <trkpt lat="42.0516660" lon="2.7852650">
    <ele>276.4</ele>
    <time>2018-12-27T13:19:07Z</time>
   </trkpt>
   <trkpt lat="42.0517760" lon="2.7851850">
    <ele>276.7</ele>
    <time>2018-12-27T13:19:09Z</time>
   </trkpt>
   <trkpt lat="42.0518880" lon="2.7851250">
    <ele>277.0</ele>
    <time>2018-12-27T13:19:11Z</time>
   </trkpt>
   <trkpt lat="42.0519860" lon="2.7850660">
    <ele>277.4</ele>
    <time>2018-12-27T13:19:12Z</time>
   </trkpt>
   <trkpt lat="42.0520810" lon="2.7849980">
    <ele>277.8</ele>
    <time>2018-12-27T13:19:14Z</time>
   </trkpt>
   <trkpt lat="42.0521630" lon="2.7848880">
    <ele>278.2</ele>
    <time>2018-12-27T13:19:16Z</time>
   </trkpt>
   <trkpt lat="42.0522700" lon="2.7847350">
    <ele>278.7</ele>
    <time>2018-12-27T13:19:18Z</time>
   </trkpt>
   <trkpt lat="42.0524130" lon="2.7845850">
    <ele>278.9</ele>
    <time>2018-12-27T13:19:21Z</time>
   </trkpt>
   <trkpt lat="42.0525700" lon="2.7845180">
    <ele>279.1</ele>
    <time>2018-12-27T13:19:24Z</time>
   </trkpt>
   <trkpt lat="42.0526910" lon="2.7844900">
    <ele>279.3</ele>
    <time>2018-12-27T13:19:26Z</time>
   </trkpt>
   <trkpt lat="42.0528100" lon="2.7844160">
    <ele>279.6</ele>
    <time>2018-12-27T13:19:28Z</time>
   </trkpt>
   <trkpt lat="42.0529310" lon="2.7842560">
    <ele>280.1</ele>
    <time>2018-12-27T13:19:31Z</time>
   </trkpt>
   <trkpt lat="42.0529680" lon="2.7840580">
    <ele>280.6</ele>
    <time>2018-12-27T13:19:33Z</time>
   </trkpt>
   <trkpt lat="42.0529700" lon="2.7838410">
    <ele>281.3</ele>
    <time>2018-12-27T13:19:36Z</time>
   </trkpt>
   <trkpt lat="42.0530110" lon="2.7836110">
    <ele>282.1</ele>
    <time>2018-12-27T13:19:39Z</time>
   </trkpt>
   <trkpt lat="42.0531330" lon="2.7834280">
    <ele>283.0</ele>
    <time>2018-12-27T13:19:42Z</time>
   </trkpt>
   <trkpt lat="42.0532730" lon="2.7833380">
    <ele>283.7</ele>
    <time>2018-12-27T13:19:44Z</time>
   </trkpt>
   <trkpt lat="42.0534110" lon="2.7832730">
    <ele>284.2</ele>
    <time>2018-12-27T13:19:46Z</time>
   </trkpt>
   <trkpt lat="42.0535200" lon="2.7832060">
    <ele>284.5</ele>
    <time>2018-12-27T13:19:48Z</time>
   </trkpt>
   <trkpt lat="42.0536450" lon="2.7830950">
    <ele>284.7</ele>
    <time>2018-12-27T13:19:51Z</time>
   </trkpt>
   <trkpt lat="42.0537410" lon="2.7828850">
    <ele>284.9</ele>
    <time>2018-12-27T13:19:54Z</time>
   </trkpt>
   <trkpt lat="42.0538230" lon="2.7826600">
    <ele>285.1</ele>
    <time>2018-12-27T13:19:57Z</time>
   </trkpt>
   <trkpt lat="42.0538780" lon="2.7824580">
    <ele>285.4</ele>
    <time>2018-12-27T13:19:59Z</time>
   </trkpt>
   <trkpt lat="42.0539300" lon="2.7822460">
    <ele>285.6</ele>
    <time>2018-12-27T13:20:02Z</time>
   </trkpt>
   <trkpt lat="42.0539560" lon="2.7820610">
    <ele>285.9</ele>
    <time>2018-12-27T13:20:04Z</time>
   </trkpt>
   <trkpt lat="42.0539600" lon="2.7818900">
    <ele>286.1</ele>
    <time>2018-12-27T13:20:06Z</time>
   </trkpt>
   <trkpt lat="42.0539630" lon="2.7817230">
    <ele>286.4</ele>
    <time>2018-12-27T13:20:08Z</time>
   </trkpt>
   <trkpt lat="42.0540300" lon="2.7815410">
    <ele>286.9</ele>
    <time>2018-12-27T13:20:10Z</time>
   </trkpt>
   <trkpt lat="42.0541880" lon="2.7813880">
    <ele>288.8</ele>
    <time>2018-12-27T13:20:14Z</time>
   </trkpt>
   <trkpt lat="42.0543100" lon="2.7813030">
    <ele>289.9</ele>
    <time>2018-12-27T13:20:16Z</time>
   </trkpt>
   <trkpt lat="42.0544230" lon="2.7812510">
    <ele>290.7</ele>
    <time>2018-12-27T13:20:18Z</time>
   </trkpt>
   <trkpt lat="42.0546260" lon="2.7812030">
    <ele>291.8</ele>
    <time>2018-12-27T13:20:21Z</time>
   </trkpt>
   <trkpt lat="42.0548360" lon="2.7811900">
    <ele>292.6</ele>
    <time>2018-12-27T13:20:24Z</time>
   </trkpt>
   <trkpt lat="42.0550000" lon="2.7811910">
    <ele>293.1</ele>
    <time>2018-12-27T13:20:27Z</time>
   </trkpt>
   <trkpt lat="42.0551260" lon="2.7812050">
    <ele>293.6</ele>
    <time>2018-12-27T13:20:29Z</time>
   </trkpt>
   <trkpt lat="42.0552600" lon="2.7812030">
    <ele>294.1</ele>
    <time>2018-12-27T13:20:31Z</time>
   </trkpt>
   <trkpt lat="42.0553880" lon="2.7812300">
    <ele>295.2</ele>
    <time>2018-12-27T13:20:33Z</time>
   </trkpt>
   <trkpt lat="42.0555100" lon="2.7812350">
    <ele>296.2</ele>
    <time>2018-12-27T13:20:35Z</time>
   </trkpt>
   <trkpt lat="42.0556310" lon="2.7811630">
    <ele>297.9</ele>
    <time>2018-12-27T13:20:37Z</time>
   </trkpt>
   <trkpt lat="42.0557380" lon="2.7810830">
    <ele>299.3</ele>
    <time>2018-12-27T13:20:39Z</time>
   </trkpt>
   <trkpt lat="42.0558480" lon="2.7809630">
    <ele>301.1</ele>
    <time>2018-12-27T13:20:42Z</time>
   </trkpt>
   <trkpt lat="42.0559350" lon="2.7808150">
    <ele>302.5</ele>
    <time>2018-12-27T13:20:44Z</time>
   </trkpt>
   <trkpt lat="42.0560050" lon="2.7806410">
    <ele>303.7</ele>
    <time>2018-12-27T13:20:46Z</time>
   </trkpt>
   <trkpt lat="42.0560860" lon="2.7804430">
    <ele>304.7</ele>
    <time>2018-12-27T13:20:49Z</time>
   </trkpt>
   <trkpt lat="42.0561400" lon="2.7802730">
    <ele>305.3</ele>
    <time>2018-12-27T13:20:51Z</time>
   </trkpt>
   <trkpt lat="42.0561860" lon="2.7801060">
    <ele>305.9</ele>
    <time>2018-12-27T13:20:53Z</time>
   </trkpt>
   <trkpt lat="42.0562710" lon="2.7797830">
    <ele>307.2</ele>
    <time>2018-12-27T13:20:57Z</time>
   </trkpt>
   <trkpt lat="42.0563130" lon="2.7796310">
    <ele>308.0</ele>
    <time>2018-12-27T13:20:59Z</time>
   </trkpt>
   <trkpt lat="42.0564130" lon="2.7793880">
    <ele>309.3</ele>
    <time>2018-12-27T13:21:02Z</time>
   </trkpt>
   <trkpt lat="42.0564760" lon="2.7792800">
    <ele>310.0</ele>
    <time>2018-12-27T13:21:04Z</time>
   </trkpt>
   <trkpt lat="42.0565550" lon="2.7791650">
    <ele>310.8</ele>
    <time>2018-12-27T13:21:06Z</time>
   </trkpt>
   <trkpt lat="42.0565960" lon="2.7790650">
    <ele>311.6</ele>
    <time>2018-12-27T13:21:07Z</time>
   </trkpt>
   <trkpt lat="42.0566750" lon="2.7789630">
    <ele>312.9</ele>
    <time>2018-12-27T13:21:09Z</time>
   </trkpt>
   <trkpt lat="42.0567410" lon="2.7788450">
    <ele>314.0</ele>
    <time>2018-12-27T13:21:11Z</time>
   </trkpt>
   <trkpt lat="42.0568130" lon="2.7787160">
    <ele>315.2</ele>
    <time>2018-12-27T13:21:13Z</time>
   </trkpt>
   <trkpt lat="42.0568800" lon="2.7785430">
    <ele>316.3</ele>
    <time>2018-12-27T13:21:15Z</time>
   </trkpt>
   <trkpt lat="42.0569380" lon="2.7783310">
    <ele>317.3</ele>
    <time>2018-12-27T13:21:18Z</time>
   </trkpt>
   <trkpt lat="42.0569960" lon="2.7781850">
    <ele>318.2</ele>
    <time>2018-12-27T13:21:20Z</time>
   </trkpt>
   <trkpt lat="42.0570230" lon="2.7780150">
    <ele>318.9</ele>
    <time>2018-12-27T13:21:22Z</time>
   </trkpt>
   <trkpt lat="42.0570450" lon="2.7778510">
    <ele>319.4</ele>
    <time>2018-12-27T13:21:24Z</time>
   </trkpt>
   <trkpt lat="42.0570360" lon="2.7776830">
    <ele>320.0</ele>
    <time>2018-12-27T13:21:26Z</time>
   </trkpt>
   <trkpt lat="42.0570200" lon="2.7775380">
    <ele>320.7</ele>
    <time>2018-12-27T13:21:27Z</time>
   </trkpt>
   <trkpt lat="42.0569960" lon="2.7774010">
    <ele>321.3</ele>
    <time>2018-12-27T13:21:29Z</time>
   </trkpt>
   <trkpt lat="42.0569750" lon="2.7772380">
    <ele>322.0</ele>
    <time>2018-12-27T13:21:31Z</time>
   </trkpt>
   <trkpt lat="42.0569480" lon="2.7770650">
    <ele>322.5</ele>
    <time>2018-12-27T13:21:33Z</time>
   </trkpt>
   <trkpt lat="42.0569000" lon="2.7769280">
    <ele>322.6</ele>
    <time>2018-12-27T13:21:35Z</time>
   </trkpt>
   <trkpt lat="42.0568730" lon="2.7767360">
    <ele>322.6</ele>
    <time>2018-12-27T13:21:37Z</time>
   </trkpt>
   <trkpt lat="42.0567630" lon="2.7766410">
    <ele>322.1</ele>
    <time>2018-12-27T13:21:39Z</time>
   </trkpt>
   <trkpt lat="42.0566830" lon="2.7764930">
    <ele>321.3</ele>
    <time>2018-12-27T13:21:42Z</time>
   </trkpt>
   <trkpt lat="42.0566330" lon="2.7763430">
    <ele>320.3</ele>
    <time>2018-12-27T13:21:44Z</time>
   </trkpt>
   <trkpt lat="42.0566210" lon="2.7761950">
    <ele>318.6</ele>
    <time>2018-12-27T13:21:45Z</time>
   </trkpt>
   <trkpt lat="42.0566830" lon="2.7760360">
    <ele>320.7</ele>
    <time>2018-12-27T13:21:47Z</time>
   </trkpt>
   <trkpt lat="42.0567700" lon="2.7758950">
    <ele>322.4</ele>
    <time>2018-12-27T13:21:50Z</time>
   </trkpt>
   <trkpt lat="42.0568630" lon="2.7757460">
    <ele>323.4</ele>
    <time>2018-12-27T13:21:52Z</time>
   </trkpt>
   <trkpt lat="42.0569680" lon="2.7756510">
    <ele>324.1</ele>
    <time>2018-12-27T13:21:54Z</time>
   </trkpt>
   <trkpt lat="42.0570830" lon="2.7755550">
    <ele>324.9</ele>
    <time>2018-12-27T13:21:56Z</time>
   </trkpt>
   <trkpt lat="42.0571510" lon="2.7753980">
    <ele>325.7</ele>
    <time>2018-12-27T13:21:58Z</time>
   </trkpt>
   <trkpt lat="42.0571450" lon="2.7752030">
    <ele>326.7</ele>
    <time>2018-12-27T13:22:01Z</time>
   </trkpt>
   <trkpt lat="42.0571080" lon="2.7750060">
    <ele>327.6</ele>
    <time>2018-12-27T13:22:03Z</time>
   </trkpt>
   <trkpt lat="42.0570860" lon="2.7748210">
    <ele>328.5</ele>
    <time>2018-12-27T13:22:05Z</time>
   </trkpt>
   <trkpt lat="42.0570410" lon="2.7746330">
    <ele>329.4</ele>
    <time>2018-12-27T13:22:08Z</time>
   </trkpt>
   <trkpt lat="42.0570510" lon="2.7744610">
    <ele>330.1</ele>
    <time>2018-12-27T13:22:10Z</time>
   </trkpt>
   <trkpt lat="42.0570860" lon="2.7742910">
    <ele>330.8</ele>
    <time>2018-12-27T13:22:12Z</time>
   </trkpt>
   <trkpt lat="42.0571410" lon="2.7741030">
    <ele>331.4</ele>
    <time>2018-12-27T13:22:14Z</time>
   </trkpt>
   <trkpt lat="42.0572150" lon="2.7739010">
    <ele>332.0</ele>
    <time>2018-12-27T13:22:17Z</time>
   </trkpt>
   <trkpt lat="42.0572650" lon="2.7736750">
    <ele>332.5</ele>
    <time>2018-12-27T13:22:20Z</time>
   </trkpt>
   <trkpt lat="42.0572650" lon="2.7734630">
    <ele>332.7</ele>
    <time>2018-12-27T13:22:22Z</time>
   </trkpt>
   <trkpt lat="42.0572430" lon="2.7732880">
    <ele>332.8</ele>
    <time>2018-12-27T13:22:24Z</time>
   </trkpt>
   <trkpt lat="42.0572080" lon="2.7731210">
    <ele>332.7</ele>
    <time>2018-12-27T13:22:26Z</time>
   </trkpt>
   <trkpt lat="42.0571600" lon="2.7729330">
    <ele>332.5</ele>
    <time>2018-12-27T13:22:29Z</time>
   </trkpt>
   <trkpt lat="42.0570510" lon="2.7727600">
    <ele>331.8</ele>
    <time>2018-12-27T13:22:31Z</time>
   </trkpt>
   <trkpt lat="42.0568730" lon="2.7725880">
    <ele>331.1</ele>
    <time>2018-12-27T13:22:35Z</time>
   </trkpt>
   <trkpt lat="42.0566960" lon="2.7723830">
    <ele>330.0</ele>
    <time>2018-12-27T13:22:39Z</time>
   </trkpt>
   <trkpt lat="42.0565350" lon="2.7721110">
    <ele>328.5</ele>
    <time>2018-12-27T13:22:43Z</time>
   </trkpt>
   <trkpt lat="42.0564480" lon="2.7718400">
    <ele>327.4</ele>
    <time>2018-12-27T13:22:46Z</time>
   </trkpt>
   <trkpt lat="42.0563610" lon="2.7715710">
    <ele>326.2</ele>
    <time>2018-12-27T13:22:50Z</time>
   </trkpt>
   <trkpt lat="42.0564180" lon="2.7713110">
    <ele>324.5</ele>
    <time>2018-12-27T13:22:53Z</time>
   </trkpt>
   <trkpt lat="42.0565400" lon="2.7710510">
    <ele>323.7</ele>
    <time>2018-12-27T13:22:57Z</time>
   </trkpt>
   <trkpt lat="42.0565800" lon="2.7708050">
    <ele>323.5</ele>
    <time>2018-12-27T13:23:00Z</time>
   </trkpt>
   <trkpt lat="42.0565760" lon="2.7705030">
    <ele>323.6</ele>
    <time>2018-12-27T13:23:03Z</time>
   </trkpt>
   <trkpt lat="42.0565860" lon="2.7702800">
    <ele>323.7</ele>
    <time>2018-12-27T13:23:06Z</time>
   </trkpt>
   <trkpt lat="42.0565730" lon="2.7700830">
    <ele>323.9</ele>
    <time>2018-12-27T13:23:08Z</time>
   </trkpt>
   <trkpt lat="42.0565500" lon="2.7699080">
    <ele>324.3</ele>
    <time>2018-12-27T13:23:10Z</time>
   </trkpt>
   <trkpt lat="42.0564960" lon="2.7697430">
    <ele>324.7</ele>
    <time>2018-12-27T13:23:13Z</time>
   </trkpt>
   <trkpt lat="42.0564230" lon="2.7695610">
    <ele>325.3</ele>
    <time>2018-12-27T13:23:15Z</time>
   </trkpt>
   <trkpt lat="42.0563330" lon="2.7693760">
    <ele>325.7</ele>
    <time>2018-12-27T13:23:18Z</time>
   </trkpt>
   <trkpt lat="42.0562360" lon="2.7691750">
    <ele>325.8</ele>
    <time>2018-12-27T13:23:20Z</time>
   </trkpt>
   <trkpt lat="42.0560950" lon="2.7688800">
    <ele>325.7</ele>
    <time>2018-12-27T13:23:25Z</time>
   </trkpt>
   <trkpt lat="42.0560410" lon="2.7685680">
    <ele>325.5</ele>
    <time>2018-12-27T13:23:28Z</time>
   </trkpt>
   <trkpt lat="42.0560210" lon="2.7682050">
    <ele>324.7</ele>
    <time>2018-12-27T13:23:33Z</time>
   </trkpt>
   <trkpt lat="42.0560000" lon="2.7678310">
    <ele>323.7</ele>
    <time>2018-12-27T13:23:37Z</time>
   </trkpt>
   <trkpt lat="42.0560150" lon="2.7674580">
    <ele>322.8</ele>
    <time>2018-12-27T13:23:42Z</time>
   </trkpt>
   <trkpt lat="42.0560050" lon="2.7671200">
    <ele>321.7</ele>
    <time>2018-12-27T13:23:46Z</time>
   </trkpt>
   <trkpt lat="42.0554550" lon="2.7668580">
    <ele>317.1</ele>
    <time>2018-12-27T13:23:55Z</time>
   </trkpt>
   <trkpt lat="42.0552310" lon="2.7667560">
    <ele>315.2</ele>
    <time>2018-12-27T13:23:59Z</time>
   </trkpt>
   <trkpt lat="42.0550530" lon="2.7665550">
    <ele>313.6</ele>
    <time>2018-12-27T13:24:03Z</time>
   </trkpt>
   <trkpt lat="42.0549600" lon="2.7662410">
    <ele>312.2</ele>
    <time>2018-12-27T13:24:07Z</time>
   </trkpt>
   <trkpt lat="42.0549630" lon="2.7659980">
    <ele>311.0</ele>
    <time>2018-12-27T13:24:09Z</time>
   </trkpt>
   <trkpt lat="42.0550260" lon="2.7657050">
    <ele>309.1</ele>
    <time>2018-12-27T13:24:13Z</time>
   </trkpt>
   <trkpt lat="42.0551150" lon="2.7654530">
    <ele>307.2</ele>
    <time>2018-12-27T13:24:16Z</time>
   </trkpt>
   <trkpt lat="42.0551000" lon="2.7652780">
    <ele>306.4</ele>
    <time>2018-12-27T13:24:18Z</time>
   </trkpt>
   <trkpt lat="42.0548750" lon="2.7652300">
    <ele>305.0</ele>
    <time>2018-12-27T13:24:22Z</time>
   </trkpt>
   <trkpt lat="42.0546830" lon="2.7651460">
    <ele>304.4</ele>
    <time>2018-12-27T13:24:25Z</time>
   </trkpt>
   <trkpt lat="42.0545080" lon="2.7650000">
    <ele>303.4</ele>
    <time>2018-12-27T13:24:29Z</time>
   </trkpt>
   <trkpt lat="42.0544330" lon="2.7646930">
    <ele>302.3</ele>
    <time>2018-12-27T13:24:32Z</time>
   </trkpt>
   <trkpt lat="42.0545350" lon="2.7643730">
    <ele>300.8</ele>
    <time>2018-12-27T13:24:37Z</time>
   </trkpt>
   <trkpt lat="42.0546980" lon="2.7640880">
    <ele>299.0</ele>
    <time>2018-12-27T13:24:41Z</time>
   </trkpt>
   <trkpt lat="42.0548700" lon="2.7638010">
    <ele>298.2</ele>
    <time>2018-12-27T13:24:45Z</time>
   </trkpt>
   <trkpt lat="42.0550180" lon="2.7635910">
    <ele>297.9</ele>
    <time>2018-12-27T13:24:49Z</time>
   </trkpt>
   <trkpt lat="42.0550560" lon="2.7633610">
    <ele>294.2</ele>
    <time>2018-12-27T13:24:52Z</time>
   </trkpt>
   <trkpt lat="42.0548900" lon="2.7632350">
    <ele>292.2</ele>
    <time>2018-12-27T13:24:55Z</time>
   </trkpt>
   <trkpt lat="42.0547380" lon="2.7630930">
    <ele>290.3</ele>
    <time>2018-12-27T13:24:58Z</time>
   </trkpt>
   <trkpt lat="42.0546560" lon="2.7628530">
    <ele>288.2</ele>
    <time>2018-12-27T13:25:01Z</time>
   </trkpt>
   <trkpt lat="42.0546630" lon="2.7626100">
    <ele>286.3</ele>
    <time>2018-12-27T13:25:04Z</time>
   </trkpt>
   <trkpt lat="42.0547730" lon="2.7623950">
    <ele>284.5</ele>
    <time>2018-12-27T13:25:07Z</time>
   </trkpt>
   <trkpt lat="42.0549030" lon="2.7622110">
    <ele>282.6</ele>
    <time>2018-12-27T13:25:10Z</time>
   </trkpt>
   <trkpt lat="42.0550150" lon="2.7621410">
    <ele>281.3</ele>
    <time>2018-12-27T13:25:12Z</time>
   </trkpt>
   <trkpt lat="42.0551100" lon="2.7619660">
    <ele>280.8</ele>
    <time>2018-12-27T13:25:14Z</time>
   </trkpt>
   <trkpt lat="42.0551400" lon="2.7618000">
    <ele>280.5</ele>
    <time>2018-12-27T13:25:16Z</time>
   </trkpt>
   <trkpt lat="42.0550900" lon="2.7616150">
    <ele>280.0</ele>
    <time>2018-12-27T13:25:19Z</time>
   </trkpt>
   <trkpt lat="42.0550530" lon="2.7614480">
    <ele>279.6</ele>
    <time>2018-12-27T13:25:21Z</time>
   </trkpt>
   <trkpt lat="42.0551080" lon="2.7611880">
    <ele>278.6</ele>
    <time>2018-12-27T13:25:24Z</time>
   </trkpt>
   <trkpt lat="42.0551580" lon="2.7609800">
    <ele>277.7</ele>
    <time>2018-12-27T13:25:27Z</time>
   </trkpt>
   <trkpt lat="42.0552430" lon="2.7608300">
    <ele>277.2</ele>
    <time>2018-12-27T13:25:29Z</time>
   </trkpt>
   <trkpt lat="42.0553550" lon="2.7606960">
    <ele>276.9</ele>
    <time>2018-12-27T13:25:31Z</time>
   </trkpt>
   <trkpt lat="42.0554560" lon="2.7605980">
    <ele>277.0</ele>
    <time>2018-12-27T13:25:33Z</time>
   </trkpt>
   <trkpt lat="42.0555330" lon="2.7604600">
    <ele>277.1</ele>
    <time>2018-12-27T13:25:35Z</time>
   </trkpt>
   <trkpt lat="42.0555880" lon="2.7603280">
    <ele>277.4</ele>
    <time>2018-12-27T13:25:37Z</time>
   </trkpt>
   <trkpt lat="42.0556380" lon="2.7602100">
    <ele>277.7</ele>
    <time>2018-12-27T13:25:39Z</time>
   </trkpt>
   <trkpt lat="42.0556780" lon="2.7600780">
    <ele>278.2</ele>
    <time>2018-12-27T13:25:40Z</time>
   </trkpt>
   <trkpt lat="42.0557210" lon="2.7599330">
    <ele>278.7</ele>
    <time>2018-12-27T13:25:42Z</time>
   </trkpt>
   <trkpt lat="42.0557700" lon="2.7597900">
    <ele>279.3</ele>
    <time>2018-12-27T13:25:44Z</time>
   </trkpt>
   <trkpt lat="42.0558210" lon="2.7596550">
    <ele>279.6</ele>
    <time>2018-12-27T13:25:46Z</time>
   </trkpt>
   <trkpt lat="42.0558510" lon="2.7595130">
    <ele>279.6</ele>
    <time>2018-12-27T13:25:48Z</time>
   </trkpt>
   <trkpt lat="42.0558850" lon="2.7593830">
    <ele>280.1</ele>
    <time>2018-12-27T13:25:49Z</time>
   </trkpt>
   <trkpt lat="42.0559160" lon="2.7592800">
    <ele>280.7</ele>
    <time>2018-12-27T13:25:51Z</time>
   </trkpt>
   <trkpt lat="42.0559480" lon="2.7591680">
    <ele>281.7</ele>
    <time>2018-12-27T13:25:52Z</time>
   </trkpt>
   <trkpt lat="42.0559880" lon="2.7590330">
    <ele>283.1</ele>
    <time>2018-12-27T13:25:54Z</time>
   </trkpt>
   <trkpt lat="42.0560360" lon="2.7589000">
    <ele>284.7</ele>
    <time>2018-12-27T13:25:55Z</time>
   </trkpt>
   <trkpt lat="42.0560860" lon="2.7587800">
    <ele>286.1</ele>
    <time>2018-12-27T13:25:57Z</time>
   </trkpt>
   <trkpt lat="42.0561550" lon="2.7586630">
    <ele>286.9</ele>
    <time>2018-12-27T13:25:59Z</time>
   </trkpt>
   <trkpt lat="42.0562300" lon="2.7585500">
    <ele>287.5</ele>
    <time>2018-12-27T13:26:01Z</time>
   </trkpt>
   <trkpt lat="42.0562880" lon="2.7584160">
    <ele>287.9</ele>
    <time>2018-12-27T13:26:03Z</time>
   </trkpt>
   <trkpt lat="42.0563100" lon="2.7582710">
    <ele>288.2</ele>
    <time>2018-12-27T13:26:04Z</time>
   </trkpt>
   <trkpt lat="42.0563330" lon="2.7581200">
    <ele>288.6</ele>
    <time>2018-12-27T13:26:06Z</time>
   </trkpt>
   <trkpt lat="42.0563980" lon="2.7579800">
    <ele>288.8</ele>
    <time>2018-12-27T13:26:08Z</time>
   </trkpt>
   <trkpt lat="42.0564700" lon="2.7578730">
    <ele>289.0</ele>
    <time>2018-12-27T13:26:10Z</time>
   </trkpt>
   <trkpt lat="42.0565380" lon="2.7577480">
    <ele>289.1</ele>
    <time>2018-12-27T13:26:12Z</time>
   </trkpt>
   <trkpt lat="42.0565460" lon="2.7575910">
    <ele>289.0</ele>
    <time>2018-12-27T13:26:13Z</time>
   </trkpt>
   <trkpt lat="42.0565550" lon="2.7573860">
    <ele>288.7</ele>
    <time>2018-12-27T13:26:16Z</time>
   </trkpt>
   <trkpt lat="42.0565860" lon="2.7571930">
    <ele>288.3</ele>
    <time>2018-12-27T13:26:18Z</time>
   </trkpt>
   <trkpt lat="42.0566050" lon="2.7570180">
    <ele>288.1</ele>
    <time>2018-12-27T13:26:20Z</time>
   </trkpt>
   <trkpt lat="42.0566060" lon="2.7568680">
    <ele>288.1</ele>
    <time>2018-12-27T13:26:22Z</time>
   </trkpt>
   <trkpt lat="42.0566050" lon="2.7567300">
    <ele>288.2</ele>
    <time>2018-12-27T13:26:24Z</time>
   </trkpt>
   <trkpt lat="42.0566180" lon="2.7566010">
    <ele>288.3</ele>
    <time>2018-12-27T13:26:25Z</time>
   </trkpt>
   <trkpt lat="42.0566430" lon="2.7564550">
    <ele>288.5</ele>
    <time>2018-12-27T13:26:27Z</time>
   </trkpt>
   <trkpt lat="42.0566900" lon="2.7563430">
    <ele>288.9</ele>
    <time>2018-12-27T13:26:29Z</time>
   </trkpt>
   <trkpt lat="42.0567330" lon="2.7562360">
    <ele>289.6</ele>
    <time>2018-12-27T13:26:30Z</time>
   </trkpt>
   <trkpt lat="42.0567980" lon="2.7561550">
    <ele>290.8</ele>
    <time>2018-12-27T13:26:32Z</time>
   </trkpt>
   <trkpt lat="42.0568350" lon="2.7560250">
    <ele>292.3</ele>
    <time>2018-12-27T13:26:33Z</time>
   </trkpt>
   <trkpt lat="42.0568560" lon="2.7558830">
    <ele>293.6</ele>
    <time>2018-12-27T13:26:35Z</time>
   </trkpt>
   <trkpt lat="42.0568450" lon="2.7557310">
    <ele>294.7</ele>
    <time>2018-12-27T13:26:37Z</time>
   </trkpt>
   <trkpt lat="42.0568630" lon="2.7555580">
    <ele>295.6</ele>
    <time>2018-12-27T13:26:39Z</time>
   </trkpt>
   <trkpt lat="42.0568760" lon="2.7554130">
    <ele>296.2</ele>
    <time>2018-12-27T13:26:41Z</time>
   </trkpt>
   <trkpt lat="42.0568910" lon="2.7552550">
    <ele>296.7</ele>
    <time>2018-12-27T13:26:42Z</time>
   </trkpt>
   <trkpt lat="42.0568960" lon="2.7551260">
    <ele>297.1</ele>
    <time>2018-12-27T13:26:44Z</time>
   </trkpt>
   <trkpt lat="42.0568950" lon="2.7549810">
    <ele>297.6</ele>
    <time>2018-12-27T13:26:46Z</time>
   </trkpt>
   <trkpt lat="42.0568850" lon="2.7548400">
    <ele>298.3</ele>
    <time>2018-12-27T13:26:47Z</time>
   </trkpt>
   <trkpt lat="42.0568710" lon="2.7547000">
    <ele>299.2</ele>
    <time>2018-12-27T13:26:49Z</time>
   </trkpt>
   <trkpt lat="42.0568850" lon="2.7545550">
    <ele>300.3</ele>
    <time>2018-12-27T13:26:51Z</time>
   </trkpt>
   <trkpt lat="42.0568810" lon="2.7544400">
    <ele>301.4</ele>
    <time>2018-12-27T13:26:52Z</time>
   </trkpt>
  </trkseg>
 </trk>
</gpx>
